<?xml version='1.0' encoding='UTF-8'?><gpx version="1.1" creator="JPX - https://github.com/jenetics/jpx" xmlns="http://www.topografix.com/GPX/1/1"><trk><trkseg><trkpt lat="42.02169" lon="11.9673633"><ele>12.999999999999998</ele><time>2026-05-03T07:00:31.489Z</time></trkpt><trkpt lat="42.0216467" lon="11.9674617"><ele>13.0</ele><time>2026-05-03T07:00:34.493Z</time></trkpt><trkpt lat="42.021665" lon="11.967555"><ele>13.0</ele><time>2026-05-03T07:00:36.551Z</time></trkpt><trkpt lat="42.02176" lon="11.96767"><ele>13.0</ele><time>2026-05-03T07:00:38.496Z</time></trkpt><trkpt lat="42.0218233" lon="11.9677317"><ele>12.999999999999998</ele><time>2026-05-03T07:00:39.491Z</time></trkpt><trkpt lat="42.0218867" lon="11.9677883"><ele>13.0</ele><time>2026-05-03T07:00:40.49Z</time></trkpt><trkpt lat="42.0219517" lon="11.9678383"><ele>13.166666666666666</ele><time>2026-05-03T07:00:41.49Z</time></trkpt><trkpt lat="42.0220183" lon="11.967885"><ele>13.333333333333332</ele><time>2026-05-03T07:00:42.546Z</time></trkpt><trkpt lat="42.0220883" lon="11.9679383"><ele>13.5</ele><time>2026-05-03T07:00:43.489Z</time></trkpt><trkpt lat="42.0221583" lon="11.9679933"><ele>13.666666666666668</ele><time>2026-05-03T07:00:44.496Z</time></trkpt><trkpt lat="42.02223" lon="11.9680517"><ele>13.833333333333334</ele><time>2026-05-03T07:00:45.488Z</time></trkpt><trkpt lat="42.022305" lon="11.968115"><ele>14.0</ele><time>2026-05-03T07:00:46.492Z</time></trkpt><trkpt lat="42.0223783" lon="11.96818"><ele>14.000000000000002</ele><time>2026-05-03T07:00:47.494Z</time></trkpt><trkpt lat="42.02244" lon="11.968235"><ele>14.0</ele><time>2026-05-03T07:00:48.553Z</time></trkpt><trkpt lat="42.0225467" lon="11.9682767"><ele>14.0</ele><time>2026-05-03T07:00:50.495Z</time></trkpt><trkpt lat="42.0226433" lon="11.968185"><ele>14.0</ele><time>2026-05-03T07:00:52.489Z</time></trkpt><trkpt lat="42.0226967" lon="11.9681267"><ele>14.000000000000002</ele><time>2026-05-03T07:00:53.488Z</time></trkpt><trkpt lat="42.0227517" lon="11.968065"><ele>14.0</ele><time>2026-05-03T07:00:54.489Z</time></trkpt><trkpt lat="42.0228117" lon="11.968"><ele>14.000000000000002</ele><time>2026-05-03T07:00:55.488Z</time></trkpt><trkpt lat="42.022875" lon="11.9679333"><ele>14.0</ele><time>2026-05-03T07:00:56.49Z</time></trkpt><trkpt lat="42.0229383" lon="11.96787"><ele>14.0</ele><time>2026-05-03T07:00:57.49Z</time></trkpt><trkpt lat="42.0229967" lon="11.96781"><ele>14.0</ele><time>2026-05-03T07:00:58.497Z</time></trkpt><trkpt lat="42.0230517" lon="11.96775"><ele>14.000000000000002</ele><time>2026-05-03T07:00:59.495Z</time></trkpt><trkpt lat="42.0231117" lon="11.967685"><ele>14.0</ele><time>2026-05-03T07:01:00.496Z</time></trkpt><trkpt lat="42.0231733" lon="11.9676233"><ele>14.000000000000002</ele><time>2026-05-03T07:01:01.49Z</time></trkpt><trkpt lat="42.0232367" lon="11.96756"><ele>14.0</ele><time>2026-05-03T07:01:02.489Z</time></trkpt><trkpt lat="42.0233" lon="11.9674983"><ele>14.0</ele><time>2026-05-03T07:01:03.493Z</time></trkpt><trkpt lat="42.0233617" lon="11.9674317"><ele>14.0</ele><time>2026-05-03T07:01:04.494Z</time></trkpt><trkpt lat="42.023425" lon="11.9673667"><ele>14.000000000000002</ele><time>2026-05-03T07:01:05.494Z</time></trkpt><trkpt lat="42.02349" lon="11.9673017"><ele>14.0</ele><time>2026-05-03T07:01:06.543Z</time></trkpt><trkpt lat="42.0235583" lon="11.967235"><ele>14.333333333333334</ele><time>2026-05-03T07:01:07.489Z</time></trkpt><trkpt lat="42.0236217" lon="11.9671667"><ele>14.666666666666668</ele><time>2026-05-03T07:01:08.492Z</time></trkpt><trkpt lat="42.0236883" lon="11.9671"><ele>15.0</ele><time>2026-05-03T07:01:09.488Z</time></trkpt><trkpt lat="42.0237583" lon="11.9670317"><ele>15.333333333333332</ele><time>2026-05-03T07:01:10.493Z</time></trkpt><trkpt lat="42.023825" lon="11.9669633"><ele>15.666666666666666</ele><time>2026-05-03T07:01:11.485Z</time></trkpt><trkpt lat="42.0238867" lon="11.9668967"><ele>16.0</ele><time>2026-05-03T07:01:12.544Z</time></trkpt><trkpt lat="42.023945" lon="11.966825"><ele>15.999999999999998</ele><time>2026-05-03T07:01:13.486Z</time></trkpt><trkpt lat="42.024" lon="11.9667433"><ele>16.0</ele><time>2026-05-03T07:01:14.489Z</time></trkpt><trkpt lat="42.024055" lon="11.966655"><ele>16.0</ele><time>2026-05-03T07:01:15.494Z</time></trkpt><trkpt lat="42.0241067" lon="11.966565"><ele>16.0</ele><time>2026-05-03T07:01:16.499Z</time></trkpt><trkpt lat="42.02416" lon="11.96647"><ele>15.999999999999998</ele><time>2026-05-03T07:01:17.499Z</time></trkpt><trkpt lat="42.024215" lon="11.9663733"><ele>16.0</ele><time>2026-05-03T07:01:18.546Z</time></trkpt><trkpt lat="42.02427" lon="11.966275"><ele>16.0</ele><time>2026-05-03T07:01:19.493Z</time></trkpt><trkpt lat="42.0243267" lon="11.9661783"><ele>16.0</ele><time>2026-05-03T07:01:20.487Z</time></trkpt><trkpt lat="42.0243833" lon="11.966085"><ele>16.0</ele><time>2026-05-03T07:01:21.49Z</time></trkpt><trkpt lat="42.0244417" lon="11.9659883"><ele>16.0</ele><time>2026-05-03T07:01:22.491Z</time></trkpt><trkpt lat="42.0244983" lon="11.9658917"><ele>16.0</ele><time>2026-05-03T07:01:23.491Z</time></trkpt><trkpt lat="42.024555" lon="11.965795"><ele>16.2</ele><time>2026-05-03T07:01:24.5Z</time></trkpt><trkpt lat="42.0246117" lon="11.9657"><ele>16.400000000000002</ele><time>2026-05-03T07:01:25.489Z</time></trkpt><trkpt lat="42.02467" lon="11.9656033"><ele>16.6</ele><time>2026-05-03T07:01:26.493Z</time></trkpt><trkpt lat="42.0247317" lon="11.9655033"><ele>16.8</ele><time>2026-05-03T07:01:27.491Z</time></trkpt><trkpt lat="42.024795" lon="11.9653983"><ele>17.0</ele><time>2026-05-03T07:01:28.489Z</time></trkpt><trkpt lat="42.02486" lon="11.96529"><ele>17.0</ele><time>2026-05-03T07:01:29.49Z</time></trkpt><trkpt lat="42.02493" lon="11.9651733"><ele>17.0</ele><time>2026-05-03T07:01:30.496Z</time></trkpt><trkpt lat="42.025005" lon="11.9650433"><ele>17.0</ele><time>2026-05-03T07:01:31.493Z</time></trkpt><trkpt lat="42.0250833" lon="11.9649117"><ele>17.0</ele><time>2026-05-03T07:01:32.492Z</time></trkpt><trkpt lat="42.025165" lon="11.9647767"><ele>16.5</ele><time>2026-05-03T07:01:33.494Z</time></trkpt><trkpt lat="42.0252433" lon="11.964645"><ele>16.0</ele><time>2026-05-03T07:01:34.492Z</time></trkpt><trkpt lat="42.0253217" lon="11.9645117"><ele>15.5</ele><time>2026-05-03T07:01:35.489Z</time></trkpt><trkpt lat="42.025405" lon="11.964375"><ele>15.0</ele><time>2026-05-03T07:01:36.549Z</time></trkpt><trkpt lat="42.0254867" lon="11.9642383"><ele>14.75</ele><time>2026-05-03T07:01:37.49Z</time></trkpt><trkpt lat="42.0255683" lon="11.9641017"><ele>14.5</ele><time>2026-05-03T07:01:38.493Z</time></trkpt><trkpt lat="42.0256483" lon="11.96397"><ele>14.25</ele><time>2026-05-03T07:01:39.492Z</time></trkpt><trkpt lat="42.02573" lon="11.9638367"><ele>14.0</ele><time>2026-05-03T07:01:40.496Z</time></trkpt><trkpt lat="42.0258133" lon="11.963705"><ele>14.0</ele><time>2026-05-03T07:01:41.5Z</time></trkpt><trkpt lat="42.0258967" lon="11.9635667"><ele>14.0</ele><time>2026-05-03T07:01:42.549Z</time></trkpt><trkpt lat="42.0259767" lon="11.9634317"><ele>14.0</ele><time>2026-05-03T07:01:43.484Z</time></trkpt><trkpt lat="42.0260533" lon="11.9633033"><ele>14.0</ele><time>2026-05-03T07:01:44.494Z</time></trkpt><trkpt lat="42.0261283" lon="11.9631767"><ele>14.25</ele><time>2026-05-03T07:01:45.49Z</time></trkpt><trkpt lat="42.0262017" lon="11.96305"><ele>14.5</ele><time>2026-05-03T07:01:46.495Z</time></trkpt><trkpt lat="42.026275" lon="11.9629217"><ele>14.75</ele><time>2026-05-03T07:01:47.497Z</time></trkpt><trkpt lat="42.0263483" lon="11.9627933"><ele>15.0</ele><time>2026-05-03T07:01:48.543Z</time></trkpt><trkpt lat="42.026425" lon="11.9626633"><ele>15.0</ele><time>2026-05-03T07:01:49.489Z</time></trkpt><trkpt lat="42.0265033" lon="11.9625317"><ele>15.0</ele><time>2026-05-03T07:01:50.49Z</time></trkpt><trkpt lat="42.0265867" lon="11.9624017"><ele>15.0</ele><time>2026-05-03T07:01:51.491Z</time></trkpt><trkpt lat="42.02667" lon="11.9622683"><ele>15.0</ele><time>2026-05-03T07:01:52.489Z</time></trkpt><trkpt lat="42.0267533" lon="11.96213"><ele>15.0</ele><time>2026-05-03T07:01:53.497Z</time></trkpt><trkpt lat="42.02684" lon="11.96199"><ele>15.0</ele><time>2026-05-03T07:01:54.49Z</time></trkpt><trkpt lat="42.026925" lon="11.96185"><ele>15.0</ele><time>2026-05-03T07:01:55.496Z</time></trkpt><trkpt lat="42.0270083" lon="11.96171"><ele>15.0</ele><time>2026-05-03T07:01:56.493Z</time></trkpt><trkpt lat="42.0270883" lon="11.9615733"><ele>14.5</ele><time>2026-05-03T07:01:57.49Z</time></trkpt><trkpt lat="42.0271683" lon="11.96144"><ele>14.0</ele><time>2026-05-03T07:01:58.494Z</time></trkpt><trkpt lat="42.0272433" lon="11.9613083"><ele>13.5</ele><time>2026-05-03T07:01:59.491Z</time></trkpt><trkpt lat="42.02732" lon="11.9611733"><ele>13.0</ele><time>2026-05-03T07:02:00.494Z</time></trkpt><trkpt lat="42.0274" lon="11.9610383"><ele>13.0</ele><time>2026-05-03T07:02:01.489Z</time></trkpt><trkpt lat="42.0274817" lon="11.9608983"><ele>13.0</ele><time>2026-05-03T07:02:02.49Z</time></trkpt><trkpt lat="42.0275683" lon="11.9607567"><ele>13.0</ele><time>2026-05-03T07:02:03.493Z</time></trkpt><trkpt lat="42.02765" lon="11.9606217"><ele>13.0</ele><time>2026-05-03T07:02:04.489Z</time></trkpt><trkpt lat="42.0277267" lon="11.9604933"><ele>13.0</ele><time>2026-05-03T07:02:05.494Z</time></trkpt><trkpt lat="42.0278" lon="11.9603683"><ele>13.0</ele><time>2026-05-03T07:02:06.545Z</time></trkpt><trkpt lat="42.027875" lon="11.9602417"><ele>13.0</ele><time>2026-05-03T07:02:07.494Z</time></trkpt><trkpt lat="42.0279517" lon="11.960115"><ele>13.0</ele><time>2026-05-03T07:02:08.494Z</time></trkpt><trkpt lat="42.0280283" lon="11.9599883"><ele>13.25</ele><time>2026-05-03T07:02:09.49Z</time></trkpt><trkpt lat="42.028105" lon="11.9598633"><ele>13.5</ele><time>2026-05-03T07:02:10.499Z</time></trkpt><trkpt lat="42.0281783" lon="11.9597383"><ele>13.75</ele><time>2026-05-03T07:02:11.494Z</time></trkpt><trkpt lat="42.0282533" lon="11.95961"><ele>14.0</ele><time>2026-05-03T07:02:12.549Z</time></trkpt><trkpt lat="42.0283283" lon="11.9594767"><ele>14.0</ele><time>2026-05-03T07:02:13.49Z</time></trkpt><trkpt lat="42.028405" lon="11.9593383"><ele>14.0</ele><time>2026-05-03T07:02:14.494Z</time></trkpt><trkpt lat="42.028485" lon="11.9591983"><ele>14.0</ele><time>2026-05-03T07:02:15.493Z</time></trkpt><trkpt lat="42.02856" lon="11.95907"><ele>14.0</ele><time>2026-05-03T07:02:16.492Z</time></trkpt><trkpt lat="42.0286267" lon="11.958955"><ele>13.6</ele><time>2026-05-03T07:02:17.499Z</time></trkpt><trkpt lat="42.0286883" lon="11.95885"><ele>13.2</ele><time>2026-05-03T07:02:18.545Z</time></trkpt><trkpt lat="42.0287517" lon="11.95874"><ele>12.799999999999999</ele><time>2026-05-03T07:02:19.492Z</time></trkpt><trkpt lat="42.02882" lon="11.9586317"><ele>12.399999999999999</ele><time>2026-05-03T07:02:20.495Z</time></trkpt><trkpt lat="42.02889" lon="11.9585217"><ele>12.0</ele><time>2026-05-03T07:02:21.495Z</time></trkpt><trkpt lat="42.02896" lon="11.958415"><ele>12.0</ele><time>2026-05-03T07:02:22.492Z</time></trkpt><trkpt lat="42.0290267" lon="11.9583133"><ele>12.0</ele><time>2026-05-03T07:02:23.496Z</time></trkpt><trkpt lat="42.02909" lon="11.958215"><ele>12.0</ele><time>2026-05-03T07:02:24.559Z</time></trkpt><trkpt lat="42.0291433" lon="11.9581117"><ele>12.0</ele><time>2026-05-03T07:02:25.488Z</time></trkpt><trkpt lat="42.02919" lon="11.9580067"><ele>12.0</ele><time>2026-05-03T07:02:26.495Z</time></trkpt><trkpt lat="42.0292367" lon="11.957895"><ele>12.399999999999999</ele><time>2026-05-03T07:02:27.498Z</time></trkpt><trkpt lat="42.0292867" lon="11.9577667"><ele>12.799999999999999</ele><time>2026-05-03T07:02:28.494Z</time></trkpt><trkpt lat="42.0293333" lon="11.9576367"><ele>13.2</ele><time>2026-05-03T07:02:29.49Z</time></trkpt><trkpt lat="42.029375" lon="11.95751"><ele>13.6</ele><time>2026-05-03T07:02:30.495Z</time></trkpt><trkpt lat="42.0294167" lon="11.957375"><ele>14.0</ele><time>2026-05-03T07:02:31.487Z</time></trkpt><trkpt lat="42.02945" lon="11.9572433"><ele>14.0</ele><time>2026-05-03T07:02:32.491Z</time></trkpt><trkpt lat="42.0294783" lon="11.9571183"><ele>13.999999999999998</ele><time>2026-05-03T07:02:33.493Z</time></trkpt><trkpt lat="42.0295017" lon="11.9569917"><ele>13.999999999999998</ele><time>2026-05-03T07:02:34.489Z</time></trkpt><trkpt lat="42.0295167" lon="11.95686"><ele>14.0</ele><time>2026-05-03T07:02:35.489Z</time></trkpt><trkpt lat="42.0295283" lon="11.9567183"><ele>14.0</ele><time>2026-05-03T07:02:36.544Z</time></trkpt><trkpt lat="42.0295383" lon="11.95658"><ele>14.000000000000002</ele><time>2026-05-03T07:02:37.488Z</time></trkpt><trkpt lat="42.0295417" lon="11.9564533"><ele>14.0</ele><time>2026-05-03T07:02:38.49Z</time></trkpt><trkpt lat="42.0295367" lon="11.9563317"><ele>14.0</ele><time>2026-05-03T07:02:39.495Z</time></trkpt><trkpt lat="42.0295283" lon="11.956215"><ele>14.0</ele><time>2026-05-03T07:02:40.498Z</time></trkpt><trkpt lat="42.0295217" lon="11.9561067"><ele>14.000000000000002</ele><time>2026-05-03T07:02:41.488Z</time></trkpt><trkpt lat="42.0295233" lon="11.9560033"><ele>14.0</ele><time>2026-05-03T07:02:42.548Z</time></trkpt><trkpt lat="42.0295417" lon="11.9559"><ele>13.799999999999999</ele><time>2026-05-03T07:02:43.484Z</time></trkpt><trkpt lat="42.02958" lon="11.9557883"><ele>13.599999999999998</ele><time>2026-05-03T07:02:44.492Z</time></trkpt><trkpt lat="42.0296217" lon="11.95567"><ele>13.4</ele><time>2026-05-03T07:02:45.495Z</time></trkpt><trkpt lat="42.0296633" lon="11.95555"><ele>13.2</ele><time>2026-05-03T07:02:46.493Z</time></trkpt><trkpt lat="42.0297017" lon="11.9554383"><ele>13.0</ele><time>2026-05-03T07:02:47.487Z</time></trkpt><trkpt lat="42.0297383" lon="11.9553333"><ele>12.999999999999998</ele><time>2026-05-03T07:02:48.539Z</time></trkpt><trkpt lat="42.029775" lon="11.9552267"><ele>13.0</ele><time>2026-05-03T07:02:49.488Z</time></trkpt><trkpt lat="42.0298033" lon="11.955115"><ele>13.0</ele><time>2026-05-03T07:02:50.495Z</time></trkpt><trkpt lat="42.0298283" lon="11.9550033"><ele>13.0</ele><time>2026-05-03T07:02:51.492Z</time></trkpt><trkpt lat="42.0298617" lon="11.9548967"><ele>12.999999999999998</ele><time>2026-05-03T07:02:52.494Z</time></trkpt><trkpt lat="42.0299017" lon="11.9547883"><ele>13.0</ele><time>2026-05-03T07:02:53.493Z</time></trkpt><trkpt lat="42.029945" lon="11.954685"><ele>13.666666666666666</ele><time>2026-05-03T07:02:54.494Z</time></trkpt><trkpt lat="42.02999" lon="11.954595"><ele>14.333333333333332</ele><time>2026-05-03T07:02:55.502Z</time></trkpt><trkpt lat="42.0300367" lon="11.9545133"><ele>15.0</ele><time>2026-05-03T07:02:56.489Z</time></trkpt><trkpt lat="42.0300817" lon="11.9544333"><ele>15.666666666666668</ele><time>2026-05-03T07:02:57.501Z</time></trkpt><trkpt lat="42.0301183" lon="11.954355"><ele>16.333333333333336</ele><time>2026-05-03T07:02:58.494Z</time></trkpt><trkpt lat="42.0301467" lon="11.9542767"><ele>17.0</ele><time>2026-05-03T07:02:59.489Z</time></trkpt><trkpt lat="42.0301933" lon="11.9541417"><ele>17.0</ele><time>2026-05-03T07:03:01.494Z</time></trkpt><trkpt lat="42.03024" lon="11.954005"><ele>17.0</ele><time>2026-05-03T07:03:03.488Z</time></trkpt><trkpt lat="42.0302867" lon="11.9538633"><ele>17.0</ele><time>2026-05-03T07:03:05.495Z</time></trkpt><trkpt lat="42.03033" lon="11.9537217"><ele>17.0</ele><time>2026-05-03T07:03:07.488Z</time></trkpt><trkpt lat="42.03038" lon="11.953575"><ele>17.0</ele><time>2026-05-03T07:03:09.494Z</time></trkpt><trkpt lat="42.03043" lon="11.9534333"><ele>17.0</ele><time>2026-05-03T07:03:11.494Z</time></trkpt><trkpt lat="42.030475" lon="11.9533"><ele>17.0</ele><time>2026-05-03T07:03:13.494Z</time></trkpt><trkpt lat="42.0305217" lon="11.9531617"><ele>17.0</ele><time>2026-05-03T07:03:15.501Z</time></trkpt><trkpt lat="42.0305633" lon="11.9530233"><ele>17.0</ele><time>2026-05-03T07:03:17.49Z</time></trkpt><trkpt lat="42.030605" lon="11.95289"><ele>16.25</ele><time>2026-05-03T07:03:19.484Z</time></trkpt><trkpt lat="42.0306483" lon="11.9527517"><ele>15.5</ele><time>2026-05-03T07:03:21.493Z</time></trkpt><trkpt lat="42.030695" lon="11.9526"><ele>14.75</ele><time>2026-05-03T07:03:23.49Z</time></trkpt><trkpt lat="42.0307433" lon="11.95245"><ele>14.0</ele><time>2026-05-03T07:03:25.491Z</time></trkpt><trkpt lat="42.0307917" lon="11.9522967"><ele>14.5</ele><time>2026-05-03T07:03:27.494Z</time></trkpt><trkpt lat="42.0308383" lon="11.95215"><ele>15.0</ele><time>2026-05-03T07:03:29.495Z</time></trkpt><trkpt lat="42.03088" lon="11.95201"><ele>15.5</ele><time>2026-05-03T07:03:31.493Z</time></trkpt><trkpt lat="42.030925" lon="11.9518617"><ele>16.0</ele><time>2026-05-03T07:03:33.49Z</time></trkpt><trkpt lat="42.0309733" lon="11.9517167"><ele>15.5</ele><time>2026-05-03T07:03:35.495Z</time></trkpt><trkpt lat="42.0310167" lon="11.9515817"><ele>15.0</ele><time>2026-05-03T07:03:37.489Z</time></trkpt><trkpt lat="42.031065" lon="11.95144"><ele>14.5</ele><time>2026-05-03T07:03:39.491Z</time></trkpt><trkpt lat="42.0311117" lon="11.9513"><ele>14.0</ele><time>2026-05-03T07:03:41.489Z</time></trkpt><trkpt lat="42.0311567" lon="11.9511617"><ele>14.0</ele><time>2026-05-03T07:03:43.491Z</time></trkpt><trkpt lat="42.0312067" lon="11.9510133"><ele>14.0</ele><time>2026-05-03T07:03:45.494Z</time></trkpt><trkpt lat="42.0312567" lon="11.95087"><ele>14.0</ele><time>2026-05-03T07:03:47.492Z</time></trkpt><trkpt lat="42.0313067" lon="11.9507267"><ele>14.0</ele><time>2026-05-03T07:03:49.488Z</time></trkpt><trkpt lat="42.0313567" lon="11.9505783"><ele>14.0</ele><time>2026-05-03T07:03:51.492Z</time></trkpt><trkpt lat="42.031405" lon="11.9504383"><ele>13.999999999999998</ele><time>2026-05-03T07:03:53.491Z</time></trkpt><trkpt lat="42.0314467" lon="11.9503067"><ele>13.999999999999998</ele><time>2026-05-03T07:03:55.492Z</time></trkpt><trkpt lat="42.0314833" lon="11.950195"><ele>14.0</ele><time>2026-05-03T07:03:57.491Z</time></trkpt><trkpt lat="42.031525" lon="11.95007"><ele>14.0</ele><time>2026-05-03T07:03:59.493Z</time></trkpt><trkpt lat="42.0315667" lon="11.9499383"><ele>14.0</ele><time>2026-05-03T07:04:01.491Z</time></trkpt><trkpt lat="42.0316083" lon="11.949805"><ele>13.999999999999998</ele><time>2026-05-03T07:04:03.49Z</time></trkpt><trkpt lat="42.0316467" lon="11.9496833"><ele>13.999999999999998</ele><time>2026-05-03T07:04:05.492Z</time></trkpt><trkpt lat="42.0316817" lon="11.9495583"><ele>14.0</ele><time>2026-05-03T07:04:07.492Z</time></trkpt><trkpt lat="42.031725" lon="11.9494233"><ele>14.0</ele><time>2026-05-03T07:04:09.49Z</time></trkpt><trkpt lat="42.031775" lon="11.9492833"><ele>14.0</ele><time>2026-05-03T07:04:11.495Z</time></trkpt><trkpt lat="42.0318183" lon="11.9491483"><ele>13.999999999999998</ele><time>2026-05-03T07:04:13.487Z</time></trkpt><trkpt lat="42.0318533" lon="11.9490417"><ele>13.999999999999998</ele><time>2026-05-03T07:04:15.494Z</time></trkpt><trkpt lat="42.03189" lon="11.9489267"><ele>14.0</ele><time>2026-05-03T07:04:17.493Z</time></trkpt><trkpt lat="42.0319333" lon="11.9488017"><ele>14.0</ele><time>2026-05-03T07:04:19.493Z</time></trkpt><trkpt lat="42.0319717" lon="11.9486783"><ele>14.0</ele><time>2026-05-03T07:04:21.497Z</time></trkpt><trkpt lat="42.0320183" lon="11.9485517"><ele>13.999999999999998</ele><time>2026-05-03T07:04:23.486Z</time></trkpt><trkpt lat="42.0320633" lon="11.948445"><ele>13.999999999999998</ele><time>2026-05-03T07:04:25.49Z</time></trkpt><trkpt lat="42.0321083" lon="11.9483267"><ele>14.0</ele><time>2026-05-03T07:04:27.49Z</time></trkpt><trkpt lat="42.0321633" lon="11.9482017"><ele>14.0</ele><time>2026-05-03T07:04:29.491Z</time></trkpt><trkpt lat="42.03223" lon="11.9480667"><ele>13.799999999999999</ele><time>2026-05-03T07:04:31.491Z</time></trkpt><trkpt lat="42.0322667" lon="11.9479967"><ele>13.599999999999998</ele><time>2026-05-03T07:04:32.496Z</time></trkpt><trkpt lat="42.03234" lon="11.94786"><ele>13.4</ele><time>2026-05-03T07:04:34.491Z</time></trkpt><trkpt lat="42.0324083" lon="11.9477233"><ele>13.2</ele><time>2026-05-03T07:04:36.55Z</time></trkpt><trkpt lat="42.0324667" lon="11.9475767"><ele>13.0</ele><time>2026-05-03T07:04:38.487Z</time></trkpt><trkpt lat="42.0325267" lon="11.947435"><ele>13.0</ele><time>2026-05-03T07:04:40.494Z</time></trkpt><trkpt lat="42.03262" lon="11.9473267"><ele>13.0</ele><time>2026-05-03T07:04:42.553Z</time></trkpt><trkpt lat="42.032675" lon="11.9472717"><ele>13.0</ele><time>2026-05-03T07:04:43.486Z</time></trkpt><trkpt lat="42.0327267" lon="11.9472167"><ele>13.0</ele><time>2026-05-03T07:04:44.492Z</time></trkpt><trkpt lat="42.0328033" lon="11.9471067"><ele>13.0</ele><time>2026-05-03T07:04:46.489Z</time></trkpt><trkpt lat="42.0328733" lon="11.9469917"><ele>12.999999999999998</ele><time>2026-05-03T07:04:48.55Z</time></trkpt><trkpt lat="42.03295" lon="11.9468567"><ele>13.0</ele><time>2026-05-03T07:04:50.496Z</time></trkpt><trkpt lat="42.0329917" lon="11.946785"><ele>13.0</ele><time>2026-05-03T07:04:51.492Z</time></trkpt><trkpt lat="42.033035" lon="11.9467117"><ele>13.0</ele><time>2026-05-03T07:04:52.491Z</time></trkpt><trkpt lat="42.0330783" lon="11.9466417"><ele>12.999999999999998</ele><time>2026-05-03T07:04:53.494Z</time></trkpt><trkpt lat="42.03312" lon="11.94657"><ele>13.0</ele><time>2026-05-03T07:04:54.556Z</time></trkpt><trkpt lat="42.033165" lon="11.9464933"><ele>12.857142857142856</ele><time>2026-05-03T07:04:55.491Z</time></trkpt><trkpt lat="42.03321" lon="11.9464167"><ele>12.714285714285715</ele><time>2026-05-03T07:04:56.491Z</time></trkpt><trkpt lat="42.0332567" lon="11.9463383"><ele>12.571428571428571</ele><time>2026-05-03T07:04:57.492Z</time></trkpt><trkpt lat="42.0333017" lon="11.9462583"><ele>12.428571428571427</ele><time>2026-05-03T07:04:58.493Z</time></trkpt><trkpt lat="42.0333433" lon="11.9461767"><ele>12.285714285714285</ele><time>2026-05-03T07:04:59.494Z</time></trkpt><trkpt lat="42.0333833" lon="11.9460983"><ele>12.142857142857142</ele><time>2026-05-03T07:05:00.494Z</time></trkpt><trkpt lat="42.033425" lon="11.9460233"><ele>12.0</ele><time>2026-05-03T07:05:01.491Z</time></trkpt><trkpt lat="42.0334683" lon="11.94595"><ele>12.428571428571427</ele><time>2026-05-03T07:05:02.492Z</time></trkpt><trkpt lat="42.0335133" lon="11.9458783"><ele>12.857142857142858</ele><time>2026-05-03T07:05:03.49Z</time></trkpt><trkpt lat="42.03356" lon="11.9458083"><ele>13.285714285714285</ele><time>2026-05-03T07:05:04.491Z</time></trkpt><trkpt lat="42.033605" lon="11.9457367"><ele>13.714285714285714</ele><time>2026-05-03T07:05:05.492Z</time></trkpt><trkpt lat="42.0336483" lon="11.945665"><ele>14.142857142857142</ele><time>2026-05-03T07:05:06.545Z</time></trkpt><trkpt lat="42.033695" lon="11.9455933"><ele>14.571428571428571</ele><time>2026-05-03T07:05:07.488Z</time></trkpt><trkpt lat="42.03374" lon="11.945515"><ele>15.0</ele><time>2026-05-03T07:05:08.491Z</time></trkpt><trkpt lat="42.0337783" lon="11.9454417"><ele>15.0</ele><time>2026-05-03T07:05:09.491Z</time></trkpt><trkpt lat="42.0338367" lon="11.94532"><ele>15.0</ele><time>2026-05-03T07:05:11.49Z</time></trkpt><trkpt lat="42.0338883" lon="11.945185"><ele>15.0</ele><time>2026-05-03T07:05:13.486Z</time></trkpt><trkpt lat="42.0339333" lon="11.9450183"><ele>15.0</ele><time>2026-05-03T07:05:15.489Z</time></trkpt><trkpt lat="42.0339583" lon="11.94492"><ele>15.0</ele><time>2026-05-03T07:05:16.494Z</time></trkpt><trkpt lat="42.0339817" lon="11.94482"><ele>14.833333333333334</ele><time>2026-05-03T07:05:17.494Z</time></trkpt><trkpt lat="42.0340017" lon="11.9447183"><ele>14.666666666666668</ele><time>2026-05-03T07:05:18.547Z</time></trkpt><trkpt lat="42.0340183" lon="11.9446217"><ele>14.5</ele><time>2026-05-03T07:05:19.489Z</time></trkpt><trkpt lat="42.0340333" lon="11.944535"><ele>14.333333333333334</ele><time>2026-05-03T07:05:20.494Z</time></trkpt><trkpt lat="42.0340517" lon="11.9443817"><ele>14.166666666666668</ele><time>2026-05-03T07:05:22.493Z</time></trkpt><trkpt lat="42.0340533" lon="11.9442917"><ele>14.0</ele><time>2026-05-03T07:05:23.493Z</time></trkpt><trkpt lat="42.0340517" lon="11.9441933"><ele>14.000000000000002</ele><time>2026-05-03T07:05:24.491Z</time></trkpt><trkpt lat="42.034045" lon="11.9440883"><ele>14.0</ele><time>2026-05-03T07:05:25.497Z</time></trkpt><trkpt lat="42.0340367" lon="11.9439817"><ele>14.0</ele><time>2026-05-03T07:05:26.491Z</time></trkpt><trkpt lat="42.034025" lon="11.9438717"><ele>14.0</ele><time>2026-05-03T07:05:27.486Z</time></trkpt><trkpt lat="42.03401" lon="11.94376"><ele>14.000000000000002</ele><time>2026-05-03T07:05:28.493Z</time></trkpt><trkpt lat="42.03399" lon="11.9436517"><ele>14.0</ele><time>2026-05-03T07:05:29.497Z</time></trkpt><trkpt lat="42.03397" lon="11.9435517"><ele>14.000000000000002</ele><time>2026-05-03T07:05:30.491Z</time></trkpt><trkpt lat="42.0339417" lon="11.943455"><ele>14.0</ele><time>2026-05-03T07:05:31.494Z</time></trkpt><trkpt lat="42.0339083" lon="11.9433617"><ele>14.0</ele><time>2026-05-03T07:05:32.491Z</time></trkpt><trkpt lat="42.033875" lon="11.9432683"><ele>14.0</ele><time>2026-05-03T07:05:33.49Z</time></trkpt><trkpt lat="42.0338467" lon="11.9431767"><ele>14.000000000000002</ele><time>2026-05-03T07:05:34.49Z</time></trkpt><trkpt lat="42.0338183" lon="11.9430933"><ele>14.0</ele><time>2026-05-03T07:05:35.487Z</time></trkpt><trkpt lat="42.0337733" lon="11.9429583"><ele>13.6</ele><time>2026-05-03T07:05:37.487Z</time></trkpt><trkpt lat="42.0337367" lon="11.9428233"><ele>13.2</ele><time>2026-05-03T07:05:39.496Z</time></trkpt><trkpt lat="42.0337083" lon="11.9427"><ele>12.799999999999999</ele><time>2026-05-03T07:05:41.496Z</time></trkpt><trkpt lat="42.0336683" lon="11.94256"><ele>12.399999999999999</ele><time>2026-05-03T07:05:43.495Z</time></trkpt><trkpt lat="42.0336383" lon="11.9424767"><ele>12.0</ele><time>2026-05-03T07:05:44.494Z</time></trkpt><trkpt lat="42.0336067" lon="11.9423883"><ele>12.0</ele><time>2026-05-03T07:05:45.491Z</time></trkpt><trkpt lat="42.0335717" lon="11.9422983"><ele>12.0</ele><time>2026-05-03T07:05:46.493Z</time></trkpt><trkpt lat="42.03354" lon="11.94221"><ele>12.0</ele><time>2026-05-03T07:05:47.489Z</time></trkpt><trkpt lat="42.0335067" lon="11.9421217"><ele>12.0</ele><time>2026-05-03T07:05:48.547Z</time></trkpt><trkpt lat="42.0334733" lon="11.9420333"><ele>12.0</ele><time>2026-05-03T07:05:49.487Z</time></trkpt><trkpt lat="42.03344" lon="11.94194"><ele>12.0</ele><time>2026-05-03T07:05:50.486Z</time></trkpt><trkpt lat="42.033405" lon="11.9418467"><ele>12.0</ele><time>2026-05-03T07:05:51.49Z</time></trkpt><trkpt lat="42.0333717" lon="11.9417517"><ele>12.0</ele><time>2026-05-03T07:05:52.487Z</time></trkpt><trkpt lat="42.0333367" lon="11.941655"><ele>12.0</ele><time>2026-05-03T07:05:53.488Z</time></trkpt><trkpt lat="42.0333033" lon="11.9415583"><ele>12.0</ele><time>2026-05-03T07:05:54.492Z</time></trkpt><trkpt lat="42.03327" lon="11.9414617"><ele>12.0</ele><time>2026-05-03T07:05:55.496Z</time></trkpt><trkpt lat="42.0332383" lon="11.94137"><ele>12.0</ele><time>2026-05-03T07:05:56.487Z</time></trkpt><trkpt lat="42.0332067" lon="11.941275"><ele>12.0</ele><time>2026-05-03T07:05:57.488Z</time></trkpt><trkpt lat="42.0331717" lon="11.941175"><ele>12.0</ele><time>2026-05-03T07:05:58.49Z</time></trkpt><trkpt lat="42.0331367" lon="11.9410683"><ele>12.0</ele><time>2026-05-03T07:05:59.494Z</time></trkpt><trkpt lat="42.0331033" lon="11.9409533"><ele>12.0</ele><time>2026-05-03T07:06:00.489Z</time></trkpt><trkpt lat="42.03307" lon="11.9408383"><ele>12.0</ele><time>2026-05-03T07:06:01.489Z</time></trkpt><trkpt lat="42.0330367" lon="11.940725"><ele>12.0</ele><time>2026-05-03T07:06:02.49Z</time></trkpt><trkpt lat="42.0330033" lon="11.9406167"><ele>12.166666666666666</ele><time>2026-05-03T07:06:03.49Z</time></trkpt><trkpt lat="42.0329667" lon="11.9405133"><ele>12.333333333333332</ele><time>2026-05-03T07:06:04.492Z</time></trkpt><trkpt lat="42.0329317" lon="11.9404017"><ele>12.5</ele><time>2026-05-03T07:06:05.488Z</time></trkpt><trkpt lat="42.0329083" lon="11.94028"><ele>12.666666666666666</ele><time>2026-05-03T07:06:06.548Z</time></trkpt><trkpt lat="42.032895" lon="11.9401633"><ele>12.833333333333332</ele><time>2026-05-03T07:06:07.489Z</time></trkpt><trkpt lat="42.0328817" lon="11.9400483"><ele>13.0</ele><time>2026-05-03T07:06:08.483Z</time></trkpt><trkpt lat="42.032875" lon="11.9399333"><ele>13.499999999999998</ele><time>2026-05-03T07:06:09.49Z</time></trkpt><trkpt lat="42.03287" lon="11.93982"><ele>14.0</ele><time>2026-05-03T07:06:10.494Z</time></trkpt><trkpt lat="42.0328717" lon="11.93971"><ele>14.5</ele><time>2026-05-03T07:06:11.492Z</time></trkpt><trkpt lat="42.0328783" lon="11.9396083"><ele>15.0</ele><time>2026-05-03T07:06:12.547Z</time></trkpt><trkpt lat="42.0328883" lon="11.9395067"><ele>15.499999999999998</ele><time>2026-05-03T07:06:13.484Z</time></trkpt><trkpt lat="42.0329" lon="11.9394133"><ele>16.0</ele><time>2026-05-03T07:06:14.491Z</time></trkpt><trkpt lat="42.0329217" lon="11.93931"><ele>16.0</ele><time>2026-05-03T07:06:16.49Z</time></trkpt><trkpt lat="42.0330417" lon="11.9392783"><ele>16.0</ele><time>2026-05-03T07:07:12.56Z</time></trkpt><trkpt lat="42.0331283" lon="11.9392617"><ele>16.0</ele><time>2026-05-03T07:07:13.489Z</time></trkpt><trkpt lat="42.0332317" lon="11.9392483"><ele>16.0</ele><time>2026-05-03T07:07:14.489Z</time></trkpt><trkpt lat="42.0333433" lon="11.93923"><ele>16.0</ele><time>2026-05-03T07:07:15.487Z</time></trkpt><trkpt lat="42.0334583" lon="11.9392167"><ele>16.400000000000002</ele><time>2026-05-03T07:07:16.49Z</time></trkpt><trkpt lat="42.0335733" lon="11.9392133"><ele>16.8</ele><time>2026-05-03T07:07:17.489Z</time></trkpt><trkpt lat="42.0336833" lon="11.939225"><ele>17.200000000000003</ele><time>2026-05-03T07:07:18.548Z</time></trkpt><trkpt lat="42.0337867" lon="11.9392483"><ele>17.6</ele><time>2026-05-03T07:07:19.495Z</time></trkpt><trkpt lat="42.033885" lon="11.9392817"><ele>18.0</ele><time>2026-05-03T07:07:20.492Z</time></trkpt><trkpt lat="42.0339833" lon="11.93931"><ele>18.0</ele><time>2026-05-03T07:07:21.489Z</time></trkpt><trkpt lat="42.034085" lon="11.9393167"><ele>18.0</ele><time>2026-05-03T07:07:22.489Z</time></trkpt><trkpt lat="42.0341817" lon="11.93929"><ele>18.0</ele><time>2026-05-03T07:07:23.488Z</time></trkpt><trkpt lat="42.0342767" lon="11.939225"><ele>18.0</ele><time>2026-05-03T07:07:24.555Z</time></trkpt><trkpt lat="42.0343817" lon="11.9391383"><ele>18.0</ele><time>2026-05-03T07:07:25.492Z</time></trkpt><trkpt lat="42.0344917" lon="11.93906"><ele>18.75</ele><time>2026-05-03T07:07:26.494Z</time></trkpt><trkpt lat="42.0346117" lon="11.9390033"><ele>19.5</ele><time>2026-05-03T07:07:27.492Z</time></trkpt><trkpt lat="42.034735" lon="11.9389667"><ele>20.25</ele><time>2026-05-03T07:07:28.492Z</time></trkpt><trkpt lat="42.0348583" lon="11.9389417"><ele>21.0</ele><time>2026-05-03T07:07:29.496Z</time></trkpt><trkpt lat="42.0349767" lon="11.93892"><ele>21.200000000000003</ele><time>2026-05-03T07:07:30.55Z</time></trkpt><trkpt lat="42.035085" lon="11.9389017"><ele>21.400000000000002</ele><time>2026-05-03T07:07:31.492Z</time></trkpt><trkpt lat="42.035185" lon="11.9388833"><ele>21.6</ele><time>2026-05-03T07:07:32.491Z</time></trkpt><trkpt lat="42.03527" lon="11.9388633"><ele>21.8</ele><time>2026-05-03T07:07:33.491Z</time></trkpt><trkpt lat="42.0353367" lon="11.9388333"><ele>22.0</ele><time>2026-05-03T07:07:34.493Z</time></trkpt><trkpt lat="42.0354117" lon="11.9387517"><ele>22.0</ele><time>2026-05-03T07:07:36.557Z</time></trkpt><trkpt lat="42.0354317" lon="11.938665"><ele>22.0</ele><time>2026-05-03T07:08:28.505Z</time></trkpt><trkpt lat="42.03545" lon="11.938555"><ele>22.0</ele><time>2026-05-03T07:09:15.501Z</time></trkpt><trkpt lat="42.0355083" lon="11.93837"><ele>22.0</ele><time>2026-05-03T07:09:17.497Z</time></trkpt><trkpt lat="42.035565" lon="11.93824"><ele>22.0</ele><time>2026-05-03T07:09:18.551Z</time></trkpt><trkpt lat="42.035625" lon="11.9381017"><ele>21.0</ele><time>2026-05-03T07:09:19.487Z</time></trkpt><trkpt lat="42.0356867" lon="11.9379533"><ele>20.0</ele><time>2026-05-03T07:09:20.487Z</time></trkpt><trkpt lat="42.0357433" lon="11.9378033"><ele>19.0</ele><time>2026-05-03T07:09:21.488Z</time></trkpt><trkpt lat="42.0358017" lon="11.93765"><ele>18.0</ele><time>2026-05-03T07:09:22.493Z</time></trkpt><trkpt lat="42.0358567" lon="11.937495"><ele>17.5</ele><time>2026-05-03T07:09:23.499Z</time></trkpt><trkpt lat="42.0359133" lon="11.9373467"><ele>17.0</ele><time>2026-05-03T07:09:24.557Z</time></trkpt><trkpt lat="42.03597" lon="11.9372017"><ele>16.5</ele><time>2026-05-03T07:09:25.489Z</time></trkpt><trkpt lat="42.03603" lon="11.9370617"><ele>16.0</ele><time>2026-05-03T07:09:26.496Z</time></trkpt><trkpt lat="42.036085" lon="11.9369233"><ele>16.0</ele><time>2026-05-03T07:09:27.495Z</time></trkpt><trkpt lat="42.0361367" lon="11.9367817"><ele>16.0</ele><time>2026-05-03T07:09:28.494Z</time></trkpt><trkpt lat="42.0361833" lon="11.9366283"><ele>16.0</ele><time>2026-05-03T07:09:29.488Z</time></trkpt><trkpt lat="42.03623" lon="11.9364667"><ele>16.0</ele><time>2026-05-03T07:09:30.555Z</time></trkpt><trkpt lat="42.03628" lon="11.9363033"><ele>15.5</ele><time>2026-05-03T07:09:31.49Z</time></trkpt><trkpt lat="42.0363333" lon="11.936145"><ele>15.0</ele><time>2026-05-03T07:09:32.492Z</time></trkpt><trkpt lat="42.036385" lon="11.9359817"><ele>14.5</ele><time>2026-05-03T07:09:33.49Z</time></trkpt><trkpt lat="42.0364417" lon="11.9358183"><ele>14.0</ele><time>2026-05-03T07:09:34.49Z</time></trkpt><trkpt lat="42.0364967" lon="11.93565"><ele>14.0</ele><time>2026-05-03T07:09:35.499Z</time></trkpt><trkpt lat="42.03655" lon="11.9354833"><ele>14.0</ele><time>2026-05-03T07:09:36.55Z</time></trkpt><trkpt lat="42.0366017" lon="11.9353167"><ele>14.0</ele><time>2026-05-03T07:09:37.496Z</time></trkpt><trkpt lat="42.0366533" lon="11.9351433"><ele>14.0</ele><time>2026-05-03T07:09:38.489Z</time></trkpt><trkpt lat="42.0367117" lon="11.934955"><ele>14.5</ele><time>2026-05-03T07:09:39.495Z</time></trkpt><trkpt lat="42.0367683" lon="11.93477"><ele>15.0</ele><time>2026-05-03T07:09:40.497Z</time></trkpt><trkpt lat="42.0368267" lon="11.9345883"><ele>15.5</ele><time>2026-05-03T07:09:41.497Z</time></trkpt><trkpt lat="42.036885" lon="11.9344117"><ele>16.0</ele><time>2026-05-03T07:09:42.553Z</time></trkpt><trkpt lat="42.0369467" lon="11.93424"><ele>15.75</ele><time>2026-05-03T07:09:43.492Z</time></trkpt><trkpt lat="42.0370067" lon="11.93407"><ele>15.5</ele><time>2026-05-03T07:09:44.491Z</time></trkpt><trkpt lat="42.0370683" lon="11.9339033"><ele>15.25</ele><time>2026-05-03T07:09:45.503Z</time></trkpt><trkpt lat="42.0371317" lon="11.9337367"><ele>15.0</ele><time>2026-05-03T07:09:46.492Z</time></trkpt><trkpt lat="42.037195" lon="11.93357"><ele>15.0</ele><time>2026-05-03T07:09:47.495Z</time></trkpt><trkpt lat="42.03726" lon="11.9334"><ele>15.0</ele><time>2026-05-03T07:09:48.554Z</time></trkpt><trkpt lat="42.037325" lon="11.9332233"><ele>15.0</ele><time>2026-05-03T07:09:49.49Z</time></trkpt><trkpt lat="42.0373883" lon="11.9330417"><ele>15.0</ele><time>2026-05-03T07:09:50.496Z</time></trkpt><trkpt lat="42.0374533" lon="11.9328683"><ele>14.75</ele><time>2026-05-03T07:09:51.495Z</time></trkpt><trkpt lat="42.0375217" lon="11.9327067"><ele>14.5</ele><time>2026-05-03T07:09:52.492Z</time></trkpt><trkpt lat="42.0375833" lon="11.9325567"><ele>14.25</ele><time>2026-05-03T07:09:53.495Z</time></trkpt><trkpt lat="42.0376283" lon="11.9324067"><ele>14.0</ele><time>2026-05-03T07:09:54.556Z</time></trkpt><trkpt lat="42.0376617" lon="11.932245"><ele>13.5</ele><time>2026-05-03T07:09:55.491Z</time></trkpt><trkpt lat="42.0376917" lon="11.9320683"><ele>13.0</ele><time>2026-05-03T07:09:56.495Z</time></trkpt><trkpt lat="42.037725" lon="11.93188"><ele>12.5</ele><time>2026-05-03T07:09:57.497Z</time></trkpt><trkpt lat="42.0377633" lon="11.93168"><ele>12.0</ele><time>2026-05-03T07:09:58.493Z</time></trkpt><trkpt lat="42.037805" lon="11.9314767"><ele>11.666666666666666</ele><time>2026-05-03T07:09:59.5Z</time></trkpt><trkpt lat="42.0378483" lon="11.9312783"><ele>11.333333333333332</ele><time>2026-05-03T07:10:00.548Z</time></trkpt><trkpt lat="42.0378917" lon="11.93108"><ele>11.0</ele><time>2026-05-03T07:10:01.495Z</time></trkpt><trkpt lat="42.0379333" lon="11.9308867"><ele>10.0</ele><time>2026-05-03T07:10:02.487Z</time></trkpt><trkpt lat="42.0379767" lon="11.9306983"><ele>9.0</ele><time>2026-05-03T07:10:03.489Z</time></trkpt><trkpt lat="42.0380167" lon="11.93052"><ele>8.0</ele><time>2026-05-03T07:10:04.49Z</time></trkpt><trkpt lat="42.0380567" lon="11.93035"><ele>7.0</ele><time>2026-05-03T07:10:05.494Z</time></trkpt><trkpt lat="42.0380933" lon="11.930185"><ele>6.833333333333334</ele><time>2026-05-03T07:10:06.553Z</time></trkpt><trkpt lat="42.0381233" lon="11.9300433"><ele>6.666666666666667</ele><time>2026-05-03T07:10:07.489Z</time></trkpt><trkpt lat="42.038145" lon="11.9299383"><ele>6.5</ele><time>2026-05-03T07:10:08.488Z</time></trkpt><trkpt lat="42.0381633" lon="11.929855"><ele>6.333333333333334</ele><time>2026-05-03T07:10:09.494Z</time></trkpt><trkpt lat="42.038185" lon="11.929765"><ele>6.166666666666667</ele><time>2026-05-03T07:10:10.494Z</time></trkpt><trkpt lat="42.0382117" lon="11.9296617"><ele>6.0</ele><time>2026-05-03T07:10:11.494Z</time></trkpt><trkpt lat="42.03824" lon="11.92955"><ele>6.0</ele><time>2026-05-03T07:10:12.553Z</time></trkpt><trkpt lat="42.0382683" lon="11.9294417"><ele>6.0</ele><time>2026-05-03T07:10:13.491Z</time></trkpt><trkpt lat="42.0382967" lon="11.929335"><ele>6.0</ele><time>2026-05-03T07:10:14.493Z</time></trkpt><trkpt lat="42.0383333" lon="11.9292333"><ele>6.0</ele><time>2026-05-03T07:10:15.491Z</time></trkpt><trkpt lat="42.038375" lon="11.9291433"><ele>6.0</ele><time>2026-05-03T07:10:16.499Z</time></trkpt><trkpt lat="42.0384267" lon="11.9290483"><ele>6.0</ele><time>2026-05-03T07:10:17.488Z</time></trkpt><trkpt lat="42.0384867" lon="11.92894"><ele>6.199999999999999</ele><time>2026-05-03T07:10:18.555Z</time></trkpt><trkpt lat="42.0385433" lon="11.92883"><ele>6.3999999999999995</ele><time>2026-05-03T07:10:19.494Z</time></trkpt><trkpt lat="42.0385983" lon="11.92873"><ele>6.6</ele><time>2026-05-03T07:10:20.489Z</time></trkpt><trkpt lat="42.0386483" lon="11.928635"><ele>6.8</ele><time>2026-05-03T07:10:21.491Z</time></trkpt><trkpt lat="42.0386983" lon="11.92854"><ele>7.0</ele><time>2026-05-03T07:10:22.493Z</time></trkpt><trkpt lat="42.0387517" lon="11.928445"><ele>6.666666666666667</ele><time>2026-05-03T07:10:23.492Z</time></trkpt><trkpt lat="42.038805" lon="11.928355"><ele>6.333333333333334</ele><time>2026-05-03T07:10:24.562Z</time></trkpt><trkpt lat="42.0388533" lon="11.9282733"><ele>6.0</ele><time>2026-05-03T07:10:25.488Z</time></trkpt><trkpt lat="42.038895" lon="11.9281983"><ele>5.666666666666667</ele><time>2026-05-03T07:10:26.488Z</time></trkpt><trkpt lat="42.0389617" lon="11.9280633"><ele>5.333333333333334</ele><time>2026-05-03T07:10:28.492Z</time></trkpt><trkpt lat="42.039015" lon="11.9279583"><ele>5.0</ele><time>2026-05-03T07:10:30.546Z</time></trkpt><trkpt lat="42.0390617" lon="11.9278467"><ele>5.0</ele><time>2026-05-03T07:10:58.497Z</time></trkpt><trkpt lat="42.0391033" lon="11.9277583"><ele>5.0</ele><time>2026-05-03T07:11:26.491Z</time></trkpt><trkpt lat="42.03913" lon="11.92765"><ele>5.0</ele><time>2026-05-03T07:11:30.553Z</time></trkpt><trkpt lat="42.0391783" lon="11.9274883"><ele>5.0</ele><time>2026-05-03T07:11:32.488Z</time></trkpt><trkpt lat="42.0392083" lon="11.9273783"><ele>5.0</ele><time>2026-05-03T07:11:33.496Z</time></trkpt><trkpt lat="42.0392467" lon="11.9272433"><ele>5.0</ele><time>2026-05-03T07:11:34.494Z</time></trkpt><trkpt lat="42.0392883" lon="11.9271"><ele>5.0</ele><time>2026-05-03T07:11:35.496Z</time></trkpt><trkpt lat="42.0393383" lon="11.92695"><ele>5.0</ele><time>2026-05-03T07:11:36.553Z</time></trkpt><trkpt lat="42.0393917" lon="11.926795"><ele>5.0</ele><time>2026-05-03T07:11:37.506Z</time></trkpt><trkpt lat="42.039445" lon="11.9266317"><ele>5.0</ele><time>2026-05-03T07:11:38.494Z</time></trkpt><trkpt lat="42.0395033" lon="11.9264617"><ele>5.0</ele><time>2026-05-03T07:11:39.494Z</time></trkpt><trkpt lat="42.039565" lon="11.9262783"><ele>5.0</ele><time>2026-05-03T07:11:40.493Z</time></trkpt><trkpt lat="42.03963" lon="11.9260767"><ele>5.0</ele><time>2026-05-03T07:11:41.496Z</time></trkpt><trkpt lat="42.0396933" lon="11.9258867"><ele>5.0</ele><time>2026-05-03T07:11:42.553Z</time></trkpt><trkpt lat="42.0397483" lon="11.925725"><ele>5.0</ele><time>2026-05-03T07:11:43.493Z</time></trkpt><trkpt lat="42.0397983" lon="11.9255783"><ele>5.0</ele><time>2026-05-03T07:11:44.49Z</time></trkpt><trkpt lat="42.039845" lon="11.9254417"><ele>5.0</ele><time>2026-05-03T07:11:45.495Z</time></trkpt><trkpt lat="42.0398933" lon="11.92532"><ele>5.0</ele><time>2026-05-03T07:11:46.496Z</time></trkpt><trkpt lat="42.0399383" lon="11.925215"><ele>5.0</ele><time>2026-05-03T07:11:47.495Z</time></trkpt><trkpt lat="42.0399867" lon="11.9251233"><ele>5.0</ele><time>2026-05-03T07:11:48.555Z</time></trkpt><trkpt lat="42.0400417" lon="11.9250517"><ele>5.0</ele><time>2026-05-03T07:11:49.49Z</time></trkpt><trkpt lat="42.040105" lon="11.9249967"><ele>5.0</ele><time>2026-05-03T07:11:50.488Z</time></trkpt><trkpt lat="42.0401783" lon="11.9249633"><ele>5.75</ele><time>2026-05-03T07:11:51.498Z</time></trkpt><trkpt lat="42.0402667" lon="11.9249483"><ele>6.5</ele><time>2026-05-03T07:11:52.489Z</time></trkpt><trkpt lat="42.04038" lon="11.9249617"><ele>7.25</ele><time>2026-05-03T07:11:53.492Z</time></trkpt><trkpt lat="42.0405083" lon="11.9249833"><ele>8.0</ele><time>2026-05-03T07:11:54.556Z</time></trkpt><trkpt lat="42.0406417" lon="11.925"><ele>8.0</ele><time>2026-05-03T07:11:55.49Z</time></trkpt><trkpt lat="42.0407783" lon="11.92501"><ele>8.0</ele><time>2026-05-03T07:11:56.489Z</time></trkpt><trkpt lat="42.040915" lon="11.9250183"><ele>8.0</ele><time>2026-05-03T07:11:57.492Z</time></trkpt><trkpt lat="42.04105" lon="11.9250267"><ele>8.0</ele><time>2026-05-03T07:11:58.493Z</time></trkpt><trkpt lat="42.04118" lon="11.9250383"><ele>8.25</ele><time>2026-05-03T07:11:59.499Z</time></trkpt><trkpt lat="42.0413133" lon="11.9250467"><ele>8.5</ele><time>2026-05-03T07:12:00.548Z</time></trkpt><trkpt lat="42.0414467" lon="11.92506"><ele>8.75</ele><time>2026-05-03T07:12:01.492Z</time></trkpt><trkpt lat="42.0415817" lon="11.9250733"><ele>9.0</ele><time>2026-05-03T07:12:02.49Z</time></trkpt><trkpt lat="42.041715" lon="11.9250883"><ele>10.0</ele><time>2026-05-03T07:12:03.497Z</time></trkpt><trkpt lat="42.0418433" lon="11.925105"><ele>11.0</ele><time>2026-05-03T07:12:04.491Z</time></trkpt><trkpt lat="42.04197" lon="11.92512"><ele>12.0</ele><time>2026-05-03T07:12:05.493Z</time></trkpt><trkpt lat="42.0420933" lon="11.9251333"><ele>13.0</ele><time>2026-05-03T07:12:06.553Z</time></trkpt><trkpt lat="42.042215" lon="11.925135"><ele>13.0</ele><time>2026-05-03T07:12:07.496Z</time></trkpt><trkpt lat="42.0423367" lon="11.925135"><ele>13.0</ele><time>2026-05-03T07:12:08.503Z</time></trkpt><trkpt lat="42.0424583" lon="11.9251367"><ele>13.0</ele><time>2026-05-03T07:12:09.5Z</time></trkpt><trkpt lat="42.04258" lon="11.925155"><ele>13.0</ele><time>2026-05-03T07:12:10.491Z</time></trkpt><trkpt lat="42.0427033" lon="11.9251717"><ele>14.25</ele><time>2026-05-03T07:12:11.492Z</time></trkpt><trkpt lat="42.0428233" lon="11.9251883"><ele>15.5</ele><time>2026-05-03T07:12:12.558Z</time></trkpt><trkpt lat="42.042945" lon="11.92521"><ele>16.75</ele><time>2026-05-03T07:12:13.488Z</time></trkpt><trkpt lat="42.0430683" lon="11.9252417"><ele>18.0</ele><time>2026-05-03T07:12:14.497Z</time></trkpt><trkpt lat="42.0431933" lon="11.9252883"><ele>18.4</ele><time>2026-05-03T07:12:15.5Z</time></trkpt><trkpt lat="42.0433083" lon="11.925335"><ele>18.8</ele><time>2026-05-03T07:12:16.494Z</time></trkpt><trkpt lat="42.0434" lon="11.9253717"><ele>19.2</ele><time>2026-05-03T07:12:17.491Z</time></trkpt><trkpt lat="42.0434783" lon="11.9254"><ele>19.6</ele><time>2026-05-03T07:12:18.551Z</time></trkpt><trkpt lat="42.043545" lon="11.9254267"><ele>20.0</ele><time>2026-05-03T07:12:19.488Z</time></trkpt><trkpt lat="42.04365" lon="11.9254667"><ele>20.0</ele><time>2026-05-03T07:12:21.492Z</time></trkpt><trkpt lat="42.0437217" lon="11.9254933"><ele>20.0</ele><time>2026-05-03T07:12:23.491Z</time></trkpt><trkpt lat="42.0437967" lon="11.9255167"><ele>20.0</ele><time>2026-05-03T07:12:48.552Z</time></trkpt><trkpt lat="42.0438917" lon="11.9255117"><ele>20.0</ele><time>2026-05-03T07:13:17.488Z</time></trkpt><trkpt lat="42.0440333" lon="11.9254733"><ele>20.0</ele><time>2026-05-03T07:13:19.487Z</time></trkpt><trkpt lat="42.04412" lon="11.9254533"><ele>20.57142857142857</ele><time>2026-05-03T07:13:20.494Z</time></trkpt><trkpt lat="42.0442" lon="11.9254317"><ele>21.142857142857142</ele><time>2026-05-03T07:13:21.49Z</time></trkpt><trkpt lat="42.0442717" lon="11.925415"><ele>21.714285714285715</ele><time>2026-05-03T07:13:22.492Z</time></trkpt><trkpt lat="42.0443417" lon="11.9254"><ele>22.285714285714285</ele><time>2026-05-03T07:13:23.49Z</time></trkpt><trkpt lat="42.0444117" lon="11.9253867"><ele>22.857142857142858</ele><time>2026-05-03T07:13:24.496Z</time></trkpt><trkpt lat="42.044485" lon="11.925375"><ele>23.428571428571427</ele><time>2026-05-03T07:13:25.491Z</time></trkpt><trkpt lat="42.044555" lon="11.9253683"><ele>24.0</ele><time>2026-05-03T07:13:26.495Z</time></trkpt><trkpt lat="42.0446183" lon="11.925365"><ele>24.0</ele><time>2026-05-03T07:13:27.495Z</time></trkpt><trkpt lat="42.0447367" lon="11.92537"><ele>24.0</ele><time>2026-05-03T07:13:29.491Z</time></trkpt><trkpt lat="42.044835" lon="11.9253733"><ele>24.0</ele><time>2026-05-03T07:13:31.496Z</time></trkpt><trkpt lat="42.0449067" lon="11.9253683"><ele>24.0</ele><time>2026-05-03T07:13:33.493Z</time></trkpt><trkpt lat="42.0449717" lon="11.92537"><ele>24.0</ele><time>2026-05-03T07:14:10.485Z</time></trkpt><trkpt lat="42.0450583" lon="11.925385"><ele>24.0</ele><time>2026-05-03T07:14:55.487Z</time></trkpt><trkpt lat="42.04514" lon="11.9253967"><ele>24.25</ele><time>2026-05-03T07:14:56.492Z</time></trkpt><trkpt lat="42.0452533" lon="11.9254133"><ele>24.5</ele><time>2026-05-03T07:14:57.495Z</time></trkpt><trkpt lat="42.0453967" lon="11.9254367"><ele>24.75</ele><time>2026-05-03T07:14:58.494Z</time></trkpt><trkpt lat="42.0455567" lon="11.9254617"><ele>25.0</ele><time>2026-05-03T07:14:59.492Z</time></trkpt><trkpt lat="42.04569" lon="11.925485"><ele>25.500000000000004</ele><time>2026-05-03T07:15:00.491Z</time></trkpt><trkpt lat="42.0457983" lon="11.925505"><ele>26.0</ele><time>2026-05-03T07:15:01.492Z</time></trkpt><trkpt lat="42.0458917" lon="11.925525"><ele>26.5</ele><time>2026-05-03T07:15:02.498Z</time></trkpt><trkpt lat="42.0459733" lon="11.9255417"><ele>27.0</ele><time>2026-05-03T07:15:03.493Z</time></trkpt><trkpt lat="42.0460483" lon="11.9255517"><ele>27.500000000000004</ele><time>2026-05-03T07:15:04.491Z</time></trkpt><trkpt lat="42.0461317" lon="11.9255533"><ele>28.0</ele><time>2026-05-03T07:15:05.493Z</time></trkpt><trkpt lat="42.0462267" lon="11.9255483"><ele>28.0</ele><time>2026-05-03T07:15:06.553Z</time></trkpt><trkpt lat="42.0463233" lon="11.9255417"><ele>27.999999999999996</ele><time>2026-05-03T07:15:07.491Z</time></trkpt><trkpt lat="42.04642" lon="11.9255433"><ele>27.999999999999996</ele><time>2026-05-03T07:15:08.494Z</time></trkpt><trkpt lat="42.0465217" lon="11.9255533"><ele>28.0</ele><time>2026-05-03T07:15:09.496Z</time></trkpt><trkpt lat="42.04663" lon="11.925565"><ele>28.0</ele><time>2026-05-03T07:15:10.489Z</time></trkpt><trkpt lat="42.0467433" lon="11.9255767"><ele>28.0</ele><time>2026-05-03T07:15:11.497Z</time></trkpt><trkpt lat="42.04686" lon="11.9255833"><ele>28.0</ele><time>2026-05-03T07:15:12.552Z</time></trkpt><trkpt lat="42.04698" lon="11.925595"><ele>28.0</ele><time>2026-05-03T07:15:13.49Z</time></trkpt><trkpt lat="42.047095" lon="11.9256083"><ele>28.0</ele><time>2026-05-03T07:15:14.495Z</time></trkpt><trkpt lat="42.0472117" lon="11.9256167"><ele>28.0</ele><time>2026-05-03T07:15:15.498Z</time></trkpt><trkpt lat="42.0473283" lon="11.9256217"><ele>27.999999999999996</ele><time>2026-05-03T07:15:16.495Z</time></trkpt><trkpt lat="42.0474433" lon="11.9256283"><ele>27.999999999999996</ele><time>2026-05-03T07:15:17.493Z</time></trkpt><trkpt lat="42.0475517" lon="11.9256367"><ele>28.0</ele><time>2026-05-03T07:15:18.564Z</time></trkpt><trkpt lat="42.04765" lon="11.925645"><ele>28.0</ele><time>2026-05-03T07:15:19.49Z</time></trkpt><trkpt lat="42.0477433" lon="11.9256533"><ele>28.4</ele><time>2026-05-03T07:15:20.491Z</time></trkpt><trkpt lat="42.0478417" lon="11.925665"><ele>28.799999999999997</ele><time>2026-05-03T07:15:21.494Z</time></trkpt><trkpt lat="42.0479417" lon="11.9256783"><ele>29.2</ele><time>2026-05-03T07:15:22.495Z</time></trkpt><trkpt lat="42.048045" lon="11.925695"><ele>29.6</ele><time>2026-05-03T07:15:23.494Z</time></trkpt><trkpt lat="42.0481433" lon="11.92571"><ele>30.0</ele><time>2026-05-03T07:15:24.495Z</time></trkpt><trkpt lat="42.048235" lon="11.9257167"><ele>31.4</ele><time>2026-05-03T07:15:25.5Z</time></trkpt><trkpt lat="42.0483267" lon="11.9257217"><ele>32.8</ele><time>2026-05-03T07:15:26.496Z</time></trkpt><trkpt lat="42.0484283" lon="11.9257283"><ele>34.2</ele><time>2026-05-03T07:15:27.49Z</time></trkpt><trkpt lat="42.0485333" lon="11.9257383"><ele>35.6</ele><time>2026-05-03T07:15:28.496Z</time></trkpt><trkpt lat="42.0486317" lon="11.9257517"><ele>37.0</ele><time>2026-05-03T07:15:29.499Z</time></trkpt><trkpt lat="42.0487233" lon="11.9257567"><ele>37.0</ele><time>2026-05-03T07:15:30.493Z</time></trkpt><trkpt lat="42.0488133" lon="11.9257617"><ele>37.0</ele><time>2026-05-03T07:15:31.495Z</time></trkpt><trkpt lat="42.0489" lon="11.9257683"><ele>37.0</ele><time>2026-05-03T07:15:32.496Z</time></trkpt><trkpt lat="42.048995" lon="11.925775"><ele>37.0</ele><time>2026-05-03T07:15:33.493Z</time></trkpt><trkpt lat="42.0490983" lon="11.9257767"><ele>37.0</ele><time>2026-05-03T07:15:34.499Z</time></trkpt><trkpt lat="42.0492033" lon="11.9257783"><ele>37.6</ele><time>2026-05-03T07:15:35.495Z</time></trkpt><trkpt lat="42.0493083" lon="11.92578"><ele>38.2</ele><time>2026-05-03T07:15:36.552Z</time></trkpt><trkpt lat="42.049405" lon="11.925785"><ele>38.8</ele><time>2026-05-03T07:15:37.491Z</time></trkpt><trkpt lat="42.04949" lon="11.9257883"><ele>39.4</ele><time>2026-05-03T07:15:38.492Z</time></trkpt><trkpt lat="42.049575" lon="11.9257883"><ele>40.0</ele><time>2026-05-03T07:15:39.498Z</time></trkpt><trkpt lat="42.0496567" lon="11.925795"><ele>40.0</ele><time>2026-05-03T07:15:40.496Z</time></trkpt><trkpt lat="42.0497317" lon="11.9258017"><ele>40.0</ele><time>2026-05-03T07:15:41.498Z</time></trkpt><trkpt lat="42.0498067" lon="11.9258117"><ele>40.0</ele><time>2026-05-03T07:15:42.554Z</time></trkpt><trkpt lat="42.049885" lon="11.9258217"><ele>40.0</ele><time>2026-05-03T07:15:43.494Z</time></trkpt><trkpt lat="42.0499633" lon="11.9258333"><ele>40.0</ele><time>2026-05-03T07:15:44.498Z</time></trkpt><trkpt lat="42.0500433" lon="11.9258433"><ele>40.0</ele><time>2026-05-03T07:15:45.494Z</time></trkpt><trkpt lat="42.05012" lon="11.9258533"><ele>40.5</ele><time>2026-05-03T07:15:46.494Z</time></trkpt><trkpt lat="42.0501967" lon="11.925865"><ele>41.0</ele><time>2026-05-03T07:15:47.488Z</time></trkpt><trkpt lat="42.050275" lon="11.9258733"><ele>41.5</ele><time>2026-05-03T07:15:48.558Z</time></trkpt><trkpt lat="42.050355" lon="11.9258833"><ele>42.0</ele><time>2026-05-03T07:15:49.49Z</time></trkpt><trkpt lat="42.05044" lon="11.92589"><ele>42.5</ele><time>2026-05-03T07:15:50.494Z</time></trkpt><trkpt lat="42.0505317" lon="11.9259"><ele>43.0</ele><time>2026-05-03T07:15:51.491Z</time></trkpt><trkpt lat="42.0506267" lon="11.9259067"><ele>43.0</ele><time>2026-05-03T07:15:52.496Z</time></trkpt><trkpt lat="42.0507233" lon="11.9259133"><ele>43.0</ele><time>2026-05-03T07:15:53.499Z</time></trkpt><trkpt lat="42.05082" lon="11.9259217"><ele>43.0</ele><time>2026-05-03T07:15:54.496Z</time></trkpt><trkpt lat="42.0509183" lon="11.925935"><ele>43.0</ele><time>2026-05-03T07:15:55.5Z</time></trkpt><trkpt lat="42.05101" lon="11.925945"><ele>43.0</ele><time>2026-05-03T07:15:56.494Z</time></trkpt><trkpt lat="42.051105" lon="11.9259533"><ele>44.8</ele><time>2026-05-03T07:15:57.497Z</time></trkpt><trkpt lat="42.0512017" lon="11.9259583"><ele>46.599999999999994</ele><time>2026-05-03T07:15:58.496Z</time></trkpt><trkpt lat="42.0512933" lon="11.925965"><ele>48.400000000000006</ele><time>2026-05-03T07:15:59.495Z</time></trkpt><trkpt lat="42.0513833" lon="11.9259683"><ele>50.2</ele><time>2026-05-03T07:16:00.501Z</time></trkpt><trkpt lat="42.0514717" lon="11.9259717"><ele>52.0</ele><time>2026-05-03T07:16:01.497Z</time></trkpt><trkpt lat="42.0515567" lon="11.9259733"><ele>53.166666666666664</ele><time>2026-05-03T07:16:02.496Z</time></trkpt><trkpt lat="42.0516383" lon="11.925975"><ele>54.33333333333333</ele><time>2026-05-03T07:16:03.498Z</time></trkpt><trkpt lat="42.05172" lon="11.92598"><ele>55.5</ele><time>2026-05-03T07:16:04.494Z</time></trkpt><trkpt lat="42.0518067" lon="11.9259883"><ele>56.66666666666667</ele><time>2026-05-03T07:16:05.495Z</time></trkpt><trkpt lat="42.0519" lon="11.9259967"><ele>57.833333333333336</ele><time>2026-05-03T07:16:06.556Z</time></trkpt><trkpt lat="42.0519917" lon="11.926005"><ele>59.0</ele><time>2026-05-03T07:16:07.493Z</time></trkpt><trkpt lat="42.0520783" lon="11.926015"><ele>59.0</ele><time>2026-05-03T07:16:08.495Z</time></trkpt><trkpt lat="42.0521583" lon="11.9260233"><ele>59.0</ele><time>2026-05-03T07:16:09.493Z</time></trkpt><trkpt lat="42.052235" lon="11.9260267"><ele>59.0</ele><time>2026-05-03T07:16:10.494Z</time></trkpt><trkpt lat="42.052305" lon="11.9260283"><ele>59.0</ele><time>2026-05-03T07:16:11.493Z</time></trkpt><trkpt lat="42.05237" lon="11.9260317"><ele>59.0</ele><time>2026-05-03T07:16:12.549Z</time></trkpt><trkpt lat="42.052435" lon="11.92603"><ele>59.0</ele><time>2026-05-03T07:16:13.492Z</time></trkpt><trkpt lat="42.0525" lon="11.92603"><ele>59.0</ele><time>2026-05-03T07:16:14.489Z</time></trkpt><trkpt lat="42.0525717" lon="11.926025"><ele>60.50000000000001</ele><time>2026-05-03T07:16:15.487Z</time></trkpt><trkpt lat="42.0526467" lon="11.92602"><ele>62.0</ele><time>2026-05-03T07:16:16.49Z</time></trkpt><trkpt lat="42.0527183" lon="11.9260133"><ele>63.5</ele><time>2026-05-03T07:16:17.491Z</time></trkpt><trkpt lat="42.052785" lon="11.9260083"><ele>65.0</ele><time>2026-05-03T07:16:18.549Z</time></trkpt><trkpt lat="42.0528483" lon="11.926"><ele>66.5</ele><time>2026-05-03T07:16:19.489Z</time></trkpt><trkpt lat="42.052915" lon="11.9259917"><ele>68.0</ele><time>2026-05-03T07:16:20.494Z</time></trkpt><trkpt lat="42.053025" lon="11.9259783"><ele>68.0</ele><time>2026-05-03T07:16:22.491Z</time></trkpt><trkpt lat="42.05312" lon="11.9259583"><ele>68.0</ele><time>2026-05-03T07:16:24.556Z</time></trkpt><trkpt lat="42.0532033" lon="11.92594"><ele>68.0</ele><time>2026-05-03T07:16:26.492Z</time></trkpt><trkpt lat="42.0532733" lon="11.9259267"><ele>68.0</ele><time>2026-05-03T07:17:00.558Z</time></trkpt><trkpt lat="42.0533483" lon="11.9258983"><ele>68.0</ele><time>2026-05-03T07:17:35.505Z</time></trkpt><trkpt lat="42.0534067" lon="11.925845"><ele>68.0</ele><time>2026-05-03T07:17:37.487Z</time></trkpt><trkpt lat="42.05348" lon="11.9257433"><ele>69.5</ele><time>2026-05-03T07:17:39.495Z</time></trkpt><trkpt lat="42.0535217" lon="11.9256633"><ele>71.0</ele><time>2026-05-03T07:17:40.492Z</time></trkpt><trkpt lat="42.0535683" lon="11.9255733"><ele>72.5</ele><time>2026-05-03T07:17:41.496Z</time></trkpt><trkpt lat="42.0536117" lon="11.9254867"><ele>74.0</ele><time>2026-05-03T07:17:42.55Z</time></trkpt><trkpt lat="42.05364" lon="11.925405"><ele>75.5</ele><time>2026-05-03T07:17:43.49Z</time></trkpt><trkpt lat="42.0536483" lon="11.92523"><ele>77.0</ele><time>2026-05-03T07:17:45.497Z</time></trkpt><trkpt lat="42.0536567" lon="11.9250733"><ele>77.6</ele><time>2026-05-03T07:17:47.497Z</time></trkpt><trkpt lat="42.0536617" lon="11.9249883"><ele>78.2</ele><time>2026-05-03T07:17:48.553Z</time></trkpt><trkpt lat="42.053665" lon="11.9249033"><ele>78.8</ele><time>2026-05-03T07:17:49.49Z</time></trkpt><trkpt lat="42.05368" lon="11.924745"><ele>79.4</ele><time>2026-05-03T07:17:51.496Z</time></trkpt><trkpt lat="42.0537383" lon="11.9246367"><ele>80.0</ele><time>2026-05-03T07:17:53.493Z</time></trkpt><trkpt lat="42.0538367" lon="11.9245433"><ele>80.0</ele><time>2026-05-03T07:17:55.496Z</time></trkpt><trkpt lat="42.0538833" lon="11.9244817"><ele>80.0</ele><time>2026-05-03T07:17:56.495Z</time></trkpt><trkpt lat="42.0539217" lon="11.9244117"><ele>80.0</ele><time>2026-05-03T07:17:57.5Z</time></trkpt><trkpt lat="42.053955" lon="11.924325"><ele>80.0</ele><time>2026-05-03T07:17:58.496Z</time></trkpt><trkpt lat="42.0539867" lon="11.9242383"><ele>80.0</ele><time>2026-05-03T07:17:59.499Z</time></trkpt><trkpt lat="42.0540183" lon="11.92416"><ele>80.0</ele><time>2026-05-03T07:18:00.495Z</time></trkpt><trkpt lat="42.0540567" lon="11.9240833"><ele>80.0</ele><time>2026-05-03T07:18:01.496Z</time></trkpt><trkpt lat="42.054095" lon="11.9240083"><ele>84.6</ele><time>2026-05-03T07:18:02.496Z</time></trkpt><trkpt lat="42.054135" lon="11.9239383"><ele>89.2</ele><time>2026-05-03T07:18:03.497Z</time></trkpt><trkpt lat="42.05421" lon="11.9238183"><ele>93.80000000000001</ele><time>2026-05-03T07:18:05.495Z</time></trkpt><trkpt lat="42.0542967" lon="11.9237267"><ele>98.4</ele><time>2026-05-03T07:18:07.487Z</time></trkpt><trkpt lat="42.0543567" lon="11.92362"><ele>103.0</ele><time>2026-05-03T07:18:09.485Z</time></trkpt><trkpt lat="42.0543783" lon="11.9234733"><ele>104.00000000000001</ele><time>2026-05-03T07:18:11.495Z</time></trkpt><trkpt lat="42.054355" lon="11.923315"><ele>105.0</ele><time>2026-05-03T07:18:13.495Z</time></trkpt><trkpt lat="42.0543317" lon="11.92323"><ele>106.0</ele><time>2026-05-03T07:18:14.49Z</time></trkpt><trkpt lat="42.054305" lon="11.9231417"><ele>107.0</ele><time>2026-05-03T07:18:15.501Z</time></trkpt><trkpt lat="42.0542833" lon="11.9230483"><ele>108.00000000000001</ele><time>2026-05-03T07:18:16.493Z</time></trkpt><trkpt lat="42.05427" lon="11.92296"><ele>109.0</ele><time>2026-05-03T07:18:17.491Z</time></trkpt><trkpt lat="42.054265" lon="11.9228133"><ele>109.0</ele><time>2026-05-03T07:18:19.494Z</time></trkpt><trkpt lat="42.054295" lon="11.922675"><ele>109.0</ele><time>2026-05-03T07:18:21.495Z</time></trkpt><trkpt lat="42.054305" lon="11.9225417"><ele>109.0</ele><time>2026-05-03T07:18:23.494Z</time></trkpt><trkpt lat="42.0543717" lon="11.9224883"><ele>109.0</ele><time>2026-05-03T07:18:30.5Z</time></trkpt><trkpt lat="42.05444" lon="11.922535"><ele>109.0</ele><time>2026-05-03T07:18:32.492Z</time></trkpt><trkpt lat="42.0545283" lon="11.9226433"><ele>109.0</ele><time>2026-05-03T07:18:34.489Z</time></trkpt><trkpt lat="42.0546167" lon="11.92275"><ele>109.0</ele><time>2026-05-03T07:18:36.555Z</time></trkpt><trkpt lat="42.0546617" lon="11.92281"><ele>109.0</ele><time>2026-05-03T07:18:37.496Z</time></trkpt><trkpt lat="42.0547667" lon="11.9228933"><ele>109.0</ele><time>2026-05-03T07:18:39.493Z</time></trkpt><trkpt lat="42.0548883" lon="11.922955"><ele>109.0</ele><time>2026-05-03T07:18:41.491Z</time></trkpt><trkpt lat="42.054955" lon="11.92298"><ele>112.6</ele><time>2026-05-03T07:18:42.549Z</time></trkpt><trkpt lat="42.0550717" lon="11.9230233"><ele>116.2</ele><time>2026-05-03T07:18:44.49Z</time></trkpt><trkpt lat="42.0551333" lon="11.923045"><ele>119.79999999999998</ele><time>2026-05-03T07:18:45.495Z</time></trkpt><trkpt lat="42.05526" lon="11.9230533"><ele>123.39999999999999</ele><time>2026-05-03T07:18:47.496Z</time></trkpt><trkpt lat="42.05534" lon="11.9230917"><ele>127.0</ele><time>2026-05-03T07:18:49.493Z</time></trkpt><trkpt lat="42.0554217" lon="11.9231783"><ele>127.0</ele><time>2026-05-03T07:18:51.497Z</time></trkpt><trkpt lat="42.055525" lon="11.9232267"><ele>126.99999999999999</ele><time>2026-05-03T07:18:53.493Z</time></trkpt><trkpt lat="42.0556217" lon="11.9232667"><ele>126.99999999999999</ele><time>2026-05-03T07:18:55.491Z</time></trkpt><trkpt lat="42.0557167" lon="11.923295"><ele>127.0</ele><time>2026-05-03T07:18:57.497Z</time></trkpt><trkpt lat="42.0558383" lon="11.9233183"><ele>127.0</ele><time>2026-05-03T07:18:59.49Z</time></trkpt><trkpt lat="42.0559117" lon="11.9233333"><ele>127.66666666666667</ele><time>2026-05-03T07:19:00.553Z</time></trkpt><trkpt lat="42.05599" lon="11.9233567"><ele>128.33333333333334</ele><time>2026-05-03T07:19:01.489Z</time></trkpt><trkpt lat="42.0560667" lon="11.9233717"><ele>129.0</ele><time>2026-05-03T07:19:02.489Z</time></trkpt><trkpt lat="42.0561417" lon="11.9233867"><ele>129.66666666666666</ele><time>2026-05-03T07:19:03.493Z</time></trkpt><trkpt lat="42.056215" lon="11.923405"><ele>130.33333333333331</ele><time>2026-05-03T07:19:04.486Z</time></trkpt><trkpt lat="42.0562767" lon="11.92343"><ele>131.0</ele><time>2026-05-03T07:19:05.493Z</time></trkpt><trkpt lat="42.0563633" lon="11.9234983"><ele>133.0</ele><time>2026-05-03T07:19:07.488Z</time></trkpt><trkpt lat="42.0564233" lon="11.9235383"><ele>135.0</ele><time>2026-05-03T07:19:09.489Z</time></trkpt><trkpt lat="42.0564933" lon="11.923565"><ele>137.0</ele><time>2026-05-03T07:19:11.49Z</time></trkpt><trkpt lat="42.0565767" lon="11.9236167"><ele>139.0</ele><time>2026-05-03T07:19:13.486Z</time></trkpt><trkpt lat="42.0566683" lon="11.923665"><ele>141.0</ele><time>2026-05-03T07:19:15.494Z</time></trkpt><trkpt lat="42.0567483" lon="11.9237033"><ele>143.0</ele><time>2026-05-03T07:19:17.497Z</time></trkpt><trkpt lat="42.0568433" lon="11.9237417"><ele>144.20000000000002</ele><time>2026-05-03T07:19:19.493Z</time></trkpt><trkpt lat="42.0569567" lon="11.9237483"><ele>145.4</ele><time>2026-05-03T07:19:21.498Z</time></trkpt><trkpt lat="42.057065" lon="11.9237133"><ele>146.60000000000002</ele><time>2026-05-03T07:19:23.495Z</time></trkpt><trkpt lat="42.0571617" lon="11.9236717"><ele>147.8</ele><time>2026-05-03T07:19:25.496Z</time></trkpt><trkpt lat="42.0572767" lon="11.9236583"><ele>149.0</ele><time>2026-05-03T07:19:27.5Z</time></trkpt><trkpt lat="42.0573867" lon="11.923615"><ele>151.0</ele><time>2026-05-03T07:19:29.488Z</time></trkpt><trkpt lat="42.0574983" lon="11.9235717"><ele>153.0</ele><time>2026-05-03T07:19:31.486Z</time></trkpt><trkpt lat="42.0576117" lon="11.9235533"><ele>155.0</ele><time>2026-05-03T07:19:33.489Z</time></trkpt><trkpt lat="42.05773" lon="11.9235217"><ele>157.0</ele><time>2026-05-03T07:19:35.497Z</time></trkpt><trkpt lat="42.0578283" lon="11.923495"><ele>157.0</ele><time>2026-05-03T07:19:37.49Z</time></trkpt><trkpt lat="42.0579267" lon="11.9234917"><ele>157.0</ele><time>2026-05-03T07:19:39.498Z</time></trkpt><trkpt lat="42.0580367" lon="11.9235033"><ele>157.0</ele><time>2026-05-03T07:19:41.497Z</time></trkpt><trkpt lat="42.0581683" lon="11.923455"><ele>157.0</ele><time>2026-05-03T07:19:43.488Z</time></trkpt><trkpt lat="42.0582417" lon="11.9234317"><ele>157.0</ele><time>2026-05-03T07:19:44.494Z</time></trkpt><trkpt lat="42.0583167" lon="11.9234183"><ele>158.83333333333334</ele><time>2026-05-03T07:19:45.49Z</time></trkpt><trkpt lat="42.0583833" lon="11.9234117"><ele>160.66666666666669</ele><time>2026-05-03T07:19:46.491Z</time></trkpt><trkpt lat="42.05845" lon="11.923405"><ele>162.5</ele><time>2026-05-03T07:19:47.493Z</time></trkpt><trkpt lat="42.058515" lon="11.9234"><ele>164.33333333333334</ele><time>2026-05-03T07:19:48.556Z</time></trkpt><trkpt lat="42.0586333" lon="11.9234267"><ele>166.16666666666666</ele><time>2026-05-03T07:19:50.487Z</time></trkpt><trkpt lat="42.058735" lon="11.9234433"><ele>168.0</ele><time>2026-05-03T07:19:52.495Z</time></trkpt><trkpt lat="42.05885" lon="11.9234267"><ele>168.0</ele><time>2026-05-03T07:19:54.558Z</time></trkpt><trkpt lat="42.058915" lon="11.9234183"><ele>168.0</ele><time>2026-05-03T07:19:55.488Z</time></trkpt><trkpt lat="42.05898" lon="11.9234183"><ele>168.0</ele><time>2026-05-03T07:19:56.493Z</time></trkpt><trkpt lat="42.059055" lon="11.9234167"><ele>168.0</ele><time>2026-05-03T07:19:57.493Z</time></trkpt><trkpt lat="42.0591267" lon="11.9234183"><ele>168.0</ele><time>2026-05-03T07:19:58.493Z</time></trkpt><trkpt lat="42.059195" lon="11.923425"><ele>168.0</ele><time>2026-05-03T07:19:59.499Z</time></trkpt><trkpt lat="42.0593067" lon="11.9234833"><ele>168.0</ele><time>2026-05-03T07:20:01.501Z</time></trkpt><trkpt lat="42.0593583" lon="11.9235367"><ele>168.0</ele><time>2026-05-03T07:20:02.499Z</time></trkpt><trkpt lat="42.0594017" lon="11.9236033"><ele>168.0</ele><time>2026-05-03T07:20:03.494Z</time></trkpt><trkpt lat="42.0594367" lon="11.923675"><ele>168.0</ele><time>2026-05-03T07:20:04.498Z</time></trkpt><trkpt lat="42.0594733" lon="11.92375"><ele>168.0</ele><time>2026-05-03T07:20:05.496Z</time></trkpt><trkpt lat="42.0595167" lon="11.923825"><ele>168.0</ele><time>2026-05-03T07:20:06.549Z</time></trkpt><trkpt lat="42.059565" lon="11.9238967"><ele>168.0</ele><time>2026-05-03T07:20:07.492Z</time></trkpt><trkpt lat="42.0596083" lon="11.9239583"><ele>168.0</ele><time>2026-05-03T07:20:08.492Z</time></trkpt><trkpt lat="42.05966" lon="11.9240083"><ele>168.0</ele><time>2026-05-03T07:20:10.493Z</time></trkpt><trkpt lat="42.0597283" lon="11.9240533"><ele>168.0</ele><time>2026-05-03T07:20:13.492Z</time></trkpt><trkpt lat="42.0598117" lon="11.924115"><ele>168.0</ele><time>2026-05-03T07:20:15.495Z</time></trkpt><trkpt lat="42.0599267" lon="11.9241733"><ele>168.0</ele><time>2026-05-03T07:20:17.496Z</time></trkpt><trkpt lat="42.0599917" lon="11.9242017"><ele>168.0</ele><time>2026-05-03T07:20:18.552Z</time></trkpt><trkpt lat="42.06006" lon="11.9242367"><ele>170.0</ele><time>2026-05-03T07:20:19.492Z</time></trkpt><trkpt lat="42.0601283" lon="11.92427"><ele>172.0</ele><time>2026-05-03T07:20:20.494Z</time></trkpt><trkpt lat="42.0601883" lon="11.9243033"><ele>174.0</ele><time>2026-05-03T07:20:21.499Z</time></trkpt><trkpt lat="42.0602917" lon="11.924345"><ele>176.0</ele><time>2026-05-03T07:20:23.492Z</time></trkpt><trkpt lat="42.060405" lon="11.9243167"><ele>178.0</ele><time>2026-05-03T07:20:25.487Z</time></trkpt><trkpt lat="42.060515" lon="11.924265"><ele>175.0</ele><time>2026-05-03T07:20:27.493Z</time></trkpt><trkpt lat="42.0606117" lon="11.9241817"><ele>172.0</ele><time>2026-05-03T07:20:29.495Z</time></trkpt><trkpt lat="42.060725" lon="11.92412"><ele>169.0</ele><time>2026-05-03T07:20:31.492Z</time></trkpt><trkpt lat="42.060845" lon="11.9240867"><ele>166.0</ele><time>2026-05-03T07:20:33.496Z</time></trkpt><trkpt lat="42.0609533" lon="11.9240433"><ele>166.0</ele><time>2026-05-03T07:20:35.493Z</time></trkpt><trkpt lat="42.0610367" lon="11.924025"><ele>166.0</ele><time>2026-05-03T07:20:37.49Z</time></trkpt><trkpt lat="42.0611067" lon="11.92403"><ele>166.0</ele><time>2026-05-03T07:20:39.492Z</time></trkpt><trkpt lat="42.0611833" lon="11.9240917"><ele>166.0</ele><time>2026-05-03T07:20:41.502Z</time></trkpt><trkpt lat="42.0612917" lon="11.9241467"><ele>166.0</ele><time>2026-05-03T07:20:43.494Z</time></trkpt><trkpt lat="42.0613583" lon="11.9241733"><ele>166.0</ele><time>2026-05-03T07:20:44.495Z</time></trkpt><trkpt lat="42.0614267" lon="11.9241967"><ele>166.0</ele><time>2026-05-03T07:20:45.499Z</time></trkpt><trkpt lat="42.061495" lon="11.9242233"><ele>166.0</ele><time>2026-05-03T07:20:46.494Z</time></trkpt><trkpt lat="42.0615933" lon="11.924295"><ele>166.0</ele><time>2026-05-03T07:20:48.555Z</time></trkpt><trkpt lat="42.061675" lon="11.9243317"><ele>166.0</ele><time>2026-05-03T07:20:50.494Z</time></trkpt><trkpt lat="42.0617717" lon="11.9243883"><ele>166.0</ele><time>2026-05-03T07:20:52.497Z</time></trkpt><trkpt lat="42.0619033" lon="11.924425"><ele>168.14285714285714</ele><time>2026-05-03T07:20:54.553Z</time></trkpt><trkpt lat="42.061985" lon="11.9244333"><ele>170.2857142857143</ele><time>2026-05-03T07:20:55.493Z</time></trkpt><trkpt lat="42.0620583" lon="11.924435"><ele>172.42857142857144</ele><time>2026-05-03T07:20:56.495Z</time></trkpt><trkpt lat="42.06213" lon="11.9244333"><ele>174.57142857142856</ele><time>2026-05-03T07:20:57.496Z</time></trkpt><trkpt lat="42.0622017" lon="11.9244383"><ele>176.71428571428572</ele><time>2026-05-03T07:20:58.493Z</time></trkpt><trkpt lat="42.062265" lon="11.92444"><ele>178.85714285714286</ele><time>2026-05-03T07:20:59.492Z</time></trkpt><trkpt lat="42.0623283" lon="11.92443"><ele>181.0</ele><time>2026-05-03T07:21:00.551Z</time></trkpt><trkpt lat="42.0623983" lon="11.9244283"><ele>180.83333333333334</ele><time>2026-05-03T07:21:01.493Z</time></trkpt><trkpt lat="42.0624683" lon="11.924435"><ele>180.66666666666669</ele><time>2026-05-03T07:21:02.495Z</time></trkpt><trkpt lat="42.0625683" lon="11.9244467"><ele>180.5</ele><time>2026-05-03T07:21:04.489Z</time></trkpt><trkpt lat="42.062635" lon="11.924455"><ele>180.33333333333334</ele><time>2026-05-03T07:21:06.549Z</time></trkpt><trkpt lat="42.0627167" lon="11.9244917"><ele>180.16666666666666</ele><time>2026-05-03T07:21:08.492Z</time></trkpt><trkpt lat="42.062815" lon="11.9244883"><ele>180.0</ele><time>2026-05-03T07:22:09.501Z</time></trkpt><trkpt lat="42.0629167" lon="11.924455"><ele>180.0</ele><time>2026-05-03T07:22:11.485Z</time></trkpt><trkpt lat="42.0629933" lon="11.9244483"><ele>180.0</ele><time>2026-05-03T07:22:12.557Z</time></trkpt><trkpt lat="42.063075" lon="11.9244617"><ele>180.0</ele><time>2026-05-03T07:22:13.49Z</time></trkpt><trkpt lat="42.0631533" lon="11.9244833"><ele>180.0</ele><time>2026-05-03T07:22:14.495Z</time></trkpt><trkpt lat="42.0632333" lon="11.9244967"><ele>180.0</ele><time>2026-05-03T07:22:15.486Z</time></trkpt><trkpt lat="42.06331" lon="11.9244967"><ele>180.0</ele><time>2026-05-03T07:22:16.487Z</time></trkpt><trkpt lat="42.0633883" lon="11.9244883"><ele>180.0</ele><time>2026-05-03T07:22:17.485Z</time></trkpt><trkpt lat="42.0634683" lon="11.924475"><ele>180.0</ele><time>2026-05-03T07:22:18.548Z</time></trkpt><trkpt lat="42.0635517" lon="11.9244567"><ele>180.0</ele><time>2026-05-03T07:22:19.493Z</time></trkpt><trkpt lat="42.0636333" lon="11.924425"><ele>180.0</ele><time>2026-05-03T07:22:20.492Z</time></trkpt><trkpt lat="42.0637217" lon="11.9243833"><ele>180.0</ele><time>2026-05-03T07:22:21.491Z</time></trkpt><trkpt lat="42.06382" lon="11.924335"><ele>180.0</ele><time>2026-05-03T07:22:22.492Z</time></trkpt><trkpt lat="42.063925" lon="11.9242833"><ele>180.0</ele><time>2026-05-03T07:22:23.49Z</time></trkpt><trkpt lat="42.0640167" lon="11.9242333"><ele>180.0</ele><time>2026-05-03T07:22:24.557Z</time></trkpt><trkpt lat="42.0641017" lon="11.9241933"><ele>180.0</ele><time>2026-05-03T07:22:25.489Z</time></trkpt><trkpt lat="42.0641833" lon="11.924165"><ele>180.0</ele><time>2026-05-03T07:22:26.492Z</time></trkpt><trkpt lat="42.0642567" lon="11.9241433"><ele>180.0</ele><time>2026-05-03T07:22:27.501Z</time></trkpt><trkpt lat="42.06437" lon="11.9241417"><ele>178.8</ele><time>2026-05-03T07:22:29.493Z</time></trkpt><trkpt lat="42.0644483" lon="11.9241567"><ele>177.6</ele><time>2026-05-03T07:22:31.494Z</time></trkpt><trkpt lat="42.0645283" lon="11.9241333"><ele>176.39999999999998</ele><time>2026-05-03T07:22:33.486Z</time></trkpt><trkpt lat="42.0646183" lon="11.9241217"><ele>175.2</ele><time>2026-05-03T07:22:36.548Z</time></trkpt><trkpt lat="42.0647267" lon="11.9240867"><ele>174.0</ele><time>2026-05-03T07:22:38.491Z</time></trkpt><trkpt lat="42.0648083" lon="11.9240367"><ele>174.0</ele><time>2026-05-03T07:22:39.487Z</time></trkpt><trkpt lat="42.0649" lon="11.9239817"><ele>174.0</ele><time>2026-05-03T07:22:40.492Z</time></trkpt><trkpt lat="42.0649883" lon="11.9239217"><ele>174.0</ele><time>2026-05-03T07:22:41.496Z</time></trkpt><trkpt lat="42.0650733" lon="11.9238417"><ele>174.0</ele><time>2026-05-03T07:22:42.554Z</time></trkpt><trkpt lat="42.065155" lon="11.9237617"><ele>174.0</ele><time>2026-05-03T07:22:43.496Z</time></trkpt><trkpt lat="42.065235" lon="11.9236983"><ele>173.6</ele><time>2026-05-03T07:22:44.495Z</time></trkpt><trkpt lat="42.0653167" lon="11.9236417"><ele>173.2</ele><time>2026-05-03T07:22:45.496Z</time></trkpt><trkpt lat="42.065405" lon="11.9235833"><ele>172.79999999999998</ele><time>2026-05-03T07:22:46.487Z</time></trkpt><trkpt lat="42.0655" lon="11.9235233"><ele>172.39999999999998</ele><time>2026-05-03T07:22:47.49Z</time></trkpt><trkpt lat="42.0655917" lon="11.9234567"><ele>172.0</ele><time>2026-05-03T07:22:48.55Z</time></trkpt><trkpt lat="42.06568" lon="11.9233917"><ele>171.6</ele><time>2026-05-03T07:22:49.49Z</time></trkpt><trkpt lat="42.065735" lon="11.9233467"><ele>171.2</ele><time>2026-05-03T07:22:50.494Z</time></trkpt><trkpt lat="42.0657983" lon="11.9233117"><ele>170.8</ele><time>2026-05-03T07:22:54.555Z</time></trkpt><trkpt lat="42.0658917" lon="11.9232417"><ele>170.4</ele><time>2026-05-03T07:22:58.495Z</time></trkpt><trkpt lat="42.0660067" lon="11.923185"><ele>170.0</ele><time>2026-05-03T07:23:00.551Z</time></trkpt><trkpt lat="42.0661083" lon="11.9231367"><ele>171.0</ele><time>2026-05-03T07:23:02.494Z</time></trkpt><trkpt lat="42.0662117" lon="11.9231117"><ele>172.0</ele><time>2026-05-03T07:23:04.49Z</time></trkpt><trkpt lat="42.0662883" lon="11.9231133"><ele>173.0</ele><time>2026-05-03T07:23:06.552Z</time></trkpt><trkpt lat="42.0663667" lon="11.923105"><ele>174.0</ele><time>2026-05-03T07:23:08.491Z</time></trkpt><trkpt lat="42.0664283" lon="11.923055"><ele>175.0</ele><time>2026-05-03T07:23:11.497Z</time></trkpt><trkpt lat="42.0665" lon="11.92302"><ele>176.0</ele><time>2026-05-03T07:24:06.562Z</time></trkpt><trkpt lat="42.0665767" lon="11.9229983"><ele>175.33333333333331</ele><time>2026-05-03T07:24:20.491Z</time></trkpt><trkpt lat="42.0666917" lon="11.92301"><ele>174.66666666666666</ele><time>2026-05-03T07:24:22.495Z</time></trkpt><trkpt lat="42.06676" lon="11.92303"><ele>174.0</ele><time>2026-05-03T07:24:23.492Z</time></trkpt><trkpt lat="42.06683" lon="11.9230533"><ele>173.33333333333334</ele><time>2026-05-03T07:24:24.56Z</time></trkpt><trkpt lat="42.0668983" lon="11.9230917"><ele>172.66666666666669</ele><time>2026-05-03T07:24:25.493Z</time></trkpt><trkpt lat="42.0669633" lon="11.9231467"><ele>172.0</ele><time>2026-05-03T07:24:26.493Z</time></trkpt><trkpt lat="42.0670283" lon="11.923205"><ele>172.0</ele><time>2026-05-03T07:24:27.5Z</time></trkpt><trkpt lat="42.0670867" lon="11.9232517"><ele>172.0</ele><time>2026-05-03T07:24:28.497Z</time></trkpt><trkpt lat="42.06716" lon="11.9233033"><ele>172.0</ele><time>2026-05-03T07:24:30.552Z</time></trkpt><trkpt lat="42.0672333" lon="11.9233683"><ele>172.0</ele><time>2026-05-03T07:24:32.487Z</time></trkpt><trkpt lat="42.0672983" lon="11.9234233"><ele>172.0</ele><time>2026-05-03T07:24:34.493Z</time></trkpt><trkpt lat="42.0673867" lon="11.9234617"><ele>172.0</ele><time>2026-05-03T07:24:36.554Z</time></trkpt><trkpt lat="42.0674583" lon="11.9234883"><ele>172.33333333333334</ele><time>2026-05-03T07:24:38.496Z</time></trkpt><trkpt lat="42.0675217" lon="11.9235083"><ele>172.66666666666669</ele><time>2026-05-03T07:24:40.495Z</time></trkpt><trkpt lat="42.0675767" lon="11.9234433"><ele>173.0</ele><time>2026-05-03T07:24:45.492Z</time></trkpt><trkpt lat="42.0675983" lon="11.9233517"><ele>173.33333333333334</ele><time>2026-05-03T07:24:47.499Z</time></trkpt><trkpt lat="42.0676533" lon="11.9232583"><ele>173.66666666666666</ele><time>2026-05-03T07:24:49.492Z</time></trkpt><trkpt lat="42.0676883" lon="11.9231517"><ele>174.0</ele><time>2026-05-03T07:24:51.489Z</time></trkpt><trkpt lat="42.0677217" lon="11.923045"><ele>175.66666666666666</ele><time>2026-05-03T07:24:54.563Z</time></trkpt><trkpt lat="42.0677617" lon="11.922975"><ele>177.33333333333334</ele><time>2026-05-03T07:24:56.493Z</time></trkpt><trkpt lat="42.0678167" lon="11.9229167"><ele>179.0</ele><time>2026-05-03T07:24:58.492Z</time></trkpt><trkpt lat="42.0679067" lon="11.9228883"><ele>180.66666666666669</ele><time>2026-05-03T07:25:00.547Z</time></trkpt><trkpt lat="42.0680017" lon="11.922855"><ele>182.33333333333334</ele><time>2026-05-03T07:25:02.494Z</time></trkpt><trkpt lat="42.0681083" lon="11.9228167"><ele>184.0</ele><time>2026-05-03T07:25:04.492Z</time></trkpt><trkpt lat="42.0681783" lon="11.9227617"><ele>184.0</ele><time>2026-05-03T07:25:06.553Z</time></trkpt><trkpt lat="42.0682417" lon="11.9226833"><ele>184.0</ele><time>2026-05-03T07:25:09.496Z</time></trkpt><trkpt lat="42.06828" lon="11.9226117"><ele>184.0</ele><time>2026-05-03T07:25:11.492Z</time></trkpt><trkpt lat="42.0683317" lon="11.922545"><ele>184.0</ele><time>2026-05-03T07:25:13.492Z</time></trkpt><trkpt lat="42.0683967" lon="11.922495"><ele>184.0</ele><time>2026-05-03T07:25:15.494Z</time></trkpt><trkpt lat="42.0684783" lon="11.922415"><ele>184.0</ele><time>2026-05-03T07:25:17.498Z</time></trkpt><trkpt lat="42.0685317" lon="11.922365"><ele>187.0</ele><time>2026-05-03T07:25:18.552Z</time></trkpt><trkpt lat="42.068585" lon="11.9223167"><ele>190.0</ele><time>2026-05-03T07:25:19.49Z</time></trkpt><trkpt lat="42.06866" lon="11.922205"><ele>193.0</ele><time>2026-05-03T07:25:21.498Z</time></trkpt><trkpt lat="42.06874" lon="11.9220983"><ele>196.0</ele><time>2026-05-03T07:25:23.491Z</time></trkpt><trkpt lat="42.0688267" lon="11.9220067"><ele>199.0</ele><time>2026-05-03T07:25:25.487Z</time></trkpt><trkpt lat="42.06888" lon="11.9219567"><ele>198.99999999999997</ele><time>2026-05-03T07:25:26.496Z</time></trkpt><trkpt lat="42.0689817" lon="11.9218833"><ele>199.0</ele><time>2026-05-03T07:25:28.488Z</time></trkpt><trkpt lat="42.0690883" lon="11.9218667"><ele>199.0</ele><time>2026-05-03T07:25:30.546Z</time></trkpt><trkpt lat="42.069155" lon="11.9218817"><ele>199.0</ele><time>2026-05-03T07:25:31.491Z</time></trkpt><trkpt lat="42.069225" lon="11.92189"><ele>198.99999999999997</ele><time>2026-05-03T07:25:32.49Z</time></trkpt><trkpt lat="42.0692933" lon="11.92188"><ele>199.0</ele><time>2026-05-03T07:25:33.489Z</time></trkpt><trkpt lat="42.069415" lon="11.9218317"><ele>200.49999999999997</ele><time>2026-05-03T07:25:35.494Z</time></trkpt><trkpt lat="42.0694883" lon="11.9218217"><ele>202.0</ele><time>2026-05-03T07:25:36.554Z</time></trkpt><trkpt lat="42.0695683" lon="11.9218017"><ele>203.5</ele><time>2026-05-03T07:25:37.487Z</time></trkpt><trkpt lat="42.0696367" lon="11.9217683"><ele>205.0</ele><time>2026-05-03T07:25:38.493Z</time></trkpt><trkpt lat="42.069725" lon="11.9216817"><ele>206.49999999999997</ele><time>2026-05-03T07:25:40.493Z</time></trkpt><trkpt lat="42.0697983" lon="11.9216117"><ele>208.0</ele><time>2026-05-03T07:25:42.55Z</time></trkpt><trkpt lat="42.0698767" lon="11.9215683"><ele>210.8</ele><time>2026-05-03T07:25:44.494Z</time></trkpt><trkpt lat="42.0699733" lon="11.9214667"><ele>213.60000000000002</ele><time>2026-05-03T07:25:46.496Z</time></trkpt><trkpt lat="42.0700317" lon="11.9213933"><ele>216.39999999999998</ele><time>2026-05-03T07:25:47.497Z</time></trkpt><trkpt lat="42.070095" lon="11.92132"><ele>219.2</ele><time>2026-05-03T07:25:48.549Z</time></trkpt><trkpt lat="42.0701583" lon="11.9212583"><ele>222.0</ele><time>2026-05-03T07:25:49.492Z</time></trkpt><trkpt lat="42.0702667" lon="11.9211833"><ele>222.0</ele><time>2026-05-03T07:25:51.494Z</time></trkpt><trkpt lat="42.0703817" lon="11.9211833"><ele>222.0</ele><time>2026-05-03T07:25:53.495Z</time></trkpt><trkpt lat="42.0704983" lon="11.921235"><ele>222.0</ele><time>2026-05-03T07:25:55.492Z</time></trkpt><trkpt lat="42.0705667" lon="11.92127"><ele>222.0</ele><time>2026-05-03T07:25:56.484Z</time></trkpt><trkpt lat="42.0706317" lon="11.9212967"><ele>222.0</ele><time>2026-05-03T07:25:57.493Z</time></trkpt><trkpt lat="42.0706983" lon="11.921305"><ele>222.0</ele><time>2026-05-03T07:25:58.488Z</time></trkpt><trkpt lat="42.0708133" lon="11.92127"><ele>224.8</ele><time>2026-05-03T07:26:00.498Z</time></trkpt><trkpt lat="42.0709017" lon="11.921205"><ele>227.6</ele><time>2026-05-03T07:26:02.5Z</time></trkpt><trkpt lat="42.0710317" lon="11.9211267"><ele>230.40000000000003</ele><time>2026-05-03T07:26:12.554Z</time></trkpt><trkpt lat="42.0711117" lon="11.9210783"><ele>233.20000000000002</ele><time>2026-05-03T07:26:15.496Z</time></trkpt><trkpt lat="42.07119" lon="11.9210417"><ele>236.0</ele><time>2026-05-03T07:26:17.496Z</time></trkpt><trkpt lat="42.0712617" lon="11.9210067"><ele>236.0</ele><time>2026-05-03T07:26:19.486Z</time></trkpt><trkpt lat="42.0713267" lon="11.9210117"><ele>236.0</ele><time>2026-05-03T07:26:21.494Z</time></trkpt><trkpt lat="42.07139" lon="11.9210567"><ele>236.0</ele><time>2026-05-03T07:26:23.493Z</time></trkpt><trkpt lat="42.0714583" lon="11.9210917"><ele>236.0</ele><time>2026-05-03T07:26:25.493Z</time></trkpt><trkpt lat="42.0715283" lon="11.92114"><ele>236.0</ele><time>2026-05-03T07:26:27.499Z</time></trkpt><trkpt lat="42.0716117" lon="11.9211717"><ele>236.0</ele><time>2026-05-03T07:26:29.498Z</time></trkpt><trkpt lat="42.0716783" lon="11.921205"><ele>236.0</ele><time>2026-05-03T07:26:31.496Z</time></trkpt><trkpt lat="42.0717417" lon="11.921245"><ele>237.0</ele><time>2026-05-03T07:26:33.496Z</time></trkpt><trkpt lat="42.0718317" lon="11.9212433"><ele>238.00000000000003</ele><time>2026-05-03T07:26:35.486Z</time></trkpt><trkpt lat="42.071905" lon="11.9212033"><ele>239.00000000000003</ele><time>2026-05-03T07:26:37.488Z</time></trkpt><trkpt lat="42.071975" lon="11.9211433"><ele>240.0</ele><time>2026-05-03T07:26:39.491Z</time></trkpt><trkpt lat="42.0720633" lon="11.9210933"><ele>241.0</ele><time>2026-05-03T07:26:41.494Z</time></trkpt><trkpt lat="42.0721733" lon="11.92105"><ele>240.99999999999997</ele><time>2026-05-03T07:26:43.49Z</time></trkpt><trkpt lat="42.0722833" lon="11.9209867"><ele>241.0</ele><time>2026-05-03T07:26:45.497Z</time></trkpt><trkpt lat="42.0723683" lon="11.92094"><ele>241.0</ele><time>2026-05-03T07:26:47.492Z</time></trkpt><trkpt lat="42.0724383" lon="11.9209467"><ele>241.0</ele><time>2026-05-03T07:26:49.49Z</time></trkpt><trkpt lat="42.072515" lon="11.92097"><ele>240.99999999999997</ele><time>2026-05-03T07:26:52.496Z</time></trkpt><trkpt lat="42.0725783" lon="11.9209933"><ele>241.0</ele><time>2026-05-03T07:26:55.5Z</time></trkpt><trkpt lat="42.0726517" lon="11.9210183"><ele>239.8</ele><time>2026-05-03T07:26:58.495Z</time></trkpt><trkpt lat="42.0727133" lon="11.92108"><ele>238.60000000000002</ele><time>2026-05-03T07:27:00.497Z</time></trkpt><trkpt lat="42.0727983" lon="11.9210783"><ele>237.4</ele><time>2026-05-03T07:27:02.492Z</time></trkpt><trkpt lat="42.072885" lon="11.9210067"><ele>236.2</ele><time>2026-05-03T07:27:04.499Z</time></trkpt><trkpt lat="42.0729933" lon="11.9209267"><ele>235.0</ele><time>2026-05-03T07:27:06.551Z</time></trkpt><trkpt lat="42.073095" lon="11.9208667"><ele>234.99999999999997</ele><time>2026-05-03T07:27:08.495Z</time></trkpt><trkpt lat="42.0731583" lon="11.9208467"><ele>235.0</ele><time>2026-05-03T07:27:10.497Z</time></trkpt><trkpt lat="42.0732333" lon="11.9208883"><ele>235.0</ele><time>2026-05-03T07:27:18.558Z</time></trkpt><trkpt lat="42.073325" lon="11.9209183"><ele>235.0</ele><time>2026-05-03T07:27:22.496Z</time></trkpt><trkpt lat="42.0733983" lon="11.9209417"><ele>234.99999999999997</ele><time>2026-05-03T07:27:24.558Z</time></trkpt><trkpt lat="42.0734567" lon="11.9210367"><ele>235.0</ele><time>2026-05-03T07:27:27.495Z</time></trkpt><trkpt lat="42.073495" lon="11.9211233"><ele>238.99999999999997</ele><time>2026-05-03T07:27:29.495Z</time></trkpt><trkpt lat="42.0735483" lon="11.9211717"><ele>243.0</ele><time>2026-05-03T07:27:31.487Z</time></trkpt><trkpt lat="42.07362" lon="11.9211533"><ele>247.0</ele><time>2026-05-03T07:27:53.488Z</time></trkpt><trkpt lat="42.07368" lon="11.92112"><ele>251.0</ele><time>2026-05-03T07:27:55.492Z</time></trkpt><trkpt lat="42.073775" lon="11.9211167"><ele>254.99999999999997</ele><time>2026-05-03T07:27:57.49Z</time></trkpt><trkpt lat="42.0738667" lon="11.9210917"><ele>259.0</ele><time>2026-05-03T07:27:59.494Z</time></trkpt><trkpt lat="42.07395" lon="11.92107"><ele>259.0</ele><time>2026-05-03T07:28:01.494Z</time></trkpt><trkpt lat="42.0740367" lon="11.921075"><ele>259.0</ele><time>2026-05-03T07:28:03.49Z</time></trkpt><trkpt lat="42.0741283" lon="11.9211017"><ele>259.0</ele><time>2026-05-03T07:28:05.492Z</time></trkpt><trkpt lat="42.074225" lon="11.9211483"><ele>259.0</ele><time>2026-05-03T07:28:07.49Z</time></trkpt><trkpt lat="42.0743233" lon="11.92122"><ele>259.0</ele><time>2026-05-03T07:28:09.499Z</time></trkpt><trkpt lat="42.0743917" lon="11.9213"><ele>260.2</ele><time>2026-05-03T07:28:11.497Z</time></trkpt><trkpt lat="42.074465" lon="11.9213283"><ele>261.4</ele><time>2026-05-03T07:28:13.49Z</time></trkpt><trkpt lat="42.0745583" lon="11.92133"><ele>262.6</ele><time>2026-05-03T07:28:15.493Z</time></trkpt><trkpt lat="42.0746633" lon="11.9212967"><ele>263.8</ele><time>2026-05-03T07:28:17.5Z</time></trkpt><trkpt lat="42.07475" lon="11.9213383"><ele>265.0</ele><time>2026-05-03T07:28:19.491Z</time></trkpt><trkpt lat="42.0748217" lon="11.92142"><ele>265.0</ele><time>2026-05-03T07:28:21.494Z</time></trkpt><trkpt lat="42.0749133" lon="11.9214717"><ele>265.0</ele><time>2026-05-03T07:28:23.496Z</time></trkpt><trkpt lat="42.0749983" lon="11.92153"><ele>265.0</ele><time>2026-05-03T07:28:25.499Z</time></trkpt><trkpt lat="42.0750683" lon="11.9216067"><ele>265.0</ele><time>2026-05-03T07:28:27.497Z</time></trkpt><trkpt lat="42.0751617" lon="11.9216817"><ele>265.0</ele><time>2026-05-03T07:28:29.486Z</time></trkpt><trkpt lat="42.07527" lon="11.9217767"><ele>266.8333333333333</ele><time>2026-05-03T07:28:31.494Z</time></trkpt><trkpt lat="42.0753217" lon="11.9218333"><ele>268.66666666666663</ele><time>2026-05-03T07:28:32.491Z</time></trkpt><trkpt lat="42.075375" lon="11.9218817"><ele>270.5</ele><time>2026-05-03T07:28:33.489Z</time></trkpt><trkpt lat="42.0754733" lon="11.9219133"><ele>272.3333333333333</ele><time>2026-05-03T07:28:35.488Z</time></trkpt><trkpt lat="42.0755467" lon="11.9218567"><ele>274.1666666666667</ele><time>2026-05-03T07:28:40.493Z</time></trkpt><trkpt lat="42.0756317" lon="11.9218033"><ele>276.0</ele><time>2026-05-03T07:28:42.558Z</time></trkpt><trkpt lat="42.075735" lon="11.9217933"><ele>275.8</ele><time>2026-05-03T07:28:44.495Z</time></trkpt><trkpt lat="42.0758017" lon="11.921775"><ele>275.6</ele><time>2026-05-03T07:28:45.501Z</time></trkpt><trkpt lat="42.0758967" lon="11.92169"><ele>275.4</ele><time>2026-05-03T07:28:47.496Z</time></trkpt><trkpt lat="42.0759667" lon="11.9215983"><ele>275.2</ele><time>2026-05-03T07:28:49.491Z</time></trkpt><trkpt lat="42.07607" lon="11.9215217"><ele>275.0</ele><time>2026-05-03T07:28:51.491Z</time></trkpt><trkpt lat="42.0761267" lon="11.9214283"><ele>275.0</ele><time>2026-05-03T07:28:53.491Z</time></trkpt><trkpt lat="42.0761167" lon="11.921335"><ele>275.0</ele><time>2026-05-03T07:28:56.49Z</time></trkpt><trkpt lat="42.0761183" lon="11.9212267"><ele>275.0</ele><time>2026-05-03T07:29:03.492Z</time></trkpt><trkpt lat="42.0761383" lon="11.9210883"><ele>275.0</ele><time>2026-05-03T07:29:05.498Z</time></trkpt><trkpt lat="42.0761583" lon="11.920935"><ele>275.0</ele><time>2026-05-03T07:29:07.495Z</time></trkpt><trkpt lat="42.076195" lon="11.92078"><ele>275.7142857142857</ele><time>2026-05-03T07:29:09.498Z</time></trkpt><trkpt lat="42.0762283" lon="11.920705"><ele>276.42857142857144</ele><time>2026-05-03T07:29:10.497Z</time></trkpt><trkpt lat="42.0762583" lon="11.920625"><ele>277.1428571428571</ele><time>2026-05-03T07:29:11.497Z</time></trkpt><trkpt lat="42.0762767" lon="11.9205433"><ele>277.8571428571429</ele><time>2026-05-03T07:29:12.548Z</time></trkpt><trkpt lat="42.0763233" lon="11.9203983"><ele>278.57142857142856</ele><time>2026-05-03T07:29:14.494Z</time></trkpt><trkpt lat="42.0763683" lon="11.9203367"><ele>279.2857142857143</ele><time>2026-05-03T07:29:15.497Z</time></trkpt><trkpt lat="42.07642" lon="11.9202767"><ele>280.0</ele><time>2026-05-03T07:29:16.495Z</time></trkpt><trkpt lat="42.0764767" lon="11.92022"><ele>280.0</ele><time>2026-05-03T07:29:17.497Z</time></trkpt><trkpt lat="42.0765367" lon="11.9201733"><ele>280.0</ele><time>2026-05-03T07:29:18.542Z</time></trkpt><trkpt lat="42.0765967" lon="11.9201467"><ele>280.0</ele><time>2026-05-03T07:29:19.486Z</time></trkpt><trkpt lat="42.076715" lon="11.92014"><ele>280.0</ele><time>2026-05-03T07:29:21.49Z</time></trkpt><trkpt lat="42.07678" lon="11.9201233"><ele>280.0</ele><time>2026-05-03T07:29:22.491Z</time></trkpt><trkpt lat="42.0768617" lon="11.920015"><ele>280.0</ele><time>2026-05-03T07:29:24.562Z</time></trkpt><trkpt lat="42.076945" lon="11.9198983"><ele>284.25</ele><time>2026-05-03T07:29:26.491Z</time></trkpt><trkpt lat="42.07701" lon="11.9197683"><ele>288.5</ele><time>2026-05-03T07:29:28.486Z</time></trkpt><trkpt lat="42.077035" lon="11.9196167"><ele>292.75</ele><time>2026-05-03T07:29:30.557Z</time></trkpt><trkpt lat="42.0770967" lon="11.9195033"><ele>297.0</ele><time>2026-05-03T07:29:32.489Z</time></trkpt><trkpt lat="42.0772" lon="11.919425"><ele>297.0</ele><time>2026-05-03T07:29:34.494Z</time></trkpt><trkpt lat="42.0772833" lon="11.9193667"><ele>297.0</ele><time>2026-05-03T07:29:36.56Z</time></trkpt><trkpt lat="42.0773717" lon="11.9193883"><ele>297.0</ele><time>2026-05-03T07:29:38.489Z</time></trkpt><trkpt lat="42.07747" lon="11.9194083"><ele>297.0</ele><time>2026-05-03T07:29:40.495Z</time></trkpt><trkpt lat="42.07752" lon="11.9193217"><ele>297.0</ele><time>2026-05-03T07:29:42.556Z</time></trkpt><trkpt lat="42.077515" lon="11.9192267"><ele>297.0</ele><time>2026-05-03T07:29:43.489Z</time></trkpt><trkpt lat="42.077505" lon="11.91912"><ele>298.0</ele><time>2026-05-03T07:29:44.484Z</time></trkpt><trkpt lat="42.0775" lon="11.919025"><ele>299.0</ele><time>2026-05-03T07:29:45.495Z</time></trkpt><trkpt lat="42.0775033" lon="11.9189367"><ele>300.0</ele><time>2026-05-03T07:29:47.496Z</time></trkpt><trkpt lat="42.0774433" lon="11.9188483"><ele>301.0</ele><time>2026-05-03T07:30:27.487Z</time></trkpt><trkpt lat="42.077335" lon="11.9187483"><ele>302.0</ele><time>2026-05-03T07:30:29.495Z</time></trkpt><trkpt lat="42.0772783" lon="11.918685"><ele>303.0</ele><time>2026-05-03T07:30:30.499Z</time></trkpt><trkpt lat="42.0772233" lon="11.918615"><ele>303.0</ele><time>2026-05-03T07:30:31.487Z</time></trkpt><trkpt lat="42.0771733" lon="11.9185517"><ele>303.0</ele><time>2026-05-03T07:30:32.498Z</time></trkpt><trkpt lat="42.0770883" lon="11.9184467"><ele>303.0</ele><time>2026-05-03T07:30:34.486Z</time></trkpt><trkpt lat="42.0770417" lon="11.9183633"><ele>303.0</ele><time>2026-05-03T07:30:36.554Z</time></trkpt><trkpt lat="42.0769833" lon="11.9182767"><ele>303.0</ele><time>2026-05-03T07:30:38.489Z</time></trkpt><trkpt lat="42.0768917" lon="11.9182467"><ele>303.0</ele><time>2026-05-03T07:30:40.495Z</time></trkpt><trkpt lat="42.0767633" lon="11.91827"><ele>303.8571428571429</ele><time>2026-05-03T07:30:42.548Z</time></trkpt><trkpt lat="42.0766883" lon="11.918265"><ele>304.7142857142857</ele><time>2026-05-03T07:30:43.487Z</time></trkpt><trkpt lat="42.07661" lon="11.91824"><ele>305.57142857142856</ele><time>2026-05-03T07:30:44.495Z</time></trkpt><trkpt lat="42.0765367" lon="11.9182017"><ele>306.42857142857144</ele><time>2026-05-03T07:30:45.492Z</time></trkpt><trkpt lat="42.0764667" lon="11.9181633"><ele>307.2857142857143</ele><time>2026-05-03T07:30:46.497Z</time></trkpt><trkpt lat="42.0764083" lon="11.918115"><ele>308.14285714285717</ele><time>2026-05-03T07:30:47.498Z</time></trkpt><trkpt lat="42.0763583" lon="11.918055"><ele>309.0</ele><time>2026-05-03T07:30:48.545Z</time></trkpt><trkpt lat="42.0762567" lon="11.9179617"><ele>309.4</ele><time>2026-05-03T07:30:50.493Z</time></trkpt><trkpt lat="42.07615" lon="11.91792"><ele>309.79999999999995</ele><time>2026-05-03T07:30:52.492Z</time></trkpt><trkpt lat="42.0760683" lon="11.9178917"><ele>310.20000000000005</ele><time>2026-05-03T07:30:54.492Z</time></trkpt><trkpt lat="42.075965" lon="11.9178183"><ele>310.6</ele><time>2026-05-03T07:30:56.492Z</time></trkpt><trkpt lat="42.0758767" lon="11.9177367"><ele>311.0</ele><time>2026-05-03T07:30:58.493Z</time></trkpt><trkpt lat="42.0758183" lon="11.9177017"><ele>309.7142857142857</ele><time>2026-05-03T07:30:59.492Z</time></trkpt><trkpt lat="42.0757483" lon="11.9176783"><ele>308.42857142857144</ele><time>2026-05-03T07:31:00.489Z</time></trkpt><trkpt lat="42.07568" lon="11.917665"><ele>307.14285714285717</ele><time>2026-05-03T07:31:01.493Z</time></trkpt><trkpt lat="42.07558" lon="11.9176733"><ele>305.8571428571429</ele><time>2026-05-03T07:31:03.492Z</time></trkpt><trkpt lat="42.0755233" lon="11.917635"><ele>304.57142857142856</ele><time>2026-05-03T07:31:08.491Z</time></trkpt><trkpt lat="42.07546" lon="11.9176367"><ele>303.28571428571433</ele><time>2026-05-03T07:31:12.545Z</time></trkpt><trkpt lat="42.075385" lon="11.9176117"><ele>302.0</ele><time>2026-05-03T07:31:14.491Z</time></trkpt><trkpt lat="42.0753217" lon="11.9176017"><ele>302.0</ele><time>2026-05-03T07:31:15.494Z</time></trkpt><trkpt lat="42.0752533" lon="11.9175967"><ele>302.0</ele><time>2026-05-03T07:31:16.496Z</time></trkpt><trkpt lat="42.07518" lon="11.91759"><ele>302.0</ele><time>2026-05-03T07:31:17.491Z</time></trkpt><trkpt lat="42.0750633" lon="11.9175383"><ele>302.0</ele><time>2026-05-03T07:31:19.496Z</time></trkpt><trkpt lat="42.0750067" lon="11.917485"><ele>302.0</ele><time>2026-05-03T07:31:20.496Z</time></trkpt><trkpt lat="42.0749483" lon="11.917425"><ele>302.0</ele><time>2026-05-03T07:31:21.494Z</time></trkpt><trkpt lat="42.07489" lon="11.9173617"><ele>301.0</ele><time>2026-05-03T07:31:22.488Z</time></trkpt><trkpt lat="42.0748367" lon="11.9172967"><ele>300.0</ele><time>2026-05-03T07:31:23.497Z</time></trkpt><trkpt lat="42.0747833" lon="11.9172333"><ele>299.0</ele><time>2026-05-03T07:31:24.495Z</time></trkpt><trkpt lat="42.0747283" lon="11.9171867"><ele>298.0</ele><time>2026-05-03T07:31:25.495Z</time></trkpt><trkpt lat="42.0746117" lon="11.9171383"><ele>297.0</ele><time>2026-05-03T07:31:27.487Z</time></trkpt><trkpt lat="42.0744983" lon="11.91707"><ele>297.0</ele><time>2026-05-03T07:31:29.491Z</time></trkpt><trkpt lat="42.07439" lon="11.91699"><ele>297.0</ele><time>2026-05-03T07:31:31.492Z</time></trkpt><trkpt lat="42.0743267" lon="11.9169633"><ele>297.0</ele><time>2026-05-03T07:31:32.485Z</time></trkpt><trkpt lat="42.0742617" lon="11.9169267"><ele>297.0</ele><time>2026-05-03T07:31:33.49Z</time></trkpt><trkpt lat="42.0742033" lon="11.916895"><ele>297.0</ele><time>2026-05-03T07:31:34.488Z</time></trkpt><trkpt lat="42.0740933" lon="11.9169017"><ele>297.0</ele><time>2026-05-03T07:31:36.542Z</time></trkpt><trkpt lat="42.0739983" lon="11.9169567"><ele>296.0</ele><time>2026-05-03T07:31:38.495Z</time></trkpt><trkpt lat="42.07389" lon="11.91695"><ele>295.0</ele><time>2026-05-03T07:31:40.489Z</time></trkpt><trkpt lat="42.0737833" lon="11.916875"><ele>294.0</ele><time>2026-05-03T07:31:42.547Z</time></trkpt><trkpt lat="42.073705" lon="11.9168383"><ele>293.0</ele><time>2026-05-03T07:31:44.494Z</time></trkpt><trkpt lat="42.0736167" lon="11.916885"><ele>292.0</ele><time>2026-05-03T07:31:46.498Z</time></trkpt><trkpt lat="42.07356" lon="11.916925"><ele>292.0</ele><time>2026-05-03T07:31:47.496Z</time></trkpt><trkpt lat="42.0734983" lon="11.9169517"><ele>292.0</ele><time>2026-05-03T07:31:48.547Z</time></trkpt><trkpt lat="42.07343" lon="11.9169583"><ele>292.0</ele><time>2026-05-03T07:31:49.497Z</time></trkpt><trkpt lat="42.0733617" lon="11.9169683"><ele>292.0</ele><time>2026-05-03T07:31:50.497Z</time></trkpt><trkpt lat="42.0732683" lon="11.917005"><ele>292.0</ele><time>2026-05-03T07:31:52.495Z</time></trkpt><trkpt lat="42.0731883" lon="11.9171183"><ele>292.0</ele><time>2026-05-03T07:31:54.495Z</time></trkpt><trkpt lat="42.0731383" lon="11.9171867"><ele>290.4</ele><time>2026-05-03T07:31:55.486Z</time></trkpt><trkpt lat="42.073085" lon="11.917235"><ele>288.79999999999995</ele><time>2026-05-03T07:31:56.488Z</time></trkpt><trkpt lat="42.07299" lon="11.9173033"><ele>287.2</ele><time>2026-05-03T07:31:58.496Z</time></trkpt><trkpt lat="42.0728767" lon="11.9173533"><ele>285.59999999999997</ele><time>2026-05-03T07:32:00.546Z</time></trkpt><trkpt lat="42.07276" lon="11.9173917"><ele>284.0</ele><time>2026-05-03T07:32:02.493Z</time></trkpt><trkpt lat="42.0726583" lon="11.917365"><ele>284.0</ele><time>2026-05-03T07:32:04.495Z</time></trkpt><trkpt lat="42.0726017" lon="11.9173267"><ele>284.0</ele><time>2026-05-03T07:32:05.49Z</time></trkpt><trkpt lat="42.0725367" lon="11.917285"><ele>284.0</ele><time>2026-05-03T07:32:06.542Z</time></trkpt><trkpt lat="42.0724733" lon="11.917255"><ele>284.0</ele><time>2026-05-03T07:32:07.49Z</time></trkpt><trkpt lat="42.07237" lon="11.9172283"><ele>284.0</ele><time>2026-05-03T07:32:09.49Z</time></trkpt><trkpt lat="42.0723067" lon="11.9171367"><ele>284.0</ele><time>2026-05-03T07:32:11.492Z</time></trkpt><trkpt lat="42.0722533" lon="11.9170267"><ele>281.0</ele><time>2026-05-03T07:32:13.487Z</time></trkpt><trkpt lat="42.0722" lon="11.9169617"><ele>278.0</ele><time>2026-05-03T07:32:15.496Z</time></trkpt><trkpt lat="42.072125" lon="11.9169083"><ele>275.0</ele><time>2026-05-03T07:32:18.546Z</time></trkpt><trkpt lat="42.0720567" lon="11.916865"><ele>272.0</ele><time>2026-05-03T07:32:20.491Z</time></trkpt><trkpt lat="42.071995" lon="11.9168017"><ele>269.0</ele><time>2026-05-03T07:32:22.491Z</time></trkpt><trkpt lat="42.0719267" lon="11.9167367"><ele>266.0</ele><time>2026-05-03T07:32:24.558Z</time></trkpt><trkpt lat="42.0718467" lon="11.9166617"><ele>265.83333333333337</ele><time>2026-05-03T07:32:26.487Z</time></trkpt><trkpt lat="42.0717833" lon="11.9165883"><ele>265.6666666666667</ele><time>2026-05-03T07:32:28.49Z</time></trkpt><trkpt lat="42.07172" lon="11.916535"><ele>265.5</ele><time>2026-05-03T07:32:30.548Z</time></trkpt><trkpt lat="42.071695" lon="11.91643"><ele>265.3333333333333</ele><time>2026-05-03T07:34:48.545Z</time></trkpt><trkpt lat="42.0716533" lon="11.9163633"><ele>265.16666666666663</ele><time>2026-05-03T07:34:51.499Z</time></trkpt><trkpt lat="42.0715767" lon="11.9163583"><ele>265.0</ele><time>2026-05-03T07:34:54.562Z</time></trkpt><trkpt lat="42.0714967" lon="11.9163383"><ele>261.2</ele><time>2026-05-03T07:34:56.49Z</time></trkpt><trkpt lat="42.0714133" lon="11.9163383"><ele>257.4</ele><time>2026-05-03T07:34:58.494Z</time></trkpt><trkpt lat="42.07133" lon="11.9163217"><ele>253.60000000000002</ele><time>2026-05-03T07:35:00.545Z</time></trkpt><trkpt lat="42.071235" lon="11.9163217"><ele>249.8</ele><time>2026-05-03T07:35:02.489Z</time></trkpt><trkpt lat="42.0711467" lon="11.9163067"><ele>246.0</ele><time>2026-05-03T07:35:04.494Z</time></trkpt><trkpt lat="42.0710333" lon="11.9162633"><ele>246.0</ele><time>2026-05-03T07:35:06.546Z</time></trkpt><trkpt lat="42.0709333" lon="11.91621"><ele>246.00000000000003</ele><time>2026-05-03T07:35:08.49Z</time></trkpt><trkpt lat="42.07087" lon="11.9161483"><ele>246.00000000000003</ele><time>2026-05-03T07:35:10.493Z</time></trkpt><trkpt lat="42.0708167" lon="11.9160667"><ele>246.0</ele><time>2026-05-03T07:35:12.547Z</time></trkpt><trkpt lat="42.0707517" lon="11.9159683"><ele>246.0</ele><time>2026-05-03T07:35:14.491Z</time></trkpt><trkpt lat="42.0706717" lon="11.91589"><ele>243.16666666666666</ele><time>2026-05-03T07:35:16.494Z</time></trkpt><trkpt lat="42.0706033" lon="11.915845"><ele>240.33333333333331</ele><time>2026-05-03T07:35:18.543Z</time></trkpt><trkpt lat="42.0705317" lon="11.9158217"><ele>237.5</ele><time>2026-05-03T07:35:20.488Z</time></trkpt><trkpt lat="42.0704333" lon="11.9158083"><ele>234.66666666666666</ele><time>2026-05-03T07:35:22.491Z</time></trkpt><trkpt lat="42.0703283" lon="11.9158067"><ele>231.83333333333331</ele><time>2026-05-03T07:35:24.562Z</time></trkpt><trkpt lat="42.0702567" lon="11.915765"><ele>229.0</ele><time>2026-05-03T07:35:26.49Z</time></trkpt><trkpt lat="42.0701833" lon="11.9156583"><ele>229.0</ele><time>2026-05-03T07:35:28.49Z</time></trkpt><trkpt lat="42.0701233" lon="11.915555"><ele>228.99999999999997</ele><time>2026-05-03T07:35:30.543Z</time></trkpt><trkpt lat="42.0700533" lon="11.9154633"><ele>228.99999999999997</ele><time>2026-05-03T07:35:32.492Z</time></trkpt><trkpt lat="42.0699917" lon="11.915395"><ele>229.0</ele><time>2026-05-03T07:35:34.497Z</time></trkpt><trkpt lat="42.0699033" lon="11.9153533"><ele>229.0</ele><time>2026-05-03T07:35:37.493Z</time></trkpt><trkpt lat="42.0698217" lon="11.9152983"><ele>226.85714285714286</ele><time>2026-05-03T07:35:39.492Z</time></trkpt><trkpt lat="42.0697633" lon="11.9152633"><ele>224.71428571428572</ele><time>2026-05-03T07:35:40.493Z</time></trkpt><trkpt lat="42.069695" lon="11.915225"><ele>222.57142857142858</ele><time>2026-05-03T07:35:41.491Z</time></trkpt><trkpt lat="42.0696317" lon="11.9151867"><ele>220.42857142857144</ele><time>2026-05-03T07:35:42.548Z</time></trkpt><trkpt lat="42.06957" lon="11.9151483"><ele>218.28571428571428</ele><time>2026-05-03T07:35:43.491Z</time></trkpt><trkpt lat="42.06951" lon="11.91511"><ele>216.14285714285717</ele><time>2026-05-03T07:35:44.492Z</time></trkpt><trkpt lat="42.069445" lon="11.915085"><ele>214.0</ele><time>2026-05-03T07:35:45.496Z</time></trkpt><trkpt lat="42.0693233" lon="11.9150467"><ele>214.0</ele><time>2026-05-03T07:35:47.487Z</time></trkpt><trkpt lat="42.0692617" lon="11.9150167"><ele>213.99999999999997</ele><time>2026-05-03T07:35:48.548Z</time></trkpt><trkpt lat="42.0691683" lon="11.9149533"><ele>213.99999999999997</ele><time>2026-05-03T07:35:50.49Z</time></trkpt><trkpt lat="42.06918" lon="11.9148233"><ele>214.0</ele><time>2026-05-03T07:36:11.496Z</time></trkpt><trkpt lat="42.069245" lon="11.9146667"><ele>214.0</ele><time>2026-05-03T07:38:18.548Z</time></trkpt><trkpt lat="42.069305" lon="11.9145817"><ele>213.99999999999997</ele><time>2026-05-03T07:38:21.487Z</time></trkpt><trkpt lat="42.069355" lon="11.9144817"><ele>214.0</ele><time>2026-05-03T07:38:24.491Z</time></trkpt><trkpt lat="42.069395" lon="11.914395"><ele>214.0</ele><time>2026-05-03T07:38:27.497Z</time></trkpt><trkpt lat="42.06943" lon="11.9143067"><ele>214.0</ele><time>2026-05-03T07:38:30.496Z</time></trkpt><trkpt lat="42.0694517" lon="11.9142217"><ele>213.99999999999997</ele><time>2026-05-03T07:38:33.492Z</time></trkpt><trkpt lat="42.0694917" lon="11.9141067"><ele>214.0</ele><time>2026-05-03T07:42:25.493Z</time></trkpt><trkpt lat="42.0695183" lon="11.9139833"><ele>213.83333333333331</ele><time>2026-05-03T07:42:58.501Z</time></trkpt><trkpt lat="42.0694967" lon="11.9138617"><ele>213.66666666666666</ele><time>2026-05-03T07:49:35.499Z</time></trkpt><trkpt lat="42.069525" lon="11.9137567"><ele>213.5</ele><time>2026-05-03T07:49:38.488Z</time></trkpt><trkpt lat="42.06957" lon="11.913675"><ele>213.33333333333331</ele><time>2026-05-03T07:49:41.492Z</time></trkpt><trkpt lat="42.0696083" lon="11.9136067"><ele>213.16666666666666</ele><time>2026-05-03T07:49:44.49Z</time></trkpt><trkpt lat="42.069635" lon="11.9135283"><ele>213.0</ele><time>2026-05-03T07:49:48.548Z</time></trkpt><trkpt lat="42.0696733" lon="11.9134317"><ele>214.83333333333334</ele><time>2026-05-03T07:49:52.492Z</time></trkpt><trkpt lat="42.069725" lon="11.9132383"><ele>216.66666666666669</ele><time>2026-05-03T07:54:25.494Z</time></trkpt><trkpt lat="42.0697583" lon="11.9131517"><ele>218.5</ele><time>2026-05-03T07:54:34.494Z</time></trkpt><trkpt lat="42.0697833" lon="11.9130667"><ele>220.33333333333334</ele><time>2026-05-03T07:54:38.489Z</time></trkpt><trkpt lat="42.0698167" lon="11.9129917"><ele>222.16666666666669</ele><time>2026-05-03T07:54:41.497Z</time></trkpt><trkpt lat="42.0698583" lon="11.912925"><ele>224.0</ele><time>2026-05-03T07:54:44.489Z</time></trkpt><trkpt lat="42.0698833" lon="11.9128467"><ele>224.0</ele><time>2026-05-03T07:54:46.488Z</time></trkpt><trkpt lat="42.06992" lon="11.9127317"><ele>223.99999999999997</ele><time>2026-05-03T07:56:27.501Z</time></trkpt><trkpt lat="42.06995" lon="11.9126233"><ele>223.99999999999997</ele><time>2026-05-03T07:56:29.501Z</time></trkpt><trkpt lat="42.0700033" lon="11.9124833"><ele>224.0</ele><time>2026-05-03T07:56:31.485Z</time></trkpt><trkpt lat="42.0700667" lon="11.9123783"><ele>224.0</ele><time>2026-05-03T07:56:33.492Z</time></trkpt><trkpt lat="42.0701067" lon="11.9122367"><ele>229.00000000000003</ele><time>2026-05-03T07:56:35.496Z</time></trkpt><trkpt lat="42.0701367" lon="11.912105"><ele>234.0</ele><time>2026-05-03T07:56:37.489Z</time></trkpt><trkpt lat="42.07012" lon="11.9120183"><ele>239.0</ele><time>2026-05-03T07:56:39.497Z</time></trkpt><trkpt lat="42.070065" lon="11.91196"><ele>244.0</ele><time>2026-05-03T07:56:42.552Z</time></trkpt><trkpt lat="42.0701267" lon="11.91204"><ele>249.00000000000003</ele><time>2026-05-03T07:57:18.549Z</time></trkpt><trkpt lat="42.070135" lon="11.9121667"><ele>254.0</ele><time>2026-05-03T07:57:21.486Z</time></trkpt><trkpt lat="42.070115" lon="11.9122633"><ele>254.00000000000003</ele><time>2026-05-03T07:57:23.494Z</time></trkpt><trkpt lat="42.07009" lon="11.9123467"><ele>254.0</ele><time>2026-05-03T07:57:25.491Z</time></trkpt><trkpt lat="42.070055" lon="11.9124267"><ele>254.0</ele><time>2026-05-03T07:57:27.494Z</time></trkpt><trkpt lat="42.07" lon="11.91251"><ele>254.0</ele><time>2026-05-03T07:57:30.558Z</time></trkpt><trkpt lat="42.0699833" lon="11.9126067"><ele>254.00000000000003</ele><time>2026-05-03T07:57:33.503Z</time></trkpt><trkpt lat="42.0699367" lon="11.9127133"><ele>254.0</ele><time>2026-05-03T07:57:36.55Z</time></trkpt><trkpt lat="42.06993" lon="11.9128267"><ele>251.57142857142858</ele><time>2026-05-03T07:57:39.496Z</time></trkpt><trkpt lat="42.0699783" lon="11.9128917"><ele>249.1428571428571</ele><time>2026-05-03T07:57:42.56Z</time></trkpt><trkpt lat="42.0700583" lon="11.9129467"><ele>246.7142857142857</ele><time>2026-05-03T07:57:45.494Z</time></trkpt><trkpt lat="42.0701183" lon="11.912995"><ele>244.28571428571428</ele><time>2026-05-03T07:57:47.492Z</time></trkpt><trkpt lat="42.0701783" lon="11.9130267"><ele>241.85714285714283</ele><time>2026-05-03T07:57:49.492Z</time></trkpt><trkpt lat="42.0702383" lon="11.913065"><ele>239.4285714285714</ele><time>2026-05-03T07:57:51.496Z</time></trkpt><trkpt lat="42.070305" lon="11.913085"><ele>236.99999999999997</ele><time>2026-05-03T07:57:53.5Z</time></trkpt><trkpt lat="42.0703983" lon="11.913115"><ele>237.0</ele><time>2026-05-03T07:57:56.499Z</time></trkpt><trkpt lat="42.07046" lon="11.913155"><ele>237.0</ele><time>2026-05-03T07:57:58.502Z</time></trkpt><trkpt lat="42.0705217" lon="11.9131767"><ele>237.0</ele><time>2026-05-03T07:58:00.557Z</time></trkpt><trkpt lat="42.07058" lon="11.9132117"><ele>237.0</ele><time>2026-05-03T07:58:02.495Z</time></trkpt><trkpt lat="42.0706533" lon="11.9132733"><ele>237.0</ele><time>2026-05-03T07:58:04.497Z</time></trkpt><trkpt lat="42.07074" lon="11.9133233"><ele>237.0</ele><time>2026-05-03T07:58:06.553Z</time></trkpt><trkpt lat="42.07081" lon="11.9133617"><ele>236.33333333333334</ele><time>2026-05-03T07:58:08.49Z</time></trkpt><trkpt lat="42.0708817" lon="11.9134333"><ele>235.66666666666669</ele><time>2026-05-03T07:58:11.497Z</time></trkpt><trkpt lat="42.0709483" lon="11.91348"><ele>235.0</ele><time>2026-05-03T07:58:14.489Z</time></trkpt><trkpt lat="42.0710383" lon="11.913515"><ele>234.33333333333334</ele><time>2026-05-03T07:58:17.496Z</time></trkpt><trkpt lat="42.0710967" lon="11.9136017"><ele>233.66666666666669</ele><time>2026-05-03T07:58:20.493Z</time></trkpt><trkpt lat="42.0711217" lon="11.9136967"><ele>233.0</ele><time>2026-05-03T07:58:23.497Z</time></trkpt><trkpt lat="42.0711083" lon="11.9137917"><ele>233.00000000000003</ele><time>2026-05-03T07:58:26.497Z</time></trkpt><trkpt lat="42.0710917" lon="11.91388"><ele>233.0</ele><time>2026-05-03T07:58:29.495Z</time></trkpt><trkpt lat="42.0710467" lon="11.9139567"><ele>233.0</ele><time>2026-05-03T07:58:51.504Z</time></trkpt><trkpt lat="42.0709717" lon="11.914005"><ele>233.0</ele><time>2026-05-03T07:58:54.552Z</time></trkpt><trkpt lat="42.0709067" lon="11.914065"><ele>233.00000000000003</ele><time>2026-05-03T07:59:01.503Z</time></trkpt><trkpt lat="42.070875" lon="11.9141783"><ele>233.0</ele><time>2026-05-03T07:59:04.494Z</time></trkpt><trkpt lat="42.0708433" lon="11.9142517"><ele>233.14285714285717</ele><time>2026-05-03T07:59:06.55Z</time></trkpt><trkpt lat="42.0707833" lon="11.9143067"><ele>233.28571428571428</ele><time>2026-05-03T07:59:08.493Z</time></trkpt><trkpt lat="42.0707167" lon="11.9143733"><ele>233.42857142857144</ele><time>2026-05-03T07:59:10.497Z</time></trkpt><trkpt lat="42.0706567" lon="11.9144183"><ele>233.57142857142858</ele><time>2026-05-03T07:59:12.561Z</time></trkpt><trkpt lat="42.070595" lon="11.9144533"><ele>233.71428571428572</ele><time>2026-05-03T07:59:14.492Z</time></trkpt><trkpt lat="42.0705683" lon="11.9145317"><ele>233.85714285714286</ele><time>2026-05-03T07:59:16.488Z</time></trkpt><trkpt lat="42.07058" lon="11.9146433"><ele>234.0</ele><time>2026-05-03T07:59:19.5Z</time></trkpt><trkpt lat="42.07056" lon="11.9147283"><ele>232.5</ele><time>2026-05-03T07:59:31.493Z</time></trkpt><trkpt lat="42.0705017" lon="11.9147783"><ele>231.0</ele><time>2026-05-03T07:59:33.495Z</time></trkpt><trkpt lat="42.0704367" lon="11.91483"><ele>229.5</ele><time>2026-05-03T07:59:35.501Z</time></trkpt><trkpt lat="42.0703633" lon="11.914875"><ele>228.0</ele><time>2026-05-03T07:59:37.49Z</time></trkpt><trkpt lat="42.0702917" lon="11.914935"><ele>226.5</ele><time>2026-05-03T07:59:39.494Z</time></trkpt><trkpt lat="42.07019" lon="11.9149783"><ele>225.0</ele><time>2026-05-03T07:59:41.491Z</time></trkpt><trkpt lat="42.0700917" lon="11.9150517"><ele>225.8</ele><time>2026-05-03T07:59:43.503Z</time></trkpt><trkpt lat="42.0700583" lon="11.91513"><ele>226.6</ele><time>2026-05-03T07:59:44.491Z</time></trkpt><trkpt lat="42.0700183" lon="11.915255"><ele>227.39999999999998</ele><time>2026-05-03T07:59:46.492Z</time></trkpt><trkpt lat="42.0700033" lon="11.91537"><ele>228.2</ele><time>2026-05-03T07:59:50.492Z</time></trkpt><trkpt lat="42.07005" lon="11.9154867"><ele>229.0</ele><time>2026-05-03T07:59:53.498Z</time></trkpt><trkpt lat="42.0701467" lon="11.9155767"><ele>229.0</ele><time>2026-05-03T07:59:55.494Z</time></trkpt><trkpt lat="42.0701967" lon="11.91564"><ele>228.99999999999997</ele><time>2026-05-03T07:59:56.489Z</time></trkpt><trkpt lat="42.0702433" lon="11.9157067"><ele>228.99999999999997</ele><time>2026-05-03T07:59:57.494Z</time></trkpt><trkpt lat="42.0703333" lon="11.9157933"><ele>229.0</ele><time>2026-05-03T07:59:59.493Z</time></trkpt><trkpt lat="42.07045" lon="11.9158017"><ele>229.0</ele><time>2026-05-03T08:00:01.488Z</time></trkpt><trkpt lat="42.0705583" lon="11.9158083"><ele>229.0</ele><time>2026-05-03T08:00:03.495Z</time></trkpt><trkpt lat="42.0706617" lon="11.9158567"><ele>228.99999999999997</ele><time>2026-05-03T08:00:05.5Z</time></trkpt><trkpt lat="42.0707433" lon="11.9159467"><ele>228.99999999999997</ele><time>2026-05-03T08:00:07.498Z</time></trkpt><trkpt lat="42.0708183" lon="11.9160567"><ele>229.0</ele><time>2026-05-03T08:00:09.499Z</time></trkpt><trkpt lat="42.07088" lon="11.9161717"><ele>229.0</ele><time>2026-05-03T08:00:11.498Z</time></trkpt><trkpt lat="42.0709583" lon="11.9162433"><ele>232.39999999999998</ele><time>2026-05-03T08:00:13.49Z</time></trkpt><trkpt lat="42.071075" lon="11.9163"><ele>235.79999999999998</ele><time>2026-05-03T08:00:15.491Z</time></trkpt><trkpt lat="42.0711387" lon="11.9163327"><ele>239.20000000000002</ele><time>2026-05-03T08:00:16.496Z</time></trkpt><trkpt lat="42.0712046" lon="11.9163488"><ele>242.60000000000002</ele><time>2026-05-03T08:00:17.49Z</time></trkpt><trkpt lat="42.0713212" lon="11.9163373"><ele>246.0</ele><time>2026-05-03T08:00:19.489Z</time></trkpt><trkpt lat="42.0714259" lon="11.9163417"><ele>246.0</ele><time>2026-05-03T08:00:21.502Z</time></trkpt><trkpt lat="42.0715178" lon="11.9163565"><ele>246.0</ele><time>2026-05-03T08:00:23.494Z</time></trkpt><trkpt lat="42.0716004" lon="11.9163646"><ele>246.0</ele><time>2026-05-03T08:00:25.494Z</time></trkpt><trkpt lat="42.0716588" lon="11.9164187"><ele>246.0</ele><time>2026-05-03T08:00:27.5Z</time></trkpt><trkpt lat="42.0717077" lon="11.9165227"><ele>246.0</ele><time>2026-05-03T08:00:29.495Z</time></trkpt><trkpt lat="42.0717911" lon="11.9165966"><ele>246.0</ele><time>2026-05-03T08:00:31.495Z</time></trkpt><trkpt lat="42.0718699" lon="11.916685"><ele>249.33333333333334</ele><time>2026-05-03T08:00:33.496Z</time></trkpt><trkpt lat="42.071942" lon="11.9167818"><ele>252.66666666666669</ele><time>2026-05-03T08:00:35.499Z</time></trkpt><trkpt lat="42.0720173" lon="11.9168577"><ele>256.0</ele><time>2026-05-03T08:00:37.49Z</time></trkpt><trkpt lat="42.0720828" lon="11.916898"><ele>259.33333333333337</ele><time>2026-05-03T08:00:39.501Z</time></trkpt><trkpt lat="42.0721406" lon="11.9169498"><ele>262.6666666666667</ele><time>2026-05-03T08:00:42.492Z</time></trkpt><trkpt lat="42.0721977" lon="11.9170449"><ele>266.0</ele><time>2026-05-03T08:01:49.496Z</time></trkpt><trkpt lat="42.072264" lon="11.9171576"><ele>266.0</ele><time>2026-05-03T08:01:51.495Z</time></trkpt><trkpt lat="42.0723363" lon="11.9172645"><ele>266.0</ele><time>2026-05-03T08:01:53.5Z</time></trkpt><trkpt lat="42.0724497" lon="11.9172948"><ele>266.0</ele><time>2026-05-03T08:01:55.496Z</time></trkpt><trkpt lat="42.0725123" lon="11.9173094"><ele>266.0</ele><time>2026-05-03T08:01:56.493Z</time></trkpt><trkpt lat="42.0725752" lon="11.9173401"><ele>266.0</ele><time>2026-05-03T08:01:57.494Z</time></trkpt><trkpt lat="42.0726392" lon="11.9173842"><ele>266.0</ele><time>2026-05-03T08:01:58.495Z</time></trkpt><trkpt lat="42.0727042" lon="11.9174244"><ele>269.0</ele><time>2026-05-03T08:01:59.489Z</time></trkpt><trkpt lat="42.0727678" lon="11.9174446"><ele>272.0</ele><time>2026-05-03T08:02:00.548Z</time></trkpt><trkpt lat="42.0728897" lon="11.9174123"><ele>275.0</ele><time>2026-05-03T08:02:02.488Z</time></trkpt><trkpt lat="42.0729612" lon="11.9173813"><ele>278.0</ele><time>2026-05-03T08:02:03.498Z</time></trkpt><trkpt lat="42.0730269" lon="11.9173399"><ele>281.0</ele><time>2026-05-03T08:02:04.491Z</time></trkpt><trkpt lat="42.0730848" lon="11.9172909"><ele>284.0</ele><time>2026-05-03T08:02:05.49Z</time></trkpt><trkpt lat="42.0731317" lon="11.917225"><ele>284.0</ele><time>2026-05-03T08:02:06.496Z</time></trkpt><trkpt lat="42.0731733" lon="11.9171467"><ele>284.0</ele><time>2026-05-03T08:02:07.499Z</time></trkpt><trkpt lat="42.0732117" lon="11.9170733"><ele>284.0</ele><time>2026-05-03T08:02:08.493Z</time></trkpt><trkpt lat="42.07326" lon="11.917005"><ele>284.0</ele><time>2026-05-03T08:02:10.498Z</time></trkpt><trkpt lat="42.07338" lon="11.9169783"><ele>284.0</ele><time>2026-05-03T08:02:23.491Z</time></trkpt><trkpt lat="42.0734517" lon="11.9169717"><ele>284.0</ele><time>2026-05-03T08:02:25.487Z</time></trkpt><trkpt lat="42.07352" lon="11.9169517"><ele>285.59999999999997</ele><time>2026-05-03T08:02:55.487Z</time></trkpt><trkpt lat="42.0735817" lon="11.9169083"><ele>287.2</ele><time>2026-05-03T08:02:57.499Z</time></trkpt><trkpt lat="42.0736867" lon="11.9168567"><ele>288.79999999999995</ele><time>2026-05-03T08:02:59.494Z</time></trkpt><trkpt lat="42.07375" lon="11.916845"><ele>290.4</ele><time>2026-05-03T08:03:01.492Z</time></trkpt><trkpt lat="42.073825" lon="11.9169367"><ele>292.0</ele><time>2026-05-03T08:03:04.486Z</time></trkpt><trkpt lat="42.07395" lon="11.916985"><ele>292.0</ele><time>2026-05-03T08:03:06.493Z</time></trkpt><trkpt lat="42.0740633" lon="11.91694"><ele>292.0</ele><time>2026-05-03T08:03:08.494Z</time></trkpt><trkpt lat="42.0741717" lon="11.9169133"><ele>292.0</ele><time>2026-05-03T08:03:10.497Z</time></trkpt><trkpt lat="42.0742967" lon="11.9169783"><ele>292.0</ele><time>2026-05-03T08:03:12.488Z</time></trkpt><trkpt lat="42.07437" lon="11.9170117"><ele>292.0</ele><time>2026-05-03T08:03:13.498Z</time></trkpt><trkpt lat="42.074435" lon="11.9170367"><ele>292.8333333333333</ele><time>2026-05-03T08:03:14.495Z</time></trkpt><trkpt lat="42.0744967" lon="11.917085"><ele>293.66666666666663</ele><time>2026-05-03T08:03:15.496Z</time></trkpt><trkpt lat="42.07456" lon="11.9171383"><ele>294.5</ele><time>2026-05-03T08:03:16.492Z</time></trkpt><trkpt lat="42.0746233" lon="11.9171767"><ele>295.3333333333333</ele><time>2026-05-03T08:03:17.491Z</time></trkpt><trkpt lat="42.0747167" lon="11.9172083"><ele>296.1666666666667</ele><time>2026-05-03T08:03:19.498Z</time></trkpt><trkpt lat="42.0748017" lon="11.917275"><ele>297.0</ele><time>2026-05-03T08:03:21.495Z</time></trkpt><trkpt lat="42.0748583" lon="11.917335"><ele>297.0</ele><time>2026-05-03T08:03:22.492Z</time></trkpt><trkpt lat="42.07493" lon="11.91741"><ele>297.0</ele><time>2026-05-03T08:03:23.499Z</time></trkpt><trkpt lat="42.0750017" lon="11.9174833"><ele>297.0</ele><time>2026-05-03T08:03:24.52Z</time></trkpt><trkpt lat="42.0750683" lon="11.9175483"><ele>297.0</ele><time>2026-05-03T08:03:25.495Z</time></trkpt><trkpt lat="42.07513" lon="11.9175967"><ele>297.0</ele><time>2026-05-03T08:03:26.5Z</time></trkpt><trkpt lat="42.075235" lon="11.9176167"><ele>297.0</ele><time>2026-05-03T08:03:28.491Z</time></trkpt><trkpt lat="42.0753483" lon="11.9176317"><ele>298.0</ele><time>2026-05-03T08:03:30.494Z</time></trkpt><trkpt lat="42.0754617" lon="11.9176567"><ele>299.0</ele><time>2026-05-03T08:03:32.49Z</time></trkpt><trkpt lat="42.0755417" lon="11.9176833"><ele>300.0</ele><time>2026-05-03T08:03:34.488Z</time></trkpt><trkpt lat="42.0756117" lon="11.9176633"><ele>301.0</ele><time>2026-05-03T08:03:36.496Z</time></trkpt><trkpt lat="42.075705" lon="11.9176517"><ele>302.0</ele><time>2026-05-03T08:03:38.493Z</time></trkpt><trkpt lat="42.0758033" lon="11.9177033"><ele>303.5</ele><time>2026-05-03T08:03:40.494Z</time></trkpt><trkpt lat="42.0758583" lon="11.91775"><ele>305.0</ele><time>2026-05-03T08:03:41.494Z</time></trkpt><trkpt lat="42.0759167" lon="11.9178"><ele>306.5</ele><time>2026-05-03T08:03:42.496Z</time></trkpt><trkpt lat="42.0759733" lon="11.9178467"><ele>308.0</ele><time>2026-05-03T08:03:43.495Z</time></trkpt><trkpt lat="42.0760617" lon="11.9179017"><ele>309.5</ele><time>2026-05-03T08:03:45.494Z</time></trkpt><trkpt lat="42.0761417" lon="11.917935"><ele>311.0</ele><time>2026-05-03T08:03:47.503Z</time></trkpt><trkpt lat="42.076245" lon="11.9179867"><ele>311.0</ele><time>2026-05-03T08:03:49.497Z</time></trkpt><trkpt lat="42.0763267" lon="11.918065"><ele>311.0</ele><time>2026-05-03T08:03:51.493Z</time></trkpt><trkpt lat="42.0764033" lon="11.9181467"><ele>311.0</ele><time>2026-05-03T08:03:53.489Z</time></trkpt><trkpt lat="42.0765033" lon="11.9181933"><ele>311.0</ele><time>2026-05-03T08:03:55.494Z</time></trkpt><trkpt lat="42.0766267" lon="11.9182533"><ele>311.0</ele><time>2026-05-03T08:03:57.494Z</time></trkpt><trkpt lat="42.076695" lon="11.91827"><ele>310.6666666666667</ele><time>2026-05-03T08:03:58.501Z</time></trkpt><trkpt lat="42.0767633" lon="11.91827"><ele>310.33333333333337</ele><time>2026-05-03T08:03:59.495Z</time></trkpt><trkpt lat="42.0768267" lon="11.9182567"><ele>310.0</ele><time>2026-05-03T08:04:00.557Z</time></trkpt><trkpt lat="42.07694" lon="11.918245"><ele>309.6666666666667</ele><time>2026-05-03T08:04:02.492Z</time></trkpt><trkpt lat="42.0770017" lon="11.9183"><ele>309.3333333333333</ele><time>2026-05-03T08:04:04.49Z</time></trkpt><trkpt lat="42.0770517" lon="11.91836"><ele>309.0</ele><time>2026-05-03T08:04:06.488Z</time></trkpt><trkpt lat="42.0771067" lon="11.9184467"><ele>309.8</ele><time>2026-05-03T08:04:08.496Z</time></trkpt><trkpt lat="42.0771917" lon="11.9185483"><ele>310.59999999999997</ele><time>2026-05-03T08:04:10.494Z</time></trkpt><trkpt lat="42.0772733" lon="11.9186617"><ele>311.4</ele><time>2026-05-03T08:04:12.495Z</time></trkpt><trkpt lat="42.0773517" lon="11.9187467"><ele>312.2</ele><time>2026-05-03T08:04:14.493Z</time></trkpt><trkpt lat="42.07742" lon="11.91881"><ele>313.0</ele><time>2026-05-03T08:04:16.493Z</time></trkpt><trkpt lat="42.0774767" lon="11.918885"><ele>313.0</ele><time>2026-05-03T08:04:18.487Z</time></trkpt><trkpt lat="42.0775067" lon="11.9189967"><ele>313.0</ele><time>2026-05-03T08:04:20.488Z</time></trkpt><trkpt lat="42.07751" lon="11.919135"><ele>313.0</ele><time>2026-05-03T08:04:22.499Z</time></trkpt><trkpt lat="42.077505" lon="11.9192733"><ele>313.0</ele><time>2026-05-03T08:04:24.493Z</time></trkpt><trkpt lat="42.0774667" lon="11.919365"><ele>313.0</ele><time>2026-05-03T08:04:26.493Z</time></trkpt><trkpt lat="42.0773817" lon="11.9193683"><ele>309.8</ele><time>2026-05-03T08:04:28.491Z</time></trkpt><trkpt lat="42.07728" lon="11.9193233"><ele>306.6</ele><time>2026-05-03T08:04:30.495Z</time></trkpt><trkpt lat="42.07719" lon="11.9193683"><ele>303.4</ele><time>2026-05-03T08:04:32.5Z</time></trkpt><trkpt lat="42.07711" lon="11.9194333"><ele>300.2</ele><time>2026-05-03T08:04:34.491Z</time></trkpt><trkpt lat="42.077045" lon="11.9194933"><ele>297.0</ele><time>2026-05-03T08:04:36.495Z</time></trkpt><trkpt lat="42.0770333" lon="11.9196117"><ele>297.0</ele><time>2026-05-03T08:04:38.494Z</time></trkpt><trkpt lat="42.07702" lon="11.9197467"><ele>297.0</ele><time>2026-05-03T08:04:40.494Z</time></trkpt><trkpt lat="42.07694" lon="11.9198683"><ele>297.0</ele><time>2026-05-03T08:04:42.492Z</time></trkpt><trkpt lat="42.076905" lon="11.9199417"><ele>297.0</ele><time>2026-05-03T08:04:43.497Z</time></trkpt><trkpt lat="42.0768667" lon="11.9200133"><ele>297.0</ele><time>2026-05-03T08:04:44.495Z</time></trkpt><trkpt lat="42.07676" lon="11.92008"><ele>295.6666666666667</ele><time>2026-05-03T08:04:46.493Z</time></trkpt><trkpt lat="42.0766433" lon="11.9201083"><ele>294.3333333333333</ele><time>2026-05-03T08:04:48.495Z</time></trkpt><trkpt lat="42.0765817" lon="11.9201483"><ele>293.0</ele><time>2026-05-03T08:04:49.498Z</time></trkpt><trkpt lat="42.0765183" lon="11.9201933"><ele>291.66666666666663</ele><time>2026-05-03T08:04:50.493Z</time></trkpt><trkpt lat="42.076455" lon="11.92025"><ele>290.3333333333333</ele><time>2026-05-03T08:04:51.501Z</time></trkpt><trkpt lat="42.0763967" lon="11.9203083"><ele>289.0</ele><time>2026-05-03T08:04:52.5Z</time></trkpt><trkpt lat="42.07633" lon="11.9204333"><ele>287.2</ele><time>2026-05-03T08:04:54.553Z</time></trkpt><trkpt lat="42.0762867" lon="11.920565"><ele>285.4</ele><time>2026-05-03T08:04:56.493Z</time></trkpt><trkpt lat="42.07622" lon="11.92069"><ele>283.6</ele><time>2026-05-03T08:04:58.493Z</time></trkpt><trkpt lat="42.0761967" lon="11.92077"><ele>281.8</ele><time>2026-05-03T08:04:59.499Z</time></trkpt><trkpt lat="42.0761717" lon="11.920925"><ele>280.0</ele><time>2026-05-03T08:05:01.493Z</time></trkpt><trkpt lat="42.07616" lon="11.9210133"><ele>279.16666666666663</ele><time>2026-05-03T08:05:02.49Z</time></trkpt><trkpt lat="42.0761483" lon="11.9210967"><ele>278.3333333333333</ele><time>2026-05-03T08:05:03.485Z</time></trkpt><trkpt lat="42.0761367" lon="11.92124"><ele>277.5</ele><time>2026-05-03T08:05:05.491Z</time></trkpt><trkpt lat="42.0761367" lon="11.921345"><ele>276.6666666666667</ele><time>2026-05-03T08:05:07.493Z</time></trkpt><trkpt lat="42.076115" lon="11.9214683"><ele>275.83333333333337</ele><time>2026-05-03T08:05:10.493Z</time></trkpt><trkpt lat="42.0760317" lon="11.9215417"><ele>275.0</ele><time>2026-05-03T08:05:12.505Z</time></trkpt><trkpt lat="42.0759483" lon="11.9216567"><ele>275.2</ele><time>2026-05-03T08:05:14.494Z</time></trkpt><trkpt lat="42.0758767" lon="11.9217617"><ele>275.4</ele><time>2026-05-03T08:05:16.492Z</time></trkpt><trkpt lat="42.0757517" lon="11.9217633"><ele>275.6</ele><time>2026-05-03T08:05:18.495Z</time></trkpt><trkpt lat="42.0756433" lon="11.9217783"><ele>275.8</ele><time>2026-05-03T08:05:20.493Z</time></trkpt><trkpt lat="42.075565" lon="11.9218567"><ele>276.0</ele><time>2026-05-03T08:05:22.49Z</time></trkpt><trkpt lat="42.0755367" lon="11.921955"><ele>276.0</ele><time>2026-05-03T08:05:24.56Z</time></trkpt><trkpt lat="42.0755933" lon="11.92201"><ele>276.0</ele><time>2026-05-03T08:05:26.489Z</time></trkpt><trkpt lat="42.0756683" lon="11.9220683"><ele>276.0</ele><time>2026-05-03T08:05:28.493Z</time></trkpt><trkpt lat="42.0757467" lon="11.9221667"><ele>276.0</ele><time>2026-05-03T08:05:30.55Z</time></trkpt><trkpt lat="42.075795" lon="11.9222417"><ele>276.0</ele><time>2026-05-03T08:05:31.492Z</time></trkpt><trkpt lat="42.0758517" lon="11.922305"><ele>276.0</ele><time>2026-05-03T08:05:32.492Z</time></trkpt><trkpt lat="42.07596" lon="11.9223733"><ele>275.2</ele><time>2026-05-03T08:05:34.495Z</time></trkpt><trkpt lat="42.07609" lon="11.9223517"><ele>274.40000000000003</ele><time>2026-05-03T08:05:36.493Z</time></trkpt><trkpt lat="42.0761667" lon="11.9223467"><ele>273.6</ele><time>2026-05-03T08:05:37.492Z</time></trkpt><trkpt lat="42.07624" lon="11.92235"><ele>272.8</ele><time>2026-05-03T08:05:38.488Z</time></trkpt><trkpt lat="42.0763067" lon="11.92236"><ele>272.0</ele><time>2026-05-03T08:05:39.5Z</time></trkpt><trkpt lat="42.0764317" lon="11.92239"><ele>272.0</ele><time>2026-05-03T08:05:41.502Z</time></trkpt><trkpt lat="42.076545" lon="11.9224117"><ele>272.0</ele><time>2026-05-03T08:05:43.492Z</time></trkpt><trkpt lat="42.076645" lon="11.9224433"><ele>272.0</ele><time>2026-05-03T08:05:45.493Z</time></trkpt><trkpt lat="42.0767317" lon="11.922475"><ele>272.0</ele><time>2026-05-03T08:05:47.492Z</time></trkpt><trkpt lat="42.076815" lon="11.9224783"><ele>272.0</ele><time>2026-05-03T08:05:49.491Z</time></trkpt><trkpt lat="42.07688" lon="11.9224867"><ele>270.6666666666667</ele><time>2026-05-03T08:05:51.495Z</time></trkpt><trkpt lat="42.07696" lon="11.9225183"><ele>269.33333333333337</ele><time>2026-05-03T08:05:53.496Z</time></trkpt><trkpt lat="42.0770317" lon="11.9225883"><ele>268.0</ele><time>2026-05-03T08:05:55.491Z</time></trkpt><trkpt lat="42.0770767" lon="11.9226733"><ele>266.6666666666667</ele><time>2026-05-03T08:05:57.497Z</time></trkpt><trkpt lat="42.0771367" lon="11.92273"><ele>265.3333333333333</ele><time>2026-05-03T08:06:00.49Z</time></trkpt><trkpt lat="42.0772317" lon="11.9227433"><ele>264.0</ele><time>2026-05-03T08:12:04.492Z</time></trkpt><trkpt lat="42.0773333" lon="11.9227933"><ele>261.6666666666667</ele><time>2026-05-03T08:12:06.529Z</time></trkpt><trkpt lat="42.0774317" lon="11.9228033"><ele>259.3333333333333</ele><time>2026-05-03T08:12:08.495Z</time></trkpt><trkpt lat="42.0775033" lon="11.9227967"><ele>257.0</ele><time>2026-05-03T08:12:10.495Z</time></trkpt><trkpt lat="42.0775733" lon="11.9228"><ele>254.66666666666666</ele><time>2026-05-03T08:12:12.529Z</time></trkpt><trkpt lat="42.0776433" lon="11.9228183"><ele>252.33333333333331</ele><time>2026-05-03T08:12:14.498Z</time></trkpt><trkpt lat="42.0777317" lon="11.9228517"><ele>250.0</ele><time>2026-05-03T08:12:16.494Z</time></trkpt><trkpt lat="42.0778283" lon="11.92287"><ele>249.49999999999997</ele><time>2026-05-03T08:12:18.528Z</time></trkpt><trkpt lat="42.0779183" lon="11.922885"><ele>249.0</ele><time>2026-05-03T08:12:20.491Z</time></trkpt><trkpt lat="42.078005" lon="11.9229367"><ele>248.5</ele><time>2026-05-03T08:12:22.495Z</time></trkpt><trkpt lat="42.0780383" lon="11.923035"><ele>248.0</ele><time>2026-05-03T08:12:24.575Z</time></trkpt><trkpt lat="42.07808" lon="11.92312"><ele>247.49999999999997</ele><time>2026-05-03T08:12:27.498Z</time></trkpt><trkpt lat="42.0781667" lon="11.9230667"><ele>247.0</ele><time>2026-05-03T08:12:30.548Z</time></trkpt><trkpt lat="42.0782333" lon="11.9230183"><ele>246.2</ele><time>2026-05-03T08:12:32.491Z</time></trkpt><trkpt lat="42.078315" lon="11.9229117"><ele>245.39999999999998</ele><time>2026-05-03T08:12:34.493Z</time></trkpt><trkpt lat="42.07837" lon="11.9228567"><ele>244.60000000000002</ele><time>2026-05-03T08:12:35.487Z</time></trkpt><trkpt lat="42.0784817" lon="11.9228167"><ele>243.8</ele><time>2026-05-03T08:12:37.491Z</time></trkpt><trkpt lat="42.0785883" lon="11.92282"><ele>243.0</ele><time>2026-05-03T08:12:39.5Z</time></trkpt><trkpt lat="42.0786933" lon="11.9228217"><ele>243.0</ele><time>2026-05-03T08:12:41.497Z</time></trkpt><trkpt lat="42.0787917" lon="11.9228267"><ele>243.0</ele><time>2026-05-03T08:12:43.49Z</time></trkpt><trkpt lat="42.0789083" lon="11.9228183"><ele>243.0</ele><time>2026-05-03T08:12:45.491Z</time></trkpt><trkpt lat="42.079005" lon="11.9227917"><ele>243.0</ele><time>2026-05-03T08:12:47.488Z</time></trkpt><trkpt lat="42.0790867" lon="11.9228"><ele>243.0</ele><time>2026-05-03T08:12:49.492Z</time></trkpt><trkpt lat="42.07916" lon="11.9228117"><ele>243.33333333333334</ele><time>2026-05-03T08:12:51.495Z</time></trkpt><trkpt lat="42.0792533" lon="11.922815"><ele>243.66666666666669</ele><time>2026-05-03T08:12:53.492Z</time></trkpt><trkpt lat="42.0793217" lon="11.922815"><ele>244.0</ele><time>2026-05-03T08:12:54.554Z</time></trkpt><trkpt lat="42.079395" lon="11.92281"><ele>244.33333333333334</ele><time>2026-05-03T08:12:55.492Z</time></trkpt><trkpt lat="42.0794717" lon="11.9228067"><ele>244.66666666666669</ele><time>2026-05-03T08:12:56.487Z</time></trkpt><trkpt lat="42.0795517" lon="11.92281"><ele>245.0</ele><time>2026-05-03T08:12:57.492Z</time></trkpt><trkpt lat="42.0796317" lon="11.9228167"><ele>245.0</ele><time>2026-05-03T08:12:58.501Z</time></trkpt><trkpt lat="42.07971" lon="11.9228183"><ele>245.0</ele><time>2026-05-03T08:12:59.494Z</time></trkpt><trkpt lat="42.07978" lon="11.9228083"><ele>245.0</ele><time>2026-05-03T08:13:00.557Z</time></trkpt><trkpt lat="42.079845" lon="11.9227933"><ele>245.0</ele><time>2026-05-03T08:13:01.499Z</time></trkpt><trkpt lat="42.0799683" lon="11.9227783"><ele>245.0</ele><time>2026-05-03T08:13:03.495Z</time></trkpt><trkpt lat="42.08008" lon="11.9227517"><ele>245.33333333333334</ele><time>2026-05-03T08:13:05.495Z</time></trkpt><trkpt lat="42.0801433" lon="11.9227317"><ele>245.66666666666669</ele><time>2026-05-03T08:13:06.527Z</time></trkpt><trkpt lat="42.08021" lon="11.9227083"><ele>246.0</ele><time>2026-05-03T08:13:07.492Z</time></trkpt><trkpt lat="42.08028" lon="11.9226817"><ele>246.33333333333331</ele><time>2026-05-03T08:13:08.492Z</time></trkpt><trkpt lat="42.0803533" lon="11.92265"><ele>246.66666666666666</ele><time>2026-05-03T08:13:09.497Z</time></trkpt><trkpt lat="42.080435" lon="11.9226"><ele>247.0</ele><time>2026-05-03T08:13:10.5Z</time></trkpt><trkpt lat="42.08052" lon="11.922535"><ele>249.0</ele><time>2026-05-03T08:13:11.489Z</time></trkpt><trkpt lat="42.08061" lon="11.9224517"><ele>251.0</ele><time>2026-05-03T08:13:12.526Z</time></trkpt><trkpt lat="42.080695" lon="11.9223733"><ele>253.0</ele><time>2026-05-03T08:13:13.493Z</time></trkpt><trkpt lat="42.08078" lon="11.9223117"><ele>255.0</ele><time>2026-05-03T08:13:14.492Z</time></trkpt><trkpt lat="42.08086" lon="11.9222683"><ele>257.0</ele><time>2026-05-03T08:13:15.501Z</time></trkpt><trkpt lat="42.0809333" lon="11.9222433"><ele>257.0</ele><time>2026-05-03T08:13:16.496Z</time></trkpt><trkpt lat="42.0810417" lon="11.9222133"><ele>257.0</ele><time>2026-05-03T08:13:18.532Z</time></trkpt><trkpt lat="42.0811183" lon="11.9222433"><ele>257.0</ele><time>2026-05-03T08:13:45.496Z</time></trkpt><trkpt lat="42.0811833" lon="11.9222683"><ele>257.0</ele><time>2026-05-03T08:13:47.496Z</time></trkpt><trkpt lat="42.08127" lon="11.9222833"><ele>257.0</ele><time>2026-05-03T08:13:49.494Z</time></trkpt><trkpt lat="42.08137" lon="11.92235"><ele>257.0</ele><time>2026-05-03T08:13:51.495Z</time></trkpt><trkpt lat="42.0814417" lon="11.9223933"><ele>257.0</ele><time>2026-05-03T08:13:53.502Z</time></trkpt><trkpt lat="42.081525" lon="11.92233"><ele>257.0</ele><time>2026-05-03T08:13:56.502Z</time></trkpt><trkpt lat="42.0816033" lon="11.9223017"><ele>257.0</ele><time>2026-05-03T08:13:58.491Z</time></trkpt><trkpt lat="42.081685" lon="11.9222533"><ele>257.0</ele><time>2026-05-03T08:14:01.499Z</time></trkpt><trkpt lat="42.0817633" lon="11.9222167"><ele>257.0</ele><time>2026-05-03T08:14:03.493Z</time></trkpt><trkpt lat="42.0818417" lon="11.922155"><ele>257.6</ele><time>2026-05-03T08:14:05.495Z</time></trkpt><trkpt lat="42.08193" lon="11.9220767"><ele>258.2</ele><time>2026-05-03T08:14:07.494Z</time></trkpt><trkpt lat="42.0820183" lon="11.9219733"><ele>258.8</ele><time>2026-05-03T08:14:09.495Z</time></trkpt><trkpt lat="42.0820633" lon="11.921845"><ele>259.4</ele><time>2026-05-03T08:14:11.495Z</time></trkpt><trkpt lat="42.082065" lon="11.9217383"><ele>260.0</ele><time>2026-05-03T08:14:13.484Z</time></trkpt><trkpt lat="42.0820933" lon="11.92166"><ele>262.4</ele><time>2026-05-03T08:14:24.555Z</time></trkpt><trkpt lat="42.08211" lon="11.92156"><ele>264.8</ele><time>2026-05-03T08:14:26.495Z</time></trkpt><trkpt lat="42.08217" lon="11.9214283"><ele>267.2</ele><time>2026-05-03T08:14:28.497Z</time></trkpt><trkpt lat="42.0822317" lon="11.9213183"><ele>269.6</ele><time>2026-05-03T08:14:30.559Z</time></trkpt><trkpt lat="42.082295" lon="11.9212183"><ele>272.0</ele><time>2026-05-03T08:14:32.493Z</time></trkpt><trkpt lat="42.0823783" lon="11.9211083"><ele>272.6666666666667</ele><time>2026-05-03T08:14:34.495Z</time></trkpt><trkpt lat="42.0824733" lon="11.921045"><ele>273.33333333333337</ele><time>2026-05-03T08:14:36.527Z</time></trkpt><trkpt lat="42.08253" lon="11.921005"><ele>274.0</ele><time>2026-05-03T08:14:37.487Z</time></trkpt><trkpt lat="42.08259" lon="11.920965"><ele>274.6666666666667</ele><time>2026-05-03T08:14:38.49Z</time></trkpt><trkpt lat="42.08265" lon="11.920935"><ele>275.3333333333333</ele><time>2026-05-03T08:14:39.494Z</time></trkpt><trkpt lat="42.0827583" lon="11.9208883"><ele>276.0</ele><time>2026-05-03T08:14:41.494Z</time></trkpt><trkpt lat="42.0828367" lon="11.9208233"><ele>276.1666666666667</ele><time>2026-05-03T08:14:43.488Z</time></trkpt><trkpt lat="42.0828983" lon="11.920775"><ele>276.3333333333333</ele><time>2026-05-03T08:14:45.501Z</time></trkpt><trkpt lat="42.08299" lon="11.9207967"><ele>276.5</ele><time>2026-05-03T08:14:48.526Z</time></trkpt><trkpt lat="42.0830617" lon="11.9207617"><ele>276.66666666666663</ele><time>2026-05-03T08:14:50.491Z</time></trkpt><trkpt lat="42.0831267" lon="11.9207117"><ele>276.8333333333333</ele><time>2026-05-03T08:14:52.492Z</time></trkpt><trkpt lat="42.0831983" lon="11.92067"><ele>277.0</ele><time>2026-05-03T08:14:54.56Z</time></trkpt><trkpt lat="42.083265" lon="11.9205817"><ele>276.0</ele><time>2026-05-03T08:14:56.484Z</time></trkpt><trkpt lat="42.083315" lon="11.9205167"><ele>275.0</ele><time>2026-05-03T08:14:57.495Z</time></trkpt><trkpt lat="42.0833717" lon="11.92045"><ele>274.0</ele><time>2026-05-03T08:14:58.496Z</time></trkpt><trkpt lat="42.083425" lon="11.92039"><ele>273.0</ele><time>2026-05-03T08:14:59.491Z</time></trkpt><trkpt lat="42.0835067" lon="11.92028"><ele>272.0</ele><time>2026-05-03T08:15:01.49Z</time></trkpt><trkpt lat="42.0835867" lon="11.9201617"><ele>271.0</ele><time>2026-05-03T08:15:03.492Z</time></trkpt><trkpt lat="42.0836667" lon="11.92006"><ele>271.0</ele><time>2026-05-03T08:15:05.493Z</time></trkpt><trkpt lat="42.0837433" lon="11.9199433"><ele>271.0</ele><time>2026-05-03T08:15:07.501Z</time></trkpt><trkpt lat="42.0838283" lon="11.9198667"><ele>271.0</ele><time>2026-05-03T08:15:09.496Z</time></trkpt><trkpt lat="42.08392" lon="11.9197867"><ele>271.0</ele><time>2026-05-03T08:15:11.499Z</time></trkpt><trkpt lat="42.084015" lon="11.9197067"><ele>271.0</ele><time>2026-05-03T08:15:13.488Z</time></trkpt><trkpt lat="42.0841" lon="11.9196167"><ele>269.0</ele><time>2026-05-03T08:15:15.496Z</time></trkpt><trkpt lat="42.0841717" lon="11.9194983"><ele>267.0</ele><time>2026-05-03T08:15:17.495Z</time></trkpt><trkpt lat="42.0842483" lon="11.9193983"><ele>265.0</ele><time>2026-05-03T08:15:19.495Z</time></trkpt><trkpt lat="42.0843333" lon="11.9192883"><ele>263.0</ele><time>2026-05-03T08:15:21.5Z</time></trkpt><trkpt lat="42.084415" lon="11.919205"><ele>261.0</ele><time>2026-05-03T08:15:23.494Z</time></trkpt><trkpt lat="42.084495" lon="11.91918"><ele>261.0</ele><time>2026-05-03T08:15:25.496Z</time></trkpt><trkpt lat="42.08455" lon="11.9192417"><ele>261.0</ele><time>2026-05-03T08:15:27.497Z</time></trkpt><trkpt lat="42.08461" lon="11.9193683"><ele>261.0</ele><time>2026-05-03T08:15:29.493Z</time></trkpt><trkpt lat="42.084655" lon="11.91952"><ele>261.0</ele><time>2026-05-03T08:15:31.499Z</time></trkpt><trkpt lat="42.0846617" lon="11.9196167"><ele>261.0</ele><time>2026-05-03T08:15:32.492Z</time></trkpt><trkpt lat="42.0846617" lon="11.9197167"><ele>261.0</ele><time>2026-05-03T08:15:33.494Z</time></trkpt><trkpt lat="42.0846617" lon="11.91981"><ele>261.0</ele><time>2026-05-03T08:15:34.495Z</time></trkpt><trkpt lat="42.0846667" lon="11.9199"><ele>261.0</ele><time>2026-05-03T08:15:35.492Z</time></trkpt><trkpt lat="42.08467" lon="11.9199933"><ele>261.0</ele><time>2026-05-03T08:15:36.53Z</time></trkpt><trkpt lat="42.0846783" lon="11.9200883"><ele>261.0</ele><time>2026-05-03T08:15:37.495Z</time></trkpt><trkpt lat="42.0846867" lon="11.9201817"><ele>261.0</ele><time>2026-05-03T08:15:38.488Z</time></trkpt><trkpt lat="42.084695" lon="11.9202733"><ele>261.0</ele><time>2026-05-03T08:15:39.495Z</time></trkpt><trkpt lat="42.0847" lon="11.920435"><ele>260.5</ele><time>2026-05-03T08:15:41.498Z</time></trkpt><trkpt lat="42.0847117" lon="11.9205383"><ele>260.0</ele><time>2026-05-03T08:15:43.498Z</time></trkpt><trkpt lat="42.0847383" lon="11.9206217"><ele>259.5</ele><time>2026-05-03T08:15:46.491Z</time></trkpt><trkpt lat="42.0847567" lon="11.9207433"><ele>259.0</ele><time>2026-05-03T08:15:50.496Z</time></trkpt><trkpt lat="42.0847733" lon="11.9208567"><ele>258.5</ele><time>2026-05-03T08:15:53.506Z</time></trkpt><trkpt lat="42.0847817" lon="11.9209633"><ele>258.0</ele><time>2026-05-03T08:15:56.488Z</time></trkpt><trkpt lat="42.0847917" lon="11.9210483"><ele>256.6666666666667</ele><time>2026-05-03T08:15:58.491Z</time></trkpt><trkpt lat="42.0848033" lon="11.9211333"><ele>255.33333333333331</ele><time>2026-05-03T08:16:00.493Z</time></trkpt><trkpt lat="42.08481" lon="11.9212517"><ele>254.0</ele><time>2026-05-03T08:16:03.502Z</time></trkpt><trkpt lat="42.0848267" lon="11.921335"><ele>252.66666666666666</ele><time>2026-05-03T08:16:05.503Z</time></trkpt><trkpt lat="42.084855" lon="11.92146"><ele>251.33333333333331</ele><time>2026-05-03T08:16:07.496Z</time></trkpt><trkpt lat="42.0848783" lon="11.9216"><ele>250.0</ele><time>2026-05-03T08:16:09.501Z</time></trkpt><trkpt lat="42.084895" lon="11.92177"><ele>248.75</ele><time>2026-05-03T08:16:11.495Z</time></trkpt><trkpt lat="42.0848967" lon="11.9219383"><ele>247.5</ele><time>2026-05-03T08:16:13.491Z</time></trkpt><trkpt lat="42.0849117" lon="11.9220833"><ele>246.25</ele><time>2026-05-03T08:16:15.498Z</time></trkpt><trkpt lat="42.0849533" lon="11.92223"><ele>245.0</ele><time>2026-05-03T08:16:17.501Z</time></trkpt><trkpt lat="42.08498" lon="11.9223783"><ele>244.16666666666669</ele><time>2026-05-03T08:16:19.493Z</time></trkpt><trkpt lat="42.0850083" lon="11.9225433"><ele>243.33333333333334</ele><time>2026-05-03T08:16:21.498Z</time></trkpt><trkpt lat="42.085015" lon="11.922635"><ele>242.5</ele><time>2026-05-03T08:16:22.497Z</time></trkpt><trkpt lat="42.08502" lon="11.922735"><ele>241.66666666666669</ele><time>2026-05-03T08:16:23.495Z</time></trkpt><trkpt lat="42.0850233" lon="11.92283"><ele>240.83333333333334</ele><time>2026-05-03T08:16:24.558Z</time></trkpt><trkpt lat="42.08502" lon="11.922915"><ele>240.0</ele><time>2026-05-03T08:16:25.495Z</time></trkpt><trkpt lat="42.085005" lon="11.9230717"><ele>239.8</ele><time>2026-05-03T08:16:27.487Z</time></trkpt><trkpt lat="42.0849917" lon="11.9232133"><ele>239.6</ele><time>2026-05-03T08:16:29.49Z</time></trkpt><trkpt lat="42.0850167" lon="11.923365"><ele>239.39999999999998</ele><time>2026-05-03T08:16:31.493Z</time></trkpt><trkpt lat="42.0850483" lon="11.923525"><ele>239.2</ele><time>2026-05-03T08:16:33.495Z</time></trkpt><trkpt lat="42.0850633" lon="11.92361"><ele>239.0</ele><time>2026-05-03T08:16:34.496Z</time></trkpt><trkpt lat="42.0850683" lon="11.9237617"><ele>238.39999999999998</ele><time>2026-05-03T08:16:36.53Z</time></trkpt><trkpt lat="42.0850767" lon="11.9238833"><ele>237.79999999999998</ele><time>2026-05-03T08:16:38.489Z</time></trkpt><trkpt lat="42.0850917" lon="11.924015"><ele>237.20000000000002</ele><time>2026-05-03T08:16:40.488Z</time></trkpt><trkpt lat="42.085125" lon="11.9241683"><ele>236.60000000000002</ele><time>2026-05-03T08:16:42.527Z</time></trkpt><trkpt lat="42.0851383" lon="11.9243167"><ele>236.0</ele><time>2026-05-03T08:16:44.493Z</time></trkpt><trkpt lat="42.08515" lon="11.92444"><ele>234.50000000000003</ele><time>2026-05-03T08:16:46.492Z</time></trkpt><trkpt lat="42.0851617" lon="11.9245767"><ele>233.0</ele><time>2026-05-03T08:16:48.531Z</time></trkpt><trkpt lat="42.0851867" lon="11.9246983"><ele>231.5</ele><time>2026-05-03T08:16:50.485Z</time></trkpt><trkpt lat="42.0852083" lon="11.9248183"><ele>230.0</ele><time>2026-05-03T08:16:52.497Z</time></trkpt><trkpt lat="42.085215" lon="11.9249333"><ele>228.50000000000003</ele><time>2026-05-03T08:16:54.494Z</time></trkpt><trkpt lat="42.085215" lon="11.9250317"><ele>227.0</ele><time>2026-05-03T08:16:56.493Z</time></trkpt><trkpt lat="42.0852133" lon="11.9251183"><ele>224.6</ele><time>2026-05-03T08:16:58.493Z</time></trkpt><trkpt lat="42.0852267" lon="11.9252233"><ele>222.2</ele><time>2026-05-03T08:17:00.501Z</time></trkpt><trkpt lat="42.08524" lon="11.9253483"><ele>219.8</ele><time>2026-05-03T08:17:02.492Z</time></trkpt><trkpt lat="42.0852617" lon="11.9254883"><ele>217.4</ele><time>2026-05-03T08:17:04.493Z</time></trkpt><trkpt lat="42.0852733" lon="11.9256"><ele>215.0</ele><time>2026-05-03T08:17:06.525Z</time></trkpt><trkpt lat="42.0852933" lon="11.9257217"><ele>215.0</ele><time>2026-05-03T08:17:08.489Z</time></trkpt><trkpt lat="42.0853067" lon="11.9258617"><ele>215.0</ele><time>2026-05-03T08:17:10.49Z</time></trkpt><trkpt lat="42.0853033" lon="11.92601"><ele>215.0</ele><time>2026-05-03T08:17:12.527Z</time></trkpt><trkpt lat="42.085315" lon="11.9261517"><ele>215.0</ele><time>2026-05-03T08:17:14.492Z</time></trkpt><trkpt lat="42.0853283" lon="11.9262633"><ele>215.0</ele><time>2026-05-03T08:17:16.493Z</time></trkpt><trkpt lat="42.0853367" lon="11.9263817"><ele>213.00000000000003</ele><time>2026-05-03T08:17:18.525Z</time></trkpt><trkpt lat="42.085355" lon="11.9265383"><ele>211.0</ele><time>2026-05-03T08:17:20.489Z</time></trkpt><trkpt lat="42.0853683" lon="11.9266283"><ele>209.0</ele><time>2026-05-03T08:17:21.494Z</time></trkpt><trkpt lat="42.08538" lon="11.9267183"><ele>207.0</ele><time>2026-05-03T08:17:22.494Z</time></trkpt><trkpt lat="42.085395" lon="11.9268083"><ele>205.00000000000003</ele><time>2026-05-03T08:17:23.493Z</time></trkpt><trkpt lat="42.0854067" lon="11.926945"><ele>203.0</ele><time>2026-05-03T08:17:25.49Z</time></trkpt><trkpt lat="42.0854233" lon="11.9270483"><ele>200.66666666666669</ele><time>2026-05-03T08:17:28.491Z</time></trkpt><trkpt lat="42.085445" lon="11.9271633"><ele>198.33333333333334</ele><time>2026-05-03T08:17:31.497Z</time></trkpt><trkpt lat="42.0854333" lon="11.92727"><ele>196.0</ele><time>2026-05-03T08:17:33.482Z</time></trkpt><trkpt lat="42.0853883" lon="11.927355"><ele>193.66666666666669</ele><time>2026-05-03T08:17:35.498Z</time></trkpt><trkpt lat="42.085325" lon="11.9274217"><ele>191.33333333333334</ele><time>2026-05-03T08:17:37.499Z</time></trkpt><trkpt lat="42.0852667" lon="11.9275017"><ele>189.0</ele><time>2026-05-03T08:17:39.494Z</time></trkpt><trkpt lat="42.085265" lon="11.9275883"><ele>185.66666666666666</ele><time>2026-05-03T08:17:41.491Z</time></trkpt><trkpt lat="42.08533" lon="11.9276067"><ele>182.33333333333334</ele><time>2026-05-03T08:17:43.49Z</time></trkpt><trkpt lat="42.0853933" lon="11.9276267"><ele>179.0</ele><time>2026-05-03T08:17:45.493Z</time></trkpt><trkpt lat="42.085435" lon="11.9277067"><ele>175.66666666666669</ele><time>2026-05-03T08:17:48.528Z</time></trkpt><trkpt lat="42.0854683" lon="11.9278217"><ele>172.33333333333334</ele><time>2026-05-03T08:17:51.495Z</time></trkpt><trkpt lat="42.0854783" lon="11.927925"><ele>169.0</ele><time>2026-05-03T08:17:53.495Z</time></trkpt><trkpt lat="42.0854783" lon="11.9280433"><ele>169.0</ele><time>2026-05-03T08:17:55.49Z</time></trkpt><trkpt lat="42.0854783" lon="11.928155"><ele>169.0</ele><time>2026-05-03T08:17:57.489Z</time></trkpt><trkpt lat="42.0855" lon="11.9282683"><ele>169.0</ele><time>2026-05-03T08:17:59.502Z</time></trkpt><trkpt lat="42.085515" lon="11.9283867"><ele>169.0</ele><time>2026-05-03T08:18:01.49Z</time></trkpt><trkpt lat="42.0855167" lon="11.928505"><ele>169.0</ele><time>2026-05-03T08:18:03.49Z</time></trkpt><trkpt lat="42.0855217" lon="11.92864"><ele>169.0</ele><time>2026-05-03T08:18:05.497Z</time></trkpt><trkpt lat="42.0855467" lon="11.9287717"><ele>167.0</ele><time>2026-05-03T08:18:07.491Z</time></trkpt><trkpt lat="42.0855617" lon="11.9288833"><ele>165.0</ele><time>2026-05-03T08:18:09.492Z</time></trkpt><trkpt lat="42.08558" lon="11.9290017"><ele>163.0</ele><time>2026-05-03T08:18:11.494Z</time></trkpt><trkpt lat="42.0855983" lon="11.9291633"><ele>161.0</ele><time>2026-05-03T08:18:13.494Z</time></trkpt><trkpt lat="42.0856067" lon="11.9292517"><ele>159.0</ele><time>2026-05-03T08:18:14.494Z</time></trkpt><trkpt lat="42.085615" lon="11.92935"><ele>157.0</ele><time>2026-05-03T08:18:15.494Z</time></trkpt><trkpt lat="42.085615" lon="11.9294483"><ele>155.42857142857142</ele><time>2026-05-03T08:18:16.496Z</time></trkpt><trkpt lat="42.0856183" lon="11.9295417"><ele>153.85714285714286</ele><time>2026-05-03T08:18:17.493Z</time></trkpt><trkpt lat="42.085625" lon="11.9296317"><ele>152.28571428571428</ele><time>2026-05-03T08:18:18.529Z</time></trkpt><trkpt lat="42.085635" lon="11.9297183"><ele>150.71428571428572</ele><time>2026-05-03T08:18:19.488Z</time></trkpt><trkpt lat="42.08565" lon="11.9298117"><ele>149.14285714285714</ele><time>2026-05-03T08:18:20.486Z</time></trkpt><trkpt lat="42.08567" lon="11.9299017"><ele>147.57142857142856</ele><time>2026-05-03T08:18:21.487Z</time></trkpt><trkpt lat="42.0856917" lon="11.9299867"><ele>146.0</ele><time>2026-05-03T08:18:22.494Z</time></trkpt><trkpt lat="42.085705" lon="11.9301467"><ele>143.83333333333331</ele><time>2026-05-03T08:18:24.493Z</time></trkpt><trkpt lat="42.0857117" lon="11.930235"><ele>141.66666666666666</ele><time>2026-05-03T08:18:25.5Z</time></trkpt><trkpt lat="42.0857167" lon="11.93032"><ele>139.5</ele><time>2026-05-03T08:18:26.493Z</time></trkpt><trkpt lat="42.085735" lon="11.930455"><ele>137.33333333333334</ele><time>2026-05-03T08:18:28.491Z</time></trkpt><trkpt lat="42.0857417" lon="11.93057"><ele>135.16666666666669</ele><time>2026-05-03T08:18:30.487Z</time></trkpt><trkpt lat="42.0857533" lon="11.93066"><ele>133.0</ele><time>2026-05-03T08:18:32.494Z</time></trkpt><trkpt lat="42.0857567" lon="11.93076"><ele>133.0</ele><time>2026-05-03T08:18:34.498Z</time></trkpt><trkpt lat="42.08575" lon="11.9308517"><ele>133.0</ele><time>2026-05-03T08:18:36.535Z</time></trkpt><trkpt lat="42.08575" lon="11.9309367"><ele>133.0</ele><time>2026-05-03T08:18:38.494Z</time></trkpt><trkpt lat="42.085765" lon="11.9310267"><ele>133.0</ele><time>2026-05-03T08:18:40.495Z</time></trkpt><trkpt lat="42.085775" lon="11.9311233"><ele>133.0</ele><time>2026-05-03T08:18:42.53Z</time></trkpt><trkpt lat="42.085785" lon="11.9312333"><ele>133.0</ele><time>2026-05-03T08:18:44.494Z</time></trkpt><trkpt lat="42.0858117" lon="11.9313467"><ele>133.0</ele><time>2026-05-03T08:18:46.496Z</time></trkpt><trkpt lat="42.085835" lon="11.9314633"><ele>130.8</ele><time>2026-05-03T08:18:48.524Z</time></trkpt><trkpt lat="42.08584" lon="11.9316217"><ele>128.60000000000002</ele><time>2026-05-03T08:18:50.493Z</time></trkpt><trkpt lat="42.0858267" lon="11.9317617"><ele>126.39999999999999</ele><time>2026-05-03T08:18:52.499Z</time></trkpt><trkpt lat="42.085835" lon="11.9318717"><ele>124.19999999999999</ele><time>2026-05-03T08:18:54.554Z</time></trkpt><trkpt lat="42.0858617" lon="11.931985"><ele>122.0</ele><time>2026-05-03T08:18:56.488Z</time></trkpt><trkpt lat="42.0858917" lon="11.9321033"><ele>121.83333333333333</ele><time>2026-05-03T08:18:58.49Z</time></trkpt><trkpt lat="42.0859117" lon="11.9322183"><ele>121.66666666666666</ele><time>2026-05-03T08:19:00.489Z</time></trkpt><trkpt lat="42.08591" lon="11.9323183"><ele>121.5</ele><time>2026-05-03T08:19:02.492Z</time></trkpt><trkpt lat="42.0859067" lon="11.93241"><ele>121.33333333333334</ele><time>2026-05-03T08:19:04.491Z</time></trkpt><trkpt lat="42.0859217" lon="11.9325367"><ele>121.16666666666667</ele><time>2026-05-03T08:19:07.49Z</time></trkpt><trkpt lat="42.085935" lon="11.93265"><ele>121.0</ele><time>2026-05-03T08:19:15.499Z</time></trkpt><trkpt lat="42.0859117" lon="11.9327367"><ele>121.00000000000001</ele><time>2026-05-03T08:19:46.496Z</time></trkpt><trkpt lat="42.0859167" lon="11.932825"><ele>121.0</ele><time>2026-05-03T08:20:25.495Z</time></trkpt><trkpt lat="42.0859033" lon="11.9329217"><ele>121.0</ele><time>2026-05-03T08:20:27.495Z</time></trkpt><trkpt lat="42.085835" lon="11.9329833"><ele>121.0</ele><time>2026-05-03T08:20:29.49Z</time></trkpt><trkpt lat="42.0857367" lon="11.9329733"><ele>121.00000000000001</ele><time>2026-05-03T08:20:31.49Z</time></trkpt><trkpt lat="42.0856217" lon="11.93295"><ele>121.0</ele><time>2026-05-03T08:20:33.492Z</time></trkpt><trkpt lat="42.0855133" lon="11.9330283"><ele>121.0</ele><time>2026-05-03T08:20:35.497Z</time></trkpt><trkpt lat="42.0854717" lon="11.9331167"><ele>121.0</ele><time>2026-05-03T08:20:36.532Z</time></trkpt><trkpt lat="42.0854467" lon="11.93325"><ele>121.0</ele><time>2026-05-03T08:20:37.494Z</time></trkpt><trkpt lat="42.0854533" lon="11.9334367"><ele>121.0</ele><time>2026-05-03T08:20:38.497Z</time></trkpt><trkpt lat="42.0854533" lon="11.9336017"><ele>121.0</ele><time>2026-05-03T08:20:39.493Z</time></trkpt><trkpt lat="42.0854517" lon="11.9337583"><ele>123.0</ele><time>2026-05-03T08:20:40.494Z</time></trkpt><trkpt lat="42.0854433" lon="11.933905"><ele>125.0</ele><time>2026-05-03T08:20:41.491Z</time></trkpt><trkpt lat="42.08543" lon="11.93404"><ele>127.0</ele><time>2026-05-03T08:20:42.537Z</time></trkpt><trkpt lat="42.0854183" lon="11.9341767"><ele>129.0</ele><time>2026-05-03T08:20:43.494Z</time></trkpt><trkpt lat="42.0854117" lon="11.9343167"><ele>131.0</ele><time>2026-05-03T08:20:44.496Z</time></trkpt><trkpt lat="42.0854017" lon="11.934445"><ele>132.83333333333331</ele><time>2026-05-03T08:20:45.498Z</time></trkpt><trkpt lat="42.0853983" lon="11.9345617"><ele>134.66666666666666</ele><time>2026-05-03T08:20:46.494Z</time></trkpt><trkpt lat="42.0854017" lon="11.9346783"><ele>136.5</ele><time>2026-05-03T08:20:47.496Z</time></trkpt><trkpt lat="42.0854067" lon="11.9347933"><ele>138.33333333333334</ele><time>2026-05-03T08:20:48.536Z</time></trkpt><trkpt lat="42.0854117" lon="11.9349083"><ele>140.16666666666669</ele><time>2026-05-03T08:20:49.493Z</time></trkpt><trkpt lat="42.085415" lon="11.9350333"><ele>142.0</ele><time>2026-05-03T08:20:50.497Z</time></trkpt><trkpt lat="42.085415" lon="11.9351633"><ele>143.79999999999998</ele><time>2026-05-03T08:20:51.497Z</time></trkpt><trkpt lat="42.08541" lon="11.9352883"><ele>145.6</ele><time>2026-05-03T08:20:52.494Z</time></trkpt><trkpt lat="42.0854" lon="11.9354167"><ele>147.39999999999998</ele><time>2026-05-03T08:20:53.496Z</time></trkpt><trkpt lat="42.0853933" lon="11.935545"><ele>149.2</ele><time>2026-05-03T08:20:54.496Z</time></trkpt><trkpt lat="42.0853867" lon="11.9356733"><ele>151.0</ele><time>2026-05-03T08:20:55.494Z</time></trkpt><trkpt lat="42.0853783" lon="11.9357983"><ele>152.4</ele><time>2026-05-03T08:20:56.497Z</time></trkpt><trkpt lat="42.0853683" lon="11.9359333"><ele>153.8</ele><time>2026-05-03T08:20:57.492Z</time></trkpt><trkpt lat="42.0853567" lon="11.9360833"><ele>155.20000000000002</ele><time>2026-05-03T08:20:58.497Z</time></trkpt><trkpt lat="42.0853483" lon="11.936235"><ele>156.6</ele><time>2026-05-03T08:20:59.498Z</time></trkpt><trkpt lat="42.0853383" lon="11.9363783"><ele>158.0</ele><time>2026-05-03T08:21:00.491Z</time></trkpt><trkpt lat="42.0853267" lon="11.9365283"><ele>158.0</ele><time>2026-05-03T08:21:01.492Z</time></trkpt><trkpt lat="42.0853183" lon="11.9366883"><ele>158.0</ele><time>2026-05-03T08:21:02.497Z</time></trkpt><trkpt lat="42.08531" lon="11.9368567"><ele>158.0</ele><time>2026-05-03T08:21:03.494Z</time></trkpt><trkpt lat="42.0853" lon="11.9370217"><ele>158.0</ele><time>2026-05-03T08:21:04.497Z</time></trkpt><trkpt lat="42.085285" lon="11.9371717"><ele>159.5</ele><time>2026-05-03T08:21:05.488Z</time></trkpt><trkpt lat="42.0852717" lon="11.9373017"><ele>161.0</ele><time>2026-05-03T08:21:06.537Z</time></trkpt><trkpt lat="42.085255" lon="11.9374133"><ele>162.5</ele><time>2026-05-03T08:21:07.496Z</time></trkpt><trkpt lat="42.0852267" lon="11.9375133"><ele>164.0</ele><time>2026-05-03T08:21:08.498Z</time></trkpt><trkpt lat="42.08519" lon="11.937615"><ele>165.5</ele><time>2026-05-03T08:21:09.488Z</time></trkpt><trkpt lat="42.08516" lon="11.937725"><ele>167.0</ele><time>2026-05-03T08:21:10.494Z</time></trkpt><trkpt lat="42.08514" lon="11.9378483"><ele>168.8</ele><time>2026-05-03T08:21:11.491Z</time></trkpt><trkpt lat="42.0851233" lon="11.9379767"><ele>170.6</ele><time>2026-05-03T08:21:12.534Z</time></trkpt><trkpt lat="42.085105" lon="11.9380917"><ele>172.4</ele><time>2026-05-03T08:21:13.491Z</time></trkpt><trkpt lat="42.08508" lon="11.9381783"><ele>174.20000000000002</ele><time>2026-05-03T08:21:14.493Z</time></trkpt><trkpt lat="42.085" lon="11.9382567"><ele>176.0</ele><time>2026-05-03T08:21:16.489Z</time></trkpt><trkpt lat="42.0848883" lon="11.9382683"><ele>176.0</ele><time>2026-05-03T08:21:18.538Z</time></trkpt><trkpt lat="42.0848117" lon="11.93828"><ele>176.0</ele><time>2026-05-03T08:21:19.491Z</time></trkpt><trkpt lat="42.0847233" lon="11.9382933"><ele>176.0</ele><time>2026-05-03T08:21:20.493Z</time></trkpt><trkpt lat="42.0846267" lon="11.9383033"><ele>176.0</ele><time>2026-05-03T08:21:21.497Z</time></trkpt><trkpt lat="42.0845383" lon="11.938305"><ele>176.0</ele><time>2026-05-03T08:21:22.487Z</time></trkpt><trkpt lat="42.0844583" lon="11.9383033"><ele>176.0</ele><time>2026-05-03T08:21:23.489Z</time></trkpt><trkpt lat="42.08438" lon="11.938305"><ele>176.0</ele><time>2026-05-03T08:21:24.494Z</time></trkpt><trkpt lat="42.084305" lon="11.9383133"><ele>176.0</ele><time>2026-05-03T08:21:25.501Z</time></trkpt><trkpt lat="42.08423" lon="11.9383367"><ele>176.0</ele><time>2026-05-03T08:21:26.495Z</time></trkpt><trkpt lat="42.0841533" lon="11.9383833"><ele>176.0</ele><time>2026-05-03T08:21:27.493Z</time></trkpt><trkpt lat="42.084085" lon="11.938435"><ele>176.0</ele><time>2026-05-03T08:21:28.495Z</time></trkpt><trkpt lat="42.0840233" lon="11.9384783"><ele>176.0</ele><time>2026-05-03T08:21:29.495Z</time></trkpt><trkpt lat="42.0839017" lon="11.9385067"><ele>177.60000000000002</ele><time>2026-05-03T08:21:31.495Z</time></trkpt><trkpt lat="42.0838283" lon="11.9385183"><ele>179.2</ele><time>2026-05-03T08:21:32.496Z</time></trkpt><trkpt lat="42.0837517" lon="11.9385517"><ele>180.8</ele><time>2026-05-03T08:21:33.491Z</time></trkpt><trkpt lat="42.08367" lon="11.9386083"><ele>182.39999999999998</ele><time>2026-05-03T08:21:34.49Z</time></trkpt><trkpt lat="42.0835683" lon="11.938685"><ele>184.0</ele><time>2026-05-03T08:21:35.494Z</time></trkpt><trkpt lat="42.0834683" lon="11.938755"><ele>184.0</ele><time>2026-05-03T08:21:36.534Z</time></trkpt><trkpt lat="42.08338" lon="11.9388133"><ele>184.0</ele><time>2026-05-03T08:21:37.494Z</time></trkpt><trkpt lat="42.0833067" lon="11.9388617"><ele>184.0</ele><time>2026-05-03T08:21:38.493Z</time></trkpt><trkpt lat="42.08323" lon="11.9389117"><ele>184.0</ele><time>2026-05-03T08:21:39.497Z</time></trkpt><trkpt lat="42.083145" lon="11.938965"><ele>184.0</ele><time>2026-05-03T08:21:40.496Z</time></trkpt><trkpt lat="42.0830583" lon="11.9390233"><ele>183.39999999999998</ele><time>2026-05-03T08:21:41.497Z</time></trkpt><trkpt lat="42.0829733" lon="11.9390733"><ele>182.8</ele><time>2026-05-03T08:21:42.539Z</time></trkpt><trkpt lat="42.0828767" lon="11.93912"><ele>182.2</ele><time>2026-05-03T08:21:43.496Z</time></trkpt><trkpt lat="42.0827783" lon="11.9391733"><ele>181.60000000000002</ele><time>2026-05-03T08:21:44.497Z</time></trkpt><trkpt lat="42.08268" lon="11.9392367"><ele>181.0</ele><time>2026-05-03T08:21:45.493Z</time></trkpt><trkpt lat="42.08258" lon="11.9392983"><ele>181.0</ele><time>2026-05-03T08:21:46.49Z</time></trkpt><trkpt lat="42.0824767" lon="11.9393533"><ele>181.0</ele><time>2026-05-03T08:21:47.493Z</time></trkpt><trkpt lat="42.0823683" lon="11.9394083"><ele>181.0</ele><time>2026-05-03T08:21:48.535Z</time></trkpt><trkpt lat="42.0822567" lon="11.9394617"><ele>181.0</ele><time>2026-05-03T08:21:49.495Z</time></trkpt><trkpt lat="42.0821533" lon="11.93951"><ele>179.8</ele><time>2026-05-03T08:21:50.496Z</time></trkpt><trkpt lat="42.082055" lon="11.9395517"><ele>178.60000000000002</ele><time>2026-05-03T08:21:51.493Z</time></trkpt><trkpt lat="42.08196" lon="11.93959"><ele>177.4</ele><time>2026-05-03T08:21:52.496Z</time></trkpt><trkpt lat="42.0818683" lon="11.93963"><ele>176.2</ele><time>2026-05-03T08:21:53.495Z</time></trkpt><trkpt lat="42.0817867" lon="11.9396667"><ele>175.0</ele><time>2026-05-03T08:21:54.553Z</time></trkpt><trkpt lat="42.0817267" lon="11.9397033"><ele>175.0</ele><time>2026-05-03T08:21:55.491Z</time></trkpt><trkpt lat="42.0816833" lon="11.93979"><ele>175.0</ele><time>2026-05-03T08:21:57.494Z</time></trkpt><trkpt lat="42.0817283" lon="11.9398983"><ele>175.0</ele><time>2026-05-03T08:21:59.486Z</time></trkpt><trkpt lat="42.0817733" lon="11.9400533"><ele>175.0</ele><time>2026-05-03T08:22:01.501Z</time></trkpt><trkpt lat="42.0817883" lon="11.94015"><ele>175.0</ele><time>2026-05-03T08:22:02.495Z</time></trkpt><trkpt lat="42.0817983" lon="11.9402583"><ele>175.0</ele><time>2026-05-03T08:22:03.497Z</time></trkpt><trkpt lat="42.0818" lon="11.9403667"><ele>175.85714285714286</ele><time>2026-05-03T08:22:04.493Z</time></trkpt><trkpt lat="42.08179" lon="11.9404733"><ele>176.71428571428572</ele><time>2026-05-03T08:22:05.493Z</time></trkpt><trkpt lat="42.081775" lon="11.9405633"><ele>177.57142857142856</ele><time>2026-05-03T08:22:06.536Z</time></trkpt><trkpt lat="42.08177" lon="11.9406517"><ele>178.42857142857144</ele><time>2026-05-03T08:22:07.489Z</time></trkpt><trkpt lat="42.08177" lon="11.9407533"><ele>179.28571428571428</ele><time>2026-05-03T08:22:08.495Z</time></trkpt><trkpt lat="42.0817767" lon="11.94086"><ele>180.14285714285714</ele><time>2026-05-03T08:22:09.497Z</time></trkpt><trkpt lat="42.0817917" lon="11.9409667"><ele>181.0</ele><time>2026-05-03T08:22:10.49Z</time></trkpt><trkpt lat="42.0818133" lon="11.9410783"><ele>181.83333333333334</ele><time>2026-05-03T08:22:11.491Z</time></trkpt><trkpt lat="42.0818467" lon="11.9411917"><ele>182.66666666666669</ele><time>2026-05-03T08:22:12.536Z</time></trkpt><trkpt lat="42.0818883" lon="11.9413017"><ele>183.5</ele><time>2026-05-03T08:22:13.496Z</time></trkpt><trkpt lat="42.0819367" lon="11.9414"><ele>184.33333333333334</ele><time>2026-05-03T08:22:14.495Z</time></trkpt><trkpt lat="42.0819967" lon="11.9414833"><ele>185.16666666666666</ele><time>2026-05-03T08:22:15.494Z</time></trkpt><trkpt lat="42.0820667" lon="11.9415467"><ele>186.0</ele><time>2026-05-03T08:22:16.496Z</time></trkpt><trkpt lat="42.0821383" lon="11.9416017"><ele>186.0</ele><time>2026-05-03T08:22:17.494Z</time></trkpt><trkpt lat="42.0822133" lon="11.9416567"><ele>186.0</ele><time>2026-05-03T08:22:18.539Z</time></trkpt><trkpt lat="42.0822867" lon="11.9416983"><ele>186.0</ele><time>2026-05-03T08:22:19.496Z</time></trkpt><trkpt lat="42.0823667" lon="11.941725"><ele>186.0</ele><time>2026-05-03T08:22:20.495Z</time></trkpt><trkpt lat="42.0824567" lon="11.9417367"><ele>186.0</ele><time>2026-05-03T08:22:21.497Z</time></trkpt><trkpt lat="42.0825517" lon="11.9417433"><ele>186.0</ele><time>2026-05-03T08:22:22.495Z</time></trkpt><trkpt lat="42.0826417" lon="11.9417533"><ele>189.16666666666666</ele><time>2026-05-03T08:22:23.497Z</time></trkpt><trkpt lat="42.0827183" lon="11.941775"><ele>192.33333333333331</ele><time>2026-05-03T08:22:24.56Z</time></trkpt><trkpt lat="42.0827867" lon="11.9418167"><ele>195.5</ele><time>2026-05-03T08:22:25.494Z</time></trkpt><trkpt lat="42.0828317" lon="11.94188"><ele>198.66666666666666</ele><time>2026-05-03T08:22:26.497Z</time></trkpt><trkpt lat="42.082855" lon="11.9420117"><ele>201.83333333333331</ele><time>2026-05-03T08:22:28.491Z</time></trkpt><trkpt lat="42.0827883" lon="11.9421333"><ele>205.0</ele><time>2026-05-03T08:22:30.549Z</time></trkpt><trkpt lat="42.0827333" lon="11.942185"><ele>204.99999999999997</ele><time>2026-05-03T08:22:31.495Z</time></trkpt><trkpt lat="42.08268" lon="11.9422317"><ele>205.0</ele><time>2026-05-03T08:22:32.49Z</time></trkpt><trkpt lat="42.082615" lon="11.9423483"><ele>205.0</ele><time>2026-05-03T08:22:34.494Z</time></trkpt><trkpt lat="42.0826267" lon="11.9425067"><ele>205.0</ele><time>2026-05-03T08:22:36.536Z</time></trkpt><trkpt lat="42.08263" lon="11.9426"><ele>204.99999999999997</ele><time>2026-05-03T08:22:37.492Z</time></trkpt><trkpt lat="42.082635" lon="11.9427033"><ele>205.0</ele><time>2026-05-03T08:22:38.495Z</time></trkpt><trkpt lat="42.08264" lon="11.9428167"><ele>205.83333333333331</ele><time>2026-05-03T08:22:39.499Z</time></trkpt><trkpt lat="42.08265" lon="11.9429217"><ele>206.66666666666666</ele><time>2026-05-03T08:22:40.497Z</time></trkpt><trkpt lat="42.08265" lon="11.9430167"><ele>207.5</ele><time>2026-05-03T08:22:41.497Z</time></trkpt><trkpt lat="42.08265" lon="11.9431033"><ele>208.33333333333331</ele><time>2026-05-03T08:22:42.538Z</time></trkpt><trkpt lat="42.08269" lon="11.9432383"><ele>209.16666666666666</ele><time>2026-05-03T08:22:44.493Z</time></trkpt><trkpt lat="42.0827483" lon="11.9432967"><ele>210.0</ele><time>2026-05-03T08:22:46.495Z</time></trkpt><trkpt lat="42.0827883" lon="11.9433667"><ele>210.0</ele><time>2026-05-03T08:23:15.499Z</time></trkpt><trkpt lat="42.08286" lon="11.9434183"><ele>210.0</ele><time>2026-05-03T08:23:43.495Z</time></trkpt><trkpt lat="42.0829433" lon="11.9434267"><ele>210.0</ele><time>2026-05-03T08:23:45.498Z</time></trkpt><trkpt lat="42.0830317" lon="11.943405"><ele>210.0</ele><time>2026-05-03T08:23:47.49Z</time></trkpt><trkpt lat="42.0831133" lon="11.9433867"><ele>210.0</ele><time>2026-05-03T08:23:49.49Z</time></trkpt><trkpt lat="42.0832" lon="11.9433583"><ele>210.0</ele><time>2026-05-03T08:23:51.492Z</time></trkpt><trkpt lat="42.08326" lon="11.94332"><ele>210.66666666666666</ele><time>2026-05-03T08:23:53.495Z</time></trkpt><trkpt lat="42.0832133" lon="11.9434033"><ele>211.33333333333331</ele><time>2026-05-03T08:37:18.54Z</time></trkpt><trkpt lat="42.0831517" lon="11.94346"><ele>212.0</ele><time>2026-05-03T08:37:20.484Z</time></trkpt><trkpt lat="42.0831117" lon="11.943555"><ele>212.66666666666666</ele><time>2026-05-03T08:37:22.497Z</time></trkpt><trkpt lat="42.0830967" lon="11.9436517"><ele>213.33333333333331</ele><time>2026-05-03T08:37:24.556Z</time></trkpt><trkpt lat="42.0831017" lon="11.9437733"><ele>214.0</ele><time>2026-05-03T08:37:27.492Z</time></trkpt><trkpt lat="42.0831333" lon="11.9438833"><ele>213.99999999999997</ele><time>2026-05-03T08:37:29.494Z</time></trkpt><trkpt lat="42.0831717" lon="11.9439917"><ele>214.0</ele><time>2026-05-03T08:37:31.491Z</time></trkpt><trkpt lat="42.0831867" lon="11.944115"><ele>214.0</ele><time>2026-05-03T08:37:33.49Z</time></trkpt><trkpt lat="42.083185" lon="11.9442383"><ele>214.0</ele><time>2026-05-03T08:37:35.493Z</time></trkpt><trkpt lat="42.083175" lon="11.9443483"><ele>213.99999999999997</ele><time>2026-05-03T08:37:37.497Z</time></trkpt><trkpt lat="42.0831433" lon="11.944445"><ele>214.0</ele><time>2026-05-03T08:37:39.49Z</time></trkpt><trkpt lat="42.0830917" lon="11.9445583"><ele>216.0</ele><time>2026-05-03T08:37:41.494Z</time></trkpt><trkpt lat="42.0830767" lon="11.9446867"><ele>217.99999999999997</ele><time>2026-05-03T08:37:43.488Z</time></trkpt><trkpt lat="42.0830717" lon="11.944835"><ele>219.99999999999997</ele><time>2026-05-03T08:37:45.485Z</time></trkpt><trkpt lat="42.0830733" lon="11.9449867"><ele>222.0</ele><time>2026-05-03T08:37:47.495Z</time></trkpt><trkpt lat="42.083075" lon="11.9451233"><ele>224.0</ele><time>2026-05-03T08:37:49.493Z</time></trkpt><trkpt lat="42.083085" lon="11.9452667"><ele>225.83333333333334</ele><time>2026-05-03T08:37:51.496Z</time></trkpt><trkpt lat="42.0831217" lon="11.94536"><ele>227.66666666666669</ele><time>2026-05-03T08:37:53.486Z</time></trkpt><trkpt lat="42.0831817" lon="11.9454183"><ele>229.5</ele><time>2026-05-03T08:37:55.493Z</time></trkpt><trkpt lat="42.083265" lon="11.9454933"><ele>231.33333333333331</ele><time>2026-05-03T08:37:57.488Z</time></trkpt><trkpt lat="42.0833217" lon="11.9455433"><ele>233.16666666666666</ele><time>2026-05-03T08:37:58.488Z</time></trkpt><trkpt lat="42.0833733" lon="11.9456"><ele>235.0</ele><time>2026-05-03T08:37:59.492Z</time></trkpt><trkpt lat="42.0834217" lon="11.9456567"><ele>235.83333333333331</ele><time>2026-05-03T08:38:00.549Z</time></trkpt><trkpt lat="42.0834783" lon="11.945755"><ele>236.66666666666666</ele><time>2026-05-03T08:38:02.49Z</time></trkpt><trkpt lat="42.0835467" lon="11.9458017"><ele>237.5</ele><time>2026-05-03T08:38:16.488Z</time></trkpt><trkpt lat="42.0836267" lon="11.9458133"><ele>238.33333333333331</ele><time>2026-05-03T08:38:18.537Z</time></trkpt><trkpt lat="42.0837317" lon="11.94583"><ele>239.16666666666666</ele><time>2026-05-03T08:38:20.493Z</time></trkpt><trkpt lat="42.0838033" lon="11.9458117"><ele>240.0</ele><time>2026-05-03T08:38:22.488Z</time></trkpt><trkpt lat="42.0838833" lon="11.94572"><ele>240.0</ele><time>2026-05-03T08:38:25.495Z</time></trkpt><trkpt lat="42.0839517" lon="11.9456767"><ele>240.0</ele><time>2026-05-03T08:38:27.49Z</time></trkpt><trkpt lat="42.0840483" lon="11.94565"><ele>240.0</ele><time>2026-05-03T08:38:37.494Z</time></trkpt><trkpt lat="42.0841317" lon="11.94561"><ele>240.0</ele><time>2026-05-03T08:38:39.485Z</time></trkpt><trkpt lat="42.084235" lon="11.9455533"><ele>240.0</ele><time>2026-05-03T08:38:41.494Z</time></trkpt><trkpt lat="42.0843183" lon="11.94553"><ele>242.83333333333334</ele><time>2026-05-03T08:38:43.49Z</time></trkpt><trkpt lat="42.0843967" lon="11.945515"><ele>245.66666666666669</ele><time>2026-05-03T08:38:46.492Z</time></trkpt><trkpt lat="42.0844633" lon="11.9455417"><ele>248.5</ele><time>2026-05-03T08:38:50.49Z</time></trkpt><trkpt lat="42.0845233" lon="11.9456133"><ele>251.33333333333334</ele><time>2026-05-03T08:38:53.494Z</time></trkpt><trkpt lat="42.0845933" lon="11.9456333"><ele>254.16666666666669</ele><time>2026-05-03T08:38:55.489Z</time></trkpt><trkpt lat="42.0846817" lon="11.9456233"><ele>257.0</ele><time>2026-05-03T08:38:57.49Z</time></trkpt><trkpt lat="42.084795" lon="11.9456233"><ele>257.0</ele><time>2026-05-03T08:38:59.497Z</time></trkpt><trkpt lat="42.084915" lon="11.945625"><ele>257.0</ele><time>2026-05-03T08:39:01.495Z</time></trkpt><trkpt lat="42.0850283" lon="11.94563"><ele>257.0</ele><time>2026-05-03T08:39:03.492Z</time></trkpt><trkpt lat="42.0851233" lon="11.9456467"><ele>257.0</ele><time>2026-05-03T08:39:05.495Z</time></trkpt><trkpt lat="42.0852467" lon="11.9456567"><ele>258.85714285714283</ele><time>2026-05-03T08:39:07.494Z</time></trkpt><trkpt lat="42.085315" lon="11.9456683"><ele>260.7142857142857</ele><time>2026-05-03T08:39:08.487Z</time></trkpt><trkpt lat="42.0853817" lon="11.9456817"><ele>262.57142857142856</ele><time>2026-05-03T08:39:09.496Z</time></trkpt><trkpt lat="42.0854567" lon="11.9457"><ele>264.42857142857144</ele><time>2026-05-03T08:39:10.494Z</time></trkpt><trkpt lat="42.0855317" lon="11.9457117"><ele>266.2857142857143</ele><time>2026-05-03T08:39:11.493Z</time></trkpt><trkpt lat="42.0856067" lon="11.9457233"><ele>268.1428571428571</ele><time>2026-05-03T08:39:12.536Z</time></trkpt><trkpt lat="42.0856833" lon="11.9457433"><ele>270.0</ele><time>2026-05-03T08:39:13.493Z</time></trkpt><trkpt lat="42.085765" lon="11.945765"><ele>270.3333333333333</ele><time>2026-05-03T08:39:14.49Z</time></trkpt><trkpt lat="42.0858417" lon="11.9457933"><ele>270.6666666666667</ele><time>2026-05-03T08:39:15.494Z</time></trkpt><trkpt lat="42.0859133" lon="11.9458233"><ele>271.0</ele><time>2026-05-03T08:39:16.485Z</time></trkpt><trkpt lat="42.0859833" lon="11.9458483"><ele>271.33333333333337</ele><time>2026-05-03T08:39:17.487Z</time></trkpt><trkpt lat="42.0860567" lon="11.9458683"><ele>271.6666666666667</ele><time>2026-05-03T08:39:18.539Z</time></trkpt><trkpt lat="42.0861333" lon="11.945885"><ele>272.0</ele><time>2026-05-03T08:39:19.49Z</time></trkpt><trkpt lat="42.0862083" lon="11.9459117"><ele>273.1666666666667</ele><time>2026-05-03T08:39:20.491Z</time></trkpt><trkpt lat="42.0862817" lon="11.9459483"><ele>274.33333333333337</ele><time>2026-05-03T08:39:21.494Z</time></trkpt><trkpt lat="42.0863533" lon="11.9459967"><ele>275.5</ele><time>2026-05-03T08:39:22.492Z</time></trkpt><trkpt lat="42.0864217" lon="11.9460483"><ele>276.6666666666667</ele><time>2026-05-03T08:39:23.493Z</time></trkpt><trkpt lat="42.0864767" lon="11.9461133"><ele>277.8333333333333</ele><time>2026-05-03T08:39:24.559Z</time></trkpt><trkpt lat="42.0865233" lon="11.9461767"><ele>279.0</ele><time>2026-05-03T08:39:25.489Z</time></trkpt><trkpt lat="42.0865617" lon="11.9462817"><ele>278.1428571428571</ele><time>2026-05-03T08:39:27.488Z</time></trkpt><trkpt lat="42.0866117" lon="11.9463383"><ele>277.2857142857143</ele><time>2026-05-03T08:39:30.549Z</time></trkpt><trkpt lat="42.0866667" lon="11.9464017"><ele>276.42857142857144</ele><time>2026-05-03T08:39:33.492Z</time></trkpt><trkpt lat="42.08669" lon="11.9465183"><ele>275.57142857142856</ele><time>2026-05-03T08:39:36.54Z</time></trkpt><trkpt lat="42.08671" lon="11.94661"><ele>274.7142857142857</ele><time>2026-05-03T08:39:38.494Z</time></trkpt><trkpt lat="42.08672" lon="11.946715"><ele>273.85714285714283</ele><time>2026-05-03T08:39:40.494Z</time></trkpt><trkpt lat="42.0867317" lon="11.9468"><ele>273.0</ele><time>2026-05-03T08:39:42.541Z</time></trkpt><trkpt lat="42.08674" lon="11.946915"><ele>272.8333333333333</ele><time>2026-05-03T08:39:45.494Z</time></trkpt><trkpt lat="42.0867917" lon="11.94701"><ele>272.6666666666667</ele><time>2026-05-03T08:39:48.535Z</time></trkpt><trkpt lat="42.0868783" lon="11.9470083"><ele>272.5</ele><time>2026-05-03T08:39:50.491Z</time></trkpt><trkpt lat="42.086965" lon="11.9469583"><ele>272.33333333333337</ele><time>2026-05-03T08:39:52.49Z</time></trkpt><trkpt lat="42.0870383" lon="11.9469367"><ele>272.1666666666667</ele><time>2026-05-03T08:39:54.554Z</time></trkpt><trkpt lat="42.0871033" lon="11.9469583"><ele>272.0</ele><time>2026-05-03T08:39:56.486Z</time></trkpt><trkpt lat="42.0871583" lon="11.9470067"><ele>272.0</ele><time>2026-05-03T08:39:58.49Z</time></trkpt><trkpt lat="42.0872033" lon="11.9470667"><ele>272.0</ele><time>2026-05-03T08:40:00.556Z</time></trkpt><trkpt lat="42.0872833" lon="11.94712"><ele>272.0</ele><time>2026-05-03T08:40:03.488Z</time></trkpt><trkpt lat="42.0873783" lon="11.9471417"><ele>272.0</ele><time>2026-05-03T08:40:06.54Z</time></trkpt><trkpt lat="42.08745" lon="11.9471667"><ele>272.0</ele><time>2026-05-03T08:40:08.49Z</time></trkpt><trkpt lat="42.0875167" lon="11.947165"><ele>272.0</ele><time>2026-05-03T08:40:10.492Z</time></trkpt><trkpt lat="42.08758" lon="11.9471583"><ele>269.1666666666667</ele><time>2026-05-03T08:40:12.537Z</time></trkpt><trkpt lat="42.0876517" lon="11.9471367"><ele>266.33333333333337</ele><time>2026-05-03T08:40:15.489Z</time></trkpt><trkpt lat="42.0877383" lon="11.9471"><ele>263.5</ele><time>2026-05-03T08:40:18.536Z</time></trkpt><trkpt lat="42.0878083" lon="11.9470383"><ele>260.6666666666667</ele><time>2026-05-03T08:40:21.493Z</time></trkpt><trkpt lat="42.0878867" lon="11.9470083"><ele>257.8333333333333</ele><time>2026-05-03T08:40:23.497Z</time></trkpt><trkpt lat="42.0879583" lon="11.946985"><ele>255.0</ele><time>2026-05-03T08:40:25.486Z</time></trkpt><trkpt lat="42.0880333" lon="11.9469517"><ele>255.0</ele><time>2026-05-03T08:40:27.495Z</time></trkpt><trkpt lat="42.0881433" lon="11.9469183"><ele>255.0</ele><time>2026-05-03T08:40:29.493Z</time></trkpt><trkpt lat="42.0882633" lon="11.9468967"><ele>255.0</ele><time>2026-05-03T08:40:31.484Z</time></trkpt><trkpt lat="42.0883283" lon="11.9468917"><ele>255.0</ele><time>2026-05-03T08:40:32.492Z</time></trkpt><trkpt lat="42.0883933" lon="11.946895"><ele>255.0</ele><time>2026-05-03T08:40:33.493Z</time></trkpt><trkpt lat="42.0884567" lon="11.9469083"><ele>255.0</ele><time>2026-05-03T08:40:34.49Z</time></trkpt><trkpt lat="42.088565" lon="11.9469383"><ele>252.66666666666666</ele><time>2026-05-03T08:40:36.541Z</time></trkpt><trkpt lat="42.0886617" lon="11.946975"><ele>250.33333333333331</ele><time>2026-05-03T08:40:38.491Z</time></trkpt><trkpt lat="42.0887767" lon="11.947015"><ele>248.0</ele><time>2026-05-03T08:40:40.493Z</time></trkpt><trkpt lat="42.0888383" lon="11.9470333"><ele>245.66666666666666</ele><time>2026-05-03T08:40:41.493Z</time></trkpt><trkpt lat="42.0889017" lon="11.9470533"><ele>243.33333333333331</ele><time>2026-05-03T08:40:42.543Z</time></trkpt><trkpt lat="42.0889633" lon="11.9470717"><ele>241.0</ele><time>2026-05-03T08:40:43.497Z</time></trkpt><trkpt lat="42.089025" lon="11.9470917"><ele>239.8</ele><time>2026-05-03T08:40:44.491Z</time></trkpt><trkpt lat="42.0891383" lon="11.9471217"><ele>238.60000000000002</ele><time>2026-05-03T08:40:46.498Z</time></trkpt><trkpt lat="42.0892433" lon="11.9471267"><ele>237.4</ele><time>2026-05-03T08:40:48.538Z</time></trkpt><trkpt lat="42.089335" lon="11.9471317"><ele>236.2</ele><time>2026-05-03T08:40:50.489Z</time></trkpt><trkpt lat="42.0894417" lon="11.94712"><ele>235.0</ele><time>2026-05-03T08:40:52.501Z</time></trkpt><trkpt lat="42.0895483" lon="11.9470783"><ele>235.0</ele><time>2026-05-03T08:40:54.51Z</time></trkpt><trkpt lat="42.0896517" lon="11.947035"><ele>235.0</ele><time>2026-05-03T08:40:56.49Z</time></trkpt><trkpt lat="42.0897683" lon="11.9470067"><ele>235.0</ele><time>2026-05-03T08:40:58.495Z</time></trkpt><trkpt lat="42.0898317" lon="11.94699"><ele>235.0</ele><time>2026-05-03T08:40:59.494Z</time></trkpt><trkpt lat="42.0899317" lon="11.9469467"><ele>235.0</ele><time>2026-05-03T08:41:01.497Z</time></trkpt><trkpt lat="42.0900217" lon="11.9469317"><ele>233.66666666666666</ele><time>2026-05-03T08:41:04.492Z</time></trkpt><trkpt lat="42.0901" lon="11.9468983"><ele>232.33333333333331</ele><time>2026-05-03T08:41:07.49Z</time></trkpt><trkpt lat="42.0901783" lon="11.9468633"><ele>231.0</ele><time>2026-05-03T08:41:09.5Z</time></trkpt><trkpt lat="42.0902517" lon="11.9468533"><ele>229.66666666666669</ele><time>2026-05-03T08:41:11.496Z</time></trkpt><trkpt lat="42.0903217" lon="11.9468117"><ele>228.33333333333334</ele><time>2026-05-03T08:41:14.489Z</time></trkpt><trkpt lat="42.0903883" lon="11.9468083"><ele>227.0</ele><time>2026-05-03T08:41:16.491Z</time></trkpt><trkpt lat="42.090455" lon="11.9468333"><ele>227.0</ele><time>2026-05-03T08:41:18.54Z</time></trkpt><trkpt lat="42.0905067" lon="11.94695"><ele>227.0</ele><time>2026-05-03T08:41:21.489Z</time></trkpt><trkpt lat="42.090515" lon="11.947065"><ele>227.0</ele><time>2026-05-03T08:41:23.494Z</time></trkpt><trkpt lat="42.090485" lon="11.9471717"><ele>227.0</ele><time>2026-05-03T08:41:25.492Z</time></trkpt><trkpt lat="42.0904083" lon="11.94729"><ele>227.0</ele><time>2026-05-03T08:41:27.499Z</time></trkpt><trkpt lat="42.0903617" lon="11.94735"><ele>227.00000000000003</ele><time>2026-05-03T08:41:28.491Z</time></trkpt><trkpt lat="42.0902883" lon="11.94745"><ele>227.0</ele><time>2026-05-03T08:41:30.556Z</time></trkpt><trkpt lat="42.0902383" lon="11.9475117"><ele>227.0</ele><time>2026-05-03T08:41:32.488Z</time></trkpt><trkpt lat="42.0901883" lon="11.9475667"><ele>227.0</ele><time>2026-05-03T08:41:34.492Z</time></trkpt><trkpt lat="42.0901333" lon="11.947635"><ele>227.00000000000003</ele><time>2026-05-03T08:41:36.536Z</time></trkpt><trkpt lat="42.0900733" lon="11.9476817"><ele>227.0</ele><time>2026-05-03T08:41:38.495Z</time></trkpt><trkpt lat="42.0899917" lon="11.9477183"><ele>226.39999999999998</ele><time>2026-05-03T08:41:41.492Z</time></trkpt><trkpt lat="42.0899317" lon="11.9477583"><ele>225.79999999999998</ele><time>2026-05-03T08:41:43.492Z</time></trkpt><trkpt lat="42.0898533" lon="11.9478117"><ele>225.2</ele><time>2026-05-03T08:41:45.499Z</time></trkpt><trkpt lat="42.08976" lon="11.9478583"><ele>224.6</ele><time>2026-05-03T08:41:47.498Z</time></trkpt><trkpt lat="42.0896533" lon="11.9479033"><ele>224.0</ele><time>2026-05-03T08:41:49.488Z</time></trkpt><trkpt lat="42.0895633" lon="11.947935"><ele>224.0</ele><time>2026-05-03T08:41:51.499Z</time></trkpt><trkpt lat="42.0894467" lon="11.9479583"><ele>223.99999999999997</ele><time>2026-05-03T08:41:53.5Z</time></trkpt><trkpt lat="42.0893783" lon="11.9479667"><ele>223.99999999999997</ele><time>2026-05-03T08:41:54.493Z</time></trkpt><trkpt lat="42.0893083" lon="11.94798"><ele>224.0</ele><time>2026-05-03T08:41:55.494Z</time></trkpt><trkpt lat="42.0891883" lon="11.9480067"><ele>224.0</ele><time>2026-05-03T08:41:57.497Z</time></trkpt><trkpt lat="42.0890717" lon="11.94804"><ele>225.6</ele><time>2026-05-03T08:41:59.497Z</time></trkpt><trkpt lat="42.0889633" lon="11.94809"><ele>227.2</ele><time>2026-05-03T08:42:01.494Z</time></trkpt><trkpt lat="42.088855" lon="11.9481333"><ele>228.79999999999998</ele><time>2026-05-03T08:42:03.496Z</time></trkpt><trkpt lat="42.08875" lon="11.9481767"><ele>230.39999999999998</ele><time>2026-05-03T08:42:05.489Z</time></trkpt><trkpt lat="42.088685" lon="11.9482567"><ele>232.0</ele><time>2026-05-03T08:42:07.496Z</time></trkpt><trkpt lat="42.0886083" lon="11.9483483"><ele>230.83333333333331</ele><time>2026-05-03T08:42:09.499Z</time></trkpt><trkpt lat="42.08853" lon="11.94843"><ele>229.66666666666666</ele><time>2026-05-03T08:42:11.498Z</time></trkpt><trkpt lat="42.0884567" lon="11.9485183"><ele>228.5</ele><time>2026-05-03T08:42:13.488Z</time></trkpt><trkpt lat="42.0884" lon="11.9485817"><ele>227.33333333333331</ele><time>2026-05-03T08:42:15.494Z</time></trkpt><trkpt lat="42.08833" lon="11.9486317"><ele>226.16666666666666</ele><time>2026-05-03T08:42:46.494Z</time></trkpt><trkpt lat="42.0882533" lon="11.948715"><ele>225.0</ele><time>2026-05-03T08:42:50.497Z</time></trkpt><trkpt lat="42.0881933" lon="11.9487833"><ele>226.4</ele><time>2026-05-03T08:42:52.492Z</time></trkpt><trkpt lat="42.0881317" lon="11.9488533"><ele>227.8</ele><time>2026-05-03T08:42:54.553Z</time></trkpt><trkpt lat="42.0880617" lon="11.948935"><ele>229.2</ele><time>2026-05-03T08:42:56.488Z</time></trkpt><trkpt lat="42.088005" lon="11.949035"><ele>230.6</ele><time>2026-05-03T08:42:58.489Z</time></trkpt><trkpt lat="42.0879483" lon="11.9491533"><ele>232.0</ele><time>2026-05-03T08:43:00.555Z</time></trkpt><trkpt lat="42.087885" lon="11.9492633"><ele>232.0</ele><time>2026-05-03T08:43:02.495Z</time></trkpt><trkpt lat="42.087835" lon="11.9493867"><ele>232.0</ele><time>2026-05-03T08:43:04.49Z</time></trkpt><trkpt lat="42.08778" lon="11.94951"><ele>232.0</ele><time>2026-05-03T08:43:06.535Z</time></trkpt><trkpt lat="42.0877183" lon="11.9496183"><ele>232.0</ele><time>2026-05-03T08:43:08.489Z</time></trkpt><trkpt lat="42.0876333" lon="11.9497117"><ele>232.0</ele><time>2026-05-03T08:43:10.493Z</time></trkpt><trkpt lat="42.0875383" lon="11.9497667"><ele>231.99999999999997</ele><time>2026-05-03T08:43:12.537Z</time></trkpt><trkpt lat="42.0874517" lon="11.9497733"><ele>232.0</ele><time>2026-05-03T08:43:14.489Z</time></trkpt><trkpt lat="42.0873767" lon="11.9497817"><ele>232.0</ele><time>2026-05-03T08:43:16.489Z</time></trkpt><trkpt lat="42.0872767" lon="11.9498217"><ele>232.0</ele><time>2026-05-03T08:43:27.501Z</time></trkpt><trkpt lat="42.08723" lon="11.9498817"><ele>231.99999999999997</ele><time>2026-05-03T08:43:29.488Z</time></trkpt><trkpt lat="42.0871767" lon="11.94999"><ele>232.0</ele><time>2026-05-03T08:43:31.495Z</time></trkpt><trkpt lat="42.0871333" lon="11.9501217"><ele>236.0</ele><time>2026-05-03T08:43:33.494Z</time></trkpt><trkpt lat="42.0870717" lon="11.95026"><ele>240.0</ele><time>2026-05-03T08:43:35.488Z</time></trkpt><trkpt lat="42.0870133" lon="11.9503917"><ele>244.0</ele><time>2026-05-03T08:43:37.491Z</time></trkpt><trkpt lat="42.0869717" lon="11.9504783"><ele>248.0</ele><time>2026-05-03T08:43:39.492Z</time></trkpt><trkpt lat="42.0869417" lon="11.9505967"><ele>252.0</ele><time>2026-05-03T08:44:00.496Z</time></trkpt><trkpt lat="42.0869467" lon="11.9507583"><ele>252.0</ele><time>2026-05-03T08:44:02.485Z</time></trkpt><trkpt lat="42.0869617" lon="11.95085"><ele>252.0</ele><time>2026-05-03T08:44:03.501Z</time></trkpt><trkpt lat="42.086985" lon="11.950945"><ele>252.0</ele><time>2026-05-03T08:44:04.49Z</time></trkpt><trkpt lat="42.0870083" lon="11.9510467"><ele>252.0</ele><time>2026-05-03T08:44:05.49Z</time></trkpt><trkpt lat="42.08703" lon="11.9511517"><ele>252.0</ele><time>2026-05-03T08:44:06.535Z</time></trkpt><trkpt lat="42.087045" lon="11.9512567"><ele>252.0</ele><time>2026-05-03T08:44:07.486Z</time></trkpt><trkpt lat="42.0870567" lon="11.9513583"><ele>251.28571428571428</ele><time>2026-05-03T08:44:08.495Z</time></trkpt><trkpt lat="42.0870567" lon="11.9514567"><ele>250.57142857142856</ele><time>2026-05-03T08:44:09.493Z</time></trkpt><trkpt lat="42.0870567" lon="11.9515517"><ele>249.85714285714286</ele><time>2026-05-03T08:44:10.491Z</time></trkpt><trkpt lat="42.0870533" lon="11.9516383"><ele>249.14285714285714</ele><time>2026-05-03T08:44:11.488Z</time></trkpt><trkpt lat="42.0870433" lon="11.9517367"><ele>248.42857142857142</ele><time>2026-05-03T08:44:12.54Z</time></trkpt><trkpt lat="42.0870283" lon="11.9518417"><ele>247.71428571428572</ele><time>2026-05-03T08:44:13.49Z</time></trkpt><trkpt lat="42.0870033" lon="11.95194"><ele>247.0</ele><time>2026-05-03T08:44:14.492Z</time></trkpt><trkpt lat="42.0869783" lon="11.9520217"><ele>245.16666666666666</ele><time>2026-05-03T08:44:15.497Z</time></trkpt><trkpt lat="42.0869183" lon="11.9521433"><ele>243.33333333333331</ele><time>2026-05-03T08:44:17.49Z</time></trkpt><trkpt lat="42.0868283" lon="11.9522433"><ele>241.5</ele><time>2026-05-03T08:44:19.489Z</time></trkpt><trkpt lat="42.0867717" lon="11.9522867"><ele>239.66666666666669</ele><time>2026-05-03T08:44:20.489Z</time></trkpt><trkpt lat="42.08671" lon="11.9523283"><ele>237.83333333333334</ele><time>2026-05-03T08:44:21.493Z</time></trkpt><trkpt lat="42.0866433" lon="11.95237"><ele>236.0</ele><time>2026-05-03T08:44:22.495Z</time></trkpt><trkpt lat="42.0865767" lon="11.9524167"><ele>236.00000000000003</ele><time>2026-05-03T08:44:23.492Z</time></trkpt><trkpt lat="42.0865217" lon="11.9524633"><ele>236.0</ele><time>2026-05-03T08:44:24.559Z</time></trkpt><trkpt lat="42.0864617" lon="11.95254"><ele>236.0</ele><time>2026-05-03T08:44:26.489Z</time></trkpt><trkpt lat="42.0864367" lon="11.95262"><ele>236.0</ele><time>2026-05-03T08:44:28.495Z</time></trkpt><trkpt lat="42.0864117" lon="11.952735"><ele>236.00000000000003</ele><time>2026-05-03T08:44:30.559Z</time></trkpt><trkpt lat="42.0863767" lon="11.9528917"><ele>236.0</ele><time>2026-05-03T08:44:32.493Z</time></trkpt><trkpt lat="42.0863583" lon="11.9529867"><ele>234.66666666666669</ele><time>2026-05-03T08:44:33.492Z</time></trkpt><trkpt lat="42.0863417" lon="11.95308"><ele>233.33333333333334</ele><time>2026-05-03T08:44:34.488Z</time></trkpt><trkpt lat="42.0863283" lon="11.9531767"><ele>232.0</ele><time>2026-05-03T08:44:35.494Z</time></trkpt><trkpt lat="42.0863233" lon="11.9532717"><ele>230.66666666666669</ele><time>2026-05-03T08:44:36.543Z</time></trkpt><trkpt lat="42.0863283" lon="11.9533617"><ele>229.33333333333334</ele><time>2026-05-03T08:44:37.498Z</time></trkpt><trkpt lat="42.0863367" lon="11.953515"><ele>228.0</ele><time>2026-05-03T08:44:39.499Z</time></trkpt><trkpt lat="42.086325" lon="11.95365"><ele>227.0</ele><time>2026-05-03T08:44:41.495Z</time></trkpt><trkpt lat="42.0863317" lon="11.9537933"><ele>226.0</ele><time>2026-05-03T08:44:43.493Z</time></trkpt><trkpt lat="42.08629" lon="11.9539083"><ele>225.0</ele><time>2026-05-03T08:44:45.498Z</time></trkpt><trkpt lat="42.0862183" lon="11.9540217"><ele>224.0</ele><time>2026-05-03T08:44:47.491Z</time></trkpt><trkpt lat="42.08617" lon="11.9540767"><ele>223.0</ele><time>2026-05-03T08:44:48.538Z</time></trkpt><trkpt lat="42.0861033" lon="11.9541983"><ele>221.4</ele><time>2026-05-03T08:44:50.494Z</time></trkpt><trkpt lat="42.0860783" lon="11.9543283"><ele>219.8</ele><time>2026-05-03T08:44:52.496Z</time></trkpt><trkpt lat="42.08606" lon="11.9544617"><ele>218.2</ele><time>2026-05-03T08:44:54.555Z</time></trkpt><trkpt lat="42.086035" lon="11.9545967"><ele>216.6</ele><time>2026-05-03T08:44:56.498Z</time></trkpt><trkpt lat="42.08601" lon="11.9547133"><ele>215.0</ele><time>2026-05-03T08:44:58.491Z</time></trkpt><trkpt lat="42.0859717" lon="11.954835"><ele>215.00000000000003</ele><time>2026-05-03T08:45:00.551Z</time></trkpt><trkpt lat="42.0859367" lon="11.954955"><ele>215.0</ele><time>2026-05-03T08:45:02.492Z</time></trkpt><trkpt lat="42.085915" lon="11.9550717"><ele>215.0</ele><time>2026-05-03T08:45:04.494Z</time></trkpt><trkpt lat="42.085895" lon="11.95518"><ele>215.0</ele><time>2026-05-03T08:45:06.541Z</time></trkpt><trkpt lat="42.0858817" lon="11.9552867"><ele>215.00000000000003</ele><time>2026-05-03T08:45:08.496Z</time></trkpt><trkpt lat="42.08587" lon="11.9553833"><ele>215.0</ele><time>2026-05-03T08:45:10.497Z</time></trkpt><trkpt lat="42.0858617" lon="11.9554817"><ele>213.0</ele><time>2026-05-03T08:45:12.541Z</time></trkpt><trkpt lat="42.085845" lon="11.955605"><ele>211.0</ele><time>2026-05-03T08:45:14.487Z</time></trkpt><trkpt lat="42.085795" lon="11.955755"><ele>209.0</ele><time>2026-05-03T08:45:16.492Z</time></trkpt><trkpt lat="42.0857517" lon="11.955895"><ele>207.0</ele><time>2026-05-03T08:45:18.539Z</time></trkpt><trkpt lat="42.085735" lon="11.9560167"><ele>205.0</ele><time>2026-05-03T08:45:20.496Z</time></trkpt><trkpt lat="42.0857383" lon="11.95612"><ele>204.99999999999997</ele><time>2026-05-03T08:45:22.489Z</time></trkpt><trkpt lat="42.08573" lon="11.9562083"><ele>205.0</ele><time>2026-05-03T08:45:24.55Z</time></trkpt><trkpt lat="42.085715" lon="11.9562917"><ele>205.0</ele><time>2026-05-03T08:45:26.495Z</time></trkpt><trkpt lat="42.0856933" lon="11.9563983"><ele>205.0</ele><time>2026-05-03T08:45:29.498Z</time></trkpt><trkpt lat="42.0856533" lon="11.9565183"><ele>204.99999999999997</ele><time>2026-05-03T08:45:32.49Z</time></trkpt><trkpt lat="42.0856083" lon="11.9566067"><ele>205.0</ele><time>2026-05-03T08:45:34.495Z</time></trkpt><trkpt lat="42.085595" lon="11.956695"><ele>203.6</ele><time>2026-05-03T08:45:36.537Z</time></trkpt><trkpt lat="42.085585" lon="11.9568033"><ele>202.2</ele><time>2026-05-03T08:45:38.496Z</time></trkpt><trkpt lat="42.085575" lon="11.9569417"><ele>200.8</ele><time>2026-05-03T08:45:40.486Z</time></trkpt><trkpt lat="42.0855517" lon="11.9570933"><ele>199.4</ele><time>2026-05-03T08:45:42.542Z</time></trkpt><trkpt lat="42.085535" lon="11.9572383"><ele>198.0</ele><time>2026-05-03T08:45:44.486Z</time></trkpt><trkpt lat="42.0855183" lon="11.95733"><ele>198.0</ele><time>2026-05-03T08:45:46.494Z</time></trkpt><trkpt lat="42.0855067" lon="11.957415"><ele>198.0</ele><time>2026-05-03T08:45:49.494Z</time></trkpt><trkpt lat="42.08548" lon="11.9575133"><ele>198.0</ele><time>2026-05-03T08:45:54.493Z</time></trkpt><trkpt lat="42.0854567" lon="11.9576083"><ele>198.0</ele><time>2026-05-03T08:45:58.487Z</time></trkpt><trkpt lat="42.0854483" lon="11.9576983"><ele>198.0</ele><time>2026-05-03T08:46:01.496Z</time></trkpt><trkpt lat="42.0854183" lon="11.9578217"><ele>198.0</ele><time>2026-05-03T08:46:07.488Z</time></trkpt><trkpt lat="42.0854" lon="11.9579233"><ele>195.42857142857144</ele><time>2026-05-03T08:46:10.495Z</time></trkpt><trkpt lat="42.0853883" lon="11.9580067"><ele>192.85714285714283</ele><time>2026-05-03T08:46:12.543Z</time></trkpt><trkpt lat="42.085355" lon="11.9581017"><ele>190.28571428571428</ele><time>2026-05-03T08:46:14.491Z</time></trkpt><trkpt lat="42.0853233" lon="11.9582017"><ele>187.71428571428572</ele><time>2026-05-03T08:46:16.498Z</time></trkpt><trkpt lat="42.085305" lon="11.9582917"><ele>185.14285714285717</ele><time>2026-05-03T08:46:18.544Z</time></trkpt><trkpt lat="42.08528" lon="11.9583717"><ele>182.57142857142856</ele><time>2026-05-03T08:46:20.491Z</time></trkpt><trkpt lat="42.0852517" lon="11.95845"><ele>180.0</ele><time>2026-05-03T08:46:22.496Z</time></trkpt><trkpt lat="42.0852333" lon="11.95856"><ele>177.16666666666666</ele><time>2026-05-03T08:46:25.495Z</time></trkpt><trkpt lat="42.0852167" lon="11.958655"><ele>174.33333333333334</ele><time>2026-05-03T08:46:28.494Z</time></trkpt><trkpt lat="42.085195" lon="11.9587617"><ele>171.5</ele><time>2026-05-03T08:46:31.488Z</time></trkpt><trkpt lat="42.0851833" lon="11.9588817"><ele>168.66666666666669</ele><time>2026-05-03T08:46:34.493Z</time></trkpt><trkpt lat="42.0851733" lon="11.9589667"><ele>165.83333333333334</ele><time>2026-05-03T08:46:36.536Z</time></trkpt><trkpt lat="42.0851533" lon="11.9590783"><ele>163.0</ele><time>2026-05-03T08:46:38.491Z</time></trkpt><trkpt lat="42.0851217" lon="11.95921"><ele>163.66666666666669</ele><time>2026-05-03T08:46:40.492Z</time></trkpt><trkpt lat="42.085095" lon="11.9593183"><ele>164.33333333333334</ele><time>2026-05-03T08:46:42.547Z</time></trkpt><trkpt lat="42.0850717" lon="11.9594033"><ele>165.0</ele><time>2026-05-03T08:46:44.493Z</time></trkpt><trkpt lat="42.085025" lon="11.9595133"><ele>165.66666666666666</ele><time>2026-05-03T08:46:51.5Z</time></trkpt><trkpt lat="42.08497" lon="11.9595733"><ele>166.33333333333331</ele><time>2026-05-03T08:46:52.491Z</time></trkpt><trkpt lat="42.0848983" lon="11.9596417"><ele>167.0</ele><time>2026-05-03T08:46:53.495Z</time></trkpt><trkpt lat="42.08483" lon="11.9597117"><ele>167.0</ele><time>2026-05-03T08:46:54.549Z</time></trkpt><trkpt lat="42.0847717" lon="11.95978"><ele>167.0</ele><time>2026-05-03T08:46:55.485Z</time></trkpt><trkpt lat="42.0847133" lon="11.9598783"><ele>167.0</ele><time>2026-05-03T08:46:57.497Z</time></trkpt><trkpt lat="42.0847167" lon="11.959975"><ele>167.0</ele><time>2026-05-03T08:48:23.484Z</time></trkpt><trkpt lat="42.0847067" lon="11.960095"><ele>167.0</ele><time>2026-05-03T08:48:25.491Z</time></trkpt><trkpt lat="42.0846983" lon="11.9602333"><ele>167.0</ele><time>2026-05-03T08:48:27.492Z</time></trkpt><trkpt lat="42.0846833" lon="11.96034"><ele>165.25</ele><time>2026-05-03T08:48:29.493Z</time></trkpt><trkpt lat="42.0846617" lon="11.9604583"><ele>163.5</ele><time>2026-05-03T08:48:31.497Z</time></trkpt><trkpt lat="42.084625" lon="11.9606067"><ele>161.75</ele><time>2026-05-03T08:48:33.496Z</time></trkpt><trkpt lat="42.084585" lon="11.960765"><ele>160.0</ele><time>2026-05-03T08:48:35.497Z</time></trkpt><trkpt lat="42.0845667" lon="11.9609267"><ele>158.16666666666669</ele><time>2026-05-03T08:48:37.489Z</time></trkpt><trkpt lat="42.08456" lon="11.9610167"><ele>156.33333333333334</ele><time>2026-05-03T08:48:38.488Z</time></trkpt><trkpt lat="42.0845567" lon="11.961105"><ele>154.5</ele><time>2026-05-03T08:48:39.489Z</time></trkpt><trkpt lat="42.084555" lon="11.96119"><ele>152.66666666666666</ele><time>2026-05-03T08:48:40.485Z</time></trkpt><trkpt lat="42.0845367" lon="11.961365"><ele>150.83333333333331</ele><time>2026-05-03T08:48:42.54Z</time></trkpt><trkpt lat="42.0845233" lon="11.961455"><ele>149.0</ele><time>2026-05-03T08:48:43.491Z</time></trkpt><trkpt lat="42.0845067" lon="11.9615383"><ele>149.0</ele><time>2026-05-03T08:48:44.488Z</time></trkpt><trkpt lat="42.0844867" lon="11.9616217"><ele>149.0</ele><time>2026-05-03T08:48:45.503Z</time></trkpt><trkpt lat="42.08446" lon="11.961705"><ele>149.0</ele><time>2026-05-03T08:48:46.493Z</time></trkpt><trkpt lat="42.0844267" lon="11.9617833"><ele>149.0</ele><time>2026-05-03T08:48:47.494Z</time></trkpt><trkpt lat="42.0843917" lon="11.9618617"><ele>149.0</ele><time>2026-05-03T08:48:48.541Z</time></trkpt><trkpt lat="42.084355" lon="11.9619367"><ele>149.0</ele><time>2026-05-03T08:48:49.487Z</time></trkpt><trkpt lat="42.0842817" lon="11.96206"><ele>146.6</ele><time>2026-05-03T08:48:51.501Z</time></trkpt><trkpt lat="42.0842117" lon="11.96216"><ele>144.2</ele><time>2026-05-03T08:48:53.493Z</time></trkpt><trkpt lat="42.0841767" lon="11.9622767"><ele>141.79999999999998</ele><time>2026-05-03T08:48:55.492Z</time></trkpt><trkpt lat="42.0841667" lon="11.96239"><ele>139.4</ele><time>2026-05-03T08:48:57.494Z</time></trkpt><trkpt lat="42.0841283" lon="11.9625"><ele>137.0</ele><time>2026-05-03T08:48:59.497Z</time></trkpt><trkpt lat="42.0840733" lon="11.9626067"><ele>135.4</ele><time>2026-05-03T08:49:01.494Z</time></trkpt><trkpt lat="42.084005" lon="11.962695"><ele>133.79999999999998</ele><time>2026-05-03T08:49:03.496Z</time></trkpt><trkpt lat="42.08394" lon="11.9627667"><ele>132.2</ele><time>2026-05-03T08:49:05.488Z</time></trkpt><trkpt lat="42.0838667" lon="11.9628217"><ele>130.6</ele><time>2026-05-03T08:49:07.49Z</time></trkpt><trkpt lat="42.0838033" lon="11.9629"><ele>129.0</ele><time>2026-05-03T08:49:09.489Z</time></trkpt><trkpt lat="42.0837433" lon="11.9630133"><ele>129.0</ele><time>2026-05-03T08:49:11.503Z</time></trkpt><trkpt lat="42.0837133" lon="11.9631367"><ele>129.0</ele><time>2026-05-03T08:49:13.488Z</time></trkpt><trkpt lat="42.0837017" lon="11.9632417"><ele>129.0</ele><time>2026-05-03T08:49:15.496Z</time></trkpt><trkpt lat="42.0836917" lon="11.96334"><ele>129.0</ele><time>2026-05-03T08:49:17.494Z</time></trkpt><trkpt lat="42.083655" lon="11.9634633"><ele>129.0</ele><time>2026-05-03T08:49:19.495Z</time></trkpt><trkpt lat="42.0836" lon="11.96358"><ele>129.4</ele><time>2026-05-03T08:49:21.492Z</time></trkpt><trkpt lat="42.0834833" lon="11.9636567"><ele>129.8</ele><time>2026-05-03T08:49:23.493Z</time></trkpt><trkpt lat="42.083405" lon="11.9636767"><ele>130.2</ele><time>2026-05-03T08:49:24.547Z</time></trkpt><trkpt lat="42.08332" lon="11.9636883"><ele>130.6</ele><time>2026-05-03T08:49:25.488Z</time></trkpt><trkpt lat="42.08323" lon="11.9636917"><ele>131.0</ele><time>2026-05-03T08:49:26.492Z</time></trkpt><trkpt lat="42.083135" lon="11.9636883"><ele>131.0</ele><time>2026-05-03T08:49:27.49Z</time></trkpt><trkpt lat="42.0830433" lon="11.96368"><ele>131.0</ele><time>2026-05-03T08:49:28.492Z</time></trkpt><trkpt lat="42.0829583" lon="11.9636567"><ele>131.0</ele><time>2026-05-03T08:49:29.487Z</time></trkpt><trkpt lat="42.0828733" lon="11.9636217"><ele>131.0</ele><time>2026-05-03T08:49:30.551Z</time></trkpt><trkpt lat="42.082785" lon="11.963585"><ele>131.0</ele><time>2026-05-03T08:49:31.486Z</time></trkpt><trkpt lat="42.0827033" lon="11.9635417"><ele>131.0</ele><time>2026-05-03T08:49:32.489Z</time></trkpt><trkpt lat="42.0826217" lon="11.9634967"><ele>131.0</ele><time>2026-05-03T08:49:33.497Z</time></trkpt><trkpt lat="42.0825383" lon="11.9634583"><ele>131.0</ele><time>2026-05-03T08:49:34.493Z</time></trkpt><trkpt lat="42.082455" lon="11.9634267"><ele>131.0</ele><time>2026-05-03T08:49:35.498Z</time></trkpt><trkpt lat="42.08237" lon="11.9634133"><ele>131.0</ele><time>2026-05-03T08:49:36.541Z</time></trkpt><trkpt lat="42.082285" lon="11.963415"><ele>131.0</ele><time>2026-05-03T08:49:37.493Z</time></trkpt><trkpt lat="42.0821983" lon="11.963435"><ele>131.0</ele><time>2026-05-03T08:49:38.488Z</time></trkpt><trkpt lat="42.0821083" lon="11.9634683"><ele>129.5</ele><time>2026-05-03T08:49:39.49Z</time></trkpt><trkpt lat="42.08202" lon="11.9634983"><ele>128.0</ele><time>2026-05-03T08:49:40.49Z</time></trkpt><trkpt lat="42.0819317" lon="11.963525"><ele>126.5</ele><time>2026-05-03T08:49:41.493Z</time></trkpt><trkpt lat="42.0818483" lon="11.963555"><ele>125.0</ele><time>2026-05-03T08:49:42.54Z</time></trkpt><trkpt lat="42.08177" lon="11.9635867"><ele>123.49999999999999</ele><time>2026-05-03T08:49:43.491Z</time></trkpt><trkpt lat="42.0816967" lon="11.9636233"><ele>122.0</ele><time>2026-05-03T08:49:44.494Z</time></trkpt><trkpt lat="42.081635" lon="11.96367"><ele>121.39999999999999</ele><time>2026-05-03T08:49:45.488Z</time></trkpt><trkpt lat="42.0815833" lon="11.9637283"><ele>120.79999999999998</ele><time>2026-05-03T08:49:46.488Z</time></trkpt><trkpt lat="42.0815467" lon="11.9637983"><ele>120.2</ele><time>2026-05-03T08:49:47.498Z</time></trkpt><trkpt lat="42.081525" lon="11.963955"><ele>119.6</ele><time>2026-05-03T08:49:49.493Z</time></trkpt><trkpt lat="42.0815383" lon="11.9641133"><ele>119.0</ele><time>2026-05-03T08:49:51.497Z</time></trkpt><trkpt lat="42.0814867" lon="11.96426"><ele>119.0</ele><time>2026-05-03T08:49:53.497Z</time></trkpt><trkpt lat="42.0814417" lon="11.96433"><ele>119.0</ele><time>2026-05-03T08:49:54.558Z</time></trkpt><trkpt lat="42.0813967" lon="11.964405"><ele>119.0</ele><time>2026-05-03T08:49:55.487Z</time></trkpt><trkpt lat="42.081355" lon="11.96449"><ele>119.0</ele><time>2026-05-03T08:49:56.492Z</time></trkpt><trkpt lat="42.08132" lon="11.96458"><ele>119.0</ele><time>2026-05-03T08:49:57.492Z</time></trkpt><trkpt lat="42.0812883" lon="11.9646617"><ele>119.0</ele><time>2026-05-03T08:49:58.496Z</time></trkpt><trkpt lat="42.0812583" lon="11.964745"><ele>119.0</ele><time>2026-05-03T08:49:59.492Z</time></trkpt><trkpt lat="42.0812167" lon="11.9648317"><ele>119.0</ele><time>2026-05-03T08:50:00.556Z</time></trkpt><trkpt lat="42.0811767" lon="11.9649117"><ele>119.0</ele><time>2026-05-03T08:50:01.49Z</time></trkpt><trkpt lat="42.0811283" lon="11.9649867"><ele>119.0</ele><time>2026-05-03T08:50:02.488Z</time></trkpt><trkpt lat="42.0810783" lon="11.96506"><ele>119.0</ele><time>2026-05-03T08:50:03.492Z</time></trkpt><trkpt lat="42.08104" lon="11.965135"><ele>119.0</ele><time>2026-05-03T08:50:04.492Z</time></trkpt><trkpt lat="42.081005" lon="11.9652067"><ele>119.0</ele><time>2026-05-03T08:50:05.495Z</time></trkpt><trkpt lat="42.080945" lon="11.9653067"><ele>119.0</ele><time>2026-05-03T08:50:07.494Z</time></trkpt><trkpt lat="42.08088" lon="11.9653567"><ele>119.0</ele><time>2026-05-03T08:50:09.491Z</time></trkpt><trkpt lat="42.080815" lon="11.9653817"><ele>119.0</ele><time>2026-05-03T08:50:26.49Z</time></trkpt><trkpt lat="42.0807417" lon="11.9653983"><ele>119.0</ele><time>2026-05-03T08:50:29.504Z</time></trkpt><trkpt lat="42.0807233" lon="11.9654817"><ele>119.0</ele><time>2026-05-03T08:50:34.489Z</time></trkpt><trkpt lat="42.0807183" lon="11.965575"><ele>119.0</ele><time>2026-05-03T08:50:37.492Z</time></trkpt><trkpt lat="42.0806767" lon="11.9656633"><ele>119.0</ele><time>2026-05-03T08:50:41.491Z</time></trkpt><trkpt lat="42.0806167" lon="11.965725"><ele>119.0</ele><time>2026-05-03T08:50:46.497Z</time></trkpt><trkpt lat="42.08055" lon="11.9657617"><ele>118.99999999999999</ele><time>2026-05-03T08:50:49.498Z</time></trkpt><trkpt lat="42.080475" lon="11.9658383"><ele>119.0</ele><time>2026-05-03T08:50:53.503Z</time></trkpt><trkpt lat="42.0804183" lon="11.9659233"><ele>119.0</ele><time>2026-05-03T08:50:55.49Z</time></trkpt><trkpt lat="42.0803683" lon="11.965985"><ele>119.0</ele><time>2026-05-03T08:50:57.488Z</time></trkpt><trkpt lat="42.0803217" lon="11.966055"><ele>118.99999999999999</ele><time>2026-05-03T08:51:48.551Z</time></trkpt><trkpt lat="42.0803467" lon="11.9661517"><ele>119.0</ele><time>2026-05-03T08:51:52.487Z</time></trkpt><trkpt lat="42.0803817" lon="11.96623"><ele>118.99999999999999</ele><time>2026-05-03T08:51:55.488Z</time></trkpt><trkpt lat="42.0804383" lon="11.966285"><ele>119.0</ele><time>2026-05-03T08:51:57.493Z</time></trkpt><trkpt lat="42.080515" lon="11.96633"><ele>119.0</ele><time>2026-05-03T08:51:59.491Z</time></trkpt><trkpt lat="42.080585" lon="11.9663817"><ele>119.0</ele><time>2026-05-03T08:52:01.493Z</time></trkpt><trkpt lat="42.0806717" lon="11.9664133"><ele>118.99999999999999</ele><time>2026-05-03T08:52:03.495Z</time></trkpt><trkpt lat="42.0807567" lon="11.9664317"><ele>119.0</ele><time>2026-05-03T08:52:05.485Z</time></trkpt><trkpt lat="42.080835" lon="11.9664983"><ele>119.0</ele><time>2026-05-03T08:52:08.488Z</time></trkpt><trkpt lat="42.0808867" lon="11.9665767"><ele>119.0</ele><time>2026-05-03T08:52:10.492Z</time></trkpt><trkpt lat="42.0809483" lon="11.9666833"><ele>119.0</ele><time>2026-05-03T08:52:12.541Z</time></trkpt><trkpt lat="42.0810267" lon="11.9668083"><ele>119.0</ele><time>2026-05-03T08:52:14.493Z</time></trkpt><trkpt lat="42.081115" lon="11.9669183"><ele>119.0</ele><time>2026-05-03T08:52:16.492Z</time></trkpt><trkpt lat="42.0811717" lon="11.9670417"><ele>119.6</ele><time>2026-05-03T08:52:18.538Z</time></trkpt><trkpt lat="42.0812367" lon="11.9671567"><ele>120.2</ele><time>2026-05-03T08:52:20.496Z</time></trkpt><trkpt lat="42.08131" lon="11.9672333"><ele>120.79999999999998</ele><time>2026-05-03T08:52:22.488Z</time></trkpt><trkpt lat="42.0813917" lon="11.967295"><ele>121.39999999999999</ele><time>2026-05-03T08:52:24.555Z</time></trkpt><trkpt lat="42.0814683" lon="11.967355"><ele>122.0</ele><time>2026-05-03T08:52:26.485Z</time></trkpt><trkpt lat="42.08151" lon="11.9674283"><ele>122.0</ele><time>2026-05-03T08:52:28.492Z</time></trkpt><trkpt lat="42.0815167" lon="11.9675267"><ele>121.99999999999999</ele><time>2026-05-03T08:53:25.491Z</time></trkpt><trkpt lat="42.081515" lon="11.9676583"><ele>121.99999999999999</ele><time>2026-05-03T08:53:27.489Z</time></trkpt><trkpt lat="42.08149" lon="11.96781"><ele>122.0</ele><time>2026-05-03T08:53:29.487Z</time></trkpt><trkpt lat="42.081485" lon="11.96797"><ele>122.0</ele><time>2026-05-03T08:53:31.491Z</time></trkpt><trkpt lat="42.08149" lon="11.96808"><ele>122.99999999999999</ele><time>2026-05-03T08:53:32.486Z</time></trkpt><trkpt lat="42.0815017" lon="11.9682133"><ele>124.0</ele><time>2026-05-03T08:53:33.487Z</time></trkpt><trkpt lat="42.08152" lon="11.96834"><ele>125.0</ele><time>2026-05-03T08:53:34.488Z</time></trkpt><trkpt lat="42.081535" lon="11.96845"><ele>126.0</ele><time>2026-05-03T08:53:35.486Z</time></trkpt><trkpt lat="42.0815517" lon="11.9685367"><ele>126.99999999999999</ele><time>2026-05-03T08:53:36.542Z</time></trkpt><trkpt lat="42.08157" lon="11.9686283"><ele>128.0</ele><time>2026-05-03T08:53:37.492Z</time></trkpt><trkpt lat="42.08159" lon="11.968715"><ele>128.20000000000002</ele><time>2026-05-03T08:53:38.495Z</time></trkpt><trkpt lat="42.0816283" lon="11.9688533"><ele>128.4</ele><time>2026-05-03T08:53:40.49Z</time></trkpt><trkpt lat="42.08163" lon="11.9689817"><ele>128.60000000000002</ele><time>2026-05-03T08:53:42.54Z</time></trkpt><trkpt lat="42.0816" lon="11.9690833"><ele>128.8</ele><time>2026-05-03T08:53:44.491Z</time></trkpt><trkpt lat="42.08156" lon="11.9692383"><ele>129.0</ele><time>2026-05-03T08:53:46.488Z</time></trkpt><trkpt lat="42.0815467" lon="11.9693217"><ele>131.4</ele><time>2026-05-03T08:53:47.492Z</time></trkpt><trkpt lat="42.0815333" lon="11.9694683"><ele>133.8</ele><time>2026-05-03T08:53:49.487Z</time></trkpt><trkpt lat="42.0815283" lon="11.969595"><ele>136.2</ele><time>2026-05-03T08:53:51.486Z</time></trkpt><trkpt lat="42.0815017" lon="11.969745"><ele>138.6</ele><time>2026-05-03T08:53:53.489Z</time></trkpt><trkpt lat="42.0814717" lon="11.9698233"><ele>141.0</ele><time>2026-05-03T08:53:54.556Z</time></trkpt><trkpt lat="42.0814383" lon="11.9699"><ele>141.83333333333334</ele><time>2026-05-03T08:53:55.493Z</time></trkpt><trkpt lat="42.0814" lon="11.9700367"><ele>142.66666666666666</ele><time>2026-05-03T08:53:57.494Z</time></trkpt><trkpt lat="42.0813817" lon="11.9701583"><ele>143.5</ele><time>2026-05-03T08:53:59.49Z</time></trkpt><trkpt lat="42.0813567" lon="11.9702617"><ele>144.33333333333331</ele><time>2026-05-03T08:54:01.495Z</time></trkpt><trkpt lat="42.0813233" lon="11.97036"><ele>145.16666666666666</ele><time>2026-05-03T08:54:04.491Z</time></trkpt><trkpt lat="42.0813283" lon="11.9704533"><ele>146.0</ele><time>2026-05-03T08:54:07.49Z</time></trkpt><trkpt lat="42.0813217" lon="11.9705683"><ele>146.0</ele><time>2026-05-03T08:54:10.489Z</time></trkpt><trkpt lat="42.0813233" lon="11.97068"><ele>146.0</ele><time>2026-05-03T08:54:12.537Z</time></trkpt><trkpt lat="42.081345" lon="11.970795"><ele>146.0</ele><time>2026-05-03T08:54:14.492Z</time></trkpt><trkpt lat="42.08135" lon="11.9708817"><ele>146.0</ele><time>2026-05-03T08:54:16.487Z</time></trkpt><trkpt lat="42.0813383" lon="11.9709833"><ele>146.0</ele><time>2026-05-03T08:54:19.488Z</time></trkpt><trkpt lat="42.081345" lon="11.97112"><ele>146.0</ele><time>2026-05-03T08:55:02.494Z</time></trkpt><trkpt lat="42.0814083" lon="11.971155"><ele>145.5</ele><time>2026-05-03T08:55:05.486Z</time></trkpt><trkpt lat="42.0814767" lon="11.9712"><ele>145.0</ele><time>2026-05-03T08:55:08.488Z</time></trkpt><trkpt lat="42.0815433" lon="11.9712633"><ele>144.5</ele><time>2026-05-03T08:55:12.541Z</time></trkpt><trkpt lat="42.0816133" lon="11.971255"><ele>144.0</ele><time>2026-05-03T08:55:15.49Z</time></trkpt><trkpt lat="42.0816983" lon="11.97124"><ele>143.5</ele><time>2026-05-03T08:55:17.495Z</time></trkpt><trkpt lat="42.08179" lon="11.9712117"><ele>143.0</ele><time>2026-05-03T08:55:19.491Z</time></trkpt><trkpt lat="42.08186" lon="11.9711917"><ele>143.0</ele><time>2026-05-03T08:55:21.491Z</time></trkpt><trkpt lat="42.0819333" lon="11.9711883"><ele>143.0</ele><time>2026-05-03T08:55:37.49Z</time></trkpt><trkpt lat="42.0820083" lon="11.9711767"><ele>143.0</ele><time>2026-05-03T08:55:40.488Z</time></trkpt><trkpt lat="42.08207" lon="11.97121"><ele>143.0</ele><time>2026-05-03T08:55:44.493Z</time></trkpt><trkpt lat="42.08214" lon="11.97121"><ele>143.0</ele><time>2026-05-03T08:55:46.49Z</time></trkpt><trkpt lat="42.082225" lon="11.9712417"><ele>143.0</ele><time>2026-05-03T08:55:48.537Z</time></trkpt><trkpt lat="42.0823117" lon="11.9712883"><ele>143.0</ele><time>2026-05-03T08:55:50.486Z</time></trkpt><trkpt lat="42.0823767" lon="11.9713317"><ele>143.0</ele><time>2026-05-03T08:55:52.491Z</time></trkpt><trkpt lat="42.0824433" lon="11.9713717"><ele>143.0</ele><time>2026-05-03T08:55:55.49Z</time></trkpt><trkpt lat="42.0825717" lon="11.97153"><ele>143.0</ele><time>2026-05-03T08:57:00.567Z</time></trkpt><trkpt lat="42.0826433" lon="11.9716"><ele>143.0</ele><time>2026-05-03T08:57:13.493Z</time></trkpt><trkpt lat="42.082705" lon="11.9716783"><ele>145.83333333333331</ele><time>2026-05-03T08:57:16.488Z</time></trkpt><trkpt lat="42.0827817" lon="11.9717933"><ele>148.66666666666666</ele><time>2026-05-03T08:58:00.561Z</time></trkpt><trkpt lat="42.082845" lon="11.9718333"><ele>151.5</ele><time>2026-05-03T08:58:03.499Z</time></trkpt><trkpt lat="42.08292" lon="11.9718867"><ele>154.33333333333334</ele><time>2026-05-03T08:58:06.537Z</time></trkpt><trkpt lat="42.0829833" lon="11.971965"><ele>157.16666666666669</ele><time>2026-05-03T08:58:27.5Z</time></trkpt><trkpt lat="42.0830133" lon="11.97206"><ele>160.0</ele><time>2026-05-03T08:58:30.487Z</time></trkpt><trkpt lat="42.0831" lon="11.9720883"><ele>160.0</ele><time>2026-05-03T08:58:59.492Z</time></trkpt><trkpt lat="42.0831733" lon="11.9721233"><ele>160.0</ele><time>2026-05-03T09:06:08.483Z</time></trkpt><trkpt lat="42.0832567" lon="11.97216"><ele>160.0</ele><time>2026-05-03T09:06:11.495Z</time></trkpt><trkpt lat="42.083325" lon="11.9721967"><ele>160.0</ele><time>2026-05-03T09:06:13.487Z</time></trkpt><trkpt lat="42.0834067" lon="11.97224"><ele>160.0</ele><time>2026-05-03T09:06:15.49Z</time></trkpt><trkpt lat="42.0834933" lon="11.9722817"><ele>160.0</ele><time>2026-05-03T09:06:17.491Z</time></trkpt><trkpt lat="42.083555" lon="11.972325"><ele>161.16666666666669</ele><time>2026-05-03T09:06:19.488Z</time></trkpt><trkpt lat="42.0836" lon="11.9723883"><ele>162.33333333333334</ele><time>2026-05-03T09:06:55.501Z</time></trkpt><trkpt lat="42.0836617" lon="11.97244"><ele>163.5</ele><time>2026-05-03T09:06:57.495Z</time></trkpt><trkpt lat="42.0837567" lon="11.9725183"><ele>164.66666666666666</ele><time>2026-05-03T09:06:59.489Z</time></trkpt><trkpt lat="42.0838483" lon="11.97262"><ele>165.83333333333331</ele><time>2026-05-03T09:07:01.489Z</time></trkpt><trkpt lat="42.0839017" lon="11.9726667"><ele>167.0</ele><time>2026-05-03T09:07:02.494Z</time></trkpt><trkpt lat="42.08399" lon="11.9727517"><ele>167.0</ele><time>2026-05-03T09:07:04.497Z</time></trkpt><trkpt lat="42.084045" lon="11.9727933"><ele>167.0</ele><time>2026-05-03T09:07:06.55Z</time></trkpt><trkpt lat="42.0841083" lon="11.972825"><ele>167.0</ele><time>2026-05-03T09:07:23.489Z</time></trkpt><trkpt lat="42.084205" lon="11.97294"><ele>167.0</ele><time>2026-05-03T09:08:22.498Z</time></trkpt><trkpt lat="42.0842683" lon="11.972985"><ele>167.0</ele><time>2026-05-03T09:08:26.492Z</time></trkpt><trkpt lat="42.0843483" lon="11.9730817"><ele>167.0</ele><time>2026-05-03T09:09:56.496Z</time></trkpt><trkpt lat="42.0843483" lon="11.973195"><ele>168.33333333333331</ele><time>2026-05-03T09:09:59.492Z</time></trkpt><trkpt lat="42.08435" lon="11.9732867"><ele>169.66666666666666</ele><time>2026-05-03T09:10:01.488Z</time></trkpt><trkpt lat="42.0843283" lon="11.973375"><ele>171.0</ele><time>2026-05-03T09:10:04.494Z</time></trkpt><trkpt lat="42.0842933" lon="11.9734567"><ele>172.33333333333334</ele><time>2026-05-03T09:10:06.552Z</time></trkpt><trkpt lat="42.0842883" lon="11.97357"><ele>173.66666666666669</ele><time>2026-05-03T09:10:09.491Z</time></trkpt><trkpt lat="42.0843317" lon="11.9737617"><ele>175.0</ele><time>2026-05-03T09:10:21.495Z</time></trkpt><trkpt lat="42.0843417" lon="11.9738467"><ele>175.0</ele><time>2026-05-03T09:10:23.494Z</time></trkpt><trkpt lat="42.0843583" lon="11.9739683"><ele>175.0</ele><time>2026-05-03T09:10:26.496Z</time></trkpt><trkpt lat="42.0843967" lon="11.97406"><ele>175.0</ele><time>2026-05-03T09:10:44.499Z</time></trkpt><trkpt lat="42.084465" lon="11.9740467"><ele>175.0</ele><time>2026-05-03T09:10:48.552Z</time></trkpt><trkpt lat="42.0845533" lon="11.9740867"><ele>175.0</ele><time>2026-05-03T09:10:54.491Z</time></trkpt><trkpt lat="42.0846333" lon="11.9741567"><ele>175.0</ele><time>2026-05-03T09:10:57.493Z</time></trkpt><trkpt lat="42.0846983" lon="11.9742017"><ele>175.85714285714286</ele><time>2026-05-03T09:10:59.491Z</time></trkpt><trkpt lat="42.08477" lon="11.974255"><ele>176.71428571428572</ele><time>2026-05-03T09:11:01.493Z</time></trkpt><trkpt lat="42.0848483" lon="11.9742867"><ele>177.57142857142856</ele><time>2026-05-03T09:11:03.492Z</time></trkpt><trkpt lat="42.084915" lon="11.9743183"><ele>178.42857142857144</ele><time>2026-05-03T09:11:05.501Z</time></trkpt><trkpt lat="42.0849917" lon="11.9743533"><ele>179.28571428571428</ele><time>2026-05-03T09:11:08.49Z</time></trkpt><trkpt lat="42.0850417" lon="11.97441"><ele>180.14285714285714</ele><time>2026-05-03T09:11:12.549Z</time></trkpt><trkpt lat="42.0851" lon="11.9744483"><ele>181.0</ele><time>2026-05-03T09:11:14.495Z</time></trkpt><trkpt lat="42.0851667" lon="11.9744917"><ele>181.0</ele><time>2026-05-03T09:11:16.494Z</time></trkpt><trkpt lat="42.08525" lon="11.9745467"><ele>181.0</ele><time>2026-05-03T09:11:18.553Z</time></trkpt><trkpt lat="42.085335" lon="11.974595"><ele>181.0</ele><time>2026-05-03T09:11:20.489Z</time></trkpt><trkpt lat="42.0854233" lon="11.9746517"><ele>181.0</ele><time>2026-05-03T09:11:22.493Z</time></trkpt><trkpt lat="42.0855" lon="11.9747217"><ele>181.0</ele><time>2026-05-03T09:11:24.489Z</time></trkpt><trkpt lat="42.0855517" lon="11.9748"><ele>181.0</ele><time>2026-05-03T09:11:26.491Z</time></trkpt><trkpt lat="42.0856267" lon="11.97484"><ele>181.0</ele><time>2026-05-03T09:11:29.497Z</time></trkpt><trkpt lat="42.0856983" lon="11.9748233"><ele>181.0</ele><time>2026-05-03T09:11:31.497Z</time></trkpt><trkpt lat="42.0857933" lon="11.9748117"><ele>181.0</ele><time>2026-05-03T09:11:33.487Z</time></trkpt><trkpt lat="42.0858667" lon="11.9748367"><ele>181.0</ele><time>2026-05-03T09:11:35.494Z</time></trkpt><trkpt lat="42.0859133" lon="11.9749383"><ele>181.0</ele><time>2026-05-03T09:11:38.497Z</time></trkpt><trkpt lat="42.08597" lon="11.9750233"><ele>182.5</ele><time>2026-05-03T09:11:41.493Z</time></trkpt><trkpt lat="42.086015" lon="11.9750833"><ele>184.0</ele><time>2026-05-03T09:11:44.491Z</time></trkpt><trkpt lat="42.08606" lon="11.9751767"><ele>185.5</ele><time>2026-05-03T09:11:47.496Z</time></trkpt><trkpt lat="42.086095" lon="11.9752733"><ele>187.0</ele><time>2026-05-03T09:11:51.499Z</time></trkpt><trkpt lat="42.0861683" lon="11.9753133"><ele>188.5</ele><time>2026-05-03T09:11:54.554Z</time></trkpt><trkpt lat="42.0862483" lon="11.9753217"><ele>190.0</ele><time>2026-05-03T09:11:56.493Z</time></trkpt><trkpt lat="42.0863167" lon="11.9753217"><ele>190.0</ele><time>2026-05-03T09:11:58.496Z</time></trkpt><trkpt lat="42.086385" lon="11.9753033"><ele>190.0</ele><time>2026-05-03T09:12:00.55Z</time></trkpt><trkpt lat="42.0864683" lon="11.9752783"><ele>190.0</ele><time>2026-05-03T09:12:03.493Z</time></trkpt><trkpt lat="42.0865433" lon="11.9752333"><ele>190.0</ele><time>2026-05-03T09:12:07.487Z</time></trkpt><trkpt lat="42.0866183" lon="11.9752333"><ele>190.0</ele><time>2026-05-03T09:12:10.498Z</time></trkpt><trkpt lat="42.086695" lon="11.9752833"><ele>190.0</ele><time>2026-05-03T09:12:13.487Z</time></trkpt><trkpt lat="42.0867633" lon="11.975295"><ele>189.0</ele><time>2026-05-03T09:12:16.498Z</time></trkpt><trkpt lat="42.0868367" lon="11.9753317"><ele>188.0</ele><time>2026-05-03T09:12:19.492Z</time></trkpt><trkpt lat="42.0868983" lon="11.975375"><ele>187.0</ele><time>2026-05-03T09:12:21.489Z</time></trkpt><trkpt lat="42.0869567" lon="11.9754067"><ele>186.0</ele><time>2026-05-03T09:12:23.498Z</time></trkpt><trkpt lat="42.0870933" lon="11.975365"><ele>185.0</ele><time>2026-05-03T09:13:14.502Z</time></trkpt><trkpt lat="42.0871567" lon="11.9753367"><ele>184.0</ele><time>2026-05-03T09:13:19.488Z</time></trkpt><trkpt lat="42.087225" lon="11.9753683"><ele>184.0</ele><time>2026-05-03T09:13:22.495Z</time></trkpt><trkpt lat="42.0873" lon="11.9754333"><ele>184.0</ele><time>2026-05-03T09:13:25.492Z</time></trkpt><trkpt lat="42.08735" lon="11.975515"><ele>184.0</ele><time>2026-05-03T09:13:27.492Z</time></trkpt><trkpt lat="42.0874" lon="11.9756117"><ele>184.0</ele><time>2026-05-03T09:13:29.495Z</time></trkpt><trkpt lat="42.0874467" lon="11.975685"><ele>184.0</ele><time>2026-05-03T09:13:31.491Z</time></trkpt><trkpt lat="42.0875167" lon="11.9757317"><ele>184.0</ele><time>2026-05-03T09:13:34.493Z</time></trkpt><trkpt lat="42.0875733" lon="11.9757967"><ele>185.2857142857143</ele><time>2026-05-03T09:13:38.492Z</time></trkpt><trkpt lat="42.087645" lon="11.9758767"><ele>186.57142857142856</ele><time>2026-05-03T09:13:41.492Z</time></trkpt><trkpt lat="42.0876983" lon="11.9759267"><ele>187.85714285714286</ele><time>2026-05-03T09:13:43.488Z</time></trkpt><trkpt lat="42.0877683" lon="11.9759417"><ele>189.14285714285717</ele><time>2026-05-03T09:13:45.494Z</time></trkpt><trkpt lat="42.087845" lon="11.9759367"><ele>190.42857142857144</ele><time>2026-05-03T09:13:47.494Z</time></trkpt><trkpt lat="42.0879033" lon="11.9759867"><ele>191.71428571428572</ele><time>2026-05-03T09:13:49.49Z</time></trkpt><trkpt lat="42.087955" lon="11.9760517"><ele>193.0</ele><time>2026-05-03T09:13:51.494Z</time></trkpt><trkpt lat="42.0880017" lon="11.9761233"><ele>192.99999999999997</ele><time>2026-05-03T09:13:53.498Z</time></trkpt><trkpt lat="42.088045" lon="11.9762367"><ele>193.0</ele><time>2026-05-03T09:13:56.488Z</time></trkpt><trkpt lat="42.0880867" lon="11.9763183"><ele>193.0</ele><time>2026-05-03T09:13:58.496Z</time></trkpt><trkpt lat="42.088135" lon="11.9763933"><ele>193.0</ele><time>2026-05-03T09:14:00.522Z</time></trkpt><trkpt lat="42.08818" lon="11.9764767"><ele>192.99999999999997</ele><time>2026-05-03T09:14:02.493Z</time></trkpt><trkpt lat="42.0882333" lon="11.976545"><ele>193.0</ele><time>2026-05-03T09:14:04.485Z</time></trkpt><trkpt lat="42.0883117" lon="11.9766133"><ele>196.2</ele><time>2026-05-03T09:14:06.552Z</time></trkpt><trkpt lat="42.088395" lon="11.976705"><ele>199.4</ele><time>2026-05-03T09:14:08.486Z</time></trkpt><trkpt lat="42.088465" lon="11.9768017"><ele>202.6</ele><time>2026-05-03T09:14:10.489Z</time></trkpt><trkpt lat="42.088525" lon="11.9768717"><ele>205.79999999999998</ele><time>2026-05-03T09:14:12.548Z</time></trkpt><trkpt lat="42.0886083" lon="11.9769"><ele>209.0</ele><time>2026-05-03T09:14:15.498Z</time></trkpt><trkpt lat="42.0886883" lon="11.9769767"><ele>209.00000000000003</ele><time>2026-05-03T09:14:51.496Z</time></trkpt><trkpt lat="42.088745" lon="11.9770733"><ele>209.0</ele><time>2026-05-03T09:14:54.557Z</time></trkpt><trkpt lat="42.0887867" lon="11.9771517"><ele>209.0</ele><time>2026-05-03T09:14:56.493Z</time></trkpt><trkpt lat="42.0888183" lon="11.977245"><ele>209.0</ele><time>2026-05-03T09:14:58.494Z</time></trkpt><trkpt lat="42.088855" lon="11.9773283"><ele>209.00000000000003</ele><time>2026-05-03T09:15:00.55Z</time></trkpt><trkpt lat="42.0888883" lon="11.9774067"><ele>209.0</ele><time>2026-05-03T09:15:02.491Z</time></trkpt><trkpt lat="42.0889383" lon="11.9774767"><ele>208.50000000000003</ele><time>2026-05-03T09:15:04.492Z</time></trkpt><trkpt lat="42.0889733" lon="11.97758"><ele>208.0</ele><time>2026-05-03T09:15:07.486Z</time></trkpt><trkpt lat="42.0889883" lon="11.977705"><ele>207.5</ele><time>2026-05-03T09:15:10.486Z</time></trkpt><trkpt lat="42.08901" lon="11.9778017"><ele>207.0</ele><time>2026-05-03T09:15:12.548Z</time></trkpt><trkpt lat="42.0890717" lon="11.977885"><ele>206.50000000000003</ele><time>2026-05-03T09:15:15.495Z</time></trkpt><trkpt lat="42.0891417" lon="11.9779683"><ele>206.0</ele><time>2026-05-03T09:15:18.547Z</time></trkpt><trkpt lat="42.0891883" lon="11.9780317"><ele>206.00000000000003</ele><time>2026-05-03T09:15:20.493Z</time></trkpt><trkpt lat="42.0891867" lon="11.9781217"><ele>206.0</ele><time>2026-05-03T09:15:27.498Z</time></trkpt><trkpt lat="42.08916" lon="11.9782367"><ele>206.0</ele><time>2026-05-03T09:15:30.546Z</time></trkpt><trkpt lat="42.0891217" lon="11.9783333"><ele>206.0</ele><time>2026-05-03T09:15:32.493Z</time></trkpt><trkpt lat="42.089095" lon="11.9784317"><ele>206.00000000000003</ele><time>2026-05-03T09:15:35.495Z</time></trkpt><trkpt lat="42.0890483" lon="11.97851"><ele>206.0</ele><time>2026-05-03T09:15:38.495Z</time></trkpt><trkpt lat="42.0889817" lon="11.978565"><ele>211.00000000000003</ele><time>2026-05-03T09:15:45.493Z</time></trkpt><trkpt lat="42.0889583" lon="11.9786833"><ele>216.0</ele><time>2026-05-03T09:15:53.496Z</time></trkpt><trkpt lat="42.088995" lon="11.9787567"><ele>221.0</ele><time>2026-05-03T09:15:57.492Z</time></trkpt><trkpt lat="42.0890267" lon="11.9788483"><ele>226.0</ele><time>2026-05-03T09:16:00.55Z</time></trkpt><trkpt lat="42.0890083" lon="11.97893"><ele>231.00000000000003</ele><time>2026-05-03T09:16:03.494Z</time></trkpt><trkpt lat="42.0889517" lon="11.9790033"><ele>236.0</ele><time>2026-05-03T09:16:06.548Z</time></trkpt><trkpt lat="42.0889517" lon="11.9791133"><ele>235.14285714285714</ele><time>2026-05-03T09:16:09.498Z</time></trkpt><trkpt lat="42.0889683" lon="11.9792083"><ele>234.28571428571428</ele><time>2026-05-03T09:16:12.547Z</time></trkpt><trkpt lat="42.0889783" lon="11.9793083"><ele>233.42857142857142</ele><time>2026-05-03T09:16:16.498Z</time></trkpt><trkpt lat="42.0890467" lon="11.9793733"><ele>232.57142857142856</ele><time>2026-05-03T09:16:19.491Z</time></trkpt><trkpt lat="42.0890883" lon="11.9794533"><ele>231.71428571428572</ele><time>2026-05-03T09:16:21.497Z</time></trkpt><trkpt lat="42.089105" lon="11.97955"><ele>230.85714285714283</ele><time>2026-05-03T09:16:23.494Z</time></trkpt><trkpt lat="42.0890783" lon="11.979635"><ele>229.99999999999997</ele><time>2026-05-03T09:16:25.493Z</time></trkpt><trkpt lat="42.089045" lon="11.9797583"><ele>233.4</ele><time>2026-05-03T09:16:27.492Z</time></trkpt><trkpt lat="42.0890067" lon="11.979915"><ele>236.8</ele><time>2026-05-03T09:16:29.497Z</time></trkpt><trkpt lat="42.088985" lon="11.9800483"><ele>240.2</ele><time>2026-05-03T09:16:31.501Z</time></trkpt><trkpt lat="42.0889733" lon="11.9801733"><ele>243.6</ele><time>2026-05-03T09:16:33.496Z</time></trkpt><trkpt lat="42.08895" lon="11.9802533"><ele>247.0</ele><time>2026-05-03T09:16:35.495Z</time></trkpt><trkpt lat="42.0889217" lon="11.980345"><ele>247.83333333333331</ele><time>2026-05-03T09:16:37.494Z</time></trkpt><trkpt lat="42.0888883" lon="11.9804367"><ele>248.66666666666666</ele><time>2026-05-03T09:16:39.497Z</time></trkpt><trkpt lat="42.0888633" lon="11.9805517"><ele>249.5</ele><time>2026-05-03T09:16:41.494Z</time></trkpt><trkpt lat="42.08885" lon="11.9806633"><ele>250.33333333333331</ele><time>2026-05-03T09:16:43.496Z</time></trkpt><trkpt lat="42.0888267" lon="11.9807483"><ele>251.16666666666666</ele><time>2026-05-03T09:16:45.499Z</time></trkpt><trkpt lat="42.088825" lon="11.980855"><ele>252.0</ele><time>2026-05-03T09:16:47.494Z</time></trkpt><trkpt lat="42.0888333" lon="11.9809683"><ele>253.66666666666666</ele><time>2026-05-03T09:16:49.492Z</time></trkpt><trkpt lat="42.0888383" lon="11.9810983"><ele>255.33333333333331</ele><time>2026-05-03T09:16:51.498Z</time></trkpt><trkpt lat="42.0888133" lon="11.9812217"><ele>257.0</ele><time>2026-05-03T09:16:53.494Z</time></trkpt><trkpt lat="42.0888017" lon="11.9813183"><ele>258.66666666666663</ele><time>2026-05-03T09:16:55.491Z</time></trkpt><trkpt lat="42.0888017" lon="11.9814033"><ele>260.3333333333333</ele><time>2026-05-03T09:16:57.492Z</time></trkpt><trkpt lat="42.0887983" lon="11.9815183"><ele>262.0</ele><time>2026-05-03T09:17:00.547Z</time></trkpt><trkpt lat="42.0887517" lon="11.981605"><ele>263.0</ele><time>2026-05-03T09:17:03.494Z</time></trkpt><trkpt lat="42.0887167" lon="11.9817033"><ele>264.0</ele><time>2026-05-03T09:17:06.542Z</time></trkpt><trkpt lat="42.0886967" lon="11.9818233"><ele>265.0</ele><time>2026-05-03T09:17:09.494Z</time></trkpt><trkpt lat="42.0886583" lon="11.9818967"><ele>266.0</ele><time>2026-05-03T09:17:12.545Z</time></trkpt><trkpt lat="42.0886217" lon="11.981995"><ele>267.0</ele><time>2026-05-03T09:17:58.497Z</time></trkpt><trkpt lat="42.0885867" lon="11.98211"><ele>268.0</ele><time>2026-05-03T09:18:01.494Z</time></trkpt><trkpt lat="42.08857" lon="11.982195"><ele>268.0</ele><time>2026-05-03T09:18:03.497Z</time></trkpt><trkpt lat="42.0884883" lon="11.98237"><ele>268.0</ele><time>2026-05-03T09:18:13.5Z</time></trkpt><trkpt lat="42.0884267" lon="11.9824383"><ele>268.0</ele><time>2026-05-03T09:18:19.495Z</time></trkpt><trkpt lat="42.0883467" lon="11.9825133"><ele>268.0</ele><time>2026-05-03T09:18:22.498Z</time></trkpt><trkpt lat="42.0882967" lon="11.982575"><ele>268.0</ele><time>2026-05-03T09:18:25.495Z</time></trkpt><trkpt lat="42.0882383" lon="11.9826667"><ele>270.8333333333333</ele><time>2026-05-03T09:18:48.551Z</time></trkpt><trkpt lat="42.0881817" lon="11.9827217"><ele>273.66666666666663</ele><time>2026-05-03T09:18:50.492Z</time></trkpt><trkpt lat="42.088145" lon="11.9827983"><ele>276.5</ele><time>2026-05-03T09:18:52.491Z</time></trkpt><trkpt lat="42.088105" lon="11.9829"><ele>279.3333333333333</ele><time>2026-05-03T09:18:55.493Z</time></trkpt><trkpt lat="42.0880533" lon="11.9830017"><ele>282.1666666666667</ele><time>2026-05-03T09:18:58.497Z</time></trkpt><trkpt lat="42.088065" lon="11.9831"><ele>285.0</ele><time>2026-05-03T09:19:01.498Z</time></trkpt><trkpt lat="42.0881117" lon="11.9831967"><ele>285.0</ele><time>2026-05-03T09:19:04.495Z</time></trkpt><trkpt lat="42.0881383" lon="11.98328"><ele>285.0</ele><time>2026-05-03T09:19:06.548Z</time></trkpt><trkpt lat="42.0881483" lon="11.9833833"><ele>285.0</ele><time>2026-05-03T09:19:09.503Z</time></trkpt><trkpt lat="42.0881583" lon="11.9834683"><ele>285.0</ele><time>2026-05-03T09:19:11.496Z</time></trkpt><trkpt lat="42.0881617" lon="11.9835533"><ele>285.0</ele><time>2026-05-03T09:19:14.497Z</time></trkpt><trkpt lat="42.0881483" lon="11.9836517"><ele>285.0</ele><time>2026-05-03T09:19:36.546Z</time></trkpt><trkpt lat="42.08819" lon="11.9837367"><ele>285.0</ele><time>2026-05-03T09:19:39.497Z</time></trkpt><trkpt lat="42.088205" lon="11.9838267"><ele>285.1666666666667</ele><time>2026-05-03T09:19:43.497Z</time></trkpt><trkpt lat="42.0882133" lon="11.983915"><ele>285.3333333333333</ele><time>2026-05-03T09:19:46.491Z</time></trkpt><trkpt lat="42.0882417" lon="11.9840283"><ele>285.5</ele><time>2026-05-03T09:19:49.49Z</time></trkpt><trkpt lat="42.0882483" lon="11.9841167"><ele>285.66666666666663</ele><time>2026-05-03T09:19:51.498Z</time></trkpt><trkpt lat="42.0882267" lon="11.9842267"><ele>285.8333333333333</ele><time>2026-05-03T09:19:54.56Z</time></trkpt><trkpt lat="42.0881667" lon="11.984305"><ele>286.0</ele><time>2026-05-03T09:19:57.492Z</time></trkpt><trkpt lat="42.0881017" lon="11.9843533"><ele>287.8333333333333</ele><time>2026-05-03T09:20:00.547Z</time></trkpt><trkpt lat="42.0880683" lon="11.98445"><ele>289.66666666666663</ele><time>2026-05-03T09:20:03.496Z</time></trkpt><trkpt lat="42.0880717" lon="11.98458"><ele>291.5</ele><time>2026-05-03T09:20:06.549Z</time></trkpt><trkpt lat="42.0880367" lon="11.98472"><ele>293.3333333333333</ele><time>2026-05-03T09:20:08.508Z</time></trkpt><trkpt lat="42.08802" lon="11.9848467"><ele>295.1666666666667</ele><time>2026-05-03T09:20:10.493Z</time></trkpt><trkpt lat="42.088005" lon="11.9849333"><ele>297.0</ele><time>2026-05-03T09:20:12.542Z</time></trkpt><trkpt lat="42.0879617" lon="11.9850367"><ele>300.5</ele><time>2026-05-03T09:20:14.492Z</time></trkpt><trkpt lat="42.0879283" lon="11.98515"><ele>304.0</ele><time>2026-05-03T09:20:16.491Z</time></trkpt><trkpt lat="42.0880183" lon="11.9852467"><ele>307.5</ele><time>2026-05-03T09:23:33.493Z</time></trkpt><trkpt lat="42.08808" lon="11.9853"><ele>311.0</ele><time>2026-05-03T09:23:34.498Z</time></trkpt><trkpt lat="42.0881417" lon="11.9853583"><ele>314.5</ele><time>2026-05-03T09:23:35.499Z</time></trkpt><trkpt lat="42.08819" lon="11.9854183"><ele>318.0</ele><time>2026-05-03T09:23:36.555Z</time></trkpt><trkpt lat="42.0882417" lon="11.985525"><ele>317.0</ele><time>2026-05-03T09:23:38.494Z</time></trkpt><trkpt lat="42.0882983" lon="11.985585"><ele>316.0</ele><time>2026-05-03T09:23:40.494Z</time></trkpt><trkpt lat="42.0883817" lon="11.985625"><ele>315.0</ele><time>2026-05-03T09:23:44.492Z</time></trkpt><trkpt lat="42.08844" lon="11.98571"><ele>314.0</ele><time>2026-05-03T09:23:47.496Z</time></trkpt><trkpt lat="42.0884883" lon="11.9857817"><ele>313.0</ele><time>2026-05-03T09:23:49.491Z</time></trkpt><trkpt lat="42.08855" lon="11.985845"><ele>312.0</ele><time>2026-05-03T09:23:51.496Z</time></trkpt><trkpt lat="42.088595" lon="11.98592"><ele>315.6</ele><time>2026-05-03T09:23:53.492Z</time></trkpt><trkpt lat="42.0885783" lon="11.9860883"><ele>319.2</ele><time>2026-05-03T09:24:08.496Z</time></trkpt><trkpt lat="42.088535" lon="11.9862083"><ele>322.8</ele><time>2026-05-03T09:24:25.499Z</time></trkpt><trkpt lat="42.088495" lon="11.98638"><ele>326.4</ele><time>2026-05-03T09:25:45.491Z</time></trkpt><trkpt lat="42.0885067" lon="11.98647"><ele>330.0</ele><time>2026-05-03T09:25:47.498Z</time></trkpt><trkpt lat="42.088525" lon="11.9865733"><ele>330.0</ele><time>2026-05-03T09:25:50.489Z</time></trkpt><trkpt lat="42.088505" lon="11.9866717"><ele>330.0</ele><time>2026-05-03T09:25:53.492Z</time></trkpt><trkpt lat="42.0884667" lon="11.9867717"><ele>330.0</ele><time>2026-05-03T09:25:56.49Z</time></trkpt><trkpt lat="42.0884483" lon="11.9868667"><ele>330.0</ele><time>2026-05-03T09:26:18.566Z</time></trkpt><trkpt lat="42.0884033" lon="11.987"><ele>330.0</ele><time>2026-05-03T09:26:21.498Z</time></trkpt><trkpt lat="42.0883667" lon="11.987105"><ele>330.0</ele><time>2026-05-03T09:26:23.49Z</time></trkpt><trkpt lat="42.0883183" lon="11.9872083"><ele>333.6</ele><time>2026-05-03T09:26:25.502Z</time></trkpt><trkpt lat="42.0882783" lon="11.9873233"><ele>337.2</ele><time>2026-05-03T09:26:27.497Z</time></trkpt><trkpt lat="42.0882483" lon="11.9874383"><ele>340.79999999999995</ele><time>2026-05-03T09:26:29.498Z</time></trkpt><trkpt lat="42.088205" lon="11.98754"><ele>344.4</ele><time>2026-05-03T09:26:31.503Z</time></trkpt><trkpt lat="42.0881467" lon="11.987685"><ele>348.0</ele><time>2026-05-03T09:26:33.499Z</time></trkpt><trkpt lat="42.0881167" lon="11.9877683"><ele>351.6666666666667</ele><time>2026-05-03T09:26:34.492Z</time></trkpt><trkpt lat="42.08808" lon="11.98785"><ele>355.3333333333333</ele><time>2026-05-03T09:26:35.5Z</time></trkpt><trkpt lat="42.0880317" lon="11.9879433"><ele>359.0</ele><time>2026-05-03T09:26:37.488Z</time></trkpt><trkpt lat="42.08793" lon="11.9880033"><ele>362.66666666666663</ele><time>2026-05-03T09:27:08.504Z</time></trkpt><trkpt lat="42.0878683" lon="11.9879817"><ele>366.3333333333333</ele><time>2026-05-03T09:27:11.495Z</time></trkpt><trkpt lat="42.0877967" lon="11.9879717"><ele>370.0</ele><time>2026-05-03T09:27:13.492Z</time></trkpt><trkpt lat="42.087715" lon="11.9879817"><ele>370.0</ele><time>2026-05-03T09:27:15.497Z</time></trkpt><trkpt lat="42.08764" lon="11.988"><ele>370.0</ele><time>2026-05-03T09:27:17.498Z</time></trkpt><trkpt lat="42.08758" lon="11.9880567"><ele>370.0</ele><time>2026-05-03T09:27:20.494Z</time></trkpt><trkpt lat="42.08751" lon="11.9880967"><ele>370.0</ele><time>2026-05-03T09:27:41.5Z</time></trkpt><trkpt lat="42.08743" lon="11.9880467"><ele>370.0</ele><time>2026-05-03T09:27:55.493Z</time></trkpt><trkpt lat="42.0873533" lon="11.9880417"><ele>370.0</ele><time>2026-05-03T09:27:58.492Z</time></trkpt><trkpt lat="42.0872583" lon="11.988065"><ele>370.0</ele><time>2026-05-03T09:28:03.491Z</time></trkpt><trkpt lat="42.0873267" lon="11.9881517"><ele>370.0</ele><time>2026-05-03T09:28:15.501Z</time></trkpt><trkpt lat="42.0874017" lon="11.9882033"><ele>370.0</ele><time>2026-05-03T09:28:17.498Z</time></trkpt><trkpt lat="42.0874667" lon="11.9882433"><ele>370.0</ele><time>2026-05-03T09:28:19.497Z</time></trkpt><trkpt lat="42.0875617" lon="11.9883783"><ele>370.0</ele><time>2026-05-03T09:28:50.497Z</time></trkpt><trkpt lat="42.087615" lon="11.9884533"><ele>373.1428571428571</ele><time>2026-05-03T09:28:53.501Z</time></trkpt><trkpt lat="42.087655" lon="11.9885317"><ele>376.2857142857143</ele><time>2026-05-03T09:28:55.499Z</time></trkpt><trkpt lat="42.0876483" lon="11.9886167"><ele>379.42857142857144</ele><time>2026-05-03T09:28:58.49Z</time></trkpt><trkpt lat="42.087645" lon="11.988725"><ele>382.57142857142856</ele><time>2026-05-03T09:29:03.492Z</time></trkpt><trkpt lat="42.0876667" lon="11.9888267"><ele>385.7142857142857</ele><time>2026-05-03T09:29:07.496Z</time></trkpt><trkpt lat="42.0877267" lon="11.9888733"><ele>388.85714285714283</ele><time>2026-05-03T09:29:10.495Z</time></trkpt><trkpt lat="42.087785" lon="11.9889267"><ele>392.0</ele><time>2026-05-03T09:29:14.489Z</time></trkpt><trkpt lat="42.087735" lon="11.98899"><ele>391.99999999999994</ele><time>2026-05-03T09:29:23.493Z</time></trkpt><trkpt lat="42.087695" lon="11.98906"><ele>392.0</ele><time>2026-05-03T09:29:27.494Z</time></trkpt><trkpt lat="42.087735" lon="11.98915"><ele>392.0</ele><time>2026-05-03T09:29:30.546Z</time></trkpt><trkpt lat="42.0877533" lon="11.9892517"><ele>392.0</ele><time>2026-05-03T09:29:33.485Z</time></trkpt><trkpt lat="42.0878183" lon="11.9893083"><ele>391.99999999999994</ele><time>2026-05-03T09:29:55.498Z</time></trkpt><trkpt lat="42.0878283" lon="11.98921"><ele>392.0</ele><time>2026-05-03T09:29:59.5Z</time></trkpt><trkpt lat="42.0878183" lon="11.9890983"><ele>395.16666666666663</ele><time>2026-05-03T09:32:27.499Z</time></trkpt><trkpt lat="42.0878017" lon="11.9891817"><ele>398.3333333333333</ele><time>2026-05-03T09:32:46.492Z</time></trkpt><trkpt lat="42.0878283" lon="11.9892933"><ele>401.5</ele><time>2026-05-03T09:32:49.496Z</time></trkpt><trkpt lat="42.0878617" lon="11.9893867"><ele>404.66666666666663</ele><time>2026-05-03T09:32:51.502Z</time></trkpt><trkpt lat="42.0879067" lon="11.9895083"><ele>407.8333333333333</ele><time>2026-05-03T09:32:53.493Z</time></trkpt><trkpt lat="42.08794" lon="11.9896017"><ele>411.0</ele><time>2026-05-03T09:32:55.491Z</time></trkpt><trkpt lat="42.0879533" lon="11.9897033"><ele>411.0</ele><time>2026-05-03T09:32:57.495Z</time></trkpt><trkpt lat="42.0879533" lon="11.9898033"><ele>411.0</ele><time>2026-05-03T09:32:59.501Z</time></trkpt><trkpt lat="42.0879067" lon="11.9899033"><ele>411.0</ele><time>2026-05-03T09:33:02.492Z</time></trkpt><trkpt lat="42.0878733" lon="11.9899983"><ele>411.0</ele><time>2026-05-03T09:33:05.494Z</time></trkpt><trkpt lat="42.0878617" lon="11.9901217"><ele>411.0</ele><time>2026-05-03T09:33:08.497Z</time></trkpt><trkpt lat="42.0878833" lon="11.9902217"><ele>411.0</ele><time>2026-05-03T09:33:10.5Z</time></trkpt><trkpt lat="42.08793" lon="11.9903117"><ele>412.6666666666667</ele><time>2026-05-03T09:33:12.545Z</time></trkpt><trkpt lat="42.0879617" lon="11.990405"><ele>414.33333333333337</ele><time>2026-05-03T09:33:14.496Z</time></trkpt><trkpt lat="42.087995" lon="11.9905017"><ele>416.0</ele><time>2026-05-03T09:33:16.494Z</time></trkpt><trkpt lat="42.088055" lon="11.9905683"><ele>417.6666666666667</ele><time>2026-05-03T09:33:18.548Z</time></trkpt><trkpt lat="42.0881267" lon="11.9906217"><ele>419.33333333333337</ele><time>2026-05-03T09:33:20.491Z</time></trkpt><trkpt lat="42.0881817" lon="11.9906833"><ele>421.0</ele><time>2026-05-03T09:33:22.495Z</time></trkpt><trkpt lat="42.0882617" lon="11.9907317"><ele>421.00000000000006</ele><time>2026-05-03T09:33:24.562Z</time></trkpt><trkpt lat="42.0883217" lon="11.99076"><ele>421.0</ele><time>2026-05-03T09:33:25.489Z</time></trkpt><trkpt lat="42.0884267" lon="11.9908317"><ele>421.0</ele><time>2026-05-03T09:33:27.49Z</time></trkpt><trkpt lat="42.0885033" lon="11.990895"><ele>421.0</ele><time>2026-05-03T09:33:29.5Z</time></trkpt><trkpt lat="42.088545" lon="11.9910067"><ele>421.00000000000006</ele><time>2026-05-03T09:33:32.495Z</time></trkpt><trkpt lat="42.0885367" lon="11.9910983"><ele>421.0</ele><time>2026-05-03T09:33:34.494Z</time></trkpt><trkpt lat="42.088515" lon="11.991215"><ele>423.83333333333337</ele><time>2026-05-03T09:33:36.552Z</time></trkpt><trkpt lat="42.0885" lon="11.9913383"><ele>426.6666666666667</ele><time>2026-05-03T09:33:38.497Z</time></trkpt><trkpt lat="42.0884817" lon="11.991465"><ele>429.5</ele><time>2026-05-03T09:33:40.5Z</time></trkpt><trkpt lat="42.0884717" lon="11.9915783"><ele>432.33333333333337</ele><time>2026-05-03T09:33:42.551Z</time></trkpt><trkpt lat="42.0884583" lon="11.99168"><ele>435.1666666666667</ele><time>2026-05-03T09:33:44.497Z</time></trkpt><trkpt lat="42.0884683" lon="11.99179"><ele>438.0</ele><time>2026-05-03T09:33:46.504Z</time></trkpt><trkpt lat="42.08848" lon="11.9918983"><ele>440.6666666666667</ele><time>2026-05-03T09:33:48.546Z</time></trkpt><trkpt lat="42.0885" lon="11.992"><ele>443.33333333333337</ele><time>2026-05-03T09:33:50.498Z</time></trkpt><trkpt lat="42.0885117" lon="11.9921133"><ele>446.0</ele><time>2026-05-03T09:33:52.498Z</time></trkpt><trkpt lat="42.08851" lon="11.992205"><ele>448.6666666666667</ele><time>2026-05-03T09:33:54.561Z</time></trkpt><trkpt lat="42.0885317" lon="11.9922967"><ele>451.33333333333337</ele><time>2026-05-03T09:33:56.49Z</time></trkpt><trkpt lat="42.088595" lon="11.99239"><ele>454.0</ele><time>2026-05-03T09:33:58.494Z</time></trkpt><trkpt lat="42.088615" lon="11.9924917"><ele>457.00000000000006</ele><time>2026-05-03T09:34:00.493Z</time></trkpt><trkpt lat="42.0886467" lon="11.99266"><ele>460.0</ele><time>2026-05-03T09:34:17.498Z</time></trkpt><trkpt lat="42.088655" lon="11.9927483"><ele>463.0</ele><time>2026-05-03T09:34:19.492Z</time></trkpt><trkpt lat="42.0886583" lon="11.992845"><ele>466.0</ele><time>2026-05-03T09:34:21.496Z</time></trkpt><trkpt lat="42.088615" lon="11.99292"><ele>469.00000000000006</ele><time>2026-05-03T09:34:23.499Z</time></trkpt><trkpt lat="42.0885867" lon="11.9930217"><ele>472.0</ele><time>2026-05-03T09:34:25.49Z</time></trkpt><trkpt lat="42.088585" lon="11.9931283"><ele>472.00000000000006</ele><time>2026-05-03T09:34:27.496Z</time></trkpt><trkpt lat="42.0886" lon="11.99323"><ele>472.0</ele><time>2026-05-03T09:34:29.498Z</time></trkpt><trkpt lat="42.0886083" lon="11.9933283"><ele>472.0</ele><time>2026-05-03T09:34:31.493Z</time></trkpt><trkpt lat="42.0886183" lon="11.9934233"><ele>472.0</ele><time>2026-05-03T09:34:33.495Z</time></trkpt><trkpt lat="42.0886367" lon="11.9935233"><ele>472.00000000000006</ele><time>2026-05-03T09:34:35.498Z</time></trkpt><trkpt lat="42.0886067" lon="11.9936317"><ele>472.0</ele><time>2026-05-03T09:34:38.493Z</time></trkpt><trkpt lat="42.0885217" lon="11.9937067"><ele>474.00000000000006</ele><time>2026-05-03T09:34:40.497Z</time></trkpt><trkpt lat="42.0884517" lon="11.9937433"><ele>476.0</ele><time>2026-05-03T09:34:41.493Z</time></trkpt><trkpt lat="42.0883767" lon="11.99377"><ele>478.0</ele><time>2026-05-03T09:34:42.55Z</time></trkpt><trkpt lat="42.0883033" lon="11.993785"><ele>480.0</ele><time>2026-05-03T09:34:43.496Z</time></trkpt><trkpt lat="42.0882383" lon="11.9937833"><ele>482.00000000000006</ele><time>2026-05-03T09:34:44.492Z</time></trkpt><trkpt lat="42.0881367" lon="11.993745"><ele>484.0</ele><time>2026-05-03T09:34:46.498Z</time></trkpt><trkpt lat="42.088065" lon="11.9936783"><ele>487.00000000000006</ele><time>2026-05-03T09:34:48.547Z</time></trkpt><trkpt lat="42.0880017" lon="11.99361"><ele>490.0</ele><time>2026-05-03T09:34:50.497Z</time></trkpt><trkpt lat="42.0879367" lon="11.9935617"><ele>493.0</ele><time>2026-05-03T09:34:52.495Z</time></trkpt><trkpt lat="42.087865" lon="11.9935067"><ele>496.0</ele><time>2026-05-03T09:34:54.56Z</time></trkpt><trkpt lat="42.0877917" lon="11.993445"><ele>499.00000000000006</ele><time>2026-05-03T09:34:56.495Z</time></trkpt><trkpt lat="42.087705" lon="11.9933883"><ele>502.0</ele><time>2026-05-03T09:34:58.493Z</time></trkpt><trkpt lat="42.0876183" lon="11.993355"><ele>502.6</ele><time>2026-05-03T09:35:00.549Z</time></trkpt><trkpt lat="42.087535" lon="11.993325"><ele>503.20000000000005</ele><time>2026-05-03T09:35:02.495Z</time></trkpt><trkpt lat="42.0874617" lon="11.99325"><ele>503.8</ele><time>2026-05-03T09:35:04.493Z</time></trkpt><trkpt lat="42.0873917" lon="11.9931517"><ele>504.4</ele><time>2026-05-03T09:35:06.543Z</time></trkpt><trkpt lat="42.0873183" lon="11.9930667"><ele>505.0</ele><time>2026-05-03T09:35:08.497Z</time></trkpt><trkpt lat="42.087235" lon="11.993025"><ele>505.0</ele><time>2026-05-03T09:35:10.495Z</time></trkpt><trkpt lat="42.0871483" lon="11.99299"><ele>505.0</ele><time>2026-05-03T09:35:12.548Z</time></trkpt><trkpt lat="42.0870283" lon="11.992985"><ele>505.0</ele><time>2026-05-03T09:35:14.493Z</time></trkpt><trkpt lat="42.0869117" lon="11.9930033"><ele>505.0</ele><time>2026-05-03T09:35:16.502Z</time></trkpt><trkpt lat="42.086825" lon="11.9930233"><ele>505.0</ele><time>2026-05-03T09:35:18.55Z</time></trkpt><trkpt lat="42.086745" lon="11.9930467"><ele>505.00000000000006</ele><time>2026-05-03T09:35:20.494Z</time></trkpt><trkpt lat="42.0866633" lon="11.9929867"><ele>505.0</ele><time>2026-05-03T09:36:44.492Z</time></trkpt><trkpt lat="42.0865983" lon="11.9928883"><ele>505.0</ele><time>2026-05-03T09:40:08.499Z</time></trkpt><trkpt lat="42.0865383" lon="11.992925"><ele>505.0</ele><time>2026-05-03T09:40:11.503Z</time></trkpt><trkpt lat="42.0864767" lon="11.9929933"><ele>505.00000000000006</ele><time>2026-05-03T09:40:14.494Z</time></trkpt><trkpt lat="42.0864517" lon="11.9930717"><ele>505.0</ele><time>2026-05-03T09:40:17.495Z</time></trkpt><trkpt lat="42.0864817" lon="11.9931517"><ele>505.1428571428571</ele><time>2026-05-03T09:40:22.506Z</time></trkpt><trkpt lat="42.08651" lon="11.99324"><ele>505.2857142857142</ele><time>2026-05-03T09:40:26.489Z</time></trkpt><trkpt lat="42.086475" lon="11.993325"><ele>505.42857142857144</ele><time>2026-05-03T09:40:29.492Z</time></trkpt><trkpt lat="42.08643" lon="11.9934167"><ele>505.57142857142856</ele><time>2026-05-03T09:40:33.49Z</time></trkpt><trkpt lat="42.0864367" lon="11.9935167"><ele>505.7142857142857</ele><time>2026-05-03T09:40:36.557Z</time></trkpt><trkpt lat="42.0864167" lon="11.9936017"><ele>505.8571428571429</ele><time>2026-05-03T09:40:39.491Z</time></trkpt><trkpt lat="42.0864183" lon="11.9937"><ele>506.00000000000006</ele><time>2026-05-03T09:40:42.555Z</time></trkpt><trkpt lat="42.0864783" lon="11.99378"><ele>507.66666666666663</ele><time>2026-05-03T09:40:45.497Z</time></trkpt><trkpt lat="42.08656" lon="11.9938283"><ele>509.3333333333333</ele><time>2026-05-03T09:40:47.499Z</time></trkpt><trkpt lat="42.0866367" lon="11.9938633"><ele>511.0</ele><time>2026-05-03T09:40:49.495Z</time></trkpt><trkpt lat="42.0867083" lon="11.9939183"><ele>512.6666666666666</ele><time>2026-05-03T09:40:51.501Z</time></trkpt><trkpt lat="42.086775" lon="11.9939667"><ele>514.3333333333334</ele><time>2026-05-03T09:40:53.502Z</time></trkpt><trkpt lat="42.0868383" lon="11.9940067"><ele>516.0</ele><time>2026-05-03T09:40:55.492Z</time></trkpt><trkpt lat="42.0869233" lon="11.994025"><ele>516.1428571428571</ele><time>2026-05-03T09:40:58.499Z</time></trkpt><trkpt lat="42.08698" lon="11.9939733"><ele>516.2857142857142</ele><time>2026-05-03T09:41:20.499Z</time></trkpt><trkpt lat="42.0869733" lon="11.9938717"><ele>516.4285714285714</ele><time>2026-05-03T09:41:24.557Z</time></trkpt><trkpt lat="42.0869317" lon="11.99378"><ele>516.5714285714286</ele><time>2026-05-03T09:41:28.49Z</time></trkpt><trkpt lat="42.0868867" lon="11.99371"><ele>516.7142857142858</ele><time>2026-05-03T09:41:31.493Z</time></trkpt><trkpt lat="42.0868583" lon="11.9935983"><ele>516.8571428571429</ele><time>2026-05-03T09:41:34.502Z</time></trkpt><trkpt lat="42.086825" lon="11.9935233"><ele>517.0</ele><time>2026-05-03T09:41:36.55Z</time></trkpt><trkpt lat="42.086785" lon="11.993425"><ele>517.0</ele><time>2026-05-03T09:41:39.49Z</time></trkpt><trkpt lat="42.0867433" lon="11.9933433"><ele>517.0</ele><time>2026-05-03T09:41:42.546Z</time></trkpt><trkpt lat="42.086705" lon="11.993265"><ele>517.0</ele><time>2026-05-03T09:41:45.493Z</time></trkpt><trkpt lat="42.086665" lon="11.9931717"><ele>517.0</ele><time>2026-05-03T09:41:48.545Z</time></trkpt><trkpt lat="42.08658" lon="11.993125"><ele>517.0</ele><time>2026-05-03T09:41:51.502Z</time></trkpt><trkpt lat="42.08649" lon="11.993095"><ele>517.0</ele><time>2026-05-03T09:41:53.496Z</time></trkpt><trkpt lat="42.0863767" lon="11.9930617"><ele>514.8000000000001</ele><time>2026-05-03T09:41:55.492Z</time></trkpt><trkpt lat="42.0862567" lon="11.9930583"><ele>512.6</ele><time>2026-05-03T09:41:57.492Z</time></trkpt><trkpt lat="42.0861517" lon="11.9930217"><ele>510.40000000000003</ele><time>2026-05-03T09:41:59.497Z</time></trkpt><trkpt lat="42.08608" lon="11.992955"><ele>508.20000000000005</ele><time>2026-05-03T09:42:01.495Z</time></trkpt><trkpt lat="42.0860233" lon="11.992915"><ele>506.0</ele><time>2026-05-03T09:42:03.494Z</time></trkpt><trkpt lat="42.0859333" lon="11.9928533"><ele>505.99999999999994</ele><time>2026-05-03T09:42:05.496Z</time></trkpt><trkpt lat="42.0858233" lon="11.99277"><ele>506.0</ele><time>2026-05-03T09:42:07.49Z</time></trkpt><trkpt lat="42.08576" lon="11.9927267"><ele>506.0</ele><time>2026-05-03T09:42:08.499Z</time></trkpt><trkpt lat="42.0856933" lon="11.9926883"><ele>506.0</ele><time>2026-05-03T09:42:09.497Z</time></trkpt><trkpt lat="42.08563" lon="11.9926583"><ele>505.99999999999994</ele><time>2026-05-03T09:42:10.497Z</time></trkpt><trkpt lat="42.0855233" lon="11.992655"><ele>506.0</ele><time>2026-05-03T09:42:12.549Z</time></trkpt><trkpt lat="42.085415" lon="11.992675"><ele>505.16666666666663</ele><time>2026-05-03T09:42:14.504Z</time></trkpt><trkpt lat="42.0852917" lon="11.99272"><ele>504.3333333333333</ele><time>2026-05-03T09:42:16.497Z</time></trkpt><trkpt lat="42.0852283" lon="11.9927433"><ele>503.5</ele><time>2026-05-03T09:42:17.496Z</time></trkpt><trkpt lat="42.08516" lon="11.9927617"><ele>502.66666666666663</ele><time>2026-05-03T09:42:18.548Z</time></trkpt><trkpt lat="42.085095" lon="11.9927833"><ele>501.8333333333333</ele><time>2026-05-03T09:42:19.493Z</time></trkpt><trkpt lat="42.0850267" lon="11.9928133"><ele>501.0</ele><time>2026-05-03T09:42:20.49Z</time></trkpt><trkpt lat="42.0849167" lon="11.9928533"><ele>497.20000000000005</ele><time>2026-05-03T09:42:22.499Z</time></trkpt><trkpt lat="42.0847983" lon="11.9928467"><ele>493.40000000000003</ele><time>2026-05-03T09:42:24.562Z</time></trkpt><trkpt lat="42.0846967" lon="11.9928583"><ele>489.6</ele><time>2026-05-03T09:42:26.498Z</time></trkpt><trkpt lat="42.08464" lon="11.992925"><ele>485.8</ele><time>2026-05-03T09:42:28.496Z</time></trkpt><trkpt lat="42.08462" lon="11.99304"><ele>482.0</ele><time>2026-05-03T09:42:30.553Z</time></trkpt><trkpt lat="42.084625" lon="11.9931917"><ele>481.25</ele><time>2026-05-03T09:42:32.489Z</time></trkpt><trkpt lat="42.0846333" lon="11.9933567"><ele>480.5</ele><time>2026-05-03T09:42:34.503Z</time></trkpt><trkpt lat="42.08464" lon="11.9935167"><ele>479.75</ele><time>2026-05-03T09:42:36.545Z</time></trkpt><trkpt lat="42.0846383" lon="11.9936833"><ele>479.0</ele><time>2026-05-03T09:42:38.495Z</time></trkpt><trkpt lat="42.0846467" lon="11.9938483"><ele>479.0</ele><time>2026-05-03T09:42:40.496Z</time></trkpt><trkpt lat="42.084655" lon="11.9940217"><ele>479.0</ele><time>2026-05-03T09:42:42.549Z</time></trkpt><trkpt lat="42.0846483" lon="11.994115"><ele>479.0</ele><time>2026-05-03T09:42:43.503Z</time></trkpt><trkpt lat="42.0846417" lon="11.9942083"><ele>479.0</ele><time>2026-05-03T09:42:44.492Z</time></trkpt><trkpt lat="42.0846167" lon="11.99437"><ele>479.0</ele><time>2026-05-03T09:42:46.498Z</time></trkpt><trkpt lat="42.0845933" lon="11.9944517"><ele>479.66666666666663</ele><time>2026-05-03T09:42:47.491Z</time></trkpt><trkpt lat="42.0845383" lon="11.994605"><ele>480.3333333333333</ele><time>2026-05-03T09:42:49.495Z</time></trkpt><trkpt lat="42.0845" lon="11.9946833"><ele>481.0</ele><time>2026-05-03T09:42:50.494Z</time></trkpt><trkpt lat="42.0844517" lon="11.9947633"><ele>481.66666666666663</ele><time>2026-05-03T09:42:51.506Z</time></trkpt><trkpt lat="42.084395" lon="11.9948367"><ele>482.3333333333333</ele><time>2026-05-03T09:42:52.496Z</time></trkpt><trkpt lat="42.0843333" lon="11.9948917"><ele>483.0</ele><time>2026-05-03T09:42:53.501Z</time></trkpt><trkpt lat="42.0842683" lon="11.9949333"><ele>483.0</ele><time>2026-05-03T09:42:54.559Z</time></trkpt><trkpt lat="42.084205" lon="11.9949733"><ele>483.0</ele><time>2026-05-03T09:42:55.497Z</time></trkpt><trkpt lat="42.0841417" lon="11.995015"><ele>483.0</ele><time>2026-05-03T09:42:56.501Z</time></trkpt><trkpt lat="42.084085" lon="11.9950717"><ele>483.0</ele><time>2026-05-03T09:42:57.5Z</time></trkpt><trkpt lat="42.084045" lon="11.99514"><ele>483.0</ele><time>2026-05-03T09:42:58.499Z</time></trkpt><trkpt lat="42.0840017" lon="11.9952167"><ele>483.0</ele><time>2026-05-03T09:42:59.494Z</time></trkpt><trkpt lat="42.08396" lon="11.9953"><ele>483.0</ele><time>2026-05-03T09:43:00.555Z</time></trkpt><trkpt lat="42.08392" lon="11.9953883"><ele>483.0</ele><time>2026-05-03T09:43:01.504Z</time></trkpt><trkpt lat="42.0838817" lon="11.9954867"><ele>482.99999999999994</ele><time>2026-05-03T09:43:02.494Z</time></trkpt><trkpt lat="42.0838367" lon="11.9956017"><ele>482.99999999999994</ele><time>2026-05-03T09:43:03.508Z</time></trkpt><trkpt lat="42.08379" lon="11.9957133"><ele>483.0</ele><time>2026-05-03T09:43:04.496Z</time></trkpt><trkpt lat="42.0837417" lon="11.9958233"><ele>483.0</ele><time>2026-05-03T09:43:05.499Z</time></trkpt><trkpt lat="42.0836933" lon="11.9959367"><ele>483.0</ele><time>2026-05-03T09:43:06.553Z</time></trkpt><trkpt lat="42.0836467" lon="11.9960583"><ele>482.99999999999994</ele><time>2026-05-03T09:43:07.498Z</time></trkpt><trkpt lat="42.0835967" lon="11.996185"><ele>482.99999999999994</ele><time>2026-05-03T09:43:08.499Z</time></trkpt><trkpt lat="42.083545" lon="11.996305"><ele>483.0</ele><time>2026-05-03T09:43:09.496Z</time></trkpt><trkpt lat="42.08349" lon="11.9964167"><ele>483.0</ele><time>2026-05-03T09:43:10.499Z</time></trkpt><trkpt lat="42.0834317" lon="11.99652"><ele>483.0</ele><time>2026-05-03T09:43:11.493Z</time></trkpt><trkpt lat="42.0833767" lon="11.9966133"><ele>483.0</ele><time>2026-05-03T09:43:12.546Z</time></trkpt><trkpt lat="42.08333" lon="11.9967083"><ele>483.0</ele><time>2026-05-03T09:43:13.497Z</time></trkpt><trkpt lat="42.08328" lon="11.9968017"><ele>483.0</ele><time>2026-05-03T09:43:14.497Z</time></trkpt><trkpt lat="42.0832217" lon="11.996895"><ele>483.0</ele><time>2026-05-03T09:43:15.498Z</time></trkpt><trkpt lat="42.0831617" lon="11.996985"><ele>483.0</ele><time>2026-05-03T09:43:16.5Z</time></trkpt><trkpt lat="42.08311" lon="11.9970717"><ele>483.5</ele><time>2026-05-03T09:43:17.494Z</time></trkpt><trkpt lat="42.0830633" lon="11.9971617"><ele>484.0</ele><time>2026-05-03T09:43:18.548Z</time></trkpt><trkpt lat="42.0830233" lon="11.997245"><ele>484.5</ele><time>2026-05-03T09:43:19.494Z</time></trkpt><trkpt lat="42.0829683" lon="11.99736"><ele>485.0</ele><time>2026-05-03T09:43:21.5Z</time></trkpt><trkpt lat="42.08289" lon="11.9973817"><ele>485.5</ele><time>2026-05-03T09:43:23.499Z</time></trkpt><trkpt lat="42.08283" lon="11.997355"><ele>486.0</ele><time>2026-05-03T09:43:26.499Z</time></trkpt><trkpt lat="42.08276" lon="11.997305"><ele>486.0</ele><time>2026-05-03T09:43:30.494Z</time></trkpt><trkpt lat="42.0826817" lon="11.9972783"><ele>486.0</ele><time>2026-05-03T09:43:32.498Z</time></trkpt><trkpt lat="42.08259" lon="11.9972267"><ele>486.0</ele><time>2026-05-03T09:43:34.497Z</time></trkpt><trkpt lat="42.08247" lon="11.9972133"><ele>486.0</ele><time>2026-05-03T09:43:36.549Z</time></trkpt><trkpt lat="42.0824067" lon="11.9972167"><ele>486.0</ele><time>2026-05-03T09:43:37.497Z</time></trkpt><trkpt lat="42.0822833" lon="11.997215"><ele>483.6</ele><time>2026-05-03T09:43:39.503Z</time></trkpt><trkpt lat="42.0821733" lon="11.997195"><ele>481.20000000000005</ele><time>2026-05-03T09:43:41.496Z</time></trkpt><trkpt lat="42.08207" lon="11.99717"><ele>478.79999999999995</ele><time>2026-05-03T09:43:43.5Z</time></trkpt><trkpt lat="42.0819633" lon="11.997135"><ele>476.4</ele><time>2026-05-03T09:43:45.495Z</time></trkpt><trkpt lat="42.0818833" lon="11.9970567"><ele>474.0</ele><time>2026-05-03T09:43:47.497Z</time></trkpt><trkpt lat="42.0818167" lon="11.996945"><ele>474.0</ele><time>2026-05-03T09:43:49.496Z</time></trkpt><trkpt lat="42.0817367" lon="11.99684"><ele>474.0</ele><time>2026-05-03T09:43:51.496Z</time></trkpt><trkpt lat="42.0816783" lon="11.996805"><ele>474.0</ele><time>2026-05-03T09:43:52.497Z</time></trkpt><trkpt lat="42.0815733" lon="11.99675"><ele>474.0</ele><time>2026-05-03T09:43:54.562Z</time></trkpt><trkpt lat="42.0814783" lon="11.99677"><ele>474.0</ele><time>2026-05-03T09:43:56.496Z</time></trkpt><trkpt lat="42.0814333" lon="11.9968783"><ele>470.8333333333333</ele><time>2026-05-03T09:43:58.498Z</time></trkpt><trkpt lat="42.0814167" lon="11.9970383"><ele>467.66666666666663</ele><time>2026-05-03T09:44:00.552Z</time></trkpt><trkpt lat="42.081415" lon="11.997125"><ele>464.5</ele><time>2026-05-03T09:44:01.493Z</time></trkpt><trkpt lat="42.0814217" lon="11.99722"><ele>461.3333333333333</ele><time>2026-05-03T09:44:02.498Z</time></trkpt><trkpt lat="42.0814167" lon="11.99731"><ele>458.16666666666663</ele><time>2026-05-03T09:44:03.503Z</time></trkpt><trkpt lat="42.0814017" lon="11.9974017"><ele>455.0</ele><time>2026-05-03T09:44:04.498Z</time></trkpt><trkpt lat="42.0813717" lon="11.9974917"><ele>455.99999999999994</ele><time>2026-05-03T09:44:05.498Z</time></trkpt><trkpt lat="42.0813233" lon="11.9975667"><ele>457.0</ele><time>2026-05-03T09:44:06.544Z</time></trkpt><trkpt lat="42.081265" lon="11.9976383"><ele>458.0</ele><time>2026-05-03T09:44:07.493Z</time></trkpt><trkpt lat="42.0812067" lon="11.9977117"><ele>459.0</ele><time>2026-05-03T09:44:08.494Z</time></trkpt><trkpt lat="42.0811533" lon="11.997785"><ele>459.99999999999994</ele><time>2026-05-03T09:44:09.498Z</time></trkpt><trkpt lat="42.0810983" lon="11.997855"><ele>461.0</ele><time>2026-05-03T09:44:10.487Z</time></trkpt><trkpt lat="42.081035" lon="11.9979133"><ele>460.99999999999994</ele><time>2026-05-03T09:44:11.498Z</time></trkpt><trkpt lat="42.080965" lon="11.9979483"><ele>461.0</ele><time>2026-05-03T09:44:12.544Z</time></trkpt><trkpt lat="42.0808917" lon="11.9979683"><ele>461.0</ele><time>2026-05-03T09:44:13.499Z</time></trkpt><trkpt lat="42.0808183" lon="11.9979917"><ele>461.0</ele><time>2026-05-03T09:44:14.493Z</time></trkpt><trkpt lat="42.080745" lon="11.9980217"><ele>460.99999999999994</ele><time>2026-05-03T09:44:15.495Z</time></trkpt><trkpt lat="42.08067" lon="11.9980533"><ele>461.0</ele><time>2026-05-03T09:44:16.495Z</time></trkpt><trkpt lat="42.08059" lon="11.998095"><ele>458.49999999999994</ele><time>2026-05-03T09:44:17.5Z</time></trkpt><trkpt lat="42.0805117" lon="11.9981417"><ele>456.0</ele><time>2026-05-03T09:44:18.55Z</time></trkpt><trkpt lat="42.08043" lon="11.9981933"><ele>453.5</ele><time>2026-05-03T09:44:19.498Z</time></trkpt><trkpt lat="42.0803517" lon="11.99825"><ele>451.0</ele><time>2026-05-03T09:44:20.497Z</time></trkpt><trkpt lat="42.080275" lon="11.998315"><ele>448.49999999999994</ele><time>2026-05-03T09:44:21.505Z</time></trkpt><trkpt lat="42.0802067" lon="11.998375"><ele>446.0</ele><time>2026-05-03T09:44:22.498Z</time></trkpt><trkpt lat="42.080145" lon="11.9984317"><ele>445.99999999999994</ele><time>2026-05-03T09:44:23.5Z</time></trkpt><trkpt lat="42.0800833" lon="11.998485"><ele>446.0</ele><time>2026-05-03T09:44:24.5Z</time></trkpt><trkpt lat="42.0800267" lon="11.998535"><ele>446.0</ele><time>2026-05-03T09:44:25.492Z</time></trkpt><trkpt lat="42.0799508" lon="11.9986326"><ele>446.0</ele><time>2026-05-03T09:44:27.497Z</time></trkpt><trkpt lat="42.0799504" lon="11.9987297"><ele>445.99999999999994</ele><time>2026-05-03T09:44:29.499Z</time></trkpt><trkpt lat="42.0799561" lon="11.9988783"><ele>446.0</ele><time>2026-05-03T09:44:31.496Z</time></trkpt><trkpt lat="42.0799559" lon="11.9989685"><ele>445.99999999999994</ele><time>2026-05-03T09:44:32.496Z</time></trkpt><trkpt lat="42.0799514" lon="11.999108"><ele>446.0</ele><time>2026-05-03T09:44:34.497Z</time></trkpt><trkpt lat="42.0799281" lon="11.9992146"><ele>446.0</ele><time>2026-05-03T09:44:36.546Z</time></trkpt><trkpt lat="42.0799143" lon="11.9993228"><ele>446.0</ele><time>2026-05-03T09:44:38.494Z</time></trkpt><trkpt lat="42.0799085" lon="11.9994223"><ele>445.99999999999994</ele><time>2026-05-03T09:44:40.495Z</time></trkpt><trkpt lat="42.0799" lon="11.9995117"><ele>446.0</ele><time>2026-05-03T09:45:05.501Z</time></trkpt><trkpt lat="42.07989" lon="11.9996183"><ele>445.8</ele><time>2026-05-03T09:45:07.494Z</time></trkpt><trkpt lat="42.0798767" lon="11.9997367"><ele>445.6</ele><time>2026-05-03T09:45:09.497Z</time></trkpt><trkpt lat="42.0798833" lon="11.9998667"><ele>445.4</ele><time>2026-05-03T09:45:11.495Z</time></trkpt><trkpt lat="42.0799117" lon="12.0000433"><ele>445.2</ele><time>2026-05-03T09:45:13.49Z</time></trkpt><trkpt lat="42.0799233" lon="12.0001433"><ele>445.0</ele><time>2026-05-03T09:45:14.492Z</time></trkpt><trkpt lat="42.079935" lon="12.00024"><ele>445.0</ele><time>2026-05-03T09:45:15.497Z</time></trkpt><trkpt lat="42.0799417" lon="12.0003333"><ele>445.0</ele><time>2026-05-03T09:45:16.493Z</time></trkpt><trkpt lat="42.079945" lon="12.00043"><ele>445.0</ele><time>2026-05-03T09:45:17.499Z</time></trkpt><trkpt lat="42.0799383" lon="12.0005283"><ele>445.0</ele><time>2026-05-03T09:45:18.547Z</time></trkpt><trkpt lat="42.0799233" lon="12.0006117"><ele>445.0</ele><time>2026-05-03T09:45:19.493Z</time></trkpt><trkpt lat="42.0798867" lon="12.0007217"><ele>445.0</ele><time>2026-05-03T09:45:21.497Z</time></trkpt><trkpt lat="42.0798183" lon="12.0007483"><ele>445.0</ele><time>2026-05-03T09:45:23.5Z</time></trkpt><trkpt lat="42.079745" lon="12.0007633"><ele>444.00000000000006</ele><time>2026-05-03T09:45:26.496Z</time></trkpt><trkpt lat="42.079675" lon="12.000785"><ele>443.0</ele><time>2026-05-03T09:46:02.499Z</time></trkpt><trkpt lat="42.0796183" lon="12.0008617"><ele>442.0</ele><time>2026-05-03T09:46:34.5Z</time></trkpt><trkpt lat="42.079515" lon="12.000875"><ele>441.0</ele><time>2026-05-03T09:46:36.541Z</time></trkpt><trkpt lat="42.0794267" lon="12.000865"><ele>440.00000000000006</ele><time>2026-05-03T09:46:37.498Z</time></trkpt><trkpt lat="42.0793317" lon="12.0008517"><ele>439.0</ele><time>2026-05-03T09:46:38.499Z</time></trkpt><trkpt lat="42.0792467" lon="12.0008317"><ele>437.6666666666667</ele><time>2026-05-03T09:46:39.496Z</time></trkpt><trkpt lat="42.0791733" lon="12.0008133"><ele>436.33333333333337</ele><time>2026-05-03T09:46:40.498Z</time></trkpt><trkpt lat="42.0790567" lon="12.0007817"><ele>435.0</ele><time>2026-05-03T09:46:42.551Z</time></trkpt><trkpt lat="42.0789367" lon="12.000745"><ele>433.66666666666663</ele><time>2026-05-03T09:46:44.492Z</time></trkpt><trkpt lat="42.0788733" lon="12.0007217"><ele>432.3333333333333</ele><time>2026-05-03T09:46:45.498Z</time></trkpt><trkpt lat="42.0788083" lon="12.0007"><ele>431.0</ele><time>2026-05-03T09:46:46.496Z</time></trkpt><trkpt lat="42.0787433" lon="12.0006833"><ele>429.49999999999994</ele><time>2026-05-03T09:46:47.496Z</time></trkpt><trkpt lat="42.078625" lon="12.0006517"><ele>428.0</ele><time>2026-05-03T09:46:49.496Z</time></trkpt><trkpt lat="42.0785633" lon="12.0006333"><ele>426.5</ele><time>2026-05-03T09:46:50.493Z</time></trkpt><trkpt lat="42.078495" lon="12.000615"><ele>425.0</ele><time>2026-05-03T09:46:51.495Z</time></trkpt><trkpt lat="42.078425" lon="12.0005967"><ele>423.49999999999994</ele><time>2026-05-03T09:46:52.498Z</time></trkpt><trkpt lat="42.0783583" lon="12.0005783"><ele>422.0</ele><time>2026-05-03T09:46:53.5Z</time></trkpt><trkpt lat="42.0782933" lon="12.0005633"><ele>420.40000000000003</ele><time>2026-05-03T09:46:54.561Z</time></trkpt><trkpt lat="42.0782283" lon="12.0005483"><ele>418.8</ele><time>2026-05-03T09:46:55.491Z</time></trkpt><trkpt lat="42.0781" lon="12.000515"><ele>417.2</ele><time>2026-05-03T09:46:57.495Z</time></trkpt><trkpt lat="42.0780217" lon="12.0004983"><ele>415.6</ele><time>2026-05-03T09:46:58.495Z</time></trkpt><trkpt lat="42.0779367" lon="12.0004767"><ele>414.0</ele><time>2026-05-03T09:46:59.501Z</time></trkpt><trkpt lat="42.0778467" lon="12.000455"><ele>414.0</ele><time>2026-05-03T09:47:00.557Z</time></trkpt><trkpt lat="42.07776" lon="12.00043"><ele>414.0</ele><time>2026-05-03T09:47:01.492Z</time></trkpt><trkpt lat="42.0776783" lon="12.0004083"><ele>414.0</ele><time>2026-05-03T09:47:02.487Z</time></trkpt><trkpt lat="42.0776033" lon="12.0003883"><ele>414.0</ele><time>2026-05-03T09:47:03.492Z</time></trkpt><trkpt lat="42.0775317" lon="12.00037"><ele>414.0</ele><time>2026-05-03T09:47:04.5Z</time></trkpt><trkpt lat="42.0774633" lon="12.0003483"><ele>414.0</ele><time>2026-05-03T09:47:05.501Z</time></trkpt><trkpt lat="42.0774" lon="12.0003183"><ele>413.28571428571433</ele><time>2026-05-03T09:47:06.546Z</time></trkpt><trkpt lat="42.0773333" lon="12.0002817"><ele>412.57142857142856</ele><time>2026-05-03T09:47:07.495Z</time></trkpt><trkpt lat="42.0772683" lon="12.0002433"><ele>411.8571428571429</ele><time>2026-05-03T09:47:08.496Z</time></trkpt><trkpt lat="42.07721" lon="12.0002017"><ele>411.14285714285717</ele><time>2026-05-03T09:47:09.496Z</time></trkpt><trkpt lat="42.0771567" lon="12.0001533"><ele>410.42857142857144</ele><time>2026-05-03T09:47:10.497Z</time></trkpt><trkpt lat="42.0771033" lon="12.0001033"><ele>409.7142857142857</ele><time>2026-05-03T09:47:11.497Z</time></trkpt><trkpt lat="42.07705" lon="12.0000483"><ele>409.0</ele><time>2026-05-03T09:47:12.548Z</time></trkpt><trkpt lat="42.0769983" lon="11.9999883"><ele>409.00000000000006</ele><time>2026-05-03T09:47:13.493Z</time></trkpt><trkpt lat="42.0769517" lon="11.99993"><ele>409.0</ele><time>2026-05-03T09:47:14.495Z</time></trkpt><trkpt lat="42.0768567" lon="11.99981"><ele>409.0</ele><time>2026-05-03T09:47:16.502Z</time></trkpt><trkpt lat="42.0768033" lon="11.9997367"><ele>409.0</ele><time>2026-05-03T09:47:17.501Z</time></trkpt><trkpt lat="42.0767467" lon="11.99965"><ele>409.00000000000006</ele><time>2026-05-03T09:47:18.552Z</time></trkpt><trkpt lat="42.076685" lon="11.99956"><ele>409.0</ele><time>2026-05-03T09:47:19.485Z</time></trkpt><trkpt lat="42.076625" lon="11.9994717"><ele>408.6666666666667</ele><time>2026-05-03T09:47:20.498Z</time></trkpt><trkpt lat="42.076565" lon="11.99938"><ele>408.33333333333337</ele><time>2026-05-03T09:47:21.494Z</time></trkpt><trkpt lat="42.0765117" lon="11.9992867"><ele>408.0</ele><time>2026-05-03T09:47:22.494Z</time></trkpt><trkpt lat="42.0764583" lon="11.9991933"><ele>407.66666666666663</ele><time>2026-05-03T09:47:23.494Z</time></trkpt><trkpt lat="42.0764033" lon="11.999105"><ele>407.3333333333333</ele><time>2026-05-03T09:47:24.557Z</time></trkpt><trkpt lat="42.0763517" lon="11.9990217"><ele>407.0</ele><time>2026-05-03T09:47:25.492Z</time></trkpt><trkpt lat="42.0762983" lon="11.9989367"><ele>406.99999999999994</ele><time>2026-05-03T09:47:26.497Z</time></trkpt><trkpt lat="42.0762467" lon="11.9988533"><ele>407.0</ele><time>2026-05-03T09:47:27.498Z</time></trkpt><trkpt lat="42.0761917" lon="11.9987683"><ele>407.0</ele><time>2026-05-03T09:47:28.499Z</time></trkpt><trkpt lat="42.0761367" lon="11.998685"><ele>407.0</ele><time>2026-05-03T09:47:29.499Z</time></trkpt><trkpt lat="42.076085" lon="11.998605"><ele>406.99999999999994</ele><time>2026-05-03T09:47:30.558Z</time></trkpt><trkpt lat="42.07603" lon="11.9985267"><ele>407.0</ele><time>2026-05-03T09:47:31.491Z</time></trkpt><trkpt lat="42.0759733" lon="11.9984517"><ele>407.0</ele><time>2026-05-03T09:47:32.5Z</time></trkpt><trkpt lat="42.07591" lon="11.9983733"><ele>407.0</ele><time>2026-05-03T09:47:33.495Z</time></trkpt><trkpt lat="42.07584" lon="11.9983"><ele>407.0</ele><time>2026-05-03T09:47:34.497Z</time></trkpt><trkpt lat="42.0757617" lon="11.9982267"><ele>407.0</ele><time>2026-05-03T09:47:35.5Z</time></trkpt><trkpt lat="42.0756833" lon="11.9981533"><ele>407.0</ele><time>2026-05-03T09:47:36.548Z</time></trkpt><trkpt lat="42.0756067" lon="11.9980833"><ele>406.40000000000003</ele><time>2026-05-03T09:47:37.492Z</time></trkpt><trkpt lat="42.07553" lon="11.9980133"><ele>405.8</ele><time>2026-05-03T09:47:38.496Z</time></trkpt><trkpt lat="42.0754517" lon="11.9979467"><ele>405.2</ele><time>2026-05-03T09:47:39.492Z</time></trkpt><trkpt lat="42.07537" lon="11.9978867"><ele>404.6</ele><time>2026-05-03T09:47:40.489Z</time></trkpt><trkpt lat="42.0752867" lon="11.9978267"><ele>404.0</ele><time>2026-05-03T09:47:41.494Z</time></trkpt><trkpt lat="42.0752033" lon="11.9977683"><ele>404.0</ele><time>2026-05-03T09:47:42.556Z</time></trkpt><trkpt lat="42.0751233" lon="11.9977067"><ele>404.0</ele><time>2026-05-03T09:47:43.496Z</time></trkpt><trkpt lat="42.0750433" lon="11.997635"><ele>404.0</ele><time>2026-05-03T09:47:44.496Z</time></trkpt><trkpt lat="42.07497" lon="11.9975583"><ele>404.0</ele><time>2026-05-03T09:47:45.498Z</time></trkpt><trkpt lat="42.0749017" lon="11.9974767"><ele>404.0</ele><time>2026-05-03T09:47:46.493Z</time></trkpt><trkpt lat="42.0748333" lon="11.9973933"><ele>403.79999999999995</ele><time>2026-05-03T09:47:47.498Z</time></trkpt><trkpt lat="42.074765" lon="11.99731"><ele>403.59999999999997</ele><time>2026-05-03T09:47:48.55Z</time></trkpt><trkpt lat="42.0746967" lon="11.9972217"><ele>403.4</ele><time>2026-05-03T09:47:49.497Z</time></trkpt><trkpt lat="42.07463" lon="11.9971333"><ele>403.2</ele><time>2026-05-03T09:47:50.494Z</time></trkpt><trkpt lat="42.0745617" lon="11.9970417"><ele>403.0</ele><time>2026-05-03T09:47:51.5Z</time></trkpt><trkpt lat="42.074495" lon="11.996945"><ele>403.0</ele><time>2026-05-03T09:47:52.496Z</time></trkpt><trkpt lat="42.074425" lon="11.9968467"><ele>403.0</ele><time>2026-05-03T09:47:53.496Z</time></trkpt><trkpt lat="42.074355" lon="11.996745"><ele>403.0</ele><time>2026-05-03T09:47:54.559Z</time></trkpt><trkpt lat="42.07428" lon="11.9966467"><ele>403.0</ele><time>2026-05-03T09:47:55.494Z</time></trkpt><trkpt lat="42.0742033" lon="11.9965533"><ele>403.0</ele><time>2026-05-03T09:47:56.488Z</time></trkpt><trkpt lat="42.0741233" lon="11.9964667"><ele>404.0</ele><time>2026-05-03T09:47:57.49Z</time></trkpt><trkpt lat="42.0740367" lon="11.996395"><ele>405.0</ele><time>2026-05-03T09:47:58.494Z</time></trkpt><trkpt lat="42.0739467" lon="11.996335"><ele>406.0</ele><time>2026-05-03T09:47:59.493Z</time></trkpt><trkpt lat="42.0738533" lon="11.99629"><ele>407.0</ele><time>2026-05-03T09:48:00.549Z</time></trkpt><trkpt lat="42.073755" lon="11.9962567"><ele>408.0</ele><time>2026-05-03T09:48:01.492Z</time></trkpt><trkpt lat="42.0736517" lon="11.9962283"><ele>408.0</ele><time>2026-05-03T09:48:02.492Z</time></trkpt><trkpt lat="42.073545" lon="11.9962033"><ele>408.0</ele><time>2026-05-03T09:48:03.497Z</time></trkpt><trkpt lat="42.0734367" lon="11.9961833"><ele>408.0</ele><time>2026-05-03T09:48:04.494Z</time></trkpt><trkpt lat="42.07333" lon="11.9961667"><ele>408.0</ele><time>2026-05-03T09:48:05.492Z</time></trkpt><trkpt lat="42.07322" lon="11.9961517"><ele>408.0</ele><time>2026-05-03T09:48:06.545Z</time></trkpt><trkpt lat="42.0731033" lon="11.996135"><ele>404.5</ele><time>2026-05-03T09:48:07.496Z</time></trkpt><trkpt lat="42.0729817" lon="11.9961183"><ele>401.0</ele><time>2026-05-03T09:48:08.494Z</time></trkpt><trkpt lat="42.07285" lon="11.99611"><ele>397.5</ele><time>2026-05-03T09:48:09.492Z</time></trkpt><trkpt lat="42.0727217" lon="11.9961033"><ele>394.0</ele><time>2026-05-03T09:48:10.495Z</time></trkpt><trkpt lat="42.0725983" lon="11.996085"><ele>394.0</ele><time>2026-05-03T09:48:11.491Z</time></trkpt><trkpt lat="42.0724817" lon="11.996045"><ele>394.0</ele><time>2026-05-03T09:48:12.544Z</time></trkpt><trkpt lat="42.07237" lon="11.995985"><ele>394.0</ele><time>2026-05-03T09:48:13.493Z</time></trkpt><trkpt lat="42.0722483" lon="11.9959133"><ele>394.0</ele><time>2026-05-03T09:48:14.494Z</time></trkpt><trkpt lat="42.072125" lon="11.9958467"><ele>394.75</ele><time>2026-05-03T09:48:15.493Z</time></trkpt><trkpt lat="42.071995" lon="11.9957867"><ele>395.5</ele><time>2026-05-03T09:48:16.497Z</time></trkpt><trkpt lat="42.071865" lon="11.99572"><ele>396.25</ele><time>2026-05-03T09:48:17.497Z</time></trkpt><trkpt lat="42.0717317" lon="11.9956583"><ele>397.0</ele><time>2026-05-03T09:48:18.543Z</time></trkpt><trkpt lat="42.0716017" lon="11.9956217"><ele>397.0</ele><time>2026-05-03T09:48:19.494Z</time></trkpt><trkpt lat="42.0714717" lon="11.9956117"><ele>397.0</ele><time>2026-05-03T09:48:20.497Z</time></trkpt><trkpt lat="42.0713417" lon="11.9956283"><ele>397.0</ele><time>2026-05-03T09:48:21.489Z</time></trkpt><trkpt lat="42.0712167" lon="11.9956683"><ele>397.0</ele><time>2026-05-03T09:48:22.5Z</time></trkpt><trkpt lat="42.0711017" lon="11.99572"><ele>397.0</ele><time>2026-05-03T09:48:23.496Z</time></trkpt><trkpt lat="42.0709933" lon="11.9957583"><ele>397.0</ele><time>2026-05-03T09:48:24.498Z</time></trkpt><trkpt lat="42.07089" lon="11.9957667"><ele>397.0</ele><time>2026-05-03T09:48:25.495Z</time></trkpt><trkpt lat="42.0707833" lon="11.99575"><ele>397.0</ele><time>2026-05-03T09:48:26.492Z</time></trkpt><trkpt lat="42.07067" lon="11.99571"><ele>397.0</ele><time>2026-05-03T09:48:27.503Z</time></trkpt><trkpt lat="42.0705567" lon="11.9956433"><ele>393.25</ele><time>2026-05-03T09:48:28.495Z</time></trkpt><trkpt lat="42.0704483" lon="11.995555"><ele>389.5</ele><time>2026-05-03T09:48:29.493Z</time></trkpt><trkpt lat="42.07034" lon="11.9954533"><ele>385.75</ele><time>2026-05-03T09:48:30.494Z</time></trkpt><trkpt lat="42.0702417" lon="11.99534"><ele>382.0</ele><time>2026-05-03T09:48:31.494Z</time></trkpt><trkpt lat="42.0701517" lon="11.995215"><ele>382.0</ele><time>2026-05-03T09:48:32.498Z</time></trkpt><trkpt lat="42.0700667" lon="11.995085"><ele>382.0</ele><time>2026-05-03T09:48:33.499Z</time></trkpt><trkpt lat="42.069985" lon="11.9949533"><ele>382.0</ele><time>2026-05-03T09:48:34.497Z</time></trkpt><trkpt lat="42.0699117" lon="11.994825"><ele>382.0</ele><time>2026-05-03T09:48:35.493Z</time></trkpt><trkpt lat="42.06985" lon="11.99471"><ele>381.40000000000003</ele><time>2026-05-03T09:48:36.537Z</time></trkpt><trkpt lat="42.0698183" lon="11.9946183"><ele>380.8</ele><time>2026-05-03T09:48:37.493Z</time></trkpt><trkpt lat="42.0698017" lon="11.9944583"><ele>380.2</ele><time>2026-05-03T09:48:39.495Z</time></trkpt><trkpt lat="42.069755" lon="11.994305"><ele>379.6</ele><time>2026-05-03T09:48:41.494Z</time></trkpt><trkpt lat="42.069715" lon="11.9941817"><ele>379.0</ele><time>2026-05-03T09:48:43.492Z</time></trkpt><trkpt lat="42.0696817" lon="11.9941017"><ele>379.0</ele><time>2026-05-03T09:49:12.564Z</time></trkpt><trkpt lat="42.06963" lon="11.9940067"><ele>379.0</ele><time>2026-05-03T09:50:14.494Z</time></trkpt><trkpt lat="42.0695667" lon="11.9939717"><ele>379.0</ele><time>2026-05-03T09:50:16.498Z</time></trkpt><trkpt lat="42.0695" lon="11.99394"><ele>379.0</ele><time>2026-05-03T09:50:18.552Z</time></trkpt><trkpt lat="42.06941" lon="11.9939033"><ele>379.0</ele><time>2026-05-03T09:50:31.498Z</time></trkpt><trkpt lat="42.0693467" lon="11.9938483"><ele>379.0</ele><time>2026-05-03T09:50:34.502Z</time></trkpt><trkpt lat="42.0692817" lon="11.9938217"><ele>379.0</ele><time>2026-05-03T09:50:36.556Z</time></trkpt><trkpt lat="42.06921" lon="11.9937983"><ele>379.0</ele><time>2026-05-03T09:50:38.499Z</time></trkpt><trkpt lat="42.069135" lon="11.99378"><ele>379.0</ele><time>2026-05-03T09:50:40.496Z</time></trkpt><trkpt lat="42.06906" lon="11.9937633"><ele>379.0</ele><time>2026-05-03T09:50:42.554Z</time></trkpt><trkpt lat="42.0689767" lon="11.99375"><ele>379.0</ele><time>2026-05-03T09:50:44.499Z</time></trkpt><trkpt lat="42.0688933" lon="11.99373"><ele>379.0</ele><time>2026-05-03T09:50:46.496Z</time></trkpt><trkpt lat="42.0688083" lon="11.993735"><ele>379.00000000000006</ele><time>2026-05-03T09:50:49.492Z</time></trkpt><trkpt lat="42.0687317" lon="11.99373"><ele>379.0</ele><time>2026-05-03T09:50:52.504Z</time></trkpt><trkpt lat="42.0687917" lon="11.993775"><ele>379.0</ele><time>2026-05-03T09:51:03.496Z</time></trkpt><trkpt lat="42.06884" lon="11.9937117"><ele>379.0</ele><time>2026-05-03T09:51:07.492Z</time></trkpt><trkpt lat="42.0689083" lon="11.9937133"><ele>379.0</ele><time>2026-05-03T09:51:19.495Z</time></trkpt><trkpt lat="42.06898" lon="11.9937267"><ele>379.00000000000006</ele><time>2026-05-03T09:51:21.502Z</time></trkpt><trkpt lat="42.0690483" lon="11.9937383"><ele>379.0</ele><time>2026-05-03T09:51:23.493Z</time></trkpt><trkpt lat="42.0691183" lon="11.9937567"><ele>379.0</ele><time>2026-05-03T09:51:27.494Z</time></trkpt><trkpt lat="42.069165" lon="11.9938217"><ele>379.0</ele><time>2026-05-03T09:51:52.5Z</time></trkpt><trkpt lat="42.069235" lon="11.9938417"><ele>379.0</ele><time>2026-05-03T09:52:41.502Z</time></trkpt><trkpt lat="42.0693083" lon="11.9937983"><ele>379.0</ele><time>2026-05-03T09:52:45.503Z</time></trkpt><trkpt lat="42.0693833" lon="11.9938133"><ele>379.0</ele><time>2026-05-03T09:54:09.493Z</time></trkpt><trkpt lat="42.0694917" lon="11.9938483"><ele>379.0</ele><time>2026-05-03T09:54:23.503Z</time></trkpt><trkpt lat="42.0695583" lon="11.9938833"><ele>379.0</ele><time>2026-05-03T09:54:26.496Z</time></trkpt><trkpt lat="42.0696183" lon="11.9939367"><ele>379.0</ele><time>2026-05-03T09:54:29.499Z</time></trkpt><trkpt lat="42.0696767" lon="11.993995"><ele>379.0</ele><time>2026-05-03T09:54:32.501Z</time></trkpt><trkpt lat="42.0697" lon="11.99409"><ele>379.0</ele><time>2026-05-03T09:57:27.494Z</time></trkpt><trkpt lat="42.0697383" lon="11.9942067"><ele>379.0</ele><time>2026-05-03T09:58:09.492Z</time></trkpt><trkpt lat="42.0697917" lon="11.9943633"><ele>379.0</ele><time>2026-05-03T09:58:11.491Z</time></trkpt><trkpt lat="42.0698217" lon="11.9944467"><ele>376.6</ele><time>2026-05-03T09:58:12.55Z</time></trkpt><trkpt lat="42.0698333" lon="11.9945667"><ele>374.2</ele><time>2026-05-03T09:58:14.498Z</time></trkpt><trkpt lat="42.069755" lon="11.9945533"><ele>371.8</ele><time>2026-05-03T09:58:17.499Z</time></trkpt><trkpt lat="42.0696983" lon="11.99447"><ele>369.40000000000003</ele><time>2026-05-03T09:58:18.551Z</time></trkpt><trkpt lat="42.069625" lon="11.99438"><ele>367.0</ele><time>2026-05-03T09:58:19.492Z</time></trkpt><trkpt lat="42.0695333" lon="11.9943033"><ele>367.0</ele><time>2026-05-03T09:58:20.491Z</time></trkpt><trkpt lat="42.069425" lon="11.9942367"><ele>367.0</ele><time>2026-05-03T09:58:21.5Z</time></trkpt><trkpt lat="42.0693117" lon="11.9941767"><ele>367.0</ele><time>2026-05-03T09:58:22.496Z</time></trkpt><trkpt lat="42.0692" lon="11.994135"><ele>367.0</ele><time>2026-05-03T09:58:23.496Z</time></trkpt><trkpt lat="42.0690817" lon="11.9941233"><ele>369.0</ele><time>2026-05-03T09:58:24.562Z</time></trkpt><trkpt lat="42.0689533" lon="11.9941333"><ele>371.0</ele><time>2026-05-03T09:58:25.494Z</time></trkpt><trkpt lat="42.0688183" lon="11.994155"><ele>373.0</ele><time>2026-05-03T09:58:26.493Z</time></trkpt><trkpt lat="42.0686733" lon="11.99418"><ele>375.0</ele><time>2026-05-03T09:58:27.497Z</time></trkpt><trkpt lat="42.0685233" lon="11.9942083"><ele>369.6666666666667</ele><time>2026-05-03T09:58:28.495Z</time></trkpt><trkpt lat="42.0683683" lon="11.994245"><ele>364.33333333333337</ele><time>2026-05-03T09:58:29.497Z</time></trkpt><trkpt lat="42.0682183" lon="11.9942867"><ele>359.0</ele><time>2026-05-03T09:58:30.551Z</time></trkpt><trkpt lat="42.06808" lon="11.9943367"><ele>358.75</ele><time>2026-05-03T09:58:31.495Z</time></trkpt><trkpt lat="42.0679483" lon="11.9943967"><ele>358.5</ele><time>2026-05-03T09:58:32.498Z</time></trkpt><trkpt lat="42.0678233" lon="11.9944533"><ele>358.25</ele><time>2026-05-03T09:58:33.495Z</time></trkpt><trkpt lat="42.0677" lon="11.99451"><ele>358.0</ele><time>2026-05-03T09:58:34.497Z</time></trkpt><trkpt lat="42.0675783" lon="11.9945633"><ele>358.0</ele><time>2026-05-03T09:58:35.494Z</time></trkpt><trkpt lat="42.0674567" lon="11.994615"><ele>358.0</ele><time>2026-05-03T09:58:36.549Z</time></trkpt><trkpt lat="42.067335" lon="11.9946683"><ele>358.0</ele><time>2026-05-03T09:58:37.492Z</time></trkpt><trkpt lat="42.0672183" lon="11.9947167"><ele>358.0</ele><time>2026-05-03T09:58:38.493Z</time></trkpt><trkpt lat="42.0671133" lon="11.9947617"><ele>357.5</ele><time>2026-05-03T09:58:39.5Z</time></trkpt><trkpt lat="42.0670233" lon="11.9947983"><ele>357.0</ele><time>2026-05-03T09:58:40.494Z</time></trkpt><trkpt lat="42.06695" lon="11.994825"><ele>356.5</ele><time>2026-05-03T09:58:41.494Z</time></trkpt><trkpt lat="42.06686" lon="11.9948467"><ele>356.0</ele><time>2026-05-03T09:58:43.491Z</time></trkpt><trkpt lat="42.0669683" lon="11.99483"><ele>355.5</ele><time>2026-05-03T09:58:50.492Z</time></trkpt><trkpt lat="42.0670367" lon="11.9947983"><ele>355.0</ele><time>2026-05-03T09:58:51.496Z</time></trkpt><trkpt lat="42.0671183" lon="11.9947633"><ele>355.0</ele><time>2026-05-03T09:58:52.495Z</time></trkpt><trkpt lat="42.06722" lon="11.9947167"><ele>355.0</ele><time>2026-05-03T09:58:53.492Z</time></trkpt><trkpt lat="42.067335" lon="11.9946667"><ele>355.0</ele><time>2026-05-03T09:58:54.557Z</time></trkpt><trkpt lat="42.0674633" lon="11.9946117"><ele>355.0</ele><time>2026-05-03T09:58:55.49Z</time></trkpt><trkpt lat="42.0676033" lon="11.9945467"><ele>356.0</ele><time>2026-05-03T09:58:56.494Z</time></trkpt><trkpt lat="42.0677533" lon="11.9944783"><ele>357.0</ele><time>2026-05-03T09:58:57.496Z</time></trkpt><trkpt lat="42.06791" lon="11.99441"><ele>358.0</ele><time>2026-05-03T09:58:58.493Z</time></trkpt><trkpt lat="42.068075" lon="11.9943417"><ele>358.0</ele><time>2026-05-03T09:58:59.494Z</time></trkpt><trkpt lat="42.06825" lon="11.99428"><ele>358.0</ele><time>2026-05-03T09:59:00.539Z</time></trkpt><trkpt lat="42.068425" lon="11.99423"><ele>358.0</ele><time>2026-05-03T09:59:01.5Z</time></trkpt><trkpt lat="42.06858" lon="11.9942017"><ele>358.2</ele><time>2026-05-03T09:59:02.496Z</time></trkpt><trkpt lat="42.0687133" lon="11.9941833"><ele>358.4</ele><time>2026-05-03T09:59:03.498Z</time></trkpt><trkpt lat="42.0688267" lon="11.9941667"><ele>358.59999999999997</ele><time>2026-05-03T09:59:04.498Z</time></trkpt><trkpt lat="42.068925" lon="11.9941533"><ele>358.79999999999995</ele><time>2026-05-03T09:59:05.495Z</time></trkpt><trkpt lat="42.0690133" lon="11.99414"><ele>359.0</ele><time>2026-05-03T09:59:06.547Z</time></trkpt><trkpt lat="42.069095" lon="11.9941317"><ele>360.33333333333337</ele><time>2026-05-03T09:59:07.493Z</time></trkpt><trkpt lat="42.069175" lon="11.994135"><ele>361.6666666666667</ele><time>2026-05-03T09:59:08.498Z</time></trkpt><trkpt lat="42.0692533" lon="11.9941483"><ele>363.0</ele><time>2026-05-03T09:59:09.489Z</time></trkpt><trkpt lat="42.0693333" lon="11.9941783"><ele>364.3333333333333</ele><time>2026-05-03T09:59:10.492Z</time></trkpt><trkpt lat="42.0694183" lon="11.9942283"><ele>365.66666666666663</ele><time>2026-05-03T09:59:11.498Z</time></trkpt><trkpt lat="42.06951" lon="11.99429"><ele>367.0</ele><time>2026-05-03T09:59:12.556Z</time></trkpt><trkpt lat="42.0695983" lon="11.9943617"><ele>367.0</ele><time>2026-05-03T09:59:13.491Z</time></trkpt><trkpt lat="42.0696733" lon="11.9944333"><ele>367.0</ele><time>2026-05-03T09:59:14.495Z</time></trkpt><trkpt lat="42.06973" lon="11.9945"><ele>367.0</ele><time>2026-05-03T09:59:15.5Z</time></trkpt><trkpt lat="42.0697783" lon="11.994555"><ele>367.0</ele><time>2026-05-03T09:59:16.494Z</time></trkpt><trkpt lat="42.06985" lon="11.9945867"><ele>367.0</ele><time>2026-05-03T09:59:18.559Z</time></trkpt><trkpt lat="42.06986" lon="11.9944933"><ele>367.0</ele><time>2026-05-03T09:59:20.493Z</time></trkpt><trkpt lat="42.0698367" lon="11.994405"><ele>367.0</ele><time>2026-05-03T09:59:21.489Z</time></trkpt><trkpt lat="42.0697983" lon="11.99431"><ele>367.0</ele><time>2026-05-03T09:59:22.492Z</time></trkpt><trkpt lat="42.06976" lon="11.9942267"><ele>367.0</ele><time>2026-05-03T09:59:23.495Z</time></trkpt><trkpt lat="42.0697267" lon="11.99415"><ele>367.0</ele><time>2026-05-03T09:59:25.492Z</time></trkpt><trkpt lat="42.069735" lon="11.9940467"><ele>367.0</ele><time>2026-05-03T10:00:34.502Z</time></trkpt><trkpt lat="42.0697983" lon="11.9940733"><ele>367.0</ele><time>2026-05-03T10:00:36.497Z</time></trkpt><trkpt lat="42.0698817" lon="11.99419"><ele>367.0</ele><time>2026-05-03T10:00:38.495Z</time></trkpt><trkpt lat="42.0699883" lon="11.9942983"><ele>370.16666666666663</ele><time>2026-05-03T10:00:40.491Z</time></trkpt><trkpt lat="42.07005" lon="11.9943533"><ele>373.3333333333333</ele><time>2026-05-03T10:00:41.498Z</time></trkpt><trkpt lat="42.070115" lon="11.9943917"><ele>376.5</ele><time>2026-05-03T10:00:42.493Z</time></trkpt><trkpt lat="42.0701817" lon="11.99442"><ele>379.66666666666663</ele><time>2026-05-03T10:00:43.495Z</time></trkpt><trkpt lat="42.07029" lon="11.9944783"><ele>382.8333333333333</ele><time>2026-05-03T10:00:45.5Z</time></trkpt><trkpt lat="42.07038" lon="11.9945717"><ele>386.0</ele><time>2026-05-03T10:00:47.494Z</time></trkpt><trkpt lat="42.0704317" lon="11.9946817"><ele>386.0</ele><time>2026-05-03T10:00:49.494Z</time></trkpt><trkpt lat="42.07047" lon="11.9947667"><ele>386.0</ele><time>2026-05-03T10:00:51.5Z</time></trkpt><trkpt lat="42.0705183" lon="11.99487"><ele>386.0</ele><time>2026-05-03T10:00:53.486Z</time></trkpt><trkpt lat="42.0706033" lon="11.9949633"><ele>386.0</ele><time>2026-05-03T10:00:55.491Z</time></trkpt><trkpt lat="42.0707017" lon="11.995055"><ele>386.0</ele><time>2026-05-03T10:00:57.488Z</time></trkpt><trkpt lat="42.0707933" lon="11.9951"><ele>387.8333333333333</ele><time>2026-05-03T10:00:59.496Z</time></trkpt><trkpt lat="42.0708733" lon="11.9950817"><ele>389.66666666666663</ele><time>2026-05-03T10:01:01.499Z</time></trkpt><trkpt lat="42.0709383" lon="11.995025"><ele>391.5</ele><time>2026-05-03T10:01:03.494Z</time></trkpt><trkpt lat="42.07102" lon="11.9949917"><ele>393.33333333333337</ele><time>2026-05-03T10:01:05.489Z</time></trkpt><trkpt lat="42.07111" lon="11.994955"><ele>395.1666666666667</ele><time>2026-05-03T10:01:07.496Z</time></trkpt><trkpt lat="42.07121" lon="11.9949233"><ele>397.0</ele><time>2026-05-03T10:01:09.497Z</time></trkpt><trkpt lat="42.0713067" lon="11.9948983"><ele>398.83333333333337</ele><time>2026-05-03T10:01:11.5Z</time></trkpt><trkpt lat="42.0713883" lon="11.9948767"><ele>400.6666666666667</ele><time>2026-05-03T10:01:13.502Z</time></trkpt><trkpt lat="42.071475" lon="11.9948583"><ele>402.5</ele><time>2026-05-03T10:01:15.505Z</time></trkpt><trkpt lat="42.0715683" lon="11.994845"><ele>404.33333333333337</ele><time>2026-05-03T10:01:17.499Z</time></trkpt><trkpt lat="42.0716533" lon="11.99481"><ele>406.1666666666667</ele><time>2026-05-03T10:01:19.499Z</time></trkpt><trkpt lat="42.0716983" lon="11.9947367"><ele>408.0</ele><time>2026-05-03T10:01:21.495Z</time></trkpt><trkpt lat="42.0717417" lon="11.99465"><ele>410.5</ele><time>2026-05-03T10:01:23.492Z</time></trkpt><trkpt lat="42.0717967" lon="11.9945983"><ele>413.0</ele><time>2026-05-03T10:01:25.493Z</time></trkpt><trkpt lat="42.0718683" lon="11.9945833"><ele>415.5</ele><time>2026-05-03T10:01:27.496Z</time></trkpt><trkpt lat="42.0719633" lon="11.99458"><ele>418.0</ele><time>2026-05-03T10:01:29.499Z</time></trkpt><trkpt lat="42.0720555" lon="11.9945768"><ele>420.5</ele><time>2026-05-03T10:01:31.493Z</time></trkpt><trkpt lat="42.0721555" lon="11.9946125"><ele>423.0</ele><time>2026-05-03T10:01:33.495Z</time></trkpt><trkpt lat="42.0722637" lon="11.9946339"><ele>423.0</ele><time>2026-05-03T10:01:35.496Z</time></trkpt><trkpt lat="42.0723531" lon="11.9945975"><ele>423.0</ele><time>2026-05-03T10:01:37.501Z</time></trkpt><trkpt lat="42.072399" lon="11.9945306"><ele>423.0</ele><time>2026-05-03T10:01:39.504Z</time></trkpt><trkpt lat="42.0724537" lon="11.9944729"><ele>423.0</ele><time>2026-05-03T10:01:41.501Z</time></trkpt><trkpt lat="42.0725303" lon="11.99442"><ele>423.0</ele><time>2026-05-03T10:01:43.494Z</time></trkpt><trkpt lat="42.0726032" lon="11.9943744"><ele>423.0</ele><time>2026-05-03T10:01:45.501Z</time></trkpt><trkpt lat="42.072671" lon="11.9943157"><ele>426.0</ele><time>2026-05-03T10:01:47.494Z</time></trkpt><trkpt lat="42.0727316" lon="11.9942037"><ele>429.0</ele><time>2026-05-03T10:01:49.492Z</time></trkpt><trkpt lat="42.072762" lon="11.9940544"><ele>431.99999999999994</ele><time>2026-05-03T10:01:51.492Z</time></trkpt><trkpt lat="42.0727783" lon="11.9938827"><ele>435.0</ele><time>2026-05-03T10:01:53.495Z</time></trkpt><trkpt lat="42.0727881" lon="11.993783"><ele>438.0</ele><time>2026-05-03T10:01:54.549Z</time></trkpt><trkpt lat="42.0727976" lon="11.9936823"><ele>440.5</ele><time>2026-05-03T10:01:55.498Z</time></trkpt><trkpt lat="42.0728058" lon="11.993583"><ele>443.0</ele><time>2026-05-03T10:01:56.493Z</time></trkpt><trkpt lat="42.0728051" lon="11.9934935"><ele>445.5</ele><time>2026-05-03T10:01:57.496Z</time></trkpt><trkpt lat="42.0728247" lon="11.9933246"><ele>448.0</ele><time>2026-05-03T10:01:59.498Z</time></trkpt><trkpt lat="42.0728394" lon="11.9932294"><ele>450.5</ele><time>2026-05-03T10:02:00.558Z</time></trkpt><trkpt lat="42.0728457" lon="11.993137"><ele>453.0</ele><time>2026-05-03T10:02:01.49Z</time></trkpt><trkpt lat="42.0728514" lon="11.9930447"><ele>454.3333333333333</ele><time>2026-05-03T10:02:02.492Z</time></trkpt><trkpt lat="42.0728607" lon="11.9929485"><ele>455.66666666666663</ele><time>2026-05-03T10:02:03.491Z</time></trkpt><trkpt lat="42.0728717" lon="11.9928435"><ele>457.0</ele><time>2026-05-03T10:02:04.492Z</time></trkpt><trkpt lat="42.0728811" lon="11.9927393"><ele>458.3333333333333</ele><time>2026-05-03T10:02:05.492Z</time></trkpt><trkpt lat="42.0728935" lon="11.9926453"><ele>459.66666666666663</ele><time>2026-05-03T10:02:06.49Z</time></trkpt><trkpt lat="42.0729064" lon="11.9925621"><ele>461.0</ele><time>2026-05-03T10:02:07.499Z</time></trkpt><trkpt lat="42.0729288" lon="11.9924065"><ele>463.0</ele><time>2026-05-03T10:02:09.495Z</time></trkpt><trkpt lat="42.0729409" lon="11.9922567"><ele>465.0</ele><time>2026-05-03T10:02:11.496Z</time></trkpt><trkpt lat="42.0729896" lon="11.9921093"><ele>467.0</ele><time>2026-05-03T10:02:13.5Z</time></trkpt><trkpt lat="42.0730345" lon="11.9919542"><ele>469.0</ele><time>2026-05-03T10:02:15.498Z</time></trkpt><trkpt lat="42.0730485" lon="11.9917813"><ele>469.00000000000006</ele><time>2026-05-03T10:02:17.501Z</time></trkpt><trkpt lat="42.0730477" lon="11.9916858"><ele>469.0</ele><time>2026-05-03T10:02:18.5Z</time></trkpt><trkpt lat="42.0730423" lon="11.991588"><ele>469.0</ele><time>2026-05-03T10:02:19.508Z</time></trkpt><trkpt lat="42.0730376" lon="11.9914967"><ele>469.0</ele><time>2026-05-03T10:02:20.497Z</time></trkpt><trkpt lat="42.0730383" lon="11.9914024"><ele>469.00000000000006</ele><time>2026-05-03T10:02:21.499Z</time></trkpt><trkpt lat="42.0730398" lon="11.9913156"><ele>469.0</ele><time>2026-05-03T10:02:22.493Z</time></trkpt><trkpt lat="42.073028" lon="11.9911556"><ele>471.0</ele><time>2026-05-03T10:02:24.56Z</time></trkpt><trkpt lat="42.0730267" lon="11.9909983"><ele>473.0</ele><time>2026-05-03T10:02:26.491Z</time></trkpt><trkpt lat="42.0730309" lon="11.9908497"><ele>475.0</ele><time>2026-05-03T10:02:28.495Z</time></trkpt><trkpt lat="42.073034" lon="11.9907065"><ele>477.0</ele><time>2026-05-03T10:02:30.549Z</time></trkpt><trkpt lat="42.0730248" lon="11.9905645"><ele>479.0</ele><time>2026-05-03T10:02:32.5Z</time></trkpt><trkpt lat="42.0730198" lon="11.9904221"><ele>480.4</ele><time>2026-05-03T10:02:34.494Z</time></trkpt><trkpt lat="42.0730032" lon="11.9902826"><ele>481.79999999999995</ele><time>2026-05-03T10:02:36.494Z</time></trkpt><trkpt lat="42.0729563" lon="11.9901433"><ele>483.20000000000005</ele><time>2026-05-03T10:02:38.498Z</time></trkpt><trkpt lat="42.0729259" lon="11.9900651"><ele>484.6</ele><time>2026-05-03T10:02:39.5Z</time></trkpt><trkpt lat="42.0728717" lon="11.9899262"><ele>486.0</ele><time>2026-05-03T10:02:41.493Z</time></trkpt><trkpt lat="42.0728133" lon="11.9898153"><ele>487.0</ele><time>2026-05-03T10:02:43.499Z</time></trkpt><trkpt lat="42.0727452" lon="11.9897322"><ele>488.0</ele><time>2026-05-03T10:02:45.493Z</time></trkpt><trkpt lat="42.0726821" lon="11.989648"><ele>489.0</ele><time>2026-05-03T10:02:47.498Z</time></trkpt><trkpt lat="42.0726273" lon="11.9895376"><ele>490.0</ele><time>2026-05-03T10:02:49.504Z</time></trkpt><trkpt lat="42.0725973" lon="11.9894083"><ele>491.0</ele><time>2026-05-03T10:02:51.497Z</time></trkpt><trkpt lat="42.072572" lon="11.9892339"><ele>490.99999999999994</ele><time>2026-05-03T10:02:53.494Z</time></trkpt><trkpt lat="42.0725626" lon="11.9891364"><ele>491.0</ele><time>2026-05-03T10:02:54.556Z</time></trkpt><trkpt lat="42.0725492" lon="11.9890441"><ele>491.0</ele><time>2026-05-03T10:02:55.496Z</time></trkpt><trkpt lat="42.0725323" lon="11.9889534"><ele>491.0</ele><time>2026-05-03T10:02:56.497Z</time></trkpt><trkpt lat="42.0725151" lon="11.9888705"><ele>490.99999999999994</ele><time>2026-05-03T10:02:57.496Z</time></trkpt><trkpt lat="42.072491" lon="11.9887062"><ele>491.0</ele><time>2026-05-03T10:02:59.495Z</time></trkpt><trkpt lat="42.0724866" lon="11.9886174"><ele>490.99999999999994</ele><time>2026-05-03T10:03:00.557Z</time></trkpt><trkpt lat="42.072481" lon="11.9885274"><ele>491.0</ele><time>2026-05-03T10:03:01.492Z</time></trkpt><trkpt lat="42.0724729" lon="11.9884297"><ele>491.0</ele><time>2026-05-03T10:03:02.498Z</time></trkpt><trkpt lat="42.0724605" lon="11.9883302"><ele>491.0</ele><time>2026-05-03T10:03:03.503Z</time></trkpt><trkpt lat="42.0724453" lon="11.9882181"><ele>490.99999999999994</ele><time>2026-05-03T10:03:04.497Z</time></trkpt><trkpt lat="42.072422" lon="11.9881124"><ele>491.0</ele><time>2026-05-03T10:03:05.492Z</time></trkpt><trkpt lat="42.0723951" lon="11.9880208"><ele>487.99999999999994</ele><time>2026-05-03T10:03:06.495Z</time></trkpt><trkpt lat="42.0723648" lon="11.9879399"><ele>485.0</ele><time>2026-05-03T10:03:07.502Z</time></trkpt><trkpt lat="42.0723341" lon="11.9878612"><ele>482.0</ele><time>2026-05-03T10:03:08.502Z</time></trkpt><trkpt lat="42.0723064" lon="11.9877826"><ele>479.0</ele><time>2026-05-03T10:03:09.502Z</time></trkpt><trkpt lat="42.0722643" lon="11.9876257"><ele>475.99999999999994</ele><time>2026-05-03T10:03:11.497Z</time></trkpt><trkpt lat="42.072243" lon="11.9875425"><ele>473.0</ele><time>2026-05-03T10:03:12.496Z</time></trkpt><trkpt lat="42.0722185" lon="11.9874589"><ele>472.99999999999994</ele><time>2026-05-03T10:03:13.496Z</time></trkpt><trkpt lat="42.0721918" lon="11.9873755"><ele>473.0</ele><time>2026-05-03T10:03:14.497Z</time></trkpt><trkpt lat="42.0721582" lon="11.987294"><ele>473.0</ele><time>2026-05-03T10:03:15.493Z</time></trkpt><trkpt lat="42.0721226" lon="11.9872141"><ele>473.0</ele><time>2026-05-03T10:03:16.501Z</time></trkpt><trkpt lat="42.0720555" lon="11.9870804"><ele>472.99999999999994</ele><time>2026-05-03T10:03:18.5Z</time></trkpt><trkpt lat="42.0719849" lon="11.9869526"><ele>473.0</ele><time>2026-05-03T10:03:20.502Z</time></trkpt><trkpt lat="42.0719445" lon="11.9868824"><ele>472.99999999999994</ele><time>2026-05-03T10:03:21.494Z</time></trkpt><trkpt lat="42.0718996" lon="11.9868073"><ele>473.0</ele><time>2026-05-03T10:03:22.505Z</time></trkpt><trkpt lat="42.0718539" lon="11.9867301"><ele>473.0</ele><time>2026-05-03T10:03:23.505Z</time></trkpt><trkpt lat="42.071808" lon="11.9866518"><ele>473.0</ele><time>2026-05-03T10:03:24.539Z</time></trkpt><trkpt lat="42.0717661" lon="11.9865805"><ele>472.99999999999994</ele><time>2026-05-03T10:03:25.499Z</time></trkpt><trkpt lat="42.0716891" lon="11.9864728"><ele>473.0</ele><time>2026-05-03T10:03:27.5Z</time></trkpt><trkpt lat="42.0715992" lon="11.9863644"><ele>469.0</ele><time>2026-05-03T10:03:29.497Z</time></trkpt><trkpt lat="42.0715138" lon="11.9862673"><ele>464.99999999999994</ele><time>2026-05-03T10:03:31.495Z</time></trkpt><trkpt lat="42.0714301" lon="11.9861732"><ele>460.99999999999994</ele><time>2026-05-03T10:03:33.498Z</time></trkpt><trkpt lat="42.0713375" lon="11.9860661"><ele>457.0</ele><time>2026-05-03T10:03:35.496Z</time></trkpt><trkpt lat="42.0712859" lon="11.9860171"><ele>453.0</ele><time>2026-05-03T10:03:36.498Z</time></trkpt><trkpt lat="42.0712313" lon="11.9859658"><ele>453.0</ele><time>2026-05-03T10:03:37.497Z</time></trkpt><trkpt lat="42.0711764" lon="11.9859112"><ele>452.99999999999994</ele><time>2026-05-03T10:03:38.494Z</time></trkpt><trkpt lat="42.07112" lon="11.985855"><ele>452.99999999999994</ele><time>2026-05-03T10:03:39.49Z</time></trkpt><trkpt lat="42.0710667" lon="11.9858"><ele>453.0</ele><time>2026-05-03T10:03:40.495Z</time></trkpt><trkpt lat="42.0709667" lon="11.9857117"><ele>453.0</ele><time>2026-05-03T10:03:42.498Z</time></trkpt><trkpt lat="42.0708583" lon="11.98562"><ele>452.3333333333333</ele><time>2026-05-03T10:03:44.496Z</time></trkpt><trkpt lat="42.070805" lon="11.9855717"><ele>451.66666666666663</ele><time>2026-05-03T10:03:45.497Z</time></trkpt><trkpt lat="42.0707017" lon="11.9854783"><ele>451.0</ele><time>2026-05-03T10:03:47.504Z</time></trkpt><trkpt lat="42.070645" lon="11.9854233"><ele>450.3333333333333</ele><time>2026-05-03T10:03:48.5Z</time></trkpt><trkpt lat="42.0705883" lon="11.9853633"><ele>449.66666666666663</ele><time>2026-05-03T10:03:49.503Z</time></trkpt><trkpt lat="42.0705367" lon="11.9852967"><ele>449.0</ele><time>2026-05-03T10:03:50.496Z</time></trkpt><trkpt lat="42.0704867" lon="11.9852267"><ele>449.0</ele><time>2026-05-03T10:03:51.511Z</time></trkpt><trkpt lat="42.0704417" lon="11.9851567"><ele>448.99999999999994</ele><time>2026-05-03T10:03:52.497Z</time></trkpt><trkpt lat="42.0703967" lon="11.9850883"><ele>449.0</ele><time>2026-05-03T10:03:53.49Z</time></trkpt><trkpt lat="42.07034" lon="11.9850217"><ele>449.0</ele><time>2026-05-03T10:03:54.556Z</time></trkpt><trkpt lat="42.0702783" lon="11.98496"><ele>448.99999999999994</ele><time>2026-05-03T10:03:55.494Z</time></trkpt><trkpt lat="42.07022" lon="11.9848967"><ele>449.0</ele><time>2026-05-03T10:03:56.496Z</time></trkpt><trkpt lat="42.0701617" lon="11.9848317"><ele>449.0</ele><time>2026-05-03T10:03:57.503Z</time></trkpt><trkpt lat="42.0701017" lon="11.9847567"><ele>449.3333333333333</ele><time>2026-05-03T10:03:58.496Z</time></trkpt><trkpt lat="42.0700433" lon="11.9846767"><ele>449.66666666666663</ele><time>2026-05-03T10:03:59.492Z</time></trkpt><trkpt lat="42.069985" lon="11.9846083"><ele>450.0</ele><time>2026-05-03T10:04:00.505Z</time></trkpt><trkpt lat="42.0699217" lon="11.984555"><ele>450.33333333333337</ele><time>2026-05-03T10:04:01.495Z</time></trkpt><trkpt lat="42.0698533" lon="11.9845133"><ele>450.6666666666667</ele><time>2026-05-03T10:04:02.492Z</time></trkpt><trkpt lat="42.0697867" lon="11.9844767"><ele>451.0</ele><time>2026-05-03T10:04:03.499Z</time></trkpt><trkpt lat="42.0697217" lon="11.9844317"><ele>448.33333333333337</ele><time>2026-05-03T10:04:04.49Z</time></trkpt><trkpt lat="42.0696633" lon="11.9843783"><ele>445.6666666666667</ele><time>2026-05-03T10:04:05.497Z</time></trkpt><trkpt lat="42.0696117" lon="11.9843183"><ele>443.0</ele><time>2026-05-03T10:04:06.498Z</time></trkpt><trkpt lat="42.069565" lon="11.9842483"><ele>440.33333333333337</ele><time>2026-05-03T10:04:07.496Z</time></trkpt><trkpt lat="42.0694917" lon="11.9841167"><ele>437.6666666666667</ele><time>2026-05-03T10:04:09.498Z</time></trkpt><trkpt lat="42.0694183" lon="11.9839917"><ele>435.0</ele><time>2026-05-03T10:04:11.502Z</time></trkpt><trkpt lat="42.06937" lon="11.9839333"><ele>434.8571428571429</ele><time>2026-05-03T10:04:12.496Z</time></trkpt><trkpt lat="42.0693167" lon="11.9838733"><ele>434.7142857142857</ele><time>2026-05-03T10:04:13.494Z</time></trkpt><trkpt lat="42.0692617" lon="11.9838133"><ele>434.57142857142856</ele><time>2026-05-03T10:04:14.496Z</time></trkpt><trkpt lat="42.0692017" lon="11.98375"><ele>434.42857142857144</ele><time>2026-05-03T10:04:15.494Z</time></trkpt><trkpt lat="42.0691433" lon="11.9836833"><ele>434.2857142857143</ele><time>2026-05-03T10:04:16.505Z</time></trkpt><trkpt lat="42.06909" lon="11.98362"><ele>434.14285714285717</ele><time>2026-05-03T10:04:17.496Z</time></trkpt><trkpt lat="42.06904" lon="11.98356"><ele>434.0</ele><time>2026-05-03T10:04:18.494Z</time></trkpt><trkpt lat="42.0689883" lon="11.9835033"><ele>430.2</ele><time>2026-05-03T10:04:19.504Z</time></trkpt><trkpt lat="42.06889" lon="11.983405"><ele>426.4</ele><time>2026-05-03T10:04:21.496Z</time></trkpt><trkpt lat="42.0688017" lon="11.9833433"><ele>422.6</ele><time>2026-05-03T10:04:23.495Z</time></trkpt><trkpt lat="42.068725" lon="11.98329"><ele>418.8</ele><time>2026-05-03T10:04:25.492Z</time></trkpt><trkpt lat="42.0686567" lon="11.9832367"><ele>415.0</ele><time>2026-05-03T10:04:27.492Z</time></trkpt><trkpt lat="42.0685833" lon="11.98317"><ele>414.83333333333337</ele><time>2026-05-03T10:04:29.499Z</time></trkpt><trkpt lat="42.0685067" lon="11.983125"><ele>414.6666666666667</ele><time>2026-05-03T10:04:31.496Z</time></trkpt><trkpt lat="42.06844" lon="11.9830733"><ele>414.5</ele><time>2026-05-03T10:04:33.493Z</time></trkpt><trkpt lat="42.06836" lon="11.9830033"><ele>414.33333333333337</ele><time>2026-05-03T10:04:35.498Z</time></trkpt><trkpt lat="42.0682783" lon="11.9829383"><ele>414.1666666666667</ele><time>2026-05-03T10:04:37.499Z</time></trkpt><trkpt lat="42.068195" lon="11.9828917"><ele>414.0</ele><time>2026-05-03T10:04:39.493Z</time></trkpt><trkpt lat="42.068105" lon="11.982845"><ele>409.79999999999995</ele><time>2026-05-03T10:04:41.499Z</time></trkpt><trkpt lat="42.0680083" lon="11.9827733"><ele>405.59999999999997</ele><time>2026-05-03T10:04:43.499Z</time></trkpt><trkpt lat="42.0678983" lon="11.9827083"><ele>401.4</ele><time>2026-05-03T10:04:45.496Z</time></trkpt><trkpt lat="42.0677967" lon="11.9826483"><ele>397.2</ele><time>2026-05-03T10:04:47.502Z</time></trkpt><trkpt lat="42.06771" lon="11.9825967"><ele>393.0</ele><time>2026-05-03T10:04:49.498Z</time></trkpt><trkpt lat="42.0676483" lon="11.9825417"><ele>392.3333333333333</ele><time>2026-05-03T10:04:51.496Z</time></trkpt><trkpt lat="42.0675867" lon="11.982475"><ele>391.66666666666663</ele><time>2026-05-03T10:04:53.497Z</time></trkpt><trkpt lat="42.0675333" lon="11.98242"><ele>391.0</ele><time>2026-05-03T10:04:55.493Z</time></trkpt><trkpt lat="42.0674517" lon="11.9823817"><ele>390.3333333333333</ele><time>2026-05-03T10:04:57.495Z</time></trkpt><trkpt lat="42.0673583" lon="11.98241"><ele>389.66666666666663</ele><time>2026-05-03T10:04:59.494Z</time></trkpt><trkpt lat="42.0672783" lon="11.9824933"><ele>389.0</ele><time>2026-05-03T10:05:01.49Z</time></trkpt><trkpt lat="42.067195" lon="11.9825333"><ele>386.16666666666663</ele><time>2026-05-03T10:05:03.5Z</time></trkpt><trkpt lat="42.06713" lon="11.982505"><ele>383.3333333333333</ele><time>2026-05-03T10:05:05.504Z</time></trkpt><trkpt lat="42.0670967" lon="11.9824217"><ele>380.5</ele><time>2026-05-03T10:05:07.497Z</time></trkpt><trkpt lat="42.0670467" lon="11.9823283"><ele>377.66666666666663</ele><time>2026-05-03T10:05:09.499Z</time></trkpt><trkpt lat="42.0669867" lon="11.9822483"><ele>374.8333333333333</ele><time>2026-05-03T10:05:11.498Z</time></trkpt><trkpt lat="42.066915" lon="11.9821817"><ele>372.0</ele><time>2026-05-03T10:05:13.495Z</time></trkpt><trkpt lat="42.0668217" lon="11.9821267"><ele>372.0</ele><time>2026-05-03T10:05:15.5Z</time></trkpt><trkpt lat="42.0667367" lon="11.9820817"><ele>372.0</ele><time>2026-05-03T10:05:17.499Z</time></trkpt><trkpt lat="42.0666767" lon="11.9820483"><ele>372.0</ele><time>2026-05-03T10:05:19.495Z</time></trkpt><trkpt lat="42.0665933" lon="11.9820217"><ele>372.0</ele><time>2026-05-03T10:05:22.497Z</time></trkpt><trkpt lat="42.0665174" lon="11.9820352"><ele>372.0</ele><time>2026-05-03T10:05:24.563Z</time></trkpt><trkpt lat="42.0664392" lon="11.9820368"><ele>372.0</ele><time>2026-05-03T10:05:26.496Z</time></trkpt><trkpt lat="42.066349" lon="11.9820305"><ele>368.8333333333333</ele><time>2026-05-03T10:05:28.492Z</time></trkpt><trkpt lat="42.0662567" lon="11.9820183"><ele>365.6666666666667</ele><time>2026-05-03T10:05:30.552Z</time></trkpt><trkpt lat="42.0661717" lon="11.9819783"><ele>362.5</ele><time>2026-05-03T10:05:32.497Z</time></trkpt><trkpt lat="42.0660867" lon="11.9819533"><ele>359.33333333333337</ele><time>2026-05-03T10:05:34.497Z</time></trkpt><trkpt lat="42.0660067" lon="11.9819117"><ele>356.1666666666667</ele><time>2026-05-03T10:05:36.495Z</time></trkpt><trkpt lat="42.06594" lon="11.981855"><ele>353.0</ele><time>2026-05-03T10:05:38.492Z</time></trkpt><trkpt lat="42.0658767" lon="11.9818033"><ele>353.0</ele><time>2026-05-03T10:05:40.502Z</time></trkpt><trkpt lat="42.0658117" lon="11.98175"><ele>353.0</ele><time>2026-05-03T10:05:42.498Z</time></trkpt><trkpt lat="42.0657617" lon="11.98169"><ele>353.0</ele><time>2026-05-03T10:05:44.495Z</time></trkpt><trkpt lat="42.0657183" lon="11.9816283"><ele>353.0</ele><time>2026-05-03T10:05:46.495Z</time></trkpt><trkpt lat="42.065645" lon="11.98157"><ele>353.0</ele><time>2026-05-03T10:05:48.497Z</time></trkpt><trkpt lat="42.0655717" lon="11.98148"><ele>353.0</ele><time>2026-05-03T10:05:50.498Z</time></trkpt><trkpt lat="42.0655283" lon="11.9814117"><ele>349.79999999999995</ele><time>2026-05-03T10:05:51.498Z</time></trkpt><trkpt lat="42.0654433" lon="11.9813067"><ele>346.6</ele><time>2026-05-03T10:05:53.497Z</time></trkpt><trkpt lat="42.06537" lon="11.9812367"><ele>343.4</ele><time>2026-05-03T10:05:55.486Z</time></trkpt><trkpt lat="42.065305" lon="11.9811433"><ele>340.20000000000005</ele><time>2026-05-03T10:05:57.49Z</time></trkpt><trkpt lat="42.0652233" lon="11.9810817"><ele>337.0</ele><time>2026-05-03T10:05:59.495Z</time></trkpt><trkpt lat="42.0651433" lon="11.98102"><ele>337.0</ele><time>2026-05-03T10:06:01.492Z</time></trkpt><trkpt lat="42.0650917" lon="11.98096"><ele>337.0</ele><time>2026-05-03T10:06:03.488Z</time></trkpt><trkpt lat="42.0650167" lon="11.9809467"><ele>337.0</ele><time>2026-05-03T10:06:06.499Z</time></trkpt><trkpt lat="42.0649667" lon="11.980855"><ele>337.0</ele><time>2026-05-03T10:06:09.497Z</time></trkpt><trkpt lat="42.0649217" lon="11.980765"><ele>337.0</ele><time>2026-05-03T10:06:11.498Z</time></trkpt><trkpt lat="42.0648517" lon="11.9806983"><ele>337.0</ele><time>2026-05-03T10:06:13.494Z</time></trkpt><trkpt lat="42.06478" lon="11.98061"><ele>334.20000000000005</ele><time>2026-05-03T10:06:15.491Z</time></trkpt><trkpt lat="42.0646933" lon="11.9805167"><ele>331.4</ele><time>2026-05-03T10:06:17.493Z</time></trkpt><trkpt lat="42.0646017" lon="11.980435"><ele>328.6</ele><time>2026-05-03T10:06:19.495Z</time></trkpt><trkpt lat="42.06451" lon="11.9803517"><ele>325.79999999999995</ele><time>2026-05-03T10:06:21.509Z</time></trkpt><trkpt lat="42.0644233" lon="11.9802867"><ele>323.0</ele><time>2026-05-03T10:06:23.495Z</time></trkpt><trkpt lat="42.06433" lon="11.9802167"><ele>323.0</ele><time>2026-05-03T10:06:25.491Z</time></trkpt><trkpt lat="42.0642617" lon="11.980105"><ele>323.0</ele><time>2026-05-03T10:06:27.492Z</time></trkpt><trkpt lat="42.0642117" lon="11.979995"><ele>323.0</ele><time>2026-05-03T10:06:29.494Z</time></trkpt><trkpt lat="42.0641383" lon="11.9799083"><ele>323.0</ele><time>2026-05-03T10:06:31.495Z</time></trkpt><trkpt lat="42.0640483" lon="11.97981"><ele>323.0</ele><time>2026-05-03T10:06:33.5Z</time></trkpt><trkpt lat="42.06396" lon="11.97973"><ele>319.79999999999995</ele><time>2026-05-03T10:06:35.495Z</time></trkpt><trkpt lat="42.0639033" lon="11.9795967"><ele>316.59999999999997</ele><time>2026-05-03T10:06:37.495Z</time></trkpt><trkpt lat="42.0638783" lon="11.9795133"><ele>313.4</ele><time>2026-05-03T10:06:38.494Z</time></trkpt><trkpt lat="42.0638517" lon="11.979435"><ele>310.2</ele><time>2026-05-03T10:06:39.5Z</time></trkpt><trkpt lat="42.0637833" lon="11.9793233"><ele>307.0</ele><time>2026-05-03T10:06:41.495Z</time></trkpt><trkpt lat="42.0637133" lon="11.9792133"><ele>306.8</ele><time>2026-05-03T10:06:43.494Z</time></trkpt><trkpt lat="42.0636467" lon="11.979065"><ele>306.6</ele><time>2026-05-03T10:06:45.496Z</time></trkpt><trkpt lat="42.0636233" lon="11.9789767"><ele>306.40000000000003</ele><time>2026-05-03T10:06:46.495Z</time></trkpt><trkpt lat="42.0635917" lon="11.9789017"><ele>306.2</ele><time>2026-05-03T10:06:47.494Z</time></trkpt><trkpt lat="42.0634883" lon="11.978795"><ele>306.0</ele><time>2026-05-03T10:06:49.491Z</time></trkpt><trkpt lat="42.0633983" lon="11.97868"><ele>306.0</ele><time>2026-05-03T10:06:51.496Z</time></trkpt><trkpt lat="42.06335" lon="11.9786117"><ele>306.0</ele><time>2026-05-03T10:06:52.496Z</time></trkpt><trkpt lat="42.0633" lon="11.9785433"><ele>306.0</ele><time>2026-05-03T10:06:53.495Z</time></trkpt><trkpt lat="42.06322" lon="11.9784283"><ele>306.0</ele><time>2026-05-03T10:06:55.492Z</time></trkpt><trkpt lat="42.06317" lon="11.97833"><ele>306.0</ele><time>2026-05-03T10:06:57.493Z</time></trkpt><trkpt lat="42.06313" lon="11.978215"><ele>306.0</ele><time>2026-05-03T10:06:59.501Z</time></trkpt><trkpt lat="42.0630817" lon="11.9780817"><ele>304.8</ele><time>2026-05-03T10:07:01.498Z</time></trkpt><trkpt lat="42.0630067" lon="11.9779533"><ele>303.6</ele><time>2026-05-03T10:07:03.499Z</time></trkpt><trkpt lat="42.0629567" lon="11.9778933"><ele>302.4</ele><time>2026-05-03T10:07:04.493Z</time></trkpt><trkpt lat="42.0629067" lon="11.9778283"><ele>301.2</ele><time>2026-05-03T10:07:05.5Z</time></trkpt><trkpt lat="42.062845" lon="11.9776967"><ele>300.0</ele><time>2026-05-03T10:07:07.501Z</time></trkpt><trkpt lat="42.06278" lon="11.977575"><ele>298.2</ele><time>2026-05-03T10:07:09.497Z</time></trkpt><trkpt lat="42.0627083" lon="11.9774683"><ele>296.4</ele><time>2026-05-03T10:07:11.494Z</time></trkpt><trkpt lat="42.062625" lon="11.9773967"><ele>294.6</ele><time>2026-05-03T10:07:13.5Z</time></trkpt><trkpt lat="42.0625283" lon="11.9773983"><ele>292.8</ele><time>2026-05-03T10:07:15.488Z</time></trkpt><trkpt lat="42.0624367" lon="11.9774033"><ele>291.0</ele><time>2026-05-03T10:07:17.496Z</time></trkpt><trkpt lat="42.06234" lon="11.9773483"><ele>289.8</ele><time>2026-05-03T10:07:19.494Z</time></trkpt><trkpt lat="42.0622267" lon="11.9772733"><ele>288.6</ele><time>2026-05-03T10:07:21.497Z</time></trkpt><trkpt lat="42.062165" lon="11.9772267"><ele>287.4</ele><time>2026-05-03T10:07:22.499Z</time></trkpt><trkpt lat="42.06207" lon="11.9771333"><ele>286.2</ele><time>2026-05-03T10:07:24.563Z</time></trkpt><trkpt lat="42.0619933" lon="11.9770333"><ele>285.0</ele><time>2026-05-03T10:07:26.492Z</time></trkpt><trkpt lat="42.06191" lon="11.97695"><ele>285.0</ele><time>2026-05-03T10:07:28.495Z</time></trkpt><trkpt lat="42.061825" lon="11.9768867"><ele>285.0</ele><time>2026-05-03T10:07:30.545Z</time></trkpt><trkpt lat="42.06177" lon="11.9767917"><ele>285.0</ele><time>2026-05-03T10:07:32.494Z</time></trkpt><trkpt lat="42.0617283" lon="11.976695"><ele>285.0</ele><time>2026-05-03T10:07:34.493Z</time></trkpt><trkpt lat="42.0616917" lon="11.976615"><ele>285.0</ele><time>2026-05-03T10:07:36.496Z</time></trkpt><trkpt lat="42.06165" lon="11.9765217"><ele>285.0</ele><time>2026-05-03T10:07:38.489Z</time></trkpt><trkpt lat="42.0616217" lon="11.9764333"><ele>281.3333333333333</ele><time>2026-05-03T10:07:40.496Z</time></trkpt><trkpt lat="42.0615767" lon="11.9763467"><ele>277.6666666666667</ele><time>2026-05-03T10:07:42.498Z</time></trkpt><trkpt lat="42.0615117" lon="11.9762683"><ele>274.0</ele><time>2026-05-03T10:07:44.494Z</time></trkpt><trkpt lat="42.0614433" lon="11.9761983"><ele>270.33333333333337</ele><time>2026-05-03T10:07:46.5Z</time></trkpt><trkpt lat="42.0614217" lon="11.9761033"><ele>266.6666666666667</ele><time>2026-05-03T10:07:48.493Z</time></trkpt><trkpt lat="42.0614383" lon="11.976"><ele>263.0</ele><time>2026-05-03T10:07:50.492Z</time></trkpt><trkpt lat="42.06148" lon="11.97588"><ele>260.33333333333337</ele><time>2026-05-03T10:07:52.497Z</time></trkpt><trkpt lat="42.0615233" lon="11.9757683"><ele>257.6666666666667</ele><time>2026-05-03T10:07:54.561Z</time></trkpt><trkpt lat="42.06157" lon="11.9756833"><ele>255.0</ele><time>2026-05-03T10:07:56.494Z</time></trkpt><trkpt lat="42.06161" lon="11.97557"><ele>252.33333333333331</ele><time>2026-05-03T10:07:59.493Z</time></trkpt><trkpt lat="42.061585" lon="11.975445"><ele>249.66666666666666</ele><time>2026-05-03T10:08:02.492Z</time></trkpt><trkpt lat="42.06154" lon="11.9753433"><ele>247.0</ele><time>2026-05-03T10:08:04.49Z</time></trkpt><trkpt lat="42.061455" lon="11.9752633"><ele>247.0</ele><time>2026-05-03T10:08:06.498Z</time></trkpt><trkpt lat="42.0613517" lon="11.975185"><ele>247.0</ele><time>2026-05-03T10:08:08.497Z</time></trkpt><trkpt lat="42.06125" lon="11.975115"><ele>247.0</ele><time>2026-05-03T10:08:10.498Z</time></trkpt><trkpt lat="42.0611433" lon="11.9750533"><ele>247.0</ele><time>2026-05-03T10:08:12.498Z</time></trkpt><trkpt lat="42.06105" lon="11.9750233"><ele>247.0</ele><time>2026-05-03T10:08:14.495Z</time></trkpt><trkpt lat="42.06097" lon="11.974995"><ele>244.83333333333331</ele><time>2026-05-03T10:08:16.5Z</time></trkpt><trkpt lat="42.06087" lon="11.9749533"><ele>242.66666666666666</ele><time>2026-05-03T10:08:18.495Z</time></trkpt><trkpt lat="42.0608067" lon="11.9749217"><ele>240.5</ele><time>2026-05-03T10:08:19.497Z</time></trkpt><trkpt lat="42.0607417" lon="11.9748833"><ele>238.33333333333331</ele><time>2026-05-03T10:08:20.499Z</time></trkpt><trkpt lat="42.0606667" lon="11.974855"><ele>236.16666666666666</ele><time>2026-05-03T10:08:21.493Z</time></trkpt><trkpt lat="42.0605883" lon="11.9748367"><ele>234.0</ele><time>2026-05-03T10:08:22.496Z</time></trkpt><trkpt lat="42.0605067" lon="11.9748217"><ele>233.16666666666666</ele><time>2026-05-03T10:08:23.488Z</time></trkpt><trkpt lat="42.0604333" lon="11.9747967"><ele>232.33333333333331</ele><time>2026-05-03T10:08:24.506Z</time></trkpt><trkpt lat="42.060365" lon="11.9747617"><ele>231.5</ele><time>2026-05-03T10:08:25.489Z</time></trkpt><trkpt lat="42.0602983" lon="11.9747283"><ele>230.66666666666666</ele><time>2026-05-03T10:08:26.492Z</time></trkpt><trkpt lat="42.060235" lon="11.9747167"><ele>229.83333333333331</ele><time>2026-05-03T10:08:27.494Z</time></trkpt><trkpt lat="42.0601167" lon="11.9747433"><ele>229.0</ele><time>2026-05-03T10:08:29.496Z</time></trkpt><trkpt lat="42.0600167" lon="11.9748067"><ele>227.49999999999997</ele><time>2026-05-03T10:08:31.497Z</time></trkpt><trkpt lat="42.0599317" lon="11.97492"><ele>226.0</ele><time>2026-05-03T10:08:33.503Z</time></trkpt><trkpt lat="42.0598867" lon="11.9749867"><ele>224.5</ele><time>2026-05-03T10:08:34.5Z</time></trkpt><trkpt lat="42.0598417" lon="11.975055"><ele>223.0</ele><time>2026-05-03T10:08:35.497Z</time></trkpt><trkpt lat="42.0598" lon="11.97512"><ele>221.49999999999997</ele><time>2026-05-03T10:08:36.496Z</time></trkpt><trkpt lat="42.05972" lon="11.9752517"><ele>220.0</ele><time>2026-05-03T10:08:38.495Z</time></trkpt><trkpt lat="42.05968" lon="11.9753183"><ele>219.99999999999997</ele><time>2026-05-03T10:08:39.492Z</time></trkpt><trkpt lat="42.0596083" lon="11.9754617"><ele>220.0</ele><time>2026-05-03T10:08:41.49Z</time></trkpt><trkpt lat="42.059575" lon="11.9755417"><ele>220.0</ele><time>2026-05-03T10:08:42.496Z</time></trkpt><trkpt lat="42.059545" lon="11.9756233"><ele>220.0</ele><time>2026-05-03T10:08:43.491Z</time></trkpt><trkpt lat="42.05952" lon="11.9757067"><ele>219.99999999999997</ele><time>2026-05-03T10:08:44.501Z</time></trkpt><trkpt lat="42.0594933" lon="11.9757933"><ele>220.0</ele><time>2026-05-03T10:08:45.503Z</time></trkpt><trkpt lat="42.0594633" lon="11.97588"><ele>221.33333333333331</ele><time>2026-05-03T10:08:46.498Z</time></trkpt><trkpt lat="42.0594267" lon="11.9759717"><ele>222.66666666666666</ele><time>2026-05-03T10:08:47.495Z</time></trkpt><trkpt lat="42.05939" lon="11.9760683"><ele>224.0</ele><time>2026-05-03T10:08:48.5Z</time></trkpt><trkpt lat="42.059355" lon="11.9761633"><ele>225.33333333333331</ele><time>2026-05-03T10:08:49.502Z</time></trkpt><trkpt lat="42.0593233" lon="11.9762567"><ele>226.66666666666666</ele><time>2026-05-03T10:08:50.498Z</time></trkpt><trkpt lat="42.0592933" lon="11.9763483"><ele>228.0</ele><time>2026-05-03T10:08:51.495Z</time></trkpt><trkpt lat="42.0592617" lon="11.9764433"><ele>228.0</ele><time>2026-05-03T10:08:52.495Z</time></trkpt><trkpt lat="42.05923" lon="11.9765367"><ele>228.0</ele><time>2026-05-03T10:08:53.494Z</time></trkpt><trkpt lat="42.0591967" lon="11.97662"><ele>228.0</ele><time>2026-05-03T10:08:54.562Z</time></trkpt><trkpt lat="42.0591317" lon="11.9767583"><ele>228.0</ele><time>2026-05-03T10:08:56.492Z</time></trkpt><trkpt lat="42.059055" lon="11.976905"><ele>228.0</ele><time>2026-05-03T10:08:58.493Z</time></trkpt><trkpt lat="42.0590017" lon="11.9769933"><ele>226.83333333333334</ele><time>2026-05-03T10:08:59.493Z</time></trkpt><trkpt lat="42.0589433" lon="11.9770867"><ele>225.66666666666669</ele><time>2026-05-03T10:09:00.544Z</time></trkpt><trkpt lat="42.0588817" lon="11.9771717"><ele>224.5</ele><time>2026-05-03T10:09:01.497Z</time></trkpt><trkpt lat="42.05882" lon="11.9772517"><ele>223.33333333333334</ele><time>2026-05-03T10:09:02.491Z</time></trkpt><trkpt lat="42.058765" lon="11.97733"><ele>222.16666666666669</ele><time>2026-05-03T10:09:03.494Z</time></trkpt><trkpt lat="42.05871" lon="11.97741"><ele>221.0</ele><time>2026-05-03T10:09:04.5Z</time></trkpt><trkpt lat="42.05865" lon="11.9774733"><ele>221.00000000000003</ele><time>2026-05-03T10:09:05.49Z</time></trkpt><trkpt lat="42.0585917" lon="11.9775183"><ele>221.0</ele><time>2026-05-03T10:09:06.496Z</time></trkpt><trkpt lat="42.058525" lon="11.977535"><ele>221.0</ele><time>2026-05-03T10:09:07.497Z</time></trkpt><trkpt lat="42.058445" lon="11.97753"><ele>221.0</ele><time>2026-05-03T10:09:08.501Z</time></trkpt><trkpt lat="42.0583583" lon="11.9775133"><ele>221.00000000000003</ele><time>2026-05-03T10:09:09.502Z</time></trkpt><trkpt lat="42.0582733" lon="11.977475"><ele>221.0</ele><time>2026-05-03T10:09:10.5Z</time></trkpt><trkpt lat="42.0581883" lon="11.9774133"><ele>218.8</ele><time>2026-05-03T10:09:11.498Z</time></trkpt><trkpt lat="42.058105" lon="11.9773383"><ele>216.60000000000002</ele><time>2026-05-03T10:09:12.494Z</time></trkpt><trkpt lat="42.0580217" lon="11.9772633"><ele>214.4</ele><time>2026-05-03T10:09:13.501Z</time></trkpt><trkpt lat="42.05793" lon="11.9771967"><ele>212.2</ele><time>2026-05-03T10:09:14.496Z</time></trkpt><trkpt lat="42.0578417" lon="11.9771383"><ele>210.0</ele><time>2026-05-03T10:09:15.497Z</time></trkpt><trkpt lat="42.0577583" lon="11.9770817"><ele>210.0</ele><time>2026-05-03T10:09:16.495Z</time></trkpt><trkpt lat="42.05768" lon="11.9770217"><ele>210.0</ele><time>2026-05-03T10:09:17.493Z</time></trkpt><trkpt lat="42.0576067" lon="11.9769617"><ele>210.0</ele><time>2026-05-03T10:09:18.499Z</time></trkpt><trkpt lat="42.057545" lon="11.9769117"><ele>210.0</ele><time>2026-05-03T10:09:19.499Z</time></trkpt><trkpt lat="42.0574267" lon="11.9768533"><ele>210.0</ele><time>2026-05-03T10:09:21.501Z</time></trkpt><trkpt lat="42.0573467" lon="11.9768317"><ele>206.5</ele><time>2026-05-03T10:09:22.498Z</time></trkpt><trkpt lat="42.0572383" lon="11.9767983"><ele>203.0</ele><time>2026-05-03T10:09:23.506Z</time></trkpt><trkpt lat="42.05712" lon="11.9767567"><ele>199.5</ele><time>2026-05-03T10:09:24.493Z</time></trkpt><trkpt lat="42.0570033" lon="11.9767167"><ele>196.0</ele><time>2026-05-03T10:09:25.502Z</time></trkpt><trkpt lat="42.056885" lon="11.9766817"><ele>196.0</ele><time>2026-05-03T10:09:26.499Z</time></trkpt><trkpt lat="42.05677" lon="11.9766533"><ele>196.0</ele><time>2026-05-03T10:09:27.507Z</time></trkpt><trkpt lat="42.0566633" lon="11.976625"><ele>196.0</ele><time>2026-05-03T10:09:28.5Z</time></trkpt><trkpt lat="42.05657" lon="11.9765933"><ele>196.0</ele><time>2026-05-03T10:09:29.504Z</time></trkpt><trkpt lat="42.0564867" lon="11.976555"><ele>196.0</ele><time>2026-05-03T10:09:30.498Z</time></trkpt><trkpt lat="42.05641" lon="11.976515"><ele>194.20000000000002</ele><time>2026-05-03T10:09:31.499Z</time></trkpt><trkpt lat="42.0563417" lon="11.9764883"><ele>192.4</ele><time>2026-05-03T10:09:32.497Z</time></trkpt><trkpt lat="42.0562267" lon="11.9765"><ele>190.6</ele><time>2026-05-03T10:09:34.49Z</time></trkpt><trkpt lat="42.0561267" lon="11.976495"><ele>188.8</ele><time>2026-05-03T10:09:36.497Z</time></trkpt><trkpt lat="42.0560117" lon="11.9765017"><ele>187.0</ele><time>2026-05-03T10:09:38.495Z</time></trkpt><trkpt lat="42.0559117" lon="11.9765167"><ele>184.8</ele><time>2026-05-03T10:09:40.501Z</time></trkpt><trkpt lat="42.0557717" lon="11.9764967"><ele>182.6</ele><time>2026-05-03T10:09:42.495Z</time></trkpt><trkpt lat="42.055685" lon="11.9764867"><ele>180.4</ele><time>2026-05-03T10:09:43.494Z</time></trkpt><trkpt lat="42.0555933" lon="11.97648"><ele>178.20000000000002</ele><time>2026-05-03T10:09:44.498Z</time></trkpt><trkpt lat="42.0555083" lon="11.97648"><ele>176.0</ele><time>2026-05-03T10:09:45.499Z</time></trkpt><trkpt lat="42.055435" lon="11.9764917"><ele>176.0</ele><time>2026-05-03T10:09:46.492Z</time></trkpt><trkpt lat="42.05537" lon="11.97652"><ele>176.0</ele><time>2026-05-03T10:09:47.494Z</time></trkpt><trkpt lat="42.0553133" lon="11.9765667"><ele>176.0</ele><time>2026-05-03T10:09:48.496Z</time></trkpt><trkpt lat="42.055265" lon="11.976625"><ele>176.0</ele><time>2026-05-03T10:09:49.494Z</time></trkpt><trkpt lat="42.0552133" lon="11.97669"><ele>176.0</ele><time>2026-05-03T10:09:50.497Z</time></trkpt><trkpt lat="42.0551633" lon="11.9767567"><ele>176.0</ele><time>2026-05-03T10:09:51.496Z</time></trkpt><trkpt lat="42.0551167" lon="11.9768167"><ele>176.0</ele><time>2026-05-03T10:09:52.497Z</time></trkpt><trkpt lat="42.05506" lon="11.976865"><ele>176.0</ele><time>2026-05-03T10:09:53.496Z</time></trkpt><trkpt lat="42.0549867" lon="11.976905"><ele>176.0</ele><time>2026-05-03T10:09:54.561Z</time></trkpt><trkpt lat="42.0548983" lon="11.9769383"><ele>176.0</ele><time>2026-05-03T10:09:55.49Z</time></trkpt><trkpt lat="42.0548083" lon="11.976965"><ele>176.0</ele><time>2026-05-03T10:09:56.497Z</time></trkpt><trkpt lat="42.0547233" lon="11.9769867"><ele>176.0</ele><time>2026-05-03T10:09:57.495Z</time></trkpt><trkpt lat="42.0546467" lon="11.9770033"><ele>176.0</ele><time>2026-05-03T10:09:58.493Z</time></trkpt><trkpt lat="42.054575" lon="11.977015"><ele>176.0</ele><time>2026-05-03T10:09:59.494Z</time></trkpt><trkpt lat="42.05451" lon="11.9770317"><ele>176.0</ele><time>2026-05-03T10:10:00.54Z</time></trkpt><trkpt lat="42.0544483" lon="11.9770583"><ele>176.0</ele><time>2026-05-03T10:10:01.492Z</time></trkpt><trkpt lat="42.0543433" lon="11.977135"><ele>176.0</ele><time>2026-05-03T10:10:03.494Z</time></trkpt><trkpt lat="42.054265" lon="11.9772217"><ele>176.0</ele><time>2026-05-03T10:10:05.5Z</time></trkpt><trkpt lat="42.0541983" lon="11.9772317"><ele>176.0</ele><time>2026-05-03T10:10:08.493Z</time></trkpt><trkpt lat="42.054115" lon="11.9771617"><ele>176.0</ele><time>2026-05-03T10:10:43.502Z</time></trkpt><trkpt lat="42.054035" lon="11.977135"><ele>176.0</ele><time>2026-05-03T10:11:12.498Z</time></trkpt><trkpt lat="42.0539317" lon="11.9771317"><ele>176.0</ele><time>2026-05-03T10:11:14.492Z</time></trkpt><trkpt lat="42.053865" lon="11.9771167"><ele>176.0</ele><time>2026-05-03T10:11:15.502Z</time></trkpt><trkpt lat="42.0537833" lon="11.977085"><ele>176.0</ele><time>2026-05-03T10:11:16.497Z</time></trkpt><trkpt lat="42.053695" lon="11.9770383"><ele>176.0</ele><time>2026-05-03T10:11:17.501Z</time></trkpt><trkpt lat="42.053595" lon="11.9769833"><ele>176.0</ele><time>2026-05-03T10:11:18.493Z</time></trkpt><trkpt lat="42.053495" lon="11.9769183"><ele>176.0</ele><time>2026-05-03T10:11:19.498Z</time></trkpt><trkpt lat="42.0533983" lon="11.97685"><ele>176.0</ele><time>2026-05-03T10:11:20.496Z</time></trkpt><trkpt lat="42.0533117" lon="11.976775"><ele>176.0</ele><time>2026-05-03T10:11:21.495Z</time></trkpt><trkpt lat="42.05323" lon="11.9766983"><ele>176.0</ele><time>2026-05-03T10:11:22.496Z</time></trkpt><trkpt lat="42.053155" lon="11.9766183"><ele>176.0</ele><time>2026-05-03T10:11:23.503Z</time></trkpt><trkpt lat="42.0530883" lon="11.97653"><ele>176.0</ele><time>2026-05-03T10:11:24.559Z</time></trkpt><trkpt lat="42.05303" lon="11.97643"><ele>176.0</ele><time>2026-05-03T10:11:25.49Z</time></trkpt><trkpt lat="42.0529783" lon="11.9763233"><ele>176.0</ele><time>2026-05-03T10:11:26.49Z</time></trkpt><trkpt lat="42.0529383" lon="11.9762317"><ele>176.0</ele><time>2026-05-03T10:11:27.499Z</time></trkpt><trkpt lat="42.0528917" lon="11.9761583"><ele>176.0</ele><time>2026-05-03T10:11:28.499Z</time></trkpt><trkpt lat="42.0528233" lon="11.9760867"><ele>176.0</ele><time>2026-05-03T10:11:29.499Z</time></trkpt><trkpt lat="42.05275" lon="11.9760133"><ele>176.0</ele><time>2026-05-03T10:11:30.528Z</time></trkpt><trkpt lat="42.052675" lon="11.9759417"><ele>176.0</ele><time>2026-05-03T10:11:31.492Z</time></trkpt><trkpt lat="42.0526033" lon="11.9758817"><ele>176.0</ele><time>2026-05-03T10:11:32.496Z</time></trkpt><trkpt lat="42.052525" lon="11.975845"><ele>176.0</ele><time>2026-05-03T10:11:33.493Z</time></trkpt><trkpt lat="42.052435" lon="11.9758283"><ele>176.0</ele><time>2026-05-03T10:11:34.499Z</time></trkpt><trkpt lat="42.052345" lon="11.975805"><ele>176.33333333333331</ele><time>2026-05-03T10:11:35.495Z</time></trkpt><trkpt lat="42.0522683" lon="11.9757683"><ele>176.66666666666666</ele><time>2026-05-03T10:11:36.501Z</time></trkpt><trkpt lat="42.05219" lon="11.975725"><ele>177.0</ele><time>2026-05-03T10:11:37.497Z</time></trkpt><trkpt lat="42.05211" lon="11.975685"><ele>177.33333333333334</ele><time>2026-05-03T10:11:38.5Z</time></trkpt><trkpt lat="42.0520317" lon="11.9756567"><ele>177.66666666666669</ele><time>2026-05-03T10:11:39.497Z</time></trkpt><trkpt lat="42.051945" lon="11.9756333"><ele>178.0</ele><time>2026-05-03T10:11:40.496Z</time></trkpt><trkpt lat="42.0518533" lon="11.975605"><ele>178.0</ele><time>2026-05-03T10:11:41.499Z</time></trkpt><trkpt lat="42.0517633" lon="11.9755683"><ele>178.0</ele><time>2026-05-03T10:11:42.496Z</time></trkpt><trkpt lat="42.0516717" lon="11.97552"><ele>178.0</ele><time>2026-05-03T10:11:43.501Z</time></trkpt><trkpt lat="42.0515733" lon="11.9754633"><ele>178.0</ele><time>2026-05-03T10:11:44.495Z</time></trkpt><trkpt lat="42.0514667" lon="11.97541"><ele>178.0</ele><time>2026-05-03T10:11:45.499Z</time></trkpt><trkpt lat="42.0513567" lon="11.975365"><ele>176.60000000000002</ele><time>2026-05-03T10:11:46.496Z</time></trkpt><trkpt lat="42.051245" lon="11.975325"><ele>175.20000000000002</ele><time>2026-05-03T10:11:47.494Z</time></trkpt><trkpt lat="42.0511383" lon="11.9752867"><ele>173.8</ele><time>2026-05-03T10:11:48.494Z</time></trkpt><trkpt lat="42.0510383" lon="11.975245"><ele>172.4</ele><time>2026-05-03T10:11:49.49Z</time></trkpt><trkpt lat="42.050945" lon="11.97519"><ele>171.0</ele><time>2026-05-03T10:11:50.496Z</time></trkpt><trkpt lat="42.05086" lon="11.9751283"><ele>170.0</ele><time>2026-05-03T10:11:51.496Z</time></trkpt><trkpt lat="42.0507833" lon="11.9750583"><ele>169.0</ele><time>2026-05-03T10:11:52.497Z</time></trkpt><trkpt lat="42.0507083" lon="11.9749817"><ele>168.0</ele><time>2026-05-03T10:11:53.493Z</time></trkpt><trkpt lat="42.0506233" lon="11.974895"><ele>167.0</ele><time>2026-05-03T10:11:54.559Z</time></trkpt><trkpt lat="42.0505333" lon="11.9747917"><ele>166.0</ele><time>2026-05-03T10:11:55.489Z</time></trkpt><trkpt lat="42.0504433" lon="11.974675"><ele>165.75</ele><time>2026-05-03T10:11:56.491Z</time></trkpt><trkpt lat="42.0503517" lon="11.9745517"><ele>165.5</ele><time>2026-05-03T10:11:57.489Z</time></trkpt><trkpt lat="42.050265" lon="11.974425"><ele>165.25</ele><time>2026-05-03T10:11:58.494Z</time></trkpt><trkpt lat="42.0501833" lon="11.9742917"><ele>165.0</ele><time>2026-05-03T10:11:59.499Z</time></trkpt><trkpt lat="42.0501083" lon="11.9741533"><ele>166.0</ele><time>2026-05-03T10:12:00.561Z</time></trkpt><trkpt lat="42.0500333" lon="11.97402"><ele>167.0</ele><time>2026-05-03T10:12:01.493Z</time></trkpt><trkpt lat="42.049955" lon="11.9739017"><ele>168.0</ele><time>2026-05-03T10:12:02.494Z</time></trkpt><trkpt lat="42.0498717" lon="11.9738033"><ele>169.0</ele><time>2026-05-03T10:12:03.49Z</time></trkpt><trkpt lat="42.049775" lon="11.9737317"><ele>167.0</ele><time>2026-05-03T10:12:04.49Z</time></trkpt><trkpt lat="42.0496733" lon="11.9736833"><ele>165.0</ele><time>2026-05-03T10:12:05.498Z</time></trkpt><trkpt lat="42.049575" lon="11.97364"><ele>163.0</ele><time>2026-05-03T10:12:06.492Z</time></trkpt><trkpt lat="42.0494833" lon="11.9735933"><ele>161.0</ele><time>2026-05-03T10:12:07.498Z</time></trkpt><trkpt lat="42.0494017" lon="11.9735333"><ele>159.0</ele><time>2026-05-03T10:12:08.493Z</time></trkpt><trkpt lat="42.0493333" lon="11.9734533"><ele>160.2</ele><time>2026-05-03T10:12:09.499Z</time></trkpt><trkpt lat="42.0492783" lon="11.973355"><ele>161.4</ele><time>2026-05-03T10:12:10.502Z</time></trkpt><trkpt lat="42.0492383" lon="11.973245"><ele>162.6</ele><time>2026-05-03T10:12:11.495Z</time></trkpt><trkpt lat="42.049205" lon="11.97312"><ele>163.8</ele><time>2026-05-03T10:12:12.499Z</time></trkpt><trkpt lat="42.0491783" lon="11.9729833"><ele>165.0</ele><time>2026-05-03T10:12:13.502Z</time></trkpt><trkpt lat="42.0491633" lon="11.9728467"><ele>165.0</ele><time>2026-05-03T10:12:14.499Z</time></trkpt><trkpt lat="42.04916" lon="11.9726967"><ele>165.0</ele><time>2026-05-03T10:12:15.494Z</time></trkpt><trkpt lat="42.0491683" lon="11.97253"><ele>165.0</ele><time>2026-05-03T10:12:16.497Z</time></trkpt><trkpt lat="42.0491733" lon="11.9723633"><ele>165.0</ele><time>2026-05-03T10:12:17.497Z</time></trkpt><trkpt lat="42.0491733" lon="11.9722117"><ele>166.0</ele><time>2026-05-03T10:12:18.501Z</time></trkpt><trkpt lat="42.0491533" lon="11.97207"><ele>167.0</ele><time>2026-05-03T10:12:19.496Z</time></trkpt><trkpt lat="42.0491183" lon="11.9719283"><ele>168.0</ele><time>2026-05-03T10:12:20.496Z</time></trkpt><trkpt lat="42.0490683" lon="11.9717867"><ele>169.0</ele><time>2026-05-03T10:12:21.491Z</time></trkpt><trkpt lat="42.0490133" lon="11.9716417"><ele>166.6</ele><time>2026-05-03T10:12:22.493Z</time></trkpt><trkpt lat="42.0489567" lon="11.9714883"><ele>164.2</ele><time>2026-05-03T10:12:23.499Z</time></trkpt><trkpt lat="42.0489033" lon="11.97135"><ele>161.79999999999998</ele><time>2026-05-03T10:12:24.561Z</time></trkpt><trkpt lat="42.0488533" lon="11.97123"><ele>159.39999999999998</ele><time>2026-05-03T10:12:25.493Z</time></trkpt><trkpt lat="42.0487933" lon="11.971125"><ele>157.0</ele><time>2026-05-03T10:12:26.491Z</time></trkpt><trkpt lat="42.04872" lon="11.9710367"><ele>157.0</ele><time>2026-05-03T10:12:27.497Z</time></trkpt><trkpt lat="42.0486333" lon="11.9709617"><ele>157.0</ele><time>2026-05-03T10:12:28.495Z</time></trkpt><trkpt lat="42.0485367" lon="11.970895"><ele>157.0</ele><time>2026-05-03T10:12:29.495Z</time></trkpt><trkpt lat="42.0484267" lon="11.970835"><ele>157.0</ele><time>2026-05-03T10:12:30.538Z</time></trkpt><trkpt lat="42.0483183" lon="11.9707867"><ele>157.0</ele><time>2026-05-03T10:12:31.496Z</time></trkpt><trkpt lat="42.0482183" lon="11.97074"><ele>154.79999999999998</ele><time>2026-05-03T10:12:32.495Z</time></trkpt><trkpt lat="42.0481167" lon="11.97069"><ele>152.6</ele><time>2026-05-03T10:12:33.495Z</time></trkpt><trkpt lat="42.048015" lon="11.9706383"><ele>150.39999999999998</ele><time>2026-05-03T10:12:34.493Z</time></trkpt><trkpt lat="42.0479117" lon="11.970585"><ele>148.2</ele><time>2026-05-03T10:12:35.498Z</time></trkpt><trkpt lat="42.04781" lon="11.9705233"><ele>146.0</ele><time>2026-05-03T10:12:36.499Z</time></trkpt><trkpt lat="42.04771" lon="11.9704583"><ele>146.0</ele><time>2026-05-03T10:12:37.497Z</time></trkpt><trkpt lat="42.047615" lon="11.9703833"><ele>146.0</ele><time>2026-05-03T10:12:38.497Z</time></trkpt><trkpt lat="42.0475233" lon="11.970295"><ele>146.0</ele><time>2026-05-03T10:12:39.499Z</time></trkpt><trkpt lat="42.0474367" lon="11.9701883"><ele>146.0</ele><time>2026-05-03T10:12:40.498Z</time></trkpt><trkpt lat="42.04735" lon="11.970075"><ele>141.75</ele><time>2026-05-03T10:12:41.499Z</time></trkpt><trkpt lat="42.0472567" lon="11.96997"><ele>137.5</ele><time>2026-05-03T10:12:42.494Z</time></trkpt><trkpt lat="42.0471617" lon="11.9698733"><ele>133.25</ele><time>2026-05-03T10:12:43.494Z</time></trkpt><trkpt lat="42.0470667" lon="11.969795"><ele>129.0</ele><time>2026-05-03T10:12:44.496Z</time></trkpt><trkpt lat="42.0469717" lon="11.969745"><ele>129.0</ele><time>2026-05-03T10:12:45.494Z</time></trkpt><trkpt lat="42.0468683" lon="11.9697217"><ele>129.0</ele><time>2026-05-03T10:12:46.496Z</time></trkpt><trkpt lat="42.04676" lon="11.9697033"><ele>129.0</ele><time>2026-05-03T10:12:47.49Z</time></trkpt><trkpt lat="42.0466483" lon="11.9696667"><ele>129.0</ele><time>2026-05-03T10:12:48.495Z</time></trkpt><trkpt lat="42.0465267" lon="11.9696117"><ele>126.75</ele><time>2026-05-03T10:12:49.497Z</time></trkpt><trkpt lat="42.0463967" lon="11.969545"><ele>124.5</ele><time>2026-05-03T10:12:50.496Z</time></trkpt><trkpt lat="42.0462633" lon="11.9694733"><ele>122.25</ele><time>2026-05-03T10:12:51.501Z</time></trkpt><trkpt lat="42.0461367" lon="11.96941"><ele>120.0</ele><time>2026-05-03T10:12:52.498Z</time></trkpt><trkpt lat="42.0460167" lon="11.96936"><ele>120.0</ele><time>2026-05-03T10:12:53.495Z</time></trkpt><trkpt lat="42.0459" lon="11.9693233"><ele>120.0</ele><time>2026-05-03T10:12:54.542Z</time></trkpt><trkpt lat="42.0457917" lon="11.9692917"><ele>120.0</ele><time>2026-05-03T10:12:55.491Z</time></trkpt><trkpt lat="42.0456933" lon="11.9692517"><ele>120.0</ele><time>2026-05-03T10:12:56.501Z</time></trkpt><trkpt lat="42.045605" lon="11.969205"><ele>120.0</ele><time>2026-05-03T10:12:57.5Z</time></trkpt><trkpt lat="42.045525" lon="11.9691417"><ele>119.0</ele><time>2026-05-03T10:12:58.489Z</time></trkpt><trkpt lat="42.0454533" lon="11.9690667"><ele>118.0</ele><time>2026-05-03T10:12:59.505Z</time></trkpt><trkpt lat="42.045385" lon="11.9689883"><ele>117.0</ele><time>2026-05-03T10:13:00.553Z</time></trkpt><trkpt lat="42.045325" lon="11.9689083"><ele>116.0</ele><time>2026-05-03T10:13:01.494Z</time></trkpt><trkpt lat="42.0452683" lon="11.9688333"><ele>115.0</ele><time>2026-05-03T10:13:02.49Z</time></trkpt><trkpt lat="42.045215" lon="11.96877"><ele>114.0</ele><time>2026-05-03T10:13:03.493Z</time></trkpt><trkpt lat="42.0451583" lon="11.9687133"><ele>114.0</ele><time>2026-05-03T10:13:04.499Z</time></trkpt><trkpt lat="42.045095" lon="11.968665"><ele>113.99999999999999</ele><time>2026-05-03T10:13:05.492Z</time></trkpt><trkpt lat="42.04503" lon="11.9686333"><ele>114.0</ele><time>2026-05-03T10:13:06.492Z</time></trkpt><trkpt lat="42.044965" lon="11.9686117"><ele>114.0</ele><time>2026-05-03T10:13:07.497Z</time></trkpt><trkpt lat="42.0449033" lon="11.9685933"><ele>113.99999999999999</ele><time>2026-05-03T10:13:08.494Z</time></trkpt><trkpt lat="42.0448133" lon="11.9685433"><ele>114.0</ele><time>2026-05-03T10:13:10.497Z</time></trkpt><trkpt lat="42.0447833" lon="11.96846"><ele>114.0</ele><time>2026-05-03T10:13:12.496Z</time></trkpt><trkpt lat="42.0447817" lon="11.9683367"><ele>110.4</ele><time>2026-05-03T10:13:14.496Z</time></trkpt><trkpt lat="42.044725" lon="11.9682233"><ele>106.80000000000001</ele><time>2026-05-03T10:13:16.495Z</time></trkpt><trkpt lat="42.044675" lon="11.9681133"><ele>103.19999999999999</ele><time>2026-05-03T10:13:18.491Z</time></trkpt><trkpt lat="42.0446833" lon="11.9679583"><ele>99.6</ele><time>2026-05-03T10:13:20.496Z</time></trkpt><trkpt lat="42.0447017" lon="11.9678733"><ele>96.0</ele><time>2026-05-03T10:13:21.499Z</time></trkpt><trkpt lat="42.0446883" lon="11.9677233"><ele>96.0</ele><time>2026-05-03T10:13:23.49Z</time></trkpt><trkpt lat="42.0446083" lon="11.9676633"><ele>96.0</ele><time>2026-05-03T10:13:25.493Z</time></trkpt><trkpt lat="42.0445417" lon="11.9676517"><ele>96.0</ele><time>2026-05-03T10:13:27.494Z</time></trkpt><trkpt lat="42.0444533" lon="11.9676817"><ele>96.0</ele><time>2026-05-03T10:13:52.498Z</time></trkpt><trkpt lat="42.0443533" lon="11.9677167"><ele>96.0</ele><time>2026-05-03T10:14:25.485Z</time></trkpt><trkpt lat="42.0442567" lon="11.9677667"><ele>96.0</ele><time>2026-05-03T10:14:27.494Z</time></trkpt><trkpt lat="42.0441317" lon="11.96782"><ele>96.0</ele><time>2026-05-03T10:14:29.493Z</time></trkpt><trkpt lat="42.044065" lon="11.96785"><ele>96.0</ele><time>2026-05-03T10:14:30.545Z</time></trkpt><trkpt lat="42.0439917" lon="11.9678817"><ele>96.0</ele><time>2026-05-03T10:14:31.492Z</time></trkpt><trkpt lat="42.0439183" lon="11.9679117"><ele>96.0</ele><time>2026-05-03T10:14:32.497Z</time></trkpt><trkpt lat="42.04385" lon="11.9679333"><ele>96.0</ele><time>2026-05-03T10:14:33.492Z</time></trkpt><trkpt lat="42.04378" lon="11.9679417"><ele>95.14285714285714</ele><time>2026-05-03T10:14:34.495Z</time></trkpt><trkpt lat="42.0437083" lon="11.967935"><ele>94.28571428571428</ele><time>2026-05-03T10:14:35.496Z</time></trkpt><trkpt lat="42.0436383" lon="11.9679133"><ele>93.42857142857142</ele><time>2026-05-03T10:14:36.491Z</time></trkpt><trkpt lat="42.0435733" lon="11.96788"><ele>92.57142857142857</ele><time>2026-05-03T10:14:37.492Z</time></trkpt><trkpt lat="42.0435167" lon="11.96783"><ele>91.71428571428572</ele><time>2026-05-03T10:14:38.492Z</time></trkpt><trkpt lat="42.0434683" lon="11.96776"><ele>90.85714285714285</ele><time>2026-05-03T10:14:39.495Z</time></trkpt><trkpt lat="42.0434317" lon="11.9676733"><ele>90.0</ele><time>2026-05-03T10:14:40.496Z</time></trkpt><trkpt lat="42.0433933" lon="11.96758"><ele>91.0</ele><time>2026-05-03T10:14:41.492Z</time></trkpt><trkpt lat="42.04335" lon="11.967485"><ele>92.0</ele><time>2026-05-03T10:14:42.495Z</time></trkpt><trkpt lat="42.0432933" lon="11.9673967"><ele>93.0</ele><time>2026-05-03T10:14:43.495Z</time></trkpt><trkpt lat="42.0432267" lon="11.967315"><ele>94.0</ele><time>2026-05-03T10:14:44.496Z</time></trkpt><trkpt lat="42.0431517" lon="11.9672333"><ele>95.0</ele><time>2026-05-03T10:14:45.492Z</time></trkpt><trkpt lat="42.043065" lon="11.9671483"><ele>92.25</ele><time>2026-05-03T10:14:46.49Z</time></trkpt><trkpt lat="42.042975" lon="11.9670567"><ele>89.5</ele><time>2026-05-03T10:14:47.499Z</time></trkpt><trkpt lat="42.0428783" lon="11.966965"><ele>86.75</ele><time>2026-05-03T10:14:48.494Z</time></trkpt><trkpt lat="42.0427833" lon="11.9668767"><ele>84.0</ele><time>2026-05-03T10:14:49.491Z</time></trkpt><trkpt lat="42.04269" lon="11.9667933"><ele>84.0</ele><time>2026-05-03T10:14:50.495Z</time></trkpt><trkpt lat="42.0425983" lon="11.9667133"><ele>84.0</ele><time>2026-05-03T10:14:51.497Z</time></trkpt><trkpt lat="42.042505" lon="11.9666367"><ele>84.0</ele><time>2026-05-03T10:14:52.497Z</time></trkpt><trkpt lat="42.0424117" lon="11.9665517"><ele>84.0</ele><time>2026-05-03T10:14:53.498Z</time></trkpt><trkpt lat="42.042315" lon="11.96646"><ele>84.0</ele><time>2026-05-03T10:14:54.561Z</time></trkpt><trkpt lat="42.0422117" lon="11.9663667"><ele>83.0</ele><time>2026-05-03T10:14:55.493Z</time></trkpt><trkpt lat="42.042105" lon="11.9662733"><ele>82.0</ele><time>2026-05-03T10:14:56.489Z</time></trkpt><trkpt lat="42.0420017" lon="11.966185"><ele>81.0</ele><time>2026-05-03T10:14:57.498Z</time></trkpt><trkpt lat="42.0419033" lon="11.966105"><ele>80.0</ele><time>2026-05-03T10:14:58.492Z</time></trkpt><trkpt lat="42.0418033" lon="11.96604"><ele>80.0</ele><time>2026-05-03T10:14:59.494Z</time></trkpt><trkpt lat="42.0417017" lon="11.9659883"><ele>80.0</ele><time>2026-05-03T10:15:00.548Z</time></trkpt><trkpt lat="42.0415917" lon="11.96595"><ele>80.0</ele><time>2026-05-03T10:15:01.496Z</time></trkpt><trkpt lat="42.04148" lon="11.9659267"><ele>80.0</ele><time>2026-05-03T10:15:02.496Z</time></trkpt><trkpt lat="42.0413617" lon="11.9659217"><ele>81.2</ele><time>2026-05-03T10:15:03.499Z</time></trkpt><trkpt lat="42.0412417" lon="11.9659233"><ele>82.4</ele><time>2026-05-03T10:15:04.495Z</time></trkpt><trkpt lat="42.04113" lon="11.9659217"><ele>83.6</ele><time>2026-05-03T10:15:05.497Z</time></trkpt><trkpt lat="42.041025" lon="11.96591"><ele>84.8</ele><time>2026-05-03T10:15:06.491Z</time></trkpt><trkpt lat="42.0409217" lon="11.9658917"><ele>86.0</ele><time>2026-05-03T10:15:07.492Z</time></trkpt><trkpt lat="42.0408167" lon="11.96586"><ele>85.6</ele><time>2026-05-03T10:15:08.496Z</time></trkpt><trkpt lat="42.040705" lon="11.9658217"><ele>85.19999999999999</ele><time>2026-05-03T10:15:09.494Z</time></trkpt><trkpt lat="42.0405933" lon="11.9657817"><ele>84.80000000000001</ele><time>2026-05-03T10:15:10.493Z</time></trkpt><trkpt lat="42.040485" lon="11.965755"><ele>84.4</ele><time>2026-05-03T10:15:11.499Z</time></trkpt><trkpt lat="42.0403867" lon="11.9657367"><ele>84.0</ele><time>2026-05-03T10:15:12.497Z</time></trkpt><trkpt lat="42.0402917" lon="11.965715"><ele>84.0</ele><time>2026-05-03T10:15:13.495Z</time></trkpt><trkpt lat="42.0401917" lon="11.9656833"><ele>84.0</ele><time>2026-05-03T10:15:14.492Z</time></trkpt><trkpt lat="42.0400917" lon="11.96564"><ele>84.0</ele><time>2026-05-03T10:15:15.492Z</time></trkpt><trkpt lat="42.0399883" lon="11.965595"><ele>84.0</ele><time>2026-05-03T10:15:16.493Z</time></trkpt><trkpt lat="42.0398883" lon="11.9655583"><ele>84.0</ele><time>2026-05-03T10:15:17.494Z</time></trkpt><trkpt lat="42.0397917" lon="11.9655267"><ele>82.60000000000001</ele><time>2026-05-03T10:15:18.494Z</time></trkpt><trkpt lat="42.0396983" lon="11.965505"><ele>81.2</ele><time>2026-05-03T10:15:19.495Z</time></trkpt><trkpt lat="42.0396067" lon="11.9655067"><ele>79.80000000000001</ele><time>2026-05-03T10:15:20.495Z</time></trkpt><trkpt lat="42.0395067" lon="11.9655317"><ele>78.4</ele><time>2026-05-03T10:15:21.491Z</time></trkpt><trkpt lat="42.0394033" lon="11.965565"><ele>77.0</ele><time>2026-05-03T10:15:22.485Z</time></trkpt><trkpt lat="42.0393033" lon="11.965605"><ele>77.0</ele><time>2026-05-03T10:15:23.513Z</time></trkpt><trkpt lat="42.0392083" lon="11.9656433"><ele>77.0</ele><time>2026-05-03T10:15:24.546Z</time></trkpt><trkpt lat="42.03912" lon="11.96567"><ele>77.0</ele><time>2026-05-03T10:15:25.497Z</time></trkpt><trkpt lat="42.0390383" lon="11.96568"><ele>77.0</ele><time>2026-05-03T10:15:26.5Z</time></trkpt><trkpt lat="42.0389517" lon="11.965675"><ele>77.0</ele><time>2026-05-03T10:15:27.497Z</time></trkpt><trkpt lat="42.0388583" lon="11.965655"><ele>73.8</ele><time>2026-05-03T10:15:28.49Z</time></trkpt><trkpt lat="42.03876" lon="11.9656233"><ele>70.6</ele><time>2026-05-03T10:15:29.496Z</time></trkpt><trkpt lat="42.0386633" lon="11.96559"><ele>67.39999999999999</ele><time>2026-05-03T10:15:30.545Z</time></trkpt><trkpt lat="42.0385733" lon="11.96554"><ele>64.2</ele><time>2026-05-03T10:15:31.492Z</time></trkpt><trkpt lat="42.0384833" lon="11.9654633"><ele>61.0</ele><time>2026-05-03T10:15:32.49Z</time></trkpt><trkpt lat="42.0383917" lon="11.9653717"><ele>61.0</ele><time>2026-05-03T10:15:33.496Z</time></trkpt><trkpt lat="42.0383033" lon="11.9652867"><ele>60.99999999999999</ele><time>2026-05-03T10:15:34.492Z</time></trkpt><trkpt lat="42.0382167" lon="11.96521"><ele>60.99999999999999</ele><time>2026-05-03T10:15:35.5Z</time></trkpt><trkpt lat="42.038125" lon="11.965135"><ele>61.0</ele><time>2026-05-03T10:15:36.491Z</time></trkpt><trkpt lat="42.038025" lon="11.9650667"><ele>61.0</ele><time>2026-05-03T10:15:37.498Z</time></trkpt><trkpt lat="42.0379233" lon="11.965005"><ele>59.599999999999994</ele><time>2026-05-03T10:15:38.497Z</time></trkpt><trkpt lat="42.0378283" lon="11.9649583"><ele>58.199999999999996</ele><time>2026-05-03T10:15:39.493Z</time></trkpt><trkpt lat="42.0377517" lon="11.9649217"><ele>56.800000000000004</ele><time>2026-05-03T10:15:40.496Z</time></trkpt><trkpt lat="42.0376817" lon="11.9649"><ele>55.400000000000006</ele><time>2026-05-03T10:15:41.497Z</time></trkpt><trkpt lat="42.0375633" lon="11.9649383"><ele>54.0</ele><time>2026-05-03T10:15:43.492Z</time></trkpt><trkpt lat="42.03751" lon="11.9650117"><ele>51.0</ele><time>2026-05-03T10:15:44.495Z</time></trkpt><trkpt lat="42.03746" lon="11.965125"><ele>48.00000000000001</ele><time>2026-05-03T10:15:45.491Z</time></trkpt><trkpt lat="42.037405" lon="11.9652417"><ele>45.0</ele><time>2026-05-03T10:15:46.492Z</time></trkpt><trkpt lat="42.03734" lon="11.9653483"><ele>42.0</ele><time>2026-05-03T10:15:47.49Z</time></trkpt><trkpt lat="42.0372733" lon="11.9654383"><ele>39.0</ele><time>2026-05-03T10:15:48.497Z</time></trkpt><trkpt lat="42.0372183" lon="11.9655283"><ele>39.0</ele><time>2026-05-03T10:15:49.491Z</time></trkpt><trkpt lat="42.03717" lon="11.9656183"><ele>39.0</ele><time>2026-05-03T10:15:50.495Z</time></trkpt><trkpt lat="42.0371183" lon="11.965695"><ele>39.0</ele><time>2026-05-03T10:15:51.492Z</time></trkpt><trkpt lat="42.0370567" lon="11.9657533"><ele>39.0</ele><time>2026-05-03T10:15:52.488Z</time></trkpt><trkpt lat="42.0369833" lon="11.96579"><ele>39.0</ele><time>2026-05-03T10:15:53.496Z</time></trkpt><trkpt lat="42.0369067" lon="11.9658067"><ele>39.0</ele><time>2026-05-03T10:15:54.546Z</time></trkpt><trkpt lat="42.0368233" lon="11.965805"><ele>39.0</ele><time>2026-05-03T10:15:55.49Z</time></trkpt><trkpt lat="42.03673" lon="11.9658033"><ele>39.0</ele><time>2026-05-03T10:15:56.496Z</time></trkpt><trkpt lat="42.0366333" lon="11.9657967"><ele>39.0</ele><time>2026-05-03T10:15:57.487Z</time></trkpt><trkpt lat="42.036535" lon="11.965785"><ele>39.0</ele><time>2026-05-03T10:15:58.493Z</time></trkpt><trkpt lat="42.0364367" lon="11.9657767"><ele>39.0</ele><time>2026-05-03T10:15:59.495Z</time></trkpt><trkpt lat="42.0363367" lon="11.9657683"><ele>38.6</ele><time>2026-05-03T10:16:00.544Z</time></trkpt><trkpt lat="42.036235" lon="11.9657633"><ele>38.2</ele><time>2026-05-03T10:16:01.485Z</time></trkpt><trkpt lat="42.0361317" lon="11.96576"><ele>37.800000000000004</ele><time>2026-05-03T10:16:02.492Z</time></trkpt><trkpt lat="42.0360283" lon="11.96576"><ele>37.4</ele><time>2026-05-03T10:16:03.494Z</time></trkpt><trkpt lat="42.0359167" lon="11.96575"><ele>37.0</ele><time>2026-05-03T10:16:04.493Z</time></trkpt><trkpt lat="42.0358067" lon="11.9657367"><ele>37.0</ele><time>2026-05-03T10:16:05.494Z</time></trkpt><trkpt lat="42.035695" lon="11.9657183"><ele>37.0</ele><time>2026-05-03T10:16:06.49Z</time></trkpt><trkpt lat="42.0355883" lon="11.9657033"><ele>37.0</ele><time>2026-05-03T10:16:07.487Z</time></trkpt><trkpt lat="42.035485" lon="11.96569"><ele>37.0</ele><time>2026-05-03T10:16:08.491Z</time></trkpt><trkpt lat="42.03538" lon="11.965675"><ele>37.0</ele><time>2026-05-03T10:16:09.495Z</time></trkpt><trkpt lat="42.035275" lon="11.96566"><ele>37.0</ele><time>2026-05-03T10:16:10.494Z</time></trkpt><trkpt lat="42.0351667" lon="11.9656483"><ele>37.0</ele><time>2026-05-03T10:16:11.492Z</time></trkpt><trkpt lat="42.0350617" lon="11.9656333"><ele>37.0</ele><time>2026-05-03T10:16:12.493Z</time></trkpt><trkpt lat="42.0349533" lon="11.96562"><ele>37.0</ele><time>2026-05-03T10:16:13.491Z</time></trkpt><trkpt lat="42.0348467" lon="11.9656067"><ele>37.0</ele><time>2026-05-03T10:16:14.489Z</time></trkpt><trkpt lat="42.03474" lon="11.9655917"><ele>36.6</ele><time>2026-05-03T10:16:15.499Z</time></trkpt><trkpt lat="42.034635" lon="11.9655817"><ele>36.2</ele><time>2026-05-03T10:16:16.494Z</time></trkpt><trkpt lat="42.0345283" lon="11.9655683"><ele>35.8</ele><time>2026-05-03T10:16:17.495Z</time></trkpt><trkpt lat="42.0344233" lon="11.9655583"><ele>35.4</ele><time>2026-05-03T10:16:18.491Z</time></trkpt><trkpt lat="42.0343217" lon="11.965545"><ele>35.0</ele><time>2026-05-03T10:16:19.492Z</time></trkpt><trkpt lat="42.034215" lon="11.9655283"><ele>34.6</ele><time>2026-05-03T10:16:20.492Z</time></trkpt><trkpt lat="42.0341067" lon="11.9655117"><ele>34.2</ele><time>2026-05-03T10:16:21.49Z</time></trkpt><trkpt lat="42.034" lon="11.965495"><ele>33.8</ele><time>2026-05-03T10:16:22.491Z</time></trkpt><trkpt lat="42.03389" lon="11.9654817"><ele>33.4</ele><time>2026-05-03T10:16:23.498Z</time></trkpt><trkpt lat="42.0337817" lon="11.9654683"><ele>33.0</ele><time>2026-05-03T10:16:24.546Z</time></trkpt><trkpt lat="42.0336733" lon="11.96545"><ele>33.0</ele><time>2026-05-03T10:16:25.493Z</time></trkpt><trkpt lat="42.033565" lon="11.965435"><ele>33.0</ele><time>2026-05-03T10:16:26.49Z</time></trkpt><trkpt lat="42.0334533" lon="11.9654283"><ele>33.0</ele><time>2026-05-03T10:16:27.498Z</time></trkpt><trkpt lat="42.0333383" lon="11.9654283"><ele>33.0</ele><time>2026-05-03T10:16:28.495Z</time></trkpt><trkpt lat="42.033225" lon="11.965435"><ele>33.0</ele><time>2026-05-03T10:16:29.498Z</time></trkpt><trkpt lat="42.0331083" lon="11.9654383"><ele>32.6</ele><time>2026-05-03T10:16:30.51Z</time></trkpt><trkpt lat="42.032995" lon="11.9654483"><ele>32.199999999999996</ele><time>2026-05-03T10:16:31.496Z</time></trkpt><trkpt lat="42.0328833" lon="11.965465"><ele>31.8</ele><time>2026-05-03T10:16:32.493Z</time></trkpt><trkpt lat="42.032775" lon="11.9654883"><ele>31.4</ele><time>2026-05-03T10:16:33.496Z</time></trkpt><trkpt lat="42.032665" lon="11.9655217"><ele>31.0</ele><time>2026-05-03T10:16:34.496Z</time></trkpt><trkpt lat="42.032555" lon="11.9655567"><ele>30.25</ele><time>2026-05-03T10:16:35.494Z</time></trkpt><trkpt lat="42.0324417" lon="11.965595"><ele>29.5</ele><time>2026-05-03T10:16:36.491Z</time></trkpt><trkpt lat="42.0323333" lon="11.9656283"><ele>28.75</ele><time>2026-05-03T10:16:37.49Z</time></trkpt><trkpt lat="42.0322283" lon="11.9656717"><ele>28.0</ele><time>2026-05-03T10:16:38.49Z</time></trkpt><trkpt lat="42.0321183" lon="11.9657133"><ele>28.0</ele><time>2026-05-03T10:16:39.492Z</time></trkpt><trkpt lat="42.0320117" lon="11.9657467"><ele>27.999999999999996</ele><time>2026-05-03T10:16:40.492Z</time></trkpt><trkpt lat="42.0319033" lon="11.9657833"><ele>27.999999999999996</ele><time>2026-05-03T10:16:41.5Z</time></trkpt><trkpt lat="42.0317983" lon="11.96582"><ele>28.0</ele><time>2026-05-03T10:16:42.494Z</time></trkpt><trkpt lat="42.0317033" lon="11.9658633"><ele>28.0</ele><time>2026-05-03T10:16:43.499Z</time></trkpt><trkpt lat="42.0316183" lon="11.96592"><ele>28.0</ele><time>2026-05-03T10:16:44.496Z</time></trkpt><trkpt lat="42.03154" lon="11.9659967"><ele>27.999999999999996</ele><time>2026-05-03T10:16:45.492Z</time></trkpt><trkpt lat="42.0314633" lon="11.9660783"><ele>27.999999999999996</ele><time>2026-05-03T10:16:46.497Z</time></trkpt><trkpt lat="42.0313933" lon="11.9661633"><ele>28.0</ele><time>2026-05-03T10:16:47.496Z</time></trkpt><trkpt lat="42.0313233" lon="11.9662483"><ele>28.0</ele><time>2026-05-03T10:16:48.492Z</time></trkpt><trkpt lat="42.0312517" lon="11.96634"><ele>28.0</ele><time>2026-05-03T10:16:49.498Z</time></trkpt><trkpt lat="42.0311767" lon="11.9664333"><ele>27.999999999999996</ele><time>2026-05-03T10:16:50.493Z</time></trkpt><trkpt lat="42.0311017" lon="11.9665283"><ele>27.999999999999996</ele><time>2026-05-03T10:16:51.495Z</time></trkpt><trkpt lat="42.0310267" lon="11.9666233"><ele>28.0</ele><time>2026-05-03T10:16:52.496Z</time></trkpt><trkpt lat="42.0309517" lon="11.966715"><ele>28.0</ele><time>2026-05-03T10:16:53.494Z</time></trkpt><trkpt lat="42.0308767" lon="11.966805"><ele>27.799999999999997</ele><time>2026-05-03T10:16:54.547Z</time></trkpt><trkpt lat="42.0308" lon="11.9668933"><ele>27.599999999999998</ele><time>2026-05-03T10:16:55.493Z</time></trkpt><trkpt lat="42.0307217" lon="11.9669767"><ele>27.400000000000002</ele><time>2026-05-03T10:16:56.495Z</time></trkpt><trkpt lat="42.0306383" lon="11.967055"><ele>27.200000000000003</ele><time>2026-05-03T10:16:57.5Z</time></trkpt><trkpt lat="42.0305433" lon="11.9671317"><ele>27.0</ele><time>2026-05-03T10:16:58.499Z</time></trkpt><trkpt lat="42.0304467" lon="11.9672033"><ele>27.0</ele><time>2026-05-03T10:16:59.488Z</time></trkpt><trkpt lat="42.0303533" lon="11.9672533"><ele>27.000000000000004</ele><time>2026-05-03T10:17:00.541Z</time></trkpt><trkpt lat="42.0302517" lon="11.9672883"><ele>27.000000000000004</ele><time>2026-05-03T10:17:01.499Z</time></trkpt><trkpt lat="42.0301433" lon="11.9673117"><ele>27.0</ele><time>2026-05-03T10:17:02.492Z</time></trkpt><trkpt lat="42.0300467" lon="11.9673133"><ele>27.0</ele><time>2026-05-03T10:17:03.497Z</time></trkpt><trkpt lat="42.0299417" lon="11.9672983"><ele>26.200000000000003</ele><time>2026-05-03T10:17:04.489Z</time></trkpt><trkpt lat="42.0298367" lon="11.9672783"><ele>25.400000000000002</ele><time>2026-05-03T10:17:05.499Z</time></trkpt><trkpt lat="42.029745" lon="11.9672617"><ele>24.6</ele><time>2026-05-03T10:17:06.488Z</time></trkpt><trkpt lat="42.0296617" lon="11.9672433"><ele>23.799999999999997</ele><time>2026-05-03T10:17:07.495Z</time></trkpt><trkpt lat="42.029575" lon="11.9672217"><ele>23.0</ele><time>2026-05-03T10:17:08.495Z</time></trkpt><trkpt lat="42.0294833" lon="11.9672"><ele>23.0</ele><time>2026-05-03T10:17:09.489Z</time></trkpt><trkpt lat="42.0293867" lon="11.9671767"><ele>23.0</ele><time>2026-05-03T10:17:10.489Z</time></trkpt><trkpt lat="42.0292817" lon="11.967155"><ele>23.0</ele><time>2026-05-03T10:17:11.494Z</time></trkpt><trkpt lat="42.0291833" lon="11.9671333"><ele>23.0</ele><time>2026-05-03T10:17:12.494Z</time></trkpt><trkpt lat="42.0290867" lon="11.9671167"><ele>23.0</ele><time>2026-05-03T10:17:13.492Z</time></trkpt><trkpt lat="42.0289833" lon="11.9670983"><ele>22.799999999999997</ele><time>2026-05-03T10:17:14.492Z</time></trkpt><trkpt lat="42.02888" lon="11.9670817"><ele>22.6</ele><time>2026-05-03T10:17:15.49Z</time></trkpt><trkpt lat="42.02878" lon="11.9670683"><ele>22.4</ele><time>2026-05-03T10:17:16.491Z</time></trkpt><trkpt lat="42.028675" lon="11.9670533"><ele>22.200000000000003</ele><time>2026-05-03T10:17:17.492Z</time></trkpt><trkpt lat="42.0285667" lon="11.9670467"><ele>22.0</ele><time>2026-05-03T10:17:18.495Z</time></trkpt><trkpt lat="42.028455" lon="11.9670467"><ele>22.0</ele><time>2026-05-03T10:17:19.5Z</time></trkpt><trkpt lat="42.0283433" lon="11.9670517"><ele>22.0</ele><time>2026-05-03T10:17:20.497Z</time></trkpt><trkpt lat="42.0282267" lon="11.967055"><ele>22.0</ele><time>2026-05-03T10:17:21.495Z</time></trkpt><trkpt lat="42.0281033" lon="11.9670633"><ele>22.0</ele><time>2026-05-03T10:17:22.498Z</time></trkpt><trkpt lat="42.0279817" lon="11.96708"><ele>22.25</ele><time>2026-05-03T10:17:23.491Z</time></trkpt><trkpt lat="42.0278633" lon="11.9671033"><ele>22.5</ele><time>2026-05-03T10:17:24.558Z</time></trkpt><trkpt lat="42.0277483" lon="11.9671367"><ele>22.75</ele><time>2026-05-03T10:17:25.49Z</time></trkpt><trkpt lat="42.0276267" lon="11.9671783"><ele>23.0</ele><time>2026-05-03T10:17:26.493Z</time></trkpt><trkpt lat="42.02749" lon="11.9672233"><ele>22.5</ele><time>2026-05-03T10:17:27.495Z</time></trkpt><trkpt lat="42.02734" lon="11.967275"><ele>22.0</ele><time>2026-05-03T10:17:28.494Z</time></trkpt><trkpt lat="42.0272067" lon="11.96732"><ele>21.5</ele><time>2026-05-03T10:17:29.494Z</time></trkpt><trkpt lat="42.027085" lon="11.9673617"><ele>21.0</ele><time>2026-05-03T10:17:30.548Z</time></trkpt><trkpt lat="42.0269717" lon="11.9674"><ele>21.0</ele><time>2026-05-03T10:17:31.497Z</time></trkpt><trkpt lat="42.0268533" lon="11.96744"><ele>21.0</ele><time>2026-05-03T10:17:32.497Z</time></trkpt><trkpt lat="42.0267233" lon="11.9674833"><ele>21.0</ele><time>2026-05-03T10:17:33.489Z</time></trkpt><trkpt lat="42.026575" lon="11.967535"><ele>21.0</ele><time>2026-05-03T10:17:34.493Z</time></trkpt><trkpt lat="42.0264167" lon="11.9675917"><ele>21.333333333333332</ele><time>2026-05-03T10:17:35.493Z</time></trkpt><trkpt lat="42.0262433" lon="11.9676533"><ele>21.666666666666664</ele><time>2026-05-03T10:17:36.496Z</time></trkpt><trkpt lat="42.0260583" lon="11.9677133"><ele>22.0</ele><time>2026-05-03T10:17:37.488Z</time></trkpt><trkpt lat="42.0258617" lon="11.9677817"><ele>22.0</ele><time>2026-05-03T10:17:38.493Z</time></trkpt><trkpt lat="42.02565" lon="11.96785"><ele>22.0</ele><time>2026-05-03T10:17:39.497Z</time></trkpt><trkpt lat="42.02543" lon="11.9679283"><ele>22.0</ele><time>2026-05-03T10:17:40.489Z</time></trkpt><trkpt lat="42.0252017" lon="11.968005"><ele>22.0</ele><time>2026-05-03T10:17:41.491Z</time></trkpt><trkpt lat="42.02498" lon="11.9680783"><ele>22.0</ele><time>2026-05-03T10:17:42.495Z</time></trkpt><trkpt lat="42.0247833" lon="11.9681483"><ele>22.0</ele><time>2026-05-03T10:17:43.492Z</time></trkpt><trkpt lat="42.0246117" lon="11.9682167"><ele>22.0</ele><time>2026-05-03T10:17:44.496Z</time></trkpt><trkpt lat="42.024465" lon="11.968285"><ele>22.0</ele><time>2026-05-03T10:17:45.499Z</time></trkpt><trkpt lat="42.0243433" lon="11.9683533"><ele>22.0</ele><time>2026-05-03T10:17:46.492Z</time></trkpt><trkpt lat="42.0242317" lon="11.9684167"><ele>22.0</ele><time>2026-05-03T10:17:47.5Z</time></trkpt><trkpt lat="42.0241333" lon="11.9684783"><ele>21.6</ele><time>2026-05-03T10:17:48.495Z</time></trkpt><trkpt lat="42.0240433" lon="11.9685367"><ele>21.200000000000003</ele><time>2026-05-03T10:17:49.495Z</time></trkpt><trkpt lat="42.0239567" lon="11.9685967"><ele>20.8</ele><time>2026-05-03T10:17:50.493Z</time></trkpt><trkpt lat="42.02387" lon="11.9686617"><ele>20.4</ele><time>2026-05-03T10:17:51.497Z</time></trkpt><trkpt lat="42.02378" lon="11.9687333"><ele>20.0</ele><time>2026-05-03T10:17:52.489Z</time></trkpt><trkpt lat="42.023695" lon="11.9688033"><ele>20.0</ele><time>2026-05-03T10:17:53.491Z</time></trkpt><trkpt lat="42.023625" lon="11.96887"><ele>20.0</ele><time>2026-05-03T10:17:54.561Z</time></trkpt><trkpt lat="42.0235617" lon="11.9689367"><ele>20.0</ele><time>2026-05-03T10:17:55.496Z</time></trkpt><trkpt lat="42.0235033" lon="11.96899"><ele>20.0</ele><time>2026-05-03T10:17:56.499Z</time></trkpt><trkpt lat="42.023405" lon="11.969015"><ele>20.0</ele><time>2026-05-03T10:17:58.49Z</time></trkpt><trkpt lat="42.0232933" lon="11.968935"><ele>19.666666666666668</ele><time>2026-05-03T10:18:00.555Z</time></trkpt><trkpt lat="42.0232267" lon="11.968875"><ele>19.333333333333336</ele><time>2026-05-03T10:18:01.49Z</time></trkpt><trkpt lat="42.023165" lon="11.9688083"><ele>19.0</ele><time>2026-05-03T10:18:02.491Z</time></trkpt><trkpt lat="42.023105" lon="11.9687383"><ele>18.666666666666668</ele><time>2026-05-03T10:18:03.493Z</time></trkpt><trkpt lat="42.023035" lon="11.96866"><ele>18.333333333333332</ele><time>2026-05-03T10:18:04.491Z</time></trkpt><trkpt lat="42.0229483" lon="11.96858"><ele>18.0</ele><time>2026-05-03T10:18:05.493Z</time></trkpt><trkpt lat="42.022855" lon="11.9685033"><ele>18.0</ele><time>2026-05-03T10:18:06.489Z</time></trkpt><trkpt lat="42.02276" lon="11.9684267"><ele>18.0</ele><time>2026-05-03T10:18:07.494Z</time></trkpt><trkpt lat="42.0226667" lon="11.9683517"><ele>18.0</ele><time>2026-05-03T10:18:08.491Z</time></trkpt><trkpt lat="42.0225733" lon="11.96828"><ele>18.0</ele><time>2026-05-03T10:18:09.491Z</time></trkpt><trkpt lat="42.0224833" lon="11.968215"><ele>18.0</ele><time>2026-05-03T10:18:10.489Z</time></trkpt><trkpt lat="42.022405" lon="11.96815"><ele>17.333333333333332</ele><time>2026-05-03T10:18:11.493Z</time></trkpt><trkpt lat="42.0223383" lon="11.968085"><ele>16.666666666666668</ele><time>2026-05-03T10:18:12.493Z</time></trkpt><trkpt lat="42.0222833" lon="11.968015"><ele>16.0</ele><time>2026-05-03T10:18:13.497Z</time></trkpt><trkpt lat="42.0222267" lon="11.9679517"><ele>15.333333333333334</ele><time>2026-05-03T10:18:14.491Z</time></trkpt><trkpt lat="42.02216" lon="11.9678983"><ele>14.666666666666668</ele><time>2026-05-03T10:18:15.492Z</time></trkpt><trkpt lat="42.022085" lon="11.9678417"><ele>14.0</ele><time>2026-05-03T10:18:16.497Z</time></trkpt><trkpt lat="42.022005" lon="11.96778"><ele>14.0</ele><time>2026-05-03T10:18:17.494Z</time></trkpt><trkpt lat="42.0219233" lon="11.9677183"><ele>13.999999999999998</ele><time>2026-05-03T10:18:18.497Z</time></trkpt><trkpt lat="42.021845" lon="11.9676583"><ele>13.999999999999998</ele><time>2026-05-03T10:18:19.492Z</time></trkpt><trkpt lat="42.02177" lon="11.9675967"><ele>14.0</ele><time>2026-05-03T10:18:20.49Z</time></trkpt><trkpt lat="42.021715" lon="11.967535"><ele>14.0</ele><time>2026-05-03T10:18:21.503Z</time></trkpt><trkpt lat="42.0216733" lon="11.9673933"><ele>13.75</ele><time>2026-05-03T10:18:23.491Z</time></trkpt><trkpt lat="42.0217083" lon="11.967285"><ele>13.5</ele><time>2026-05-03T10:18:25.493Z</time></trkpt><trkpt lat="42.0216217" lon="11.967465"><ele>13.25</ele><time>2026-05-03T10:38:52.495Z</time></trkpt><trkpt lat="42.0215617" lon="11.9675817"><ele>13.0</ele><time>2026-05-03T10:39:08.5Z</time></trkpt><trkpt lat="42.021525" lon="11.9677083"><ele>13.0</ele><time>2026-05-03T10:39:29.495Z</time></trkpt><trkpt lat="42.021495" lon="11.9678517"><ele>13.0</ele><time>2026-05-03T10:39:45.485Z</time></trkpt></trkseg></trk></gpx>